<?xml version='1.0' encoding='UTF-8'?><gpx version="1.1" creator="JPX - https://github.com/jenetics/jpx" xmlns="http://www.topografix.com/GPX/1/1"><trk><trkseg><trkpt lat="43.9741522" lon="8.1596871"><ele>6.0</ele><time>2026-05-02T15:41:03.437Z</time></trkpt><trkpt lat="43.9741081" lon="8.1595734"><ele>6.0</ele><time>2026-05-02T15:41:25.436Z</time></trkpt><trkpt lat="43.9741532" lon="8.1595044"><ele>6.0</ele><time>2026-05-02T15:41:33.456Z</time></trkpt><trkpt lat="43.9741967" lon="8.1594263"><ele>6.0</ele><time>2026-05-02T15:54:13.359Z</time></trkpt><trkpt lat="43.974267" lon="8.1593984"><ele>6.0</ele><time>2026-05-02T15:54:18.436Z</time></trkpt><trkpt lat="43.9744" lon="8.1593783"><ele>6.0</ele><time>2026-05-02T15:57:03.355Z</time></trkpt><trkpt lat="43.9745" lon="8.1593183"><ele>5.833333333333333</ele><time>2026-05-02T15:57:05.354Z</time></trkpt><trkpt lat="43.9745967" lon="8.1592083"><ele>5.666666666666667</ele><time>2026-05-02T15:57:07.357Z</time></trkpt><trkpt lat="43.97464" lon="8.159135"><ele>5.5</ele><time>2026-05-02T15:57:08.353Z</time></trkpt><trkpt lat="43.9746883" lon="8.15905"><ele>5.333333333333334</ele><time>2026-05-02T15:57:09.354Z</time></trkpt><trkpt lat="43.97473" lon="8.158965"><ele>5.166666666666667</ele><time>2026-05-02T15:57:10.351Z</time></trkpt><trkpt lat="43.9747733" lon="8.15888"><ele>5.0</ele><time>2026-05-02T15:57:11.357Z</time></trkpt><trkpt lat="43.9748217" lon="8.158785"><ele>5.5</ele><time>2026-05-02T15:57:12.355Z</time></trkpt><trkpt lat="43.9748733" lon="8.15869"><ele>6.0</ele><time>2026-05-02T15:57:13.35Z</time></trkpt><trkpt lat="43.9749267" lon="8.1586"><ele>6.5</ele><time>2026-05-02T15:57:14.351Z</time></trkpt><trkpt lat="43.97498" lon="8.1585117"><ele>7.0</ele><time>2026-05-02T15:57:15.351Z</time></trkpt><trkpt lat="43.9750367" lon="8.15843"><ele>7.499999999999999</ele><time>2026-05-02T15:57:16.352Z</time></trkpt><trkpt lat="43.9751033" lon="8.15836"><ele>8.0</ele><time>2026-05-02T15:57:17.353Z</time></trkpt><trkpt lat="43.9751667" lon="8.1582967"><ele>7.999999999999999</ele><time>2026-05-02T15:57:18.352Z</time></trkpt><trkpt lat="43.97524" lon="8.158245"><ele>8.0</ele><time>2026-05-02T15:57:19.353Z</time></trkpt><trkpt lat="43.9753217" lon="8.15821"><ele>8.0</ele><time>2026-05-02T15:57:20.352Z</time></trkpt><trkpt lat="43.97541" lon="8.1581883"><ele>8.0</ele><time>2026-05-02T15:57:21.357Z</time></trkpt><trkpt lat="43.9754983" lon="8.1581717"><ele>7.999999999999999</ele><time>2026-05-02T15:57:22.353Z</time></trkpt><trkpt lat="43.9755917" lon="8.15816"><ele>8.0</ele><time>2026-05-02T15:57:23.356Z</time></trkpt><trkpt lat="43.9756867" lon="8.1581467"><ele>8.600000000000001</ele><time>2026-05-02T15:57:24.354Z</time></trkpt><trkpt lat="43.9757817" lon="8.158125"><ele>9.200000000000001</ele><time>2026-05-02T15:57:25.353Z</time></trkpt><trkpt lat="43.9758767" lon="8.1581117"><ele>9.8</ele><time>2026-05-02T15:57:26.355Z</time></trkpt><trkpt lat="43.9759783" lon="8.15809"><ele>10.4</ele><time>2026-05-02T15:57:27.349Z</time></trkpt><trkpt lat="43.97608" lon="8.1580717"><ele>11.0</ele><time>2026-05-02T15:57:28.35Z</time></trkpt><trkpt lat="43.9761867" lon="8.1580483"><ele>11.0</ele><time>2026-05-02T15:57:29.352Z</time></trkpt><trkpt lat="43.9762933" lon="8.158025"><ele>11.0</ele><time>2026-05-02T15:57:30.355Z</time></trkpt><trkpt lat="43.9764033" lon="8.158005"><ele>11.0</ele><time>2026-05-02T15:57:31.355Z</time></trkpt><trkpt lat="43.9765133" lon="8.1579883"><ele>11.0</ele><time>2026-05-02T15:57:32.352Z</time></trkpt><trkpt lat="43.976625" lon="8.1579717"><ele>11.0</ele><time>2026-05-02T15:57:33.355Z</time></trkpt><trkpt lat="43.976735" lon="8.1579533"><ele>11.0</ele><time>2026-05-02T15:57:34.353Z</time></trkpt><trkpt lat="43.9768517" lon="8.1579317"><ele>11.0</ele><time>2026-05-02T15:57:35.356Z</time></trkpt><trkpt lat="43.9769667" lon="8.1579183"><ele>11.0</ele><time>2026-05-02T15:57:36.35Z</time></trkpt><trkpt lat="43.9770817" lon="8.1579"><ele>11.0</ele><time>2026-05-02T15:57:37.355Z</time></trkpt><trkpt lat="43.9771983" lon="8.1578783"><ele>11.0</ele><time>2026-05-02T15:57:38.351Z</time></trkpt><trkpt lat="43.9773083" lon="8.1578633"><ele>11.0</ele><time>2026-05-02T15:57:39.354Z</time></trkpt><trkpt lat="43.977425" lon="8.1578417"><ele>11.0</ele><time>2026-05-02T15:57:40.353Z</time></trkpt><trkpt lat="43.9775417" lon="8.1578333"><ele>11.0</ele><time>2026-05-02T15:57:41.353Z</time></trkpt><trkpt lat="43.97766" lon="8.1578167"><ele>11.0</ele><time>2026-05-02T15:57:42.351Z</time></trkpt><trkpt lat="43.97778" lon="8.157815"><ele>11.0</ele><time>2026-05-02T15:57:43.354Z</time></trkpt><trkpt lat="43.9779033" lon="8.1578233"><ele>11.0</ele><time>2026-05-02T15:57:44.352Z</time></trkpt><trkpt lat="43.97802" lon="8.1578467"><ele>11.0</ele><time>2026-05-02T15:57:45.351Z</time></trkpt><trkpt lat="43.97813" lon="8.1578667"><ele>11.0</ele><time>2026-05-02T15:57:46.353Z</time></trkpt><trkpt lat="43.97823" lon="8.1578883"><ele>11.0</ele><time>2026-05-02T15:57:47.35Z</time></trkpt><trkpt lat="43.9783317" lon="8.1579083"><ele>11.0</ele><time>2026-05-02T15:57:48.35Z</time></trkpt><trkpt lat="43.978425" lon="8.1579317"><ele>11.0</ele><time>2026-05-02T15:57:49.35Z</time></trkpt><trkpt lat="43.978515" lon="8.157955"><ele>11.0</ele><time>2026-05-02T15:57:50.349Z</time></trkpt><trkpt lat="43.9785933" lon="8.1579867"><ele>13.0</ele><time>2026-05-02T15:57:51.351Z</time></trkpt><trkpt lat="43.9786767" lon="8.158015"><ele>15.0</ele><time>2026-05-02T15:57:52.354Z</time></trkpt><trkpt lat="43.9787683" lon="8.1580367"><ele>17.0</ele><time>2026-05-02T15:57:53.352Z</time></trkpt><trkpt lat="43.9788617" lon="8.1580617"><ele>19.0</ele><time>2026-05-02T15:57:54.352Z</time></trkpt><trkpt lat="43.978955" lon="8.1580883"><ele>21.0</ele><time>2026-05-02T15:57:55.354Z</time></trkpt><trkpt lat="43.9790417" lon="8.158115"><ele>21.0</ele><time>2026-05-02T15:57:56.355Z</time></trkpt><trkpt lat="43.9791233" lon="8.1581433"><ele>21.0</ele><time>2026-05-02T15:57:57.355Z</time></trkpt><trkpt lat="43.9792067" lon="8.1581683"><ele>21.0</ele><time>2026-05-02T15:57:58.352Z</time></trkpt><trkpt lat="43.9792883" lon="8.1581983"><ele>21.0</ele><time>2026-05-02T15:57:59.355Z</time></trkpt><trkpt lat="43.97937" lon="8.1582267"><ele>21.0</ele><time>2026-05-02T15:58:00.352Z</time></trkpt><trkpt lat="43.9794533" lon="8.1582467"><ele>21.0</ele><time>2026-05-02T15:58:01.353Z</time></trkpt><trkpt lat="43.9795367" lon="8.158275"><ele>19.166666666666668</ele><time>2026-05-02T15:58:02.354Z</time></trkpt><trkpt lat="43.9796217" lon="8.1583017"><ele>17.333333333333332</ele><time>2026-05-02T15:58:03.35Z</time></trkpt><trkpt lat="43.9797033" lon="8.1583267"><ele>15.5</ele><time>2026-05-02T15:58:04.352Z</time></trkpt><trkpt lat="43.9797917" lon="8.1583433"><ele>13.666666666666668</ele><time>2026-05-02T15:58:05.353Z</time></trkpt><trkpt lat="43.9798833" lon="8.1583717"><ele>11.833333333333334</ele><time>2026-05-02T15:58:06.351Z</time></trkpt><trkpt lat="43.9799767" lon="8.1584"><ele>10.0</ele><time>2026-05-02T15:58:07.353Z</time></trkpt><trkpt lat="43.980075" lon="8.1584317"><ele>10.0</ele><time>2026-05-02T15:58:08.348Z</time></trkpt><trkpt lat="43.9801733" lon="8.1584633"><ele>10.0</ele><time>2026-05-02T15:58:09.351Z</time></trkpt><trkpt lat="43.9802717" lon="8.158495"><ele>10.0</ele><time>2026-05-02T15:58:10.349Z</time></trkpt><trkpt lat="43.98037" lon="8.158525"><ele>10.0</ele><time>2026-05-02T15:58:11.353Z</time></trkpt><trkpt lat="43.98047" lon="8.1585567"><ele>10.0</ele><time>2026-05-02T15:58:12.349Z</time></trkpt><trkpt lat="43.980565" lon="8.1585817"><ele>10.0</ele><time>2026-05-02T15:58:13.354Z</time></trkpt><trkpt lat="43.980645" lon="8.158605"><ele>10.0</ele><time>2026-05-02T15:58:14.35Z</time></trkpt><trkpt lat="43.9807083" lon="8.158625"><ele>10.0</ele><time>2026-05-02T15:58:15.354Z</time></trkpt><trkpt lat="43.9808133" lon="8.1586667"><ele>10.0</ele><time>2026-05-02T15:58:17.351Z</time></trkpt><trkpt lat="43.9809217" lon="8.1587233"><ele>10.0</ele><time>2026-05-02T15:58:19.352Z</time></trkpt><trkpt lat="43.9809967" lon="8.15876"><ele>11.666666666666668</ele><time>2026-05-02T15:58:20.354Z</time></trkpt><trkpt lat="43.98109" lon="8.15881"><ele>13.333333333333334</ele><time>2026-05-02T15:58:21.351Z</time></trkpt><trkpt lat="43.9811817" lon="8.15886"><ele>15.0</ele><time>2026-05-02T15:58:22.355Z</time></trkpt><trkpt lat="43.9812667" lon="8.1589033"><ele>16.666666666666668</ele><time>2026-05-02T15:58:23.352Z</time></trkpt><trkpt lat="43.9813417" lon="8.1589333"><ele>18.333333333333336</ele><time>2026-05-02T15:58:24.352Z</time></trkpt><trkpt lat="43.9814167" lon="8.158955"><ele>20.0</ele><time>2026-05-02T15:58:25.352Z</time></trkpt><trkpt lat="43.9814933" lon="8.1589683"><ele>20.0</ele><time>2026-05-02T15:58:26.35Z</time></trkpt><trkpt lat="43.98159" lon="8.1589867"><ele>20.0</ele><time>2026-05-02T15:58:28.353Z</time></trkpt><trkpt lat="43.9816617" lon="8.1590017"><ele>20.0</ele><time>2026-05-02T15:58:33.355Z</time></trkpt><trkpt lat="43.9817917" lon="8.1590533"><ele>20.0</ele><time>2026-05-02T15:58:35.352Z</time></trkpt><trkpt lat="43.9818883" lon="8.1590767"><ele>20.0</ele><time>2026-05-02T15:58:36.352Z</time></trkpt><trkpt lat="43.981995" lon="8.1591017"><ele>17.25</ele><time>2026-05-02T15:58:37.351Z</time></trkpt><trkpt lat="43.98211" lon="8.159125"><ele>14.5</ele><time>2026-05-02T15:58:38.353Z</time></trkpt><trkpt lat="43.9822317" lon="8.15915"><ele>11.75</ele><time>2026-05-02T15:58:39.353Z</time></trkpt><trkpt lat="43.9823633" lon="8.159175"><ele>9.0</ele><time>2026-05-02T15:58:40.357Z</time></trkpt><trkpt lat="43.982505" lon="8.1592083"><ele>9.5</ele><time>2026-05-02T15:58:41.35Z</time></trkpt><trkpt lat="43.9826517" lon="8.159245"><ele>10.0</ele><time>2026-05-02T15:58:42.352Z</time></trkpt><trkpt lat="43.9827983" lon="8.1592833"><ele>10.5</ele><time>2026-05-02T15:58:43.351Z</time></trkpt><trkpt lat="43.9829467" lon="8.1593183"><ele>11.0</ele><time>2026-05-02T15:58:44.356Z</time></trkpt><trkpt lat="43.9830967" lon="8.1593533"><ele>11.0</ele><time>2026-05-02T15:58:45.349Z</time></trkpt><trkpt lat="43.9832533" lon="8.1593917"><ele>11.0</ele><time>2026-05-02T15:58:46.354Z</time></trkpt><trkpt lat="43.9834083" lon="8.15943"><ele>11.0</ele><time>2026-05-02T15:58:47.349Z</time></trkpt><trkpt lat="43.9835683" lon="8.1594683"><ele>11.333333333333332</ele><time>2026-05-02T15:58:48.348Z</time></trkpt><trkpt lat="43.9837367" lon="8.1595017"><ele>11.666666666666666</ele><time>2026-05-02T15:58:49.353Z</time></trkpt><trkpt lat="43.98391" lon="8.1595367"><ele>12.0</ele><time>2026-05-02T15:58:50.351Z</time></trkpt><trkpt lat="43.9840883" lon="8.1595733"><ele>15.0</ele><time>2026-05-02T15:58:51.434Z</time></trkpt><trkpt lat="43.9842767" lon="8.1596133"><ele>18.0</ele><time>2026-05-02T15:58:52.354Z</time></trkpt><trkpt lat="43.9844633" lon="8.1596633"><ele>21.0</ele><time>2026-05-02T15:58:53.35Z</time></trkpt><trkpt lat="43.9846533" lon="8.15972"><ele>21.0</ele><time>2026-05-02T15:58:54.353Z</time></trkpt><trkpt lat="43.9848417" lon="8.1597733"><ele>21.0</ele><time>2026-05-02T15:58:55.351Z</time></trkpt><trkpt lat="43.9850267" lon="8.15982"><ele>21.0</ele><time>2026-05-02T15:58:56.353Z</time></trkpt><trkpt lat="43.9852133" lon="8.1598583"><ele>16.666666666666668</ele><time>2026-05-02T15:58:57.353Z</time></trkpt><trkpt lat="43.9854" lon="8.1599"><ele>12.333333333333332</ele><time>2026-05-02T15:58:58.354Z</time></trkpt><trkpt lat="43.9855867" lon="8.159945"><ele>8.0</ele><time>2026-05-02T15:58:59.351Z</time></trkpt><trkpt lat="43.9857717" lon="8.1599917"><ele>9.666666666666666</ele><time>2026-05-02T15:59:00.352Z</time></trkpt><trkpt lat="43.9859517" lon="8.160045"><ele>11.333333333333332</ele><time>2026-05-02T15:59:01.353Z</time></trkpt><trkpt lat="43.9861267" lon="8.1600983"><ele>13.0</ele><time>2026-05-02T15:59:02.353Z</time></trkpt><trkpt lat="43.9863" lon="8.1601583"><ele>13.0</ele><time>2026-05-02T15:59:03.352Z</time></trkpt><trkpt lat="43.98647" lon="8.160225"><ele>13.0</ele><time>2026-05-02T15:59:04.35Z</time></trkpt><trkpt lat="43.9866283" lon="8.1602917"><ele>13.0</ele><time>2026-05-02T15:59:05.353Z</time></trkpt><trkpt lat="43.9867733" lon="8.1603567"><ele>15.75</ele><time>2026-05-02T15:59:06.353Z</time></trkpt><trkpt lat="43.9869033" lon="8.1604183"><ele>18.5</ele><time>2026-05-02T15:59:07.354Z</time></trkpt><trkpt lat="43.98702" lon="8.1604733"><ele>21.25</ele><time>2026-05-02T15:59:08.357Z</time></trkpt><trkpt lat="43.987135" lon="8.1605267"><ele>24.0</ele><time>2026-05-02T15:59:09.354Z</time></trkpt><trkpt lat="43.9872483" lon="8.16058"><ele>24.0</ele><time>2026-05-02T15:59:10.352Z</time></trkpt><trkpt lat="43.9873583" lon="8.1606333"><ele>24.0</ele><time>2026-05-02T15:59:11.354Z</time></trkpt><trkpt lat="43.987465" lon="8.1606883"><ele>24.0</ele><time>2026-05-02T15:59:12.351Z</time></trkpt><trkpt lat="43.9875683" lon="8.160745"><ele>24.0</ele><time>2026-05-02T15:59:13.356Z</time></trkpt><trkpt lat="43.9876767" lon="8.1608"><ele>22.25</ele><time>2026-05-02T15:59:14.354Z</time></trkpt><trkpt lat="43.987785" lon="8.160855"><ele>20.5</ele><time>2026-05-02T15:59:15.353Z</time></trkpt><trkpt lat="43.98789" lon="8.1609117"><ele>18.75</ele><time>2026-05-02T15:59:16.354Z</time></trkpt><trkpt lat="43.987995" lon="8.1609683"><ele>17.0</ele><time>2026-05-02T15:59:17.35Z</time></trkpt><trkpt lat="43.9880983" lon="8.16102"><ele>17.0</ele><time>2026-05-02T15:59:18.354Z</time></trkpt><trkpt lat="43.988205" lon="8.1610733"><ele>17.0</ele><time>2026-05-02T15:59:19.354Z</time></trkpt><trkpt lat="43.9883217" lon="8.1611317"><ele>17.0</ele><time>2026-05-02T15:59:20.351Z</time></trkpt><trkpt lat="43.988445" lon="8.1611983"><ele>17.0</ele><time>2026-05-02T15:59:21.354Z</time></trkpt><trkpt lat="43.9885767" lon="8.1612667"><ele>22.5</ele><time>2026-05-02T15:59:22.353Z</time></trkpt><trkpt lat="43.9887083" lon="8.1613317"><ele>28.0</ele><time>2026-05-02T15:59:23.352Z</time></trkpt><trkpt lat="43.98883" lon="8.16139"><ele>33.5</ele><time>2026-05-02T15:59:24.353Z</time></trkpt><trkpt lat="43.9889517" lon="8.1614433"><ele>39.0</ele><time>2026-05-02T15:59:25.353Z</time></trkpt><trkpt lat="43.9890783" lon="8.1615067"><ele>34.666666666666664</ele><time>2026-05-02T15:59:26.354Z</time></trkpt><trkpt lat="43.989215" lon="8.1615767"><ele>30.333333333333332</ele><time>2026-05-02T15:59:27.353Z</time></trkpt><trkpt lat="43.9893717" lon="8.161655"><ele>26.0</ele><time>2026-05-02T15:59:28.353Z</time></trkpt><trkpt lat="43.9895467" lon="8.16175"><ele>26.0</ele><time>2026-05-02T15:59:29.354Z</time></trkpt><trkpt lat="43.9897417" lon="8.1618733"><ele>26.0</ele><time>2026-05-02T15:59:30.358Z</time></trkpt><trkpt lat="43.989955" lon="8.1620117"><ele>46.0</ele><time>2026-05-02T15:59:31.351Z</time></trkpt><trkpt lat="43.990175" lon="8.1621533"><ele>66.0</ele><time>2026-05-02T15:59:32.354Z</time></trkpt><trkpt lat="43.990385" lon="8.1622917"><ele>52.333333333333336</ele><time>2026-05-02T15:59:33.349Z</time></trkpt><trkpt lat="43.9905833" lon="8.1624217"><ele>38.66666666666667</ele><time>2026-05-02T15:59:34.356Z</time></trkpt><trkpt lat="43.9907783" lon="8.1625317"><ele>25.0</ele><time>2026-05-02T15:59:35.353Z</time></trkpt><trkpt lat="43.99097" lon="8.1626183"><ele>25.0</ele><time>2026-05-02T15:59:36.351Z</time></trkpt><trkpt lat="43.9911617" lon="8.1626883"><ele>25.0</ele><time>2026-05-02T15:59:37.351Z</time></trkpt><trkpt lat="43.9913567" lon="8.1627433"><ele>25.0</ele><time>2026-05-02T15:59:38.353Z</time></trkpt><trkpt lat="43.9915517" lon="8.1627867"><ele>26.333333333333336</ele><time>2026-05-02T15:59:39.355Z</time></trkpt><trkpt lat="43.9917533" lon="8.16282"><ele>27.666666666666664</ele><time>2026-05-02T15:59:40.355Z</time></trkpt><trkpt lat="43.9919533" lon="8.1628433"><ele>29.0</ele><time>2026-05-02T15:59:41.351Z</time></trkpt><trkpt lat="43.9921533" lon="8.1628633"><ele>29.0</ele><time>2026-05-02T15:59:42.352Z</time></trkpt><trkpt lat="43.9923467" lon="8.1628867"><ele>29.0</ele><time>2026-05-02T15:59:43.357Z</time></trkpt><trkpt lat="43.9925383" lon="8.1629183"><ele>29.0</ele><time>2026-05-02T15:59:44.354Z</time></trkpt><trkpt lat="43.9927233" lon="8.1629583"><ele>29.0</ele><time>2026-05-02T15:59:45.355Z</time></trkpt><trkpt lat="43.99291" lon="8.1630033"><ele>29.0</ele><time>2026-05-02T15:59:46.352Z</time></trkpt><trkpt lat="43.9930933" lon="8.1630617"><ele>29.0</ele><time>2026-05-02T15:59:47.353Z</time></trkpt><trkpt lat="43.9932733" lon="8.1631367"><ele>22.666666666666664</ele><time>2026-05-02T15:59:48.352Z</time></trkpt><trkpt lat="43.993455" lon="8.1632233"><ele>16.333333333333332</ele><time>2026-05-02T15:59:49.352Z</time></trkpt><trkpt lat="43.9936333" lon="8.1633133"><ele>10.0</ele><time>2026-05-02T15:59:50.353Z</time></trkpt><trkpt lat="43.993805" lon="8.163405"><ele>10.0</ele><time>2026-05-02T15:59:51.353Z</time></trkpt><trkpt lat="43.9939667" lon="8.163495"><ele>10.0</ele><time>2026-05-02T15:59:52.351Z</time></trkpt><trkpt lat="43.9941183" lon="8.1635817"><ele>10.0</ele><time>2026-05-02T15:59:53.352Z</time></trkpt><trkpt lat="43.9942667" lon="8.163665"><ele>11.0</ele><time>2026-05-02T15:59:54.354Z</time></trkpt><trkpt lat="43.9943933" lon="8.1637367"><ele>12.0</ele><time>2026-05-02T15:59:55.36Z</time></trkpt><trkpt lat="43.9944983" lon="8.16379"><ele>13.0</ele><time>2026-05-02T15:59:56.35Z</time></trkpt><trkpt lat="43.994585" lon="8.1638333"><ele>14.0</ele><time>2026-05-02T15:59:57.355Z</time></trkpt><trkpt lat="43.9946583" lon="8.1638667"><ele>15.0</ele><time>2026-05-02T15:59:58.351Z</time></trkpt><trkpt lat="43.9947283" lon="8.1639017"><ele>15.0</ele><time>2026-05-02T15:59:59.351Z</time></trkpt><trkpt lat="43.9947967" lon="8.1639417"><ele>15.0</ele><time>2026-05-02T16:00:00.354Z</time></trkpt><trkpt lat="43.99487" lon="8.1639917"><ele>15.0</ele><time>2026-05-02T16:00:01.353Z</time></trkpt><trkpt lat="43.9949483" lon="8.1640467"><ele>15.0</ele><time>2026-05-02T16:00:02.351Z</time></trkpt><trkpt lat="43.9950267" lon="8.1640933"><ele>15.0</ele><time>2026-05-02T16:00:03.356Z</time></trkpt><trkpt lat="43.9950983" lon="8.1641383"><ele>15.0</ele><time>2026-05-02T16:00:04.353Z</time></trkpt><trkpt lat="43.9951667" lon="8.1641833"><ele>14.0</ele><time>2026-05-02T16:00:05.357Z</time></trkpt><trkpt lat="43.9952367" lon="8.1642283"><ele>13.0</ele><time>2026-05-02T16:00:06.353Z</time></trkpt><trkpt lat="43.9953083" lon="8.1642717"><ele>12.0</ele><time>2026-05-02T16:00:07.35Z</time></trkpt><trkpt lat="43.995385" lon="8.164315"><ele>11.0</ele><time>2026-05-02T16:00:08.356Z</time></trkpt><trkpt lat="43.9954633" lon="8.1643633"><ele>10.0</ele><time>2026-05-02T16:00:09.352Z</time></trkpt><trkpt lat="43.995555" lon="8.1644133"><ele>9.0</ele><time>2026-05-02T16:00:10.351Z</time></trkpt><trkpt lat="43.9956667" lon="8.1644733"><ele>9.0</ele><time>2026-05-02T16:00:11.351Z</time></trkpt><trkpt lat="43.9957833" lon="8.16454"><ele>9.0</ele><time>2026-05-02T16:00:12.351Z</time></trkpt><trkpt lat="43.9958967" lon="8.1646167"><ele>9.0</ele><time>2026-05-02T16:00:13.353Z</time></trkpt><trkpt lat="43.996" lon="8.1646883"><ele>9.0</ele><time>2026-05-02T16:00:14.351Z</time></trkpt><trkpt lat="43.99609" lon="8.164745"><ele>8.6</ele><time>2026-05-02T16:00:15.354Z</time></trkpt><trkpt lat="43.99617" lon="8.1647917"><ele>8.2</ele><time>2026-05-02T16:00:16.351Z</time></trkpt><trkpt lat="43.9962583" lon="8.1648417"><ele>7.799999999999999</ele><time>2026-05-02T16:00:17.35Z</time></trkpt><trkpt lat="43.9963683" lon="8.1648983"><ele>7.3999999999999995</ele><time>2026-05-02T16:00:18.35Z</time></trkpt><trkpt lat="43.9965" lon="8.1649683"><ele>7.0</ele><time>2026-05-02T16:00:19.355Z</time></trkpt><trkpt lat="43.9966467" lon="8.1650517"><ele>8.25</ele><time>2026-05-02T16:00:20.354Z</time></trkpt><trkpt lat="43.9967883" lon="8.16514"><ele>9.5</ele><time>2026-05-02T16:00:21.353Z</time></trkpt><trkpt lat="43.9969217" lon="8.1652283"><ele>10.75</ele><time>2026-05-02T16:00:22.354Z</time></trkpt><trkpt lat="43.99705" lon="8.1653133"><ele>12.0</ele><time>2026-05-02T16:00:23.353Z</time></trkpt><trkpt lat="43.99717" lon="8.1653733"><ele>12.0</ele><time>2026-05-02T16:00:24.354Z</time></trkpt><trkpt lat="43.9972867" lon="8.1653967"><ele>12.0</ele><time>2026-05-02T16:00:25.353Z</time></trkpt><trkpt lat="43.997395" lon="8.1653933"><ele>12.0</ele><time>2026-05-02T16:00:26.355Z</time></trkpt><trkpt lat="43.9974917" lon="8.1653833"><ele>12.0</ele><time>2026-05-02T16:00:27.35Z</time></trkpt><trkpt lat="43.9975733" lon="8.16537"><ele>12.0</ele><time>2026-05-02T16:00:28.354Z</time></trkpt><trkpt lat="43.99765" lon="8.1653583"><ele>12.333333333333334</ele><time>2026-05-02T16:00:29.352Z</time></trkpt><trkpt lat="43.9977217" lon="8.16535"><ele>12.666666666666668</ele><time>2026-05-02T16:00:30.351Z</time></trkpt><trkpt lat="43.9977917" lon="8.16534"><ele>13.0</ele><time>2026-05-02T16:00:31.355Z</time></trkpt><trkpt lat="43.9978617" lon="8.1653333"><ele>13.333333333333334</ele><time>2026-05-02T16:00:32.352Z</time></trkpt><trkpt lat="43.997935" lon="8.1653267"><ele>13.666666666666668</ele><time>2026-05-02T16:00:33.351Z</time></trkpt><trkpt lat="43.9980167" lon="8.1653167"><ele>14.0</ele><time>2026-05-02T16:00:34.353Z</time></trkpt><trkpt lat="43.9981033" lon="8.16531"><ele>14.000000000000002</ele><time>2026-05-02T16:00:35.35Z</time></trkpt><trkpt lat="43.998185" lon="8.1653033"><ele>14.0</ele><time>2026-05-02T16:00:36.353Z</time></trkpt><trkpt lat="43.9982617" lon="8.1653017"><ele>14.0</ele><time>2026-05-02T16:00:37.351Z</time></trkpt><trkpt lat="43.9983333" lon="8.16529"><ele>14.0</ele><time>2026-05-02T16:00:38.354Z</time></trkpt><trkpt lat="43.9984" lon="8.16527"><ele>14.000000000000002</ele><time>2026-05-02T16:00:39.353Z</time></trkpt><trkpt lat="43.9985167" lon="8.1652367"><ele>14.0</ele><time>2026-05-02T16:00:41.359Z</time></trkpt><trkpt lat="43.9986067" lon="8.1652217"><ele>13.799999999999999</ele><time>2026-05-02T16:00:43.351Z</time></trkpt><trkpt lat="43.9987183" lon="8.16521"><ele>13.599999999999998</ele><time>2026-05-02T16:00:45.35Z</time></trkpt><trkpt lat="43.9988" lon="8.1652117"><ele>13.4</ele><time>2026-05-02T16:00:46.354Z</time></trkpt><trkpt lat="43.99889" lon="8.1652"><ele>13.2</ele><time>2026-05-02T16:00:47.355Z</time></trkpt><trkpt lat="43.998985" lon="8.1651967"><ele>13.0</ele><time>2026-05-02T16:00:48.354Z</time></trkpt><trkpt lat="43.9990717" lon="8.1651933"><ele>12.999999999999998</ele><time>2026-05-02T16:00:49.352Z</time></trkpt><trkpt lat="43.9991567" lon="8.1651883"><ele>13.0</ele><time>2026-05-02T16:00:50.349Z</time></trkpt><trkpt lat="43.99923" lon="8.165175"><ele>13.0</ele><time>2026-05-02T16:00:51.353Z</time></trkpt><trkpt lat="43.9993417" lon="8.1651517"><ele>13.0</ele><time>2026-05-02T16:00:53.353Z</time></trkpt><trkpt lat="43.999455" lon="8.165145"><ele>12.999999999999998</ele><time>2026-05-02T16:00:55.357Z</time></trkpt><trkpt lat="43.9995183" lon="8.1651567"><ele>13.0</ele><time>2026-05-02T16:00:56.352Z</time></trkpt><trkpt lat="43.999585" lon="8.1651783"><ele>12.666666666666666</ele><time>2026-05-02T16:00:57.351Z</time></trkpt><trkpt lat="43.9996567" lon="8.1652"><ele>12.333333333333332</ele><time>2026-05-02T16:00:58.35Z</time></trkpt><trkpt lat="43.99972" lon="8.1652283"><ele>12.0</ele><time>2026-05-02T16:00:59.351Z</time></trkpt><trkpt lat="43.9998217" lon="8.165285"><ele>11.666666666666666</ele><time>2026-05-02T16:01:01.349Z</time></trkpt><trkpt lat="43.999885" lon="8.1653333"><ele>11.333333333333332</ele><time>2026-05-02T16:01:04.352Z</time></trkpt><trkpt lat="43.999965" lon="8.1653667"><ele>11.0</ele><time>2026-05-02T16:01:06.352Z</time></trkpt><trkpt lat="44.0000367" lon="8.1653917"><ele>11.0</ele><time>2026-05-02T16:01:08.351Z</time></trkpt><trkpt lat="44.0001033" lon="8.1654167"><ele>11.0</ele><time>2026-05-02T16:01:12.355Z</time></trkpt><trkpt lat="44.000185" lon="8.1654283"><ele>11.0</ele><time>2026-05-02T16:01:17.355Z</time></trkpt><trkpt lat="44.0002617" lon="8.1654417"><ele>11.0</ele><time>2026-05-02T16:01:19.353Z</time></trkpt><trkpt lat="44.000385" lon="8.1654917"><ele>11.0</ele><time>2026-05-02T16:01:21.353Z</time></trkpt><trkpt lat="44.000455" lon="8.1655167"><ele>11.0</ele><time>2026-05-02T16:01:22.354Z</time></trkpt><trkpt lat="44.000525" lon="8.165545"><ele>11.0</ele><time>2026-05-02T16:01:23.351Z</time></trkpt><trkpt lat="44.000585" lon="8.165575"><ele>11.0</ele><time>2026-05-02T16:01:24.35Z</time></trkpt><trkpt lat="44.00067" lon="8.1656117"><ele>11.0</ele><time>2026-05-02T16:01:26.352Z</time></trkpt><trkpt lat="44.000735" lon="8.1656483"><ele>11.0</ele><time>2026-05-02T16:01:29.349Z</time></trkpt><trkpt lat="44.0008133" lon="8.1656867"><ele>11.0</ele><time>2026-05-02T16:01:31.351Z</time></trkpt><trkpt lat="44.0008833" lon="8.16572"><ele>11.0</ele><time>2026-05-02T16:01:34.35Z</time></trkpt><trkpt lat="44.0009583" lon="8.1657583"><ele>11.166666666666666</ele><time>2026-05-02T16:01:38.351Z</time></trkpt><trkpt lat="44.00103" lon="8.165785"><ele>11.333333333333332</ele><time>2026-05-02T16:01:41.354Z</time></trkpt><trkpt lat="44.0011067" lon="8.1658267"><ele>11.5</ele><time>2026-05-02T16:01:44.351Z</time></trkpt><trkpt lat="44.001175" lon="8.1658483"><ele>11.666666666666666</ele><time>2026-05-02T16:01:51.351Z</time></trkpt><trkpt lat="44.0012733" lon="8.1659217"><ele>11.833333333333334</ele><time>2026-05-02T16:01:53.351Z</time></trkpt><trkpt lat="44.0013467" lon="8.1659817"><ele>12.0</ele><time>2026-05-02T16:01:54.353Z</time></trkpt><trkpt lat="44.0014383" lon="8.166055"><ele>12.0</ele><time>2026-05-02T16:01:55.349Z</time></trkpt><trkpt lat="44.0015483" lon="8.1661317"><ele>12.0</ele><time>2026-05-02T16:01:56.352Z</time></trkpt><trkpt lat="44.00165" lon="8.166205"><ele>12.0</ele><time>2026-05-02T16:01:57.354Z</time></trkpt><trkpt lat="44.0017383" lon="8.16627"><ele>12.0</ele><time>2026-05-02T16:01:58.35Z</time></trkpt><trkpt lat="44.0018133" lon="8.1663233"><ele>12.0</ele><time>2026-05-02T16:01:59.358Z</time></trkpt><trkpt lat="44.0018767" lon="8.1663683"><ele>12.0</ele><time>2026-05-02T16:02:00.35Z</time></trkpt><trkpt lat="44.001985" lon="8.166435"><ele>12.0</ele><time>2026-05-02T16:02:08.351Z</time></trkpt><trkpt lat="44.0020733" lon="8.1664917"><ele>12.0</ele><time>2026-05-02T16:02:11.352Z</time></trkpt><trkpt lat="44.0021667" lon="8.166555"><ele>12.0</ele><time>2026-05-02T16:02:13.351Z</time></trkpt><trkpt lat="44.00226" lon="8.1666317"><ele>12.0</ele><time>2026-05-02T16:02:15.35Z</time></trkpt><trkpt lat="44.0023183" lon="8.1666883"><ele>12.0</ele><time>2026-05-02T16:02:17.35Z</time></trkpt><trkpt lat="44.002395" lon="8.1667283"><ele>12.0</ele><time>2026-05-02T16:02:22.351Z</time></trkpt><trkpt lat="44.00246" lon="8.1667783"><ele>12.0</ele><time>2026-05-02T16:02:25.35Z</time></trkpt><trkpt lat="44.0025283" lon="8.16683"><ele>12.0</ele><time>2026-05-02T16:02:28.349Z</time></trkpt><trkpt lat="44.0026017" lon="8.166745"><ele>12.0</ele><time>2026-05-02T16:02:31.35Z</time></trkpt><trkpt lat="44.0026683" lon="8.16663"><ele>12.0</ele><time>2026-05-02T16:02:33.356Z</time></trkpt><trkpt lat="44.0027333" lon="8.1665317"><ele>11.833333333333334</ele><time>2026-05-02T16:02:35.35Z</time></trkpt><trkpt lat="44.002805" lon="8.1664167"><ele>11.666666666666666</ele><time>2026-05-02T16:02:37.358Z</time></trkpt><trkpt lat="44.0028483" lon="8.1663467"><ele>11.5</ele><time>2026-05-02T16:02:38.353Z</time></trkpt><trkpt lat="44.0029067" lon="8.166275"><ele>11.333333333333332</ele><time>2026-05-02T16:02:39.355Z</time></trkpt><trkpt lat="44.0029583" lon="8.1661767"><ele>11.166666666666666</ele><time>2026-05-02T16:02:40.353Z</time></trkpt><trkpt lat="44.0030167" lon="8.1660533"><ele>11.0</ele><time>2026-05-02T16:02:41.35Z</time></trkpt><trkpt lat="44.0030783" lon="8.165935"><ele>11.0</ele><time>2026-05-02T16:02:42.352Z</time></trkpt><trkpt lat="44.00314" lon="8.1658217"><ele>11.0</ele><time>2026-05-02T16:02:43.351Z</time></trkpt><trkpt lat="44.0031983" lon="8.1657133"><ele>11.0</ele><time>2026-05-02T16:02:44.353Z</time></trkpt><trkpt lat="44.0032533" lon="8.1656133"><ele>11.0</ele><time>2026-05-02T16:02:45.353Z</time></trkpt><trkpt lat="44.0033017" lon="8.1655267"><ele>11.0</ele><time>2026-05-02T16:02:46.353Z</time></trkpt><trkpt lat="44.003345" lon="8.1654517"><ele>11.0</ele><time>2026-05-02T16:02:47.352Z</time></trkpt><trkpt lat="44.003405" lon="8.1653433"><ele>11.0</ele><time>2026-05-02T16:02:49.351Z</time></trkpt><trkpt lat="44.0034667" lon="8.1652567"><ele>11.0</ele><time>2026-05-02T16:02:51.351Z</time></trkpt><trkpt lat="44.0035383" lon="8.165235"><ele>11.0</ele><time>2026-05-02T16:02:53.352Z</time></trkpt><trkpt lat="44.0036167" lon="8.16527"><ele>11.0</ele><time>2026-05-02T16:02:55.348Z</time></trkpt><trkpt lat="44.0036983" lon="8.1653333"><ele>11.0</ele><time>2026-05-02T16:02:57.353Z</time></trkpt><trkpt lat="44.0037817" lon="8.16535"><ele>11.0</ele><time>2026-05-02T16:02:59.349Z</time></trkpt><trkpt lat="44.0038467" lon="8.1652933"><ele>11.0</ele><time>2026-05-02T16:03:01.352Z</time></trkpt><trkpt lat="44.003905" lon="8.16516"><ele>11.0</ele><time>2026-05-02T16:03:03.348Z</time></trkpt><trkpt lat="44.0039467" lon="8.165055"><ele>11.0</ele><time>2026-05-02T16:03:04.355Z</time></trkpt><trkpt lat="44.0039967" lon="8.1649317"><ele>11.0</ele><time>2026-05-02T16:03:05.353Z</time></trkpt><trkpt lat="44.0040517" lon="8.16482"><ele>11.0</ele><time>2026-05-02T16:03:06.353Z</time></trkpt><trkpt lat="44.0041117" lon="8.16472"><ele>11.200000000000001</ele><time>2026-05-02T16:03:07.349Z</time></trkpt><trkpt lat="44.0041667" lon="8.1646417"><ele>11.4</ele><time>2026-05-02T16:03:08.351Z</time></trkpt><trkpt lat="44.0042383" lon="8.16453"><ele>11.6</ele><time>2026-05-02T16:03:10.349Z</time></trkpt><trkpt lat="44.004285" lon="8.1644583"><ele>11.8</ele><time>2026-05-02T16:03:12.349Z</time></trkpt><trkpt lat="44.004335" lon="8.1643717"><ele>12.0</ele><time>2026-05-02T16:03:14.354Z</time></trkpt><trkpt lat="44.00442" lon="8.164225"><ele>12.0</ele><time>2026-05-02T16:03:16.35Z</time></trkpt><trkpt lat="44.004475" lon="8.164135"><ele>12.0</ele><time>2026-05-02T16:03:17.351Z</time></trkpt><trkpt lat="44.0045367" lon="8.1640417"><ele>12.0</ele><time>2026-05-02T16:03:18.35Z</time></trkpt><trkpt lat="44.0045983" lon="8.1639333"><ele>12.0</ele><time>2026-05-02T16:03:19.35Z</time></trkpt><trkpt lat="44.0046517" lon="8.163805"><ele>12.0</ele><time>2026-05-02T16:03:20.352Z</time></trkpt><trkpt lat="44.0046983" lon="8.16367"><ele>12.399999999999999</ele><time>2026-05-02T16:03:21.351Z</time></trkpt><trkpt lat="44.0047483" lon="8.1635583"><ele>12.799999999999999</ele><time>2026-05-02T16:03:22.351Z</time></trkpt><trkpt lat="44.0048167" lon="8.16346"><ele>13.2</ele><time>2026-05-02T16:03:23.351Z</time></trkpt><trkpt lat="44.0049" lon="8.1633817"><ele>13.6</ele><time>2026-05-02T16:03:24.351Z</time></trkpt><trkpt lat="44.0049767" lon="8.1633"><ele>14.0</ele><time>2026-05-02T16:03:25.354Z</time></trkpt><trkpt lat="44.0050417" lon="8.1632183"><ele>15.857142857142858</ele><time>2026-05-02T16:03:26.351Z</time></trkpt><trkpt lat="44.0051067" lon="8.1631417"><ele>17.714285714285715</ele><time>2026-05-02T16:03:27.352Z</time></trkpt><trkpt lat="44.0051733" lon="8.1630867"><ele>19.57142857142857</ele><time>2026-05-02T16:03:28.351Z</time></trkpt><trkpt lat="44.00524" lon="8.1630633"><ele>21.42857142857143</ele><time>2026-05-02T16:03:29.351Z</time></trkpt><trkpt lat="44.0053083" lon="8.1630567"><ele>23.285714285714285</ele><time>2026-05-02T16:03:30.349Z</time></trkpt><trkpt lat="44.005375" lon="8.163045"><ele>25.142857142857142</ele><time>2026-05-02T16:03:31.351Z</time></trkpt><trkpt lat="44.0054333" lon="8.1630117"><ele>27.0</ele><time>2026-05-02T16:03:32.349Z</time></trkpt><trkpt lat="44.00549" lon="8.1628733"><ele>27.0</ele><time>2026-05-02T16:03:34.349Z</time></trkpt><trkpt lat="44.0054767" lon="8.1627733"><ele>27.0</ele><time>2026-05-02T16:03:35.351Z</time></trkpt><trkpt lat="44.005455" lon="8.16267"><ele>27.0</ele><time>2026-05-02T16:03:36.354Z</time></trkpt><trkpt lat="44.0054417" lon="8.16255"><ele>27.0</ele><time>2026-05-02T16:03:37.35Z</time></trkpt><trkpt lat="44.0054467" lon="8.1624333"><ele>27.0</ele><time>2026-05-02T16:03:38.352Z</time></trkpt><trkpt lat="44.0054783" lon="8.162315"><ele>27.0</ele><time>2026-05-02T16:03:39.349Z</time></trkpt><trkpt lat="44.00554" lon="8.1621883"><ele>28.0</ele><time>2026-05-02T16:03:40.352Z</time></trkpt><trkpt lat="44.00563" lon="8.162035"><ele>29.0</ele><time>2026-05-02T16:03:41.35Z</time></trkpt><trkpt lat="44.00573" lon="8.161875"><ele>30.0</ele><time>2026-05-02T16:03:42.352Z</time></trkpt><trkpt lat="44.0058367" lon="8.1617033"><ele>30.0</ele><time>2026-05-02T16:03:43.353Z</time></trkpt><trkpt lat="44.0059467" lon="8.161535"><ele>30.0</ele><time>2026-05-02T16:03:44.351Z</time></trkpt><trkpt lat="44.0060533" lon="8.1613667"><ele>30.0</ele><time>2026-05-02T16:03:45.352Z</time></trkpt><trkpt lat="44.0061583" lon="8.1611967"><ele>36.33333333333333</ele><time>2026-05-02T16:03:46.355Z</time></trkpt><trkpt lat="44.006245" lon="8.1610033"><ele>42.666666666666664</ele><time>2026-05-02T16:03:47.351Z</time></trkpt><trkpt lat="44.006345" lon="8.160775"><ele>49.0</ele><time>2026-05-02T16:03:48.35Z</time></trkpt><trkpt lat="44.00638" lon="8.1604217"><ele>57.0</ele><time>2026-05-02T16:03:49.358Z</time></trkpt><trkpt lat="44.006425" lon="8.16008"><ele>65.0</ele><time>2026-05-02T16:03:50.349Z</time></trkpt><trkpt lat="44.006475" lon="8.15975"><ele>62.0</ele><time>2026-05-02T16:03:51.354Z</time></trkpt><trkpt lat="44.0065467" lon="8.1594583"><ele>59.0</ele><time>2026-05-02T16:03:52.351Z</time></trkpt><trkpt lat="44.00662" lon="8.1591733"><ele>56.0</ele><time>2026-05-02T16:03:53.351Z</time></trkpt><trkpt lat="44.0066967" lon="8.1588767"><ele>56.0</ele><time>2026-05-02T16:03:54.352Z</time></trkpt><trkpt lat="44.0067733" lon="8.1585617"><ele>56.0</ele><time>2026-05-02T16:03:55.353Z</time></trkpt><trkpt lat="44.0068517" lon="8.1582317"><ele>67.0</ele><time>2026-05-02T16:03:56.351Z</time></trkpt><trkpt lat="44.0069267" lon="8.1579"><ele>78.0</ele><time>2026-05-02T16:03:57.358Z</time></trkpt><trkpt lat="44.0069983" lon="8.1575633"><ele>87.0</ele><time>2026-05-02T16:03:58.35Z</time></trkpt><trkpt lat="44.0072233" lon="8.1551933"><ele>87.5</ele><time>2026-05-02T16:04:08.351Z</time></trkpt><trkpt lat="44.0072617" lon="8.1548517"><ele>88.0</ele><time>2026-05-02T16:04:09.35Z</time></trkpt><trkpt lat="44.0072617" lon="8.154545"><ele>88.0</ele><time>2026-05-02T16:04:10.354Z</time></trkpt><trkpt lat="44.007265" lon="8.1542417"><ele>88.0</ele><time>2026-05-02T16:04:11.357Z</time></trkpt><trkpt lat="44.00727" lon="8.1539417"><ele>88.0</ele><time>2026-05-02T16:04:12.352Z</time></trkpt><trkpt lat="44.0072767" lon="8.1536383"><ele>88.0</ele><time>2026-05-02T16:04:13.352Z</time></trkpt><trkpt lat="44.0072867" lon="8.153335"><ele>88.0</ele><time>2026-05-02T16:04:14.351Z</time></trkpt><trkpt lat="44.0073" lon="8.1530367"><ele>88.0</ele><time>2026-05-02T16:04:15.349Z</time></trkpt><trkpt lat="44.0073183" lon="8.1527333"><ele>98.0</ele><time>2026-05-02T16:04:16.354Z</time></trkpt><trkpt lat="44.0073433" lon="8.152425"><ele>108.0</ele><time>2026-05-02T16:04:17.355Z</time></trkpt><trkpt lat="44.022695" lon="8.13039"><ele>111.0</ele><time>2026-05-02T16:06:02.348Z</time></trkpt><trkpt lat="44.0229067" lon="8.1302333"><ele>114.0</ele><time>2026-05-02T16:06:03.352Z</time></trkpt><trkpt lat="44.0231317" lon="8.1301433"><ele>114.0</ele><time>2026-05-02T16:06:04.349Z</time></trkpt><trkpt lat="44.023365" lon="8.1300917"><ele>114.0</ele><time>2026-05-02T16:06:05.351Z</time></trkpt><trkpt lat="44.0236117" lon="8.1300867"><ele>114.0</ele><time>2026-05-02T16:06:06.352Z</time></trkpt><trkpt lat="44.02386" lon="8.1300933"><ele>114.0</ele><time>2026-05-02T16:06:07.349Z</time></trkpt><trkpt lat="44.0241133" lon="8.13011"><ele>113.5</ele><time>2026-05-02T16:06:08.354Z</time></trkpt><trkpt lat="44.0243683" lon="8.1301267"><ele>113.0</ele><time>2026-05-02T16:06:09.35Z</time></trkpt><trkpt lat="44.024625" lon="8.1301417"><ele>113.0</ele><time>2026-05-02T16:06:10.353Z</time></trkpt><trkpt lat="44.0248817" lon="8.1301583"><ele>113.0</ele><time>2026-05-02T16:06:11.352Z</time></trkpt><trkpt lat="44.0251383" lon="8.1301767"><ele>111.5</ele><time>2026-05-02T16:06:12.349Z</time></trkpt><trkpt lat="44.025395" lon="8.1302017"><ele>110.0</ele><time>2026-05-02T16:06:13.35Z</time></trkpt><trkpt lat="44.0256567" lon="8.13024"><ele>105.0</ele><time>2026-05-02T16:06:14.352Z</time></trkpt><trkpt lat="44.025915" lon="8.1303133"><ele>100.0</ele><time>2026-05-02T16:06:15.353Z</time></trkpt><trkpt lat="44.0261683" lon="8.1304183"><ele>100.0</ele><time>2026-05-02T16:06:16.352Z</time></trkpt><trkpt lat="44.02642" lon="8.1305367"><ele>100.0</ele><time>2026-05-02T16:06:17.348Z</time></trkpt><trkpt lat="44.0266733" lon="8.130645"><ele>106.0</ele><time>2026-05-02T16:06:18.353Z</time></trkpt><trkpt lat="44.0269267" lon="8.13076"><ele>112.0</ele><time>2026-05-02T16:06:19.351Z</time></trkpt><trkpt lat="44.0271833" lon="8.1308733"><ele>112.0</ele><time>2026-05-02T16:06:20.349Z</time></trkpt><trkpt lat="44.027445" lon="8.130985"><ele>112.0</ele><time>2026-05-02T16:06:21.357Z</time></trkpt><trkpt lat="44.0277067" lon="8.1311033"><ele>108.5</ele><time>2026-05-02T16:06:22.351Z</time></trkpt><trkpt lat="44.02797" lon="8.1312167"><ele>105.0</ele><time>2026-05-02T16:06:23.352Z</time></trkpt><trkpt lat="44.028235" lon="8.13133"><ele>103.5</ele><time>2026-05-02T16:06:24.353Z</time></trkpt><trkpt lat="44.0285" lon="8.1314483"><ele>102.0</ele><time>2026-05-02T16:06:25.351Z</time></trkpt><trkpt lat="44.0287567" lon="8.1315633"><ele>99.5</ele><time>2026-05-02T16:06:26.352Z</time></trkpt><trkpt lat="44.0290067" lon="8.131665"><ele>97.0</ele><time>2026-05-02T16:06:27.351Z</time></trkpt><trkpt lat="44.0292433" lon="8.1317717"><ele>97.0</ele><time>2026-05-02T16:06:28.35Z</time></trkpt><trkpt lat="44.0294717" lon="8.1318667"><ele>97.0</ele><time>2026-05-02T16:06:29.351Z</time></trkpt><trkpt lat="44.0296917" lon="8.131955"><ele>97.0</ele><time>2026-05-02T16:06:30.354Z</time></trkpt><trkpt lat="44.029905" lon="8.132045"><ele>97.0</ele><time>2026-05-02T16:06:31.349Z</time></trkpt><trkpt lat="44.03011" lon="8.1321283"><ele>97.0</ele><time>2026-05-02T16:06:32.35Z</time></trkpt><trkpt lat="44.0303117" lon="8.1322117"><ele>97.33333333333334</ele><time>2026-05-02T16:06:33.352Z</time></trkpt><trkpt lat="44.0305167" lon="8.1323"><ele>97.66666666666666</ele><time>2026-05-02T16:06:34.353Z</time></trkpt><trkpt lat="44.0307217" lon="8.1323917"><ele>98.0</ele><time>2026-05-02T16:06:35.349Z</time></trkpt><trkpt lat="44.0309333" lon="8.13249"><ele>98.5</ele><time>2026-05-02T16:06:36.352Z</time></trkpt><trkpt lat="44.0311533" lon="8.132585"><ele>99.0</ele><time>2026-05-02T16:06:37.352Z</time></trkpt><trkpt lat="44.03138" lon="8.1326817"><ele>99.0</ele><time>2026-05-02T16:06:38.351Z</time></trkpt><trkpt lat="44.031615" lon="8.132785"><ele>99.0</ele><time>2026-05-02T16:06:39.352Z</time></trkpt><trkpt lat="44.0318567" lon="8.1328867"><ele>96.0</ele><time>2026-05-02T16:06:40.351Z</time></trkpt><trkpt lat="44.03211" lon="8.1329717"><ele>93.0</ele><time>2026-05-02T16:06:41.354Z</time></trkpt><trkpt lat="44.0323667" lon="8.1330333"><ele>84.0</ele><time>2026-05-02T16:06:42.353Z</time></trkpt><trkpt lat="44.032635" lon="8.1330667"><ele>75.0</ele><time>2026-05-02T16:06:43.354Z</time></trkpt><trkpt lat="44.0329067" lon="8.133075"><ele>75.0</ele><time>2026-05-02T16:06:44.353Z</time></trkpt><trkpt lat="44.033185" lon="8.1330583"><ele>75.0</ele><time>2026-05-02T16:06:45.351Z</time></trkpt><trkpt lat="44.0334667" lon="8.1330133"><ele>71.5</ele><time>2026-05-02T16:06:46.356Z</time></trkpt><trkpt lat="44.0337483" lon="8.1329383"><ele>68.0</ele><time>2026-05-02T16:06:47.354Z</time></trkpt><trkpt lat="44.0340233" lon="8.1328283"><ele>70.5</ele><time>2026-05-02T16:06:48.353Z</time></trkpt><trkpt lat="44.03429" lon="8.1326867"><ele>73.0</ele><time>2026-05-02T16:06:49.354Z</time></trkpt><trkpt lat="44.034545" lon="8.1325283"><ele>69.0</ele><time>2026-05-02T16:06:50.35Z</time></trkpt><trkpt lat="44.0347917" lon="8.1323683"><ele>65.0</ele><time>2026-05-02T16:06:51.35Z</time></trkpt><trkpt lat="44.0350317" lon="8.1322267"><ele>65.0</ele><time>2026-05-02T16:06:52.35Z</time></trkpt><trkpt lat="44.03527" lon="8.132115"><ele>65.0</ele><time>2026-05-02T16:06:53.352Z</time></trkpt><trkpt lat="44.0355117" lon="8.1320333"><ele>65.0</ele><time>2026-05-02T16:06:54.352Z</time></trkpt><trkpt lat="44.0357567" lon="8.1319983"><ele>65.0</ele><time>2026-05-02T16:06:55.353Z</time></trkpt><trkpt lat="44.036005" lon="8.1319833"><ele>65.5</ele><time>2026-05-02T16:06:56.354Z</time></trkpt><trkpt lat="44.0362533" lon="8.1319883"><ele>66.0</ele><time>2026-05-02T16:06:57.354Z</time></trkpt><trkpt lat="44.0365" lon="8.1320117"><ele>64.5</ele><time>2026-05-02T16:06:58.351Z</time></trkpt><trkpt lat="44.036745" lon="8.1320617"><ele>63.0</ele><time>2026-05-02T16:06:59.351Z</time></trkpt><trkpt lat="44.036985" lon="8.1321333"><ele>63.0</ele><time>2026-05-02T16:07:00.354Z</time></trkpt><trkpt lat="44.0372217" lon="8.1322133"><ele>63.0</ele><time>2026-05-02T16:07:01.35Z</time></trkpt><trkpt lat="44.0374617" lon="8.1322883"><ele>65.5</ele><time>2026-05-02T16:07:02.35Z</time></trkpt><trkpt lat="44.037695" lon="8.132365"><ele>68.0</ele><time>2026-05-02T16:07:03.354Z</time></trkpt><trkpt lat="44.037925" lon="8.1324383"><ele>69.0</ele><time>2026-05-02T16:07:04.351Z</time></trkpt><trkpt lat="44.0381533" lon="8.1325117"><ele>70.0</ele><time>2026-05-02T16:07:05.348Z</time></trkpt><trkpt lat="44.0383583" lon="8.1325983"><ele>71.0</ele><time>2026-05-02T16:07:06.353Z</time></trkpt><trkpt lat="44.0385383" lon="8.1327"><ele>67.33333333333334</ele><time>2026-05-02T16:07:07.349Z</time></trkpt><trkpt lat="44.0387067" lon="8.1328"><ele>63.66666666666667</ele><time>2026-05-02T16:07:08.35Z</time></trkpt><trkpt lat="44.0388667" lon="8.1328967"><ele>60.0</ele><time>2026-05-02T16:07:09.352Z</time></trkpt><trkpt lat="44.03902" lon="8.132985"><ele>61.0</ele><time>2026-05-02T16:07:10.357Z</time></trkpt><trkpt lat="44.0391783" lon="8.1330817"><ele>62.0</ele><time>2026-05-02T16:07:11.35Z</time></trkpt><trkpt lat="44.0393333" lon="8.133185"><ele>63.0</ele><time>2026-05-02T16:07:12.352Z</time></trkpt><trkpt lat="44.03949" lon="8.1332917"><ele>63.0</ele><time>2026-05-02T16:07:13.355Z</time></trkpt><trkpt lat="44.03965" lon="8.1334133"><ele>63.0</ele><time>2026-05-02T16:07:14.352Z</time></trkpt><trkpt lat="44.04106" lon="8.1343833"><ele>61.0</ele><time>2026-05-02T16:07:22.355Z</time></trkpt><trkpt lat="44.0411333" lon="8.1349183"><ele>59.0</ele><time>2026-05-02T16:07:23.352Z</time></trkpt><trkpt lat="44.0412667" lon="8.1352917"><ele>59.0</ele><time>2026-05-02T16:07:24.354Z</time></trkpt><trkpt lat="44.0414183" lon="8.13557"><ele>59.0</ele><time>2026-05-02T16:07:25.352Z</time></trkpt><trkpt lat="44.04156" lon="8.1358517"><ele>50.0</ele><time>2026-05-02T16:07:26.354Z</time></trkpt><trkpt lat="44.04169" lon="8.1361517"><ele>41.0</ele><time>2026-05-02T16:07:27.357Z</time></trkpt><trkpt lat="44.04182" lon="8.1364483"><ele>43.5</ele><time>2026-05-02T16:07:28.349Z</time></trkpt><trkpt lat="44.04194" lon="8.1367467"><ele>46.0</ele><time>2026-05-02T16:07:29.351Z</time></trkpt><trkpt lat="44.042045" lon="8.1370517"><ele>46.0</ele><time>2026-05-02T16:07:30.352Z</time></trkpt><trkpt lat="44.0421433" lon="8.13736"><ele>46.0</ele><time>2026-05-02T16:07:31.352Z</time></trkpt><trkpt lat="44.0422367" lon="8.1376717"><ele>49.5</ele><time>2026-05-02T16:07:32.352Z</time></trkpt><trkpt lat="44.0423283" lon="8.1379867"><ele>53.0</ele><time>2026-05-02T16:07:33.355Z</time></trkpt><trkpt lat="44.0424217" lon="8.1382967"><ele>46.5</ele><time>2026-05-02T16:07:34.352Z</time></trkpt><trkpt lat="44.0425133" lon="8.1386033"><ele>40.0</ele><time>2026-05-02T16:07:35.349Z</time></trkpt><trkpt lat="44.0426067" lon="8.1389067"><ele>43.5</ele><time>2026-05-02T16:07:36.352Z</time></trkpt><trkpt lat="44.0426933" lon="8.1392117"><ele>47.0</ele><time>2026-05-02T16:07:37.354Z</time></trkpt><trkpt lat="44.042785" lon="8.139515"><ele>47.0</ele><time>2026-05-02T16:07:38.351Z</time></trkpt><trkpt lat="44.04288" lon="8.1398133"><ele>47.0</ele><time>2026-05-02T16:07:39.352Z</time></trkpt><trkpt lat="44.0429767" lon="8.1401083"><ele>55.0</ele><time>2026-05-02T16:07:40.351Z</time></trkpt><trkpt lat="44.0430767" lon="8.1404033"><ele>63.0</ele><time>2026-05-02T16:07:41.35Z</time></trkpt><trkpt lat="44.04318" lon="8.140695"><ele>70.0</ele><time>2026-05-02T16:07:42.35Z</time></trkpt><trkpt lat="44.0432883" lon="8.140985"><ele>77.0</ele><time>2026-05-02T16:07:43.353Z</time></trkpt><trkpt lat="44.0434017" lon="8.14127"><ele>62.5</ele><time>2026-05-02T16:07:44.352Z</time></trkpt><trkpt lat="44.0435233" lon="8.14155"><ele>48.0</ele><time>2026-05-02T16:07:45.355Z</time></trkpt><trkpt lat="44.0436433" lon="8.1418267"><ele>48.0</ele><time>2026-05-02T16:07:46.351Z</time></trkpt><trkpt lat="44.0437667" lon="8.1421033"><ele>48.0</ele><time>2026-05-02T16:07:47.353Z</time></trkpt><trkpt lat="44.0438983" lon="8.1423783"><ele>49.0</ele><time>2026-05-02T16:07:48.354Z</time></trkpt><trkpt lat="44.0440333" lon="8.142655"><ele>50.0</ele><time>2026-05-02T16:07:49.353Z</time></trkpt><trkpt lat="44.0441733" lon="8.14293"><ele>45.5</ele><time>2026-05-02T16:07:50.349Z</time></trkpt><trkpt lat="44.0443217" lon="8.1432"><ele>41.0</ele><time>2026-05-02T16:07:51.355Z</time></trkpt><trkpt lat="44.04447" lon="8.14347"><ele>41.0</ele><time>2026-05-02T16:07:52.354Z</time></trkpt><trkpt lat="44.0446217" lon="8.1437367"><ele>41.0</ele><time>2026-05-02T16:07:53.357Z</time></trkpt><trkpt lat="44.0447783" lon="8.144"><ele>39.0</ele><time>2026-05-02T16:07:54.352Z</time></trkpt><trkpt lat="44.04494" lon="8.1442583"><ele>37.0</ele><time>2026-05-02T16:07:55.351Z</time></trkpt><trkpt lat="44.0451067" lon="8.1445133"><ele>37.0</ele><time>2026-05-02T16:07:56.352Z</time></trkpt><trkpt lat="44.045275" lon="8.1447683"><ele>37.0</ele><time>2026-05-02T16:07:57.358Z</time></trkpt><trkpt lat="44.045445" lon="8.1450217"><ele>43.0</ele><time>2026-05-02T16:07:58.352Z</time></trkpt><trkpt lat="44.0456133" lon="8.1452783"><ele>49.0</ele><time>2026-05-02T16:07:59.352Z</time></trkpt><trkpt lat="44.0457833" lon="8.1455317"><ele>46.0</ele><time>2026-05-02T16:08:00.354Z</time></trkpt><trkpt lat="44.0459533" lon="8.1457867"><ele>43.0</ele><time>2026-05-02T16:08:01.358Z</time></trkpt><trkpt lat="44.0461267" lon="8.14604"><ele>43.0</ele><time>2026-05-02T16:08:02.354Z</time></trkpt><trkpt lat="44.0463" lon="8.1462933"><ele>43.0</ele><time>2026-05-02T16:08:03.354Z</time></trkpt><trkpt lat="44.046475" lon="8.1465483"><ele>37.5</ele><time>2026-05-02T16:08:04.352Z</time></trkpt><trkpt lat="44.0466517" lon="8.1468067"><ele>32.0</ele><time>2026-05-02T16:08:05.354Z</time></trkpt><trkpt lat="44.0468283" lon="8.1470633"><ele>32.0</ele><time>2026-05-02T16:08:06.356Z</time></trkpt><trkpt lat="44.0470017" lon="8.14732"><ele>32.0</ele><time>2026-05-02T16:08:07.354Z</time></trkpt><trkpt lat="44.04718" lon="8.1475767"><ele>34.0</ele><time>2026-05-02T16:08:08.351Z</time></trkpt><trkpt lat="44.0473567" lon="8.14783"><ele>36.0</ele><time>2026-05-02T16:08:09.352Z</time></trkpt><trkpt lat="44.0475333" lon="8.148085"><ele>31.0</ele><time>2026-05-02T16:08:10.35Z</time></trkpt><trkpt lat="44.047715" lon="8.1483417"><ele>26.0</ele><time>2026-05-02T16:08:11.351Z</time></trkpt><trkpt lat="44.0478933" lon="8.1486"><ele>26.0</ele><time>2026-05-02T16:08:12.349Z</time></trkpt><trkpt lat="44.0480717" lon="8.14886"><ele>26.0</ele><time>2026-05-02T16:08:13.352Z</time></trkpt><trkpt lat="44.0482467" lon="8.1491217"><ele>26.0</ele><time>2026-05-02T16:08:14.351Z</time></trkpt><trkpt lat="44.0484267" lon="8.1493833"><ele>26.0</ele><time>2026-05-02T16:08:15.362Z</time></trkpt><trkpt lat="44.048605" lon="8.1496383"><ele>25.5</ele><time>2026-05-02T16:08:16.348Z</time></trkpt><trkpt lat="44.04878" lon="8.1498967"><ele>25.0</ele><time>2026-05-02T16:08:17.349Z</time></trkpt><trkpt lat="44.0489517" lon="8.150155"><ele>25.0</ele><time>2026-05-02T16:08:18.352Z</time></trkpt><trkpt lat="44.0491217" lon="8.1504183"><ele>25.0</ele><time>2026-05-02T16:08:19.353Z</time></trkpt><trkpt lat="44.0492933" lon="8.1506833"><ele>25.0</ele><time>2026-05-02T16:08:20.352Z</time></trkpt><trkpt lat="44.0494583" lon="8.15095"><ele>25.0</ele><time>2026-05-02T16:08:21.35Z</time></trkpt><trkpt lat="44.0496233" lon="8.1512183"><ele>25.0</ele><time>2026-05-02T16:08:22.356Z</time></trkpt><trkpt lat="44.0497867" lon="8.15149"><ele>25.0</ele><time>2026-05-02T16:08:23.351Z</time></trkpt><trkpt lat="44.0499483" lon="8.1517583"><ele>24.5</ele><time>2026-05-02T16:08:24.354Z</time></trkpt><trkpt lat="44.0501067" lon="8.1520317"><ele>24.0</ele><time>2026-05-02T16:08:25.35Z</time></trkpt><trkpt lat="44.050265" lon="8.1523067"><ele>23.0</ele><time>2026-05-02T16:08:26.356Z</time></trkpt><trkpt lat="44.0504217" lon="8.152585"><ele>22.0</ele><time>2026-05-02T16:08:27.349Z</time></trkpt><trkpt lat="44.0505733" lon="8.1528633"><ele>22.0</ele><time>2026-05-02T16:08:28.351Z</time></trkpt><trkpt lat="44.0507233" lon="8.153145"><ele>22.0</ele><time>2026-05-02T16:08:29.352Z</time></trkpt><trkpt lat="44.0508717" lon="8.1534267"><ele>22.0</ele><time>2026-05-02T16:08:30.355Z</time></trkpt><trkpt lat="44.051015" lon="8.1537083"><ele>22.0</ele><time>2026-05-02T16:08:31.354Z</time></trkpt><trkpt lat="44.0511583" lon="8.15399"><ele>22.5</ele><time>2026-05-02T16:08:32.351Z</time></trkpt><trkpt lat="44.0513" lon="8.15427"><ele>23.0</ele><time>2026-05-02T16:08:33.353Z</time></trkpt><trkpt lat="44.05144" lon="8.15455"><ele>23.0</ele><time>2026-05-02T16:08:34.353Z</time></trkpt><trkpt lat="44.051575" lon="8.1548283"><ele>23.0</ele><time>2026-05-02T16:08:35.354Z</time></trkpt><trkpt lat="44.05171" lon="8.1551133"><ele>22.5</ele><time>2026-05-02T16:08:36.351Z</time></trkpt><trkpt lat="44.0518433" lon="8.1554017"><ele>22.0</ele><time>2026-05-02T16:08:37.352Z</time></trkpt><trkpt lat="44.0519733" lon="8.1556917"><ele>22.0</ele><time>2026-05-02T16:08:38.352Z</time></trkpt><trkpt lat="44.0520983" lon="8.1559817"><ele>22.0</ele><time>2026-05-02T16:08:39.355Z</time></trkpt><trkpt lat="44.0522217" lon="8.156275"><ele>22.0</ele><time>2026-05-02T16:08:40.354Z</time></trkpt><trkpt lat="44.0523433" lon="8.15657"><ele>22.0</ele><time>2026-05-02T16:08:41.352Z</time></trkpt><trkpt lat="44.0524617" lon="8.1568633"><ele>22.0</ele><time>2026-05-02T16:08:42.352Z</time></trkpt><trkpt lat="44.0525767" lon="8.15716"><ele>22.0</ele><time>2026-05-02T16:08:43.35Z</time></trkpt><trkpt lat="44.0526883" lon="8.1574567"><ele>21.5</ele><time>2026-05-02T16:08:44.351Z</time></trkpt><trkpt lat="44.0528" lon="8.1577517"><ele>21.0</ele><time>2026-05-02T16:08:45.353Z</time></trkpt><trkpt lat="44.0529133" lon="8.1580467"><ele>20.5</ele><time>2026-05-02T16:08:46.35Z</time></trkpt><trkpt lat="44.0530233" lon="8.1583433"><ele>20.0</ele><time>2026-05-02T16:08:47.355Z</time></trkpt><trkpt lat="44.0531333" lon="8.1586383"><ele>20.0</ele><time>2026-05-02T16:08:48.35Z</time></trkpt><trkpt lat="44.05324" lon="8.1589333"><ele>20.0</ele><time>2026-05-02T16:08:49.349Z</time></trkpt><trkpt lat="44.0533467" lon="8.1592317"><ele>20.0</ele><time>2026-05-02T16:08:50.352Z</time></trkpt><trkpt lat="44.0534517" lon="8.1595317"><ele>20.0</ele><time>2026-05-02T16:08:51.349Z</time></trkpt><trkpt lat="44.0535583" lon="8.15983"><ele>19.0</ele><time>2026-05-02T16:08:52.352Z</time></trkpt><trkpt lat="44.0536667" lon="8.1601267"><ele>18.0</ele><time>2026-05-02T16:08:53.352Z</time></trkpt><trkpt lat="44.0537733" lon="8.160425"><ele>18.5</ele><time>2026-05-02T16:08:54.351Z</time></trkpt><trkpt lat="44.053885" lon="8.1607167"><ele>19.0</ele><time>2026-05-02T16:08:55.354Z</time></trkpt><trkpt lat="44.0540067" lon="8.161"><ele>18.5</ele><time>2026-05-02T16:08:56.35Z</time></trkpt><trkpt lat="44.05414" lon="8.161265"><ele>18.0</ele><time>2026-05-02T16:08:57.353Z</time></trkpt><trkpt lat="44.0542917" lon="8.1615133"><ele>19.5</ele><time>2026-05-02T16:08:58.351Z</time></trkpt><trkpt lat="44.05445" lon="8.1617517"><ele>21.0</ele><time>2026-05-02T16:08:59.35Z</time></trkpt><trkpt lat="44.0546183" lon="8.1619717"><ele>21.0</ele><time>2026-05-02T16:09:00.35Z</time></trkpt><trkpt lat="44.0548017" lon="8.1621717"><ele>21.0</ele><time>2026-05-02T16:09:01.351Z</time></trkpt><trkpt lat="44.055" lon="8.1623433"><ele>20.0</ele><time>2026-05-02T16:09:02.348Z</time></trkpt><trkpt lat="44.0552117" lon="8.162485"><ele>19.0</ele><time>2026-05-02T16:09:03.354Z</time></trkpt><trkpt lat="44.05543" lon="8.1626017"><ele>19.0</ele><time>2026-05-02T16:09:04.353Z</time></trkpt><trkpt lat="44.055655" lon="8.16269"><ele>19.0</ele><time>2026-05-02T16:09:05.354Z</time></trkpt><trkpt lat="44.055885" lon="8.16276"><ele>18.5</ele><time>2026-05-02T16:09:06.351Z</time></trkpt><trkpt lat="44.0561183" lon="8.1628083"><ele>18.0</ele><time>2026-05-02T16:09:07.352Z</time></trkpt><trkpt lat="44.0563517" lon="8.1628417"><ele>18.0</ele><time>2026-05-02T16:09:08.352Z</time></trkpt><trkpt lat="44.05659" lon="8.16287"><ele>18.0</ele><time>2026-05-02T16:09:09.357Z</time></trkpt><trkpt lat="44.0568283" lon="8.1628983"><ele>21.5</ele><time>2026-05-02T16:09:10.352Z</time></trkpt><trkpt lat="44.0570667" lon="8.1629267"><ele>25.0</ele><time>2026-05-02T16:09:11.353Z</time></trkpt><trkpt lat="44.05731" lon="8.1629567"><ele>34.5</ele><time>2026-05-02T16:09:12.351Z</time></trkpt><trkpt lat="44.057555" lon="8.1629867"><ele>44.0</ele><time>2026-05-02T16:09:13.355Z</time></trkpt><trkpt lat="44.0578017" lon="8.163015"><ele>44.0</ele><time>2026-05-02T16:09:14.356Z</time></trkpt><trkpt lat="44.0607783" lon="8.1634267"><ele>44.0</ele><time>2026-05-02T16:09:27.349Z</time></trkpt><trkpt lat="44.0610133" lon="8.1634567"><ele>44.0</ele><time>2026-05-02T16:09:28.353Z</time></trkpt><trkpt lat="44.0612483" lon="8.163495"><ele>44.0</ele><time>2026-05-02T16:09:29.355Z</time></trkpt><trkpt lat="44.0614833" lon="8.1635333"><ele>44.0</ele><time>2026-05-02T16:09:30.354Z</time></trkpt><trkpt lat="44.0617183" lon="8.16357"><ele>56.0</ele><time>2026-05-02T16:09:31.354Z</time></trkpt><trkpt lat="44.0656167" lon="8.1646733"><ele>56.0</ele><time>2026-05-02T16:09:54.349Z</time></trkpt><trkpt lat="44.065755" lon="8.164825"><ele>56.0</ele><time>2026-05-02T16:09:55.349Z</time></trkpt><trkpt lat="44.0658783" lon="8.1649833"><ele>56.0</ele><time>2026-05-02T16:09:56.35Z</time></trkpt><trkpt lat="44.0659883" lon="8.1651483"><ele>46.66666666666667</ele><time>2026-05-02T16:09:57.354Z</time></trkpt><trkpt lat="44.0660867" lon="8.1653183"><ele>37.333333333333336</ele><time>2026-05-02T16:09:58.349Z</time></trkpt><trkpt lat="44.0661817" lon="8.16549"><ele>28.0</ele><time>2026-05-02T16:09:59.353Z</time></trkpt><trkpt lat="44.0662683" lon="8.1656667"><ele>27.25</ele><time>2026-05-02T16:10:00.354Z</time></trkpt><trkpt lat="44.0663467" lon="8.1658383"><ele>26.5</ele><time>2026-05-02T16:10:01.351Z</time></trkpt><trkpt lat="44.0664217" lon="8.1660033"><ele>25.75</ele><time>2026-05-02T16:10:02.355Z</time></trkpt><trkpt lat="44.0664967" lon="8.1661683"><ele>25.0</ele><time>2026-05-02T16:10:03.351Z</time></trkpt><trkpt lat="44.0665733" lon="8.1663383"><ele>24.75</ele><time>2026-05-02T16:10:04.349Z</time></trkpt><trkpt lat="44.0666467" lon="8.1665067"><ele>24.5</ele><time>2026-05-02T16:10:05.35Z</time></trkpt><trkpt lat="44.0667183" lon="8.1666767"><ele>24.25</ele><time>2026-05-02T16:10:06.355Z</time></trkpt><trkpt lat="44.066795" lon="8.16685"><ele>24.0</ele><time>2026-05-02T16:10:07.35Z</time></trkpt><trkpt lat="44.0668767" lon="8.1670267"><ele>24.0</ele><time>2026-05-02T16:10:08.351Z</time></trkpt><trkpt lat="44.0669533" lon="8.167205"><ele>24.0</ele><time>2026-05-02T16:10:09.356Z</time></trkpt><trkpt lat="44.0670283" lon="8.1673817"><ele>24.0</ele><time>2026-05-02T16:10:10.353Z</time></trkpt><trkpt lat="44.0671033" lon="8.16756"><ele>24.0</ele><time>2026-05-02T16:10:11.354Z</time></trkpt><trkpt lat="44.0671767" lon="8.1677317"><ele>23.25</ele><time>2026-05-02T16:10:12.349Z</time></trkpt><trkpt lat="44.0672517" lon="8.1679"><ele>22.5</ele><time>2026-05-02T16:10:13.356Z</time></trkpt><trkpt lat="44.0673167" lon="8.1680617"><ele>21.75</ele><time>2026-05-02T16:10:14.354Z</time></trkpt><trkpt lat="44.0673817" lon="8.1682167"><ele>21.0</ele><time>2026-05-02T16:10:15.352Z</time></trkpt><trkpt lat="44.0674483" lon="8.1683717"><ele>20.5</ele><time>2026-05-02T16:10:16.353Z</time></trkpt><trkpt lat="44.0675133" lon="8.16853"><ele>20.0</ele><time>2026-05-02T16:10:17.358Z</time></trkpt><trkpt lat="44.067585" lon="8.16869"><ele>19.5</ele><time>2026-05-02T16:10:18.349Z</time></trkpt><trkpt lat="44.0676583" lon="8.16885"><ele>19.0</ele><time>2026-05-02T16:10:19.349Z</time></trkpt><trkpt lat="44.0677267" lon="8.169005"><ele>19.5</ele><time>2026-05-02T16:10:20.352Z</time></trkpt><trkpt lat="44.06779" lon="8.1691533"><ele>20.0</ele><time>2026-05-02T16:10:21.351Z</time></trkpt><trkpt lat="44.0678533" lon="8.1692933"><ele>20.5</ele><time>2026-05-02T16:10:22.351Z</time></trkpt><trkpt lat="44.0679167" lon="8.169425"><ele>21.0</ele><time>2026-05-02T16:10:23.351Z</time></trkpt><trkpt lat="44.0679717" lon="8.1695483"><ele>21.0</ele><time>2026-05-02T16:10:24.351Z</time></trkpt><trkpt lat="44.068025" lon="8.169665"><ele>21.0</ele><time>2026-05-02T16:10:25.354Z</time></trkpt><trkpt lat="44.0680833" lon="8.1697817"><ele>21.0</ele><time>2026-05-02T16:10:26.349Z</time></trkpt><trkpt lat="44.0681417" lon="8.1699"><ele>21.0</ele><time>2026-05-02T16:10:27.353Z</time></trkpt><trkpt lat="44.0682017" lon="8.1700233"><ele>21.0</ele><time>2026-05-02T16:10:28.349Z</time></trkpt><trkpt lat="44.0682433" lon="8.1701283"><ele>21.0</ele><time>2026-05-02T16:10:29.349Z</time></trkpt><trkpt lat="44.0682767" lon="8.1702117"><ele>21.0</ele><time>2026-05-02T16:10:30.35Z</time></trkpt><trkpt lat="44.06831" lon="8.1703367"><ele>21.0</ele><time>2026-05-02T16:10:32.354Z</time></trkpt><trkpt lat="44.0683433" lon="8.1704817"><ele>21.0</ele><time>2026-05-02T16:10:34.352Z</time></trkpt><trkpt lat="44.0683783" lon="8.1705667"><ele>21.0</ele><time>2026-05-02T16:10:35.352Z</time></trkpt><trkpt lat="44.0684317" lon="8.170635"><ele>21.0</ele><time>2026-05-02T16:10:36.351Z</time></trkpt><trkpt lat="44.068505" lon="8.1706533"><ele>21.0</ele><time>2026-05-02T16:10:37.351Z</time></trkpt><trkpt lat="44.0685717" lon="8.170635"><ele>21.0</ele><time>2026-05-02T16:10:38.356Z</time></trkpt><trkpt lat="44.0686367" lon="8.1705633"><ele>21.0</ele><time>2026-05-02T16:10:39.351Z</time></trkpt><trkpt lat="44.0686917" lon="8.1704683"><ele>21.0</ele><time>2026-05-02T16:10:40.353Z</time></trkpt><trkpt lat="44.068735" lon="8.1703683"><ele>21.0</ele><time>2026-05-02T16:10:41.35Z</time></trkpt><trkpt lat="44.068785" lon="8.170275"><ele>21.0</ele><time>2026-05-02T16:10:42.349Z</time></trkpt><trkpt lat="44.0688433" lon="8.170185"><ele>21.0</ele><time>2026-05-02T16:10:43.352Z</time></trkpt><trkpt lat="44.068905" lon="8.1701017"><ele>21.0</ele><time>2026-05-02T16:10:44.353Z</time></trkpt><trkpt lat="44.06897" lon="8.1700233"><ele>21.0</ele><time>2026-05-02T16:10:45.355Z</time></trkpt><trkpt lat="44.0690367" lon="8.1699433"><ele>21.0</ele><time>2026-05-02T16:10:46.353Z</time></trkpt><trkpt lat="44.069105" lon="8.16986"><ele>21.0</ele><time>2026-05-02T16:10:47.353Z</time></trkpt><trkpt lat="44.0691767" lon="8.1697733"><ele>21.0</ele><time>2026-05-02T16:10:48.352Z</time></trkpt><trkpt lat="44.0692467" lon="8.169685"><ele>21.200000000000003</ele><time>2026-05-02T16:10:49.354Z</time></trkpt><trkpt lat="44.0693217" lon="8.1695967"><ele>21.400000000000002</ele><time>2026-05-02T16:10:50.353Z</time></trkpt><trkpt lat="44.0693983" lon="8.1695017"><ele>21.6</ele><time>2026-05-02T16:10:51.354Z</time></trkpt><trkpt lat="44.0694817" lon="8.169405"><ele>21.8</ele><time>2026-05-02T16:10:52.35Z</time></trkpt><trkpt lat="44.0695683" lon="8.1693117"><ele>22.0</ele><time>2026-05-02T16:10:53.352Z</time></trkpt><trkpt lat="44.069655" lon="8.169215"><ele>22.0</ele><time>2026-05-02T16:10:54.353Z</time></trkpt><trkpt lat="44.0697467" lon="8.1691167"><ele>22.0</ele><time>2026-05-02T16:10:55.351Z</time></trkpt><trkpt lat="44.0698367" lon="8.16902"><ele>22.0</ele><time>2026-05-02T16:10:56.353Z</time></trkpt><trkpt lat="44.0699267" lon="8.16893"><ele>22.0</ele><time>2026-05-02T16:10:57.357Z</time></trkpt><trkpt lat="44.0700133" lon="8.1688417"><ele>22.0</ele><time>2026-05-02T16:10:58.35Z</time></trkpt><trkpt lat="44.0700967" lon="8.1687533"><ele>22.0</ele><time>2026-05-02T16:10:59.353Z</time></trkpt><trkpt lat="44.0701867" lon="8.1686667"><ele>22.0</ele><time>2026-05-02T16:11:00.354Z</time></trkpt><trkpt lat="44.0702783" lon="8.1685817"><ele>22.0</ele><time>2026-05-02T16:11:01.349Z</time></trkpt><trkpt lat="44.0703767" lon="8.168495"><ele>22.0</ele><time>2026-05-02T16:11:02.352Z</time></trkpt><trkpt lat="44.0704783" lon="8.16841"><ele>22.0</ele><time>2026-05-02T16:11:03.352Z</time></trkpt><trkpt lat="44.0705867" lon="8.16832"><ele>22.0</ele><time>2026-05-02T16:11:04.355Z</time></trkpt><trkpt lat="44.0706967" lon="8.1682317"><ele>22.0</ele><time>2026-05-02T16:11:05.351Z</time></trkpt><trkpt lat="44.0708067" lon="8.16814"><ele>22.0</ele><time>2026-05-02T16:11:06.354Z</time></trkpt><trkpt lat="44.07091" lon="8.168055"><ele>22.5</ele><time>2026-05-02T16:11:07.353Z</time></trkpt><trkpt lat="44.0710133" lon="8.1679683"><ele>23.0</ele><time>2026-05-02T16:11:08.35Z</time></trkpt><trkpt lat="44.0711183" lon="8.167885"><ele>23.5</ele><time>2026-05-02T16:11:09.354Z</time></trkpt><trkpt lat="44.0712267" lon="8.1677983"><ele>24.0</ele><time>2026-05-02T16:11:10.351Z</time></trkpt><trkpt lat="44.0713317" lon="8.16771"><ele>24.0</ele><time>2026-05-02T16:11:11.352Z</time></trkpt><trkpt lat="44.0714267" lon="8.1676283"><ele>24.0</ele><time>2026-05-02T16:11:12.351Z</time></trkpt><trkpt lat="44.0715133" lon="8.1675517"><ele>24.0</ele><time>2026-05-02T16:11:13.35Z</time></trkpt><trkpt lat="44.0716" lon="8.1674783"><ele>24.0</ele><time>2026-05-02T16:11:14.353Z</time></trkpt><trkpt lat="44.0716783" lon="8.1674083"><ele>24.0</ele><time>2026-05-02T16:11:15.354Z</time></trkpt><trkpt lat="44.0717517" lon="8.1673433"><ele>24.6</ele><time>2026-05-02T16:11:16.352Z</time></trkpt><trkpt lat="44.0718317" lon="8.1672783"><ele>25.2</ele><time>2026-05-02T16:11:17.353Z</time></trkpt><trkpt lat="44.0719233" lon="8.1672183"><ele>25.800000000000004</ele><time>2026-05-02T16:11:18.352Z</time></trkpt><trkpt lat="44.0720267" lon="8.1671683"><ele>26.400000000000002</ele><time>2026-05-02T16:11:19.354Z</time></trkpt><trkpt lat="44.0721417" lon="8.167125"><ele>27.0</ele><time>2026-05-02T16:11:20.353Z</time></trkpt><trkpt lat="44.0722617" lon="8.1670833"><ele>27.0</ele><time>2026-05-02T16:11:21.353Z</time></trkpt><trkpt lat="44.0723817" lon="8.16704"><ele>27.0</ele><time>2026-05-02T16:11:22.358Z</time></trkpt><trkpt lat="44.0725067" lon="8.1669983"><ele>27.0</ele><time>2026-05-02T16:11:23.354Z</time></trkpt><trkpt lat="44.07263" lon="8.1669467"><ele>27.0</ele><time>2026-05-02T16:11:24.356Z</time></trkpt><trkpt lat="44.07275" lon="8.16687"><ele>26.666666666666664</ele><time>2026-05-02T16:11:25.353Z</time></trkpt><trkpt lat="44.07286" lon="8.1667483"><ele>26.333333333333332</ele><time>2026-05-02T16:11:26.351Z</time></trkpt><trkpt lat="44.07296" lon="8.1665933"><ele>26.0</ele><time>2026-05-02T16:11:27.356Z</time></trkpt><trkpt lat="44.0730633" lon="8.1664217"><ele>26.0</ele><time>2026-05-02T16:11:28.35Z</time></trkpt><trkpt lat="44.073175" lon="8.1662433"><ele>26.0</ele><time>2026-05-02T16:11:29.35Z</time></trkpt><trkpt lat="44.073285" lon="8.1660717"><ele>26.0</ele><time>2026-05-02T16:11:30.352Z</time></trkpt><trkpt lat="44.073395" lon="8.1659017"><ele>26.0</ele><time>2026-05-02T16:11:31.348Z</time></trkpt><trkpt lat="44.0734983" lon="8.1657217"><ele>26.0</ele><time>2026-05-02T16:11:32.353Z</time></trkpt><trkpt lat="44.0735833" lon="8.1655283"><ele>26.0</ele><time>2026-05-02T16:11:33.348Z</time></trkpt><trkpt lat="44.0736417" lon="8.1653067"><ele>26.666666666666664</ele><time>2026-05-02T16:11:34.353Z</time></trkpt><trkpt lat="44.07368" lon="8.165055"><ele>27.333333333333336</ele><time>2026-05-02T16:11:35.352Z</time></trkpt><trkpt lat="44.0737083" lon="8.1647983"><ele>28.0</ele><time>2026-05-02T16:11:36.352Z</time></trkpt><trkpt lat="44.0737383" lon="8.1645417"><ele>28.0</ele><time>2026-05-02T16:11:37.357Z</time></trkpt><trkpt lat="44.07377" lon="8.164285"><ele>28.0</ele><time>2026-05-02T16:11:38.357Z</time></trkpt><trkpt lat="44.0737983" lon="8.1640283"><ele>28.0</ele><time>2026-05-02T16:11:39.356Z</time></trkpt><trkpt lat="44.07383" lon="8.1637683"><ele>28.0</ele><time>2026-05-02T16:11:40.352Z</time></trkpt><trkpt lat="44.0738833" lon="8.1635083"><ele>28.0</ele><time>2026-05-02T16:11:41.353Z</time></trkpt><trkpt lat="44.0739433" lon="8.1632517"><ele>28.0</ele><time>2026-05-02T16:11:42.349Z</time></trkpt><trkpt lat="44.074005" lon="8.1629967"><ele>28.333333333333336</ele><time>2026-05-02T16:11:43.354Z</time></trkpt><trkpt lat="44.0740667" lon="8.1627517"><ele>28.666666666666664</ele><time>2026-05-02T16:11:44.351Z</time></trkpt><trkpt lat="44.0741267" lon="8.1625133"><ele>29.0</ele><time>2026-05-02T16:11:45.351Z</time></trkpt><trkpt lat="44.074195" lon="8.1622733"><ele>29.666666666666664</ele><time>2026-05-02T16:11:46.35Z</time></trkpt><trkpt lat="44.0742783" lon="8.16204"><ele>30.333333333333336</ele><time>2026-05-02T16:11:47.349Z</time></trkpt><trkpt lat="44.0743783" lon="8.1618117"><ele>31.0</ele><time>2026-05-02T16:11:48.352Z</time></trkpt><trkpt lat="44.0744883" lon="8.1615867"><ele>30.666666666666668</ele><time>2026-05-02T16:11:49.355Z</time></trkpt><trkpt lat="44.07461" lon="8.161365"><ele>30.333333333333336</ele><time>2026-05-02T16:11:50.35Z</time></trkpt><trkpt lat="44.0747467" lon="8.1611433"><ele>30.0</ele><time>2026-05-02T16:11:51.355Z</time></trkpt><trkpt lat="44.0748817" lon="8.1609183"><ele>31.5</ele><time>2026-05-02T16:11:52.349Z</time></trkpt><trkpt lat="44.0750367" lon="8.16066"><ele>33.0</ele><time>2026-05-02T16:11:53.353Z</time></trkpt><trkpt lat="44.0751933" lon="8.1604017"><ele>33.0</ele><time>2026-05-02T16:11:54.354Z</time></trkpt><trkpt lat="44.075335" lon="8.1601483"><ele>33.0</ele><time>2026-05-02T16:11:55.353Z</time></trkpt><trkpt lat="44.0754617" lon="8.1599017"><ele>33.0</ele><time>2026-05-02T16:11:56.354Z</time></trkpt><trkpt lat="44.0755917" lon="8.159665"><ele>33.0</ele><time>2026-05-02T16:11:57.35Z</time></trkpt><trkpt lat="44.0757317" lon="8.1594483"><ele>33.0</ele><time>2026-05-02T16:11:58.352Z</time></trkpt><trkpt lat="44.0758783" lon="8.15924"><ele>33.0</ele><time>2026-05-02T16:11:59.353Z</time></trkpt><trkpt lat="44.07603" lon="8.1590333"><ele>32.333333333333336</ele><time>2026-05-02T16:12:00.357Z</time></trkpt><trkpt lat="44.07618" lon="8.15883"><ele>31.666666666666668</ele><time>2026-05-02T16:12:01.352Z</time></trkpt><trkpt lat="44.0763367" lon="8.1586333"><ele>31.0</ele><time>2026-05-02T16:12:02.355Z</time></trkpt><trkpt lat="44.0765017" lon="8.1584517"><ele>31.333333333333336</ele><time>2026-05-02T16:12:03.355Z</time></trkpt><trkpt lat="44.0766783" lon="8.158295"><ele>31.666666666666664</ele><time>2026-05-02T16:12:04.355Z</time></trkpt><trkpt lat="44.0768617" lon="8.1581583"><ele>32.0</ele><time>2026-05-02T16:12:05.353Z</time></trkpt><trkpt lat="44.0770517" lon="8.15804"><ele>32.0</ele><time>2026-05-02T16:12:06.351Z</time></trkpt><trkpt lat="44.0772483" lon="8.1579317"><ele>32.0</ele><time>2026-05-02T16:12:07.354Z</time></trkpt><trkpt lat="44.0774467" lon="8.15783"><ele>32.0</ele><time>2026-05-02T16:12:08.35Z</time></trkpt><trkpt lat="44.07765" lon="8.157735"><ele>33.666666666666664</ele><time>2026-05-02T16:12:09.352Z</time></trkpt><trkpt lat="44.077855" lon="8.1576367"><ele>35.333333333333336</ele><time>2026-05-02T16:12:10.355Z</time></trkpt><trkpt lat="44.0780583" lon="8.1575317"><ele>37.0</ele><time>2026-05-02T16:12:11.351Z</time></trkpt><trkpt lat="44.0782633" lon="8.1574167"><ele>36.66666666666667</ele><time>2026-05-02T16:12:12.354Z</time></trkpt><trkpt lat="44.0784717" lon="8.1573017"><ele>36.333333333333336</ele><time>2026-05-02T16:12:13.355Z</time></trkpt><trkpt lat="44.0786783" lon="8.15719"><ele>36.0</ele><time>2026-05-02T16:12:14.355Z</time></trkpt><trkpt lat="44.0788867" lon="8.157085"><ele>36.0</ele><time>2026-05-02T16:12:15.354Z</time></trkpt><trkpt lat="44.0790917" lon="8.156985"><ele>36.0</ele><time>2026-05-02T16:12:16.355Z</time></trkpt><trkpt lat="44.0792983" lon="8.15689"><ele>36.0</ele><time>2026-05-02T16:12:17.348Z</time></trkpt><trkpt lat="44.0795067" lon="8.1568"><ele>36.0</ele><time>2026-05-02T16:12:18.352Z</time></trkpt><trkpt lat="44.0797133" lon="8.1567067"><ele>36.0</ele><time>2026-05-02T16:12:19.353Z</time></trkpt><trkpt lat="44.0799167" lon="8.1566033"><ele>36.0</ele><time>2026-05-02T16:12:20.352Z</time></trkpt><trkpt lat="44.0801183" lon="8.1564833"><ele>36.333333333333336</ele><time>2026-05-02T16:12:21.352Z</time></trkpt><trkpt lat="44.0803167" lon="8.1563517"><ele>36.66666666666667</ele><time>2026-05-02T16:12:22.353Z</time></trkpt><trkpt lat="44.08051" lon="8.1562133"><ele>37.0</ele><time>2026-05-02T16:12:23.355Z</time></trkpt><trkpt lat="44.0807" lon="8.1560683"><ele>38.0</ele><time>2026-05-02T16:12:24.35Z</time></trkpt><trkpt lat="44.08088" lon="8.1559167"><ele>39.0</ele><time>2026-05-02T16:12:25.353Z</time></trkpt><trkpt lat="44.0810517" lon="8.15576"><ele>40.0</ele><time>2026-05-02T16:12:26.352Z</time></trkpt><trkpt lat="44.0812167" lon="8.1556017"><ele>40.0</ele><time>2026-05-02T16:12:27.352Z</time></trkpt><trkpt lat="44.081385" lon="8.155445"><ele>40.0</ele><time>2026-05-02T16:12:28.352Z</time></trkpt><trkpt lat="44.0815517" lon="8.155285"><ele>40.0</ele><time>2026-05-02T16:12:29.352Z</time></trkpt><trkpt lat="44.0817233" lon="8.1551283"><ele>41.333333333333336</ele><time>2026-05-02T16:12:30.354Z</time></trkpt><trkpt lat="44.0818933" lon="8.1549817"><ele>42.666666666666664</ele><time>2026-05-02T16:12:31.353Z</time></trkpt><trkpt lat="44.0820633" lon="8.1548233"><ele>44.0</ele><time>2026-05-02T16:12:32.353Z</time></trkpt><trkpt lat="44.08222" lon="8.1546517"><ele>44.33333333333333</ele><time>2026-05-02T16:12:33.354Z</time></trkpt><trkpt lat="44.0823717" lon="8.15446"><ele>44.666666666666664</ele><time>2026-05-02T16:12:34.353Z</time></trkpt><trkpt lat="44.08252" lon="8.15426"><ele>45.0</ele><time>2026-05-02T16:12:35.35Z</time></trkpt><trkpt lat="44.0826633" lon="8.154055"><ele>45.666666666666664</ele><time>2026-05-02T16:12:36.351Z</time></trkpt><trkpt lat="44.0828033" lon="8.1538417"><ele>46.33333333333333</ele><time>2026-05-02T16:12:37.354Z</time></trkpt><trkpt lat="44.0829417" lon="8.1536267"><ele>47.0</ele><time>2026-05-02T16:12:38.352Z</time></trkpt><trkpt lat="44.0830767" lon="8.153405"><ele>46.666666666666664</ele><time>2026-05-02T16:12:39.353Z</time></trkpt><trkpt lat="44.0832133" lon="8.1531817"><ele>46.333333333333336</ele><time>2026-05-02T16:12:40.356Z</time></trkpt><trkpt lat="44.0833433" lon="8.152965"><ele>46.0</ele><time>2026-05-02T16:12:41.352Z</time></trkpt><trkpt lat="44.08347" lon="8.1527567"><ele>46.66666666666667</ele><time>2026-05-02T16:12:42.35Z</time></trkpt><trkpt lat="44.0835933" lon="8.1525567"><ele>47.333333333333336</ele><time>2026-05-02T16:12:43.353Z</time></trkpt><trkpt lat="44.0837067" lon="8.1523733"><ele>48.0</ele><time>2026-05-02T16:12:44.348Z</time></trkpt><trkpt lat="44.083815" lon="8.1522067"><ele>48.0</ele><time>2026-05-02T16:12:45.352Z</time></trkpt><trkpt lat="44.0839217" lon="8.15205"><ele>48.0</ele><time>2026-05-02T16:12:46.355Z</time></trkpt><trkpt lat="44.0840283" lon="8.151895"><ele>48.0</ele><time>2026-05-02T16:12:47.35Z</time></trkpt><trkpt lat="44.084135" lon="8.1517383"><ele>48.33333333333333</ele><time>2026-05-02T16:12:48.352Z</time></trkpt><trkpt lat="44.0842433" lon="8.151575"><ele>48.666666666666664</ele><time>2026-05-02T16:12:49.35Z</time></trkpt><trkpt lat="44.0843467" lon="8.1514067"><ele>49.0</ele><time>2026-05-02T16:12:50.352Z</time></trkpt><trkpt lat="44.0844483" lon="8.15123"><ele>49.0</ele><time>2026-05-02T16:12:51.352Z</time></trkpt><trkpt lat="44.0845517" lon="8.151055"><ele>49.0</ele><time>2026-05-02T16:12:52.353Z</time></trkpt><trkpt lat="44.0846567" lon="8.15088"><ele>49.0</ele><time>2026-05-02T16:12:53.353Z</time></trkpt><trkpt lat="44.0847617" lon="8.1507"><ele>49.33333333333333</ele><time>2026-05-02T16:12:54.353Z</time></trkpt><trkpt lat="44.0848667" lon="8.150515"><ele>49.66666666666667</ele><time>2026-05-02T16:12:55.354Z</time></trkpt><trkpt lat="44.0849683" lon="8.150325"><ele>50.0</ele><time>2026-05-02T16:12:56.353Z</time></trkpt><trkpt lat="44.0850733" lon="8.15013"><ele>50.0</ele><time>2026-05-02T16:12:57.355Z</time></trkpt><trkpt lat="44.0851767" lon="8.1499317"><ele>50.0</ele><time>2026-05-02T16:12:58.354Z</time></trkpt><trkpt lat="44.08528" lon="8.1497283"><ele>50.0</ele><time>2026-05-02T16:12:59.353Z</time></trkpt><trkpt lat="44.0853867" lon="8.1495317"><ele>50.0</ele><time>2026-05-02T16:13:00.354Z</time></trkpt><trkpt lat="44.0855017" lon="8.1493467"><ele>50.0</ele><time>2026-05-02T16:13:01.355Z</time></trkpt><trkpt lat="44.0856183" lon="8.14918"><ele>50.0</ele><time>2026-05-02T16:13:02.35Z</time></trkpt><trkpt lat="44.08573" lon="8.1490333"><ele>51.333333333333336</ele><time>2026-05-02T16:13:03.351Z</time></trkpt><trkpt lat="44.085835" lon="8.148895"><ele>52.66666666666667</ele><time>2026-05-02T16:13:04.351Z</time></trkpt><trkpt lat="44.0859433" lon="8.1487517"><ele>54.0</ele><time>2026-05-02T16:13:05.349Z</time></trkpt><trkpt lat="44.08606" lon="8.1485983"><ele>54.0</ele><time>2026-05-02T16:13:06.351Z</time></trkpt><trkpt lat="44.0861867" lon="8.1484367"><ele>54.0</ele><time>2026-05-02T16:13:07.349Z</time></trkpt><trkpt lat="44.0863167" lon="8.1482717"><ele>54.0</ele><time>2026-05-02T16:13:08.355Z</time></trkpt><trkpt lat="44.08645" lon="8.1481017"><ele>53.66666666666667</ele><time>2026-05-02T16:13:09.353Z</time></trkpt><trkpt lat="44.0865867" lon="8.1479233"><ele>53.333333333333336</ele><time>2026-05-02T16:13:10.35Z</time></trkpt><trkpt lat="44.08673" lon="8.14774"><ele>53.0</ele><time>2026-05-02T16:13:11.35Z</time></trkpt><trkpt lat="44.0868767" lon="8.1475533"><ele>54.66666666666667</ele><time>2026-05-02T16:13:12.353Z</time></trkpt><trkpt lat="44.0870217" lon="8.147365"><ele>56.33333333333333</ele><time>2026-05-02T16:13:13.352Z</time></trkpt><trkpt lat="44.0871667" lon="8.1471717"><ele>58.0</ele><time>2026-05-02T16:13:14.352Z</time></trkpt><trkpt lat="44.08731" lon="8.1469883"><ele>58.33333333333333</ele><time>2026-05-02T16:13:15.355Z</time></trkpt><trkpt lat="44.08744" lon="8.146815"><ele>58.66666666666667</ele><time>2026-05-02T16:13:16.352Z</time></trkpt><trkpt lat="44.0875483" lon="8.1466367"><ele>59.0</ele><time>2026-05-02T16:13:17.352Z</time></trkpt><trkpt lat="44.0876283" lon="8.14644"><ele>59.0</ele><time>2026-05-02T16:13:18.353Z</time></trkpt><trkpt lat="44.0876933" lon="8.146225"><ele>59.0</ele><time>2026-05-02T16:13:19.352Z</time></trkpt><trkpt lat="44.0877567" lon="8.1460033"><ele>59.0</ele><time>2026-05-02T16:13:20.357Z</time></trkpt><trkpt lat="44.08782" lon="8.1457717"><ele>57.66666666666667</ele><time>2026-05-02T16:13:21.351Z</time></trkpt><trkpt lat="44.0878867" lon="8.1455367"><ele>56.33333333333333</ele><time>2026-05-02T16:13:22.355Z</time></trkpt><trkpt lat="44.0879533" lon="8.1453"><ele>55.0</ele><time>2026-05-02T16:13:23.354Z</time></trkpt><trkpt lat="44.0880233" lon="8.1450667"><ele>53.666666666666664</ele><time>2026-05-02T16:13:24.353Z</time></trkpt><trkpt lat="44.088095" lon="8.1448367"><ele>52.33333333333333</ele><time>2026-05-02T16:13:25.351Z</time></trkpt><trkpt lat="44.08817" lon="8.1446"><ele>51.0</ele><time>2026-05-02T16:13:26.349Z</time></trkpt><trkpt lat="44.0882417" lon="8.14436"><ele>52.33333333333333</ele><time>2026-05-02T16:13:27.35Z</time></trkpt><trkpt lat="44.0883083" lon="8.1441167"><ele>53.666666666666664</ele><time>2026-05-02T16:13:28.348Z</time></trkpt><trkpt lat="44.0883767" lon="8.143875"><ele>55.0</ele><time>2026-05-02T16:13:29.354Z</time></trkpt><trkpt lat="44.08845" lon="8.1436317"><ele>55.0</ele><time>2026-05-02T16:13:30.352Z</time></trkpt><trkpt lat="44.0885167" lon="8.14339"><ele>55.0</ele><time>2026-05-02T16:13:31.354Z</time></trkpt><trkpt lat="44.0885817" lon="8.1431483"><ele>55.0</ele><time>2026-05-02T16:13:32.349Z</time></trkpt><trkpt lat="44.0886417" lon="8.1429"><ele>54.33333333333333</ele><time>2026-05-02T16:13:33.354Z</time></trkpt><trkpt lat="44.0886883" lon="8.14264"><ele>53.66666666666667</ele><time>2026-05-02T16:13:34.352Z</time></trkpt><trkpt lat="44.088725" lon="8.14238"><ele>53.0</ele><time>2026-05-02T16:13:35.352Z</time></trkpt><trkpt lat="44.0887583" lon="8.1421183"><ele>53.0</ele><time>2026-05-02T16:13:36.351Z</time></trkpt><trkpt lat="44.0887933" lon="8.141855"><ele>53.0</ele><time>2026-05-02T16:13:37.352Z</time></trkpt><trkpt lat="44.08883" lon="8.14159"><ele>53.0</ele><time>2026-05-02T16:13:38.35Z</time></trkpt><trkpt lat="44.088865" lon="8.1413217"><ele>53.0</ele><time>2026-05-02T16:13:39.355Z</time></trkpt><trkpt lat="44.0888983" lon="8.14105"><ele>53.0</ele><time>2026-05-02T16:13:40.349Z</time></trkpt><trkpt lat="44.08893" lon="8.1407817"><ele>53.0</ele><time>2026-05-02T16:13:41.352Z</time></trkpt><trkpt lat="44.08896" lon="8.14053"><ele>52.0</ele><time>2026-05-02T16:13:42.354Z</time></trkpt><trkpt lat="44.088995" lon="8.1402917"><ele>51.0</ele><time>2026-05-02T16:13:43.353Z</time></trkpt><trkpt lat="44.08904" lon="8.140075"><ele>50.0</ele><time>2026-05-02T16:13:44.351Z</time></trkpt><trkpt lat="44.089105" lon="8.139865"><ele>53.66666666666667</ele><time>2026-05-02T16:13:45.351Z</time></trkpt><trkpt lat="44.089185" lon="8.1396683"><ele>57.33333333333333</ele><time>2026-05-02T16:13:46.355Z</time></trkpt><trkpt lat="44.08927" lon="8.1394733"><ele>61.0</ele><time>2026-05-02T16:13:47.351Z</time></trkpt><trkpt lat="44.0893633" lon="8.1392817"><ele>61.0</ele><time>2026-05-02T16:13:48.352Z</time></trkpt><trkpt lat="44.0894533" lon="8.1390883"><ele>61.0</ele><time>2026-05-02T16:13:49.356Z</time></trkpt><trkpt lat="44.0895467" lon="8.1388933"><ele>61.0</ele><time>2026-05-02T16:13:50.354Z</time></trkpt><trkpt lat="44.0896467" lon="8.1386867"><ele>60.666666666666664</ele><time>2026-05-02T16:13:51.355Z</time></trkpt><trkpt lat="44.0897533" lon="8.1384633"><ele>60.33333333333333</ele><time>2026-05-02T16:13:52.353Z</time></trkpt><trkpt lat="44.0898683" lon="8.1382333"><ele>60.0</ele><time>2026-05-02T16:13:53.348Z</time></trkpt><trkpt lat="44.0899883" lon="8.1379933"><ele>60.0</ele><time>2026-05-02T16:13:54.355Z</time></trkpt><trkpt lat="44.09011" lon="8.1377483"><ele>60.0</ele><time>2026-05-02T16:13:55.351Z</time></trkpt><trkpt lat="44.09023" lon="8.1375067"><ele>60.0</ele><time>2026-05-02T16:13:56.354Z</time></trkpt><trkpt lat="44.0903483" lon="8.1372633"><ele>59.33333333333333</ele><time>2026-05-02T16:13:57.351Z</time></trkpt><trkpt lat="44.0904667" lon="8.1370183"><ele>58.666666666666664</ele><time>2026-05-02T16:13:58.352Z</time></trkpt><trkpt lat="44.0905883" lon="8.136775"><ele>58.0</ele><time>2026-05-02T16:13:59.351Z</time></trkpt><trkpt lat="44.09071" lon="8.1365333"><ele>58.666666666666664</ele><time>2026-05-02T16:14:00.353Z</time></trkpt><trkpt lat="44.09083" lon="8.13629"><ele>59.33333333333333</ele><time>2026-05-02T16:14:01.352Z</time></trkpt><trkpt lat="44.0909467" lon="8.136055"><ele>60.0</ele><time>2026-05-02T16:14:02.354Z</time></trkpt><trkpt lat="44.0910633" lon="8.1358283"><ele>59.33333333333333</ele><time>2026-05-02T16:14:03.351Z</time></trkpt><trkpt lat="44.0911783" lon="8.1356133"><ele>58.666666666666664</ele><time>2026-05-02T16:14:04.351Z</time></trkpt><trkpt lat="44.09128" lon="8.13539"><ele>58.0</ele><time>2026-05-02T16:14:05.353Z</time></trkpt><trkpt lat="44.0913533" lon="8.1351433"><ele>60.33333333333333</ele><time>2026-05-02T16:14:06.349Z</time></trkpt><trkpt lat="44.0913967" lon="8.13488"><ele>62.66666666666667</ele><time>2026-05-02T16:14:07.352Z</time></trkpt><trkpt lat="44.0914383" lon="8.1346133"><ele>65.0</ele><time>2026-05-02T16:14:08.352Z</time></trkpt><trkpt lat="44.0914883" lon="8.13435"><ele>65.0</ele><time>2026-05-02T16:14:09.354Z</time></trkpt><trkpt lat="44.091535" lon="8.1340717"><ele>65.0</ele><time>2026-05-02T16:14:10.352Z</time></trkpt><trkpt lat="44.0915733" lon="8.1337833"><ele>65.0</ele><time>2026-05-02T16:14:11.351Z</time></trkpt><trkpt lat="44.0916117" lon="8.1334933"><ele>66.0</ele><time>2026-05-02T16:14:12.353Z</time></trkpt><trkpt lat="44.0916517" lon="8.1332067"><ele>67.0</ele><time>2026-05-02T16:14:13.352Z</time></trkpt><trkpt lat="44.0916983" lon="8.132935"><ele>68.0</ele><time>2026-05-02T16:14:14.351Z</time></trkpt><trkpt lat="44.091755" lon="8.13268"><ele>68.0</ele><time>2026-05-02T16:14:15.353Z</time></trkpt><trkpt lat="44.0918183" lon="8.1324417"><ele>68.0</ele><time>2026-05-02T16:14:16.351Z</time></trkpt><trkpt lat="44.0918633" lon="8.132215"><ele>68.0</ele><time>2026-05-02T16:14:17.355Z</time></trkpt><trkpt lat="44.091875" lon="8.1319867"><ele>67.66666666666667</ele><time>2026-05-02T16:14:18.352Z</time></trkpt><trkpt lat="44.09187" lon="8.1317617"><ele>67.33333333333333</ele><time>2026-05-02T16:14:19.355Z</time></trkpt><trkpt lat="44.091865" lon="8.1315333"><ele>67.0</ele><time>2026-05-02T16:14:20.352Z</time></trkpt><trkpt lat="44.0918617" lon="8.13131"><ele>67.0</ele><time>2026-05-02T16:14:21.351Z</time></trkpt><trkpt lat="44.0918633" lon="8.1310867"><ele>67.0</ele><time>2026-05-02T16:14:22.354Z</time></trkpt><trkpt lat="44.0918633" lon="8.13086"><ele>67.0</ele><time>2026-05-02T16:14:23.348Z</time></trkpt><trkpt lat="44.0918667" lon="8.1306283"><ele>66.33333333333333</ele><time>2026-05-02T16:14:24.353Z</time></trkpt><trkpt lat="44.0918783" lon="8.1303933"><ele>65.66666666666667</ele><time>2026-05-02T16:14:25.353Z</time></trkpt><trkpt lat="44.0919" lon="8.13016"><ele>65.0</ele><time>2026-05-02T16:14:26.351Z</time></trkpt><trkpt lat="44.0919267" lon="8.1299233"><ele>66.0</ele><time>2026-05-02T16:14:27.352Z</time></trkpt><trkpt lat="44.0919567" lon="8.1297"><ele>67.0</ele><time>2026-05-02T16:14:28.35Z</time></trkpt><trkpt lat="44.09199" lon="8.1294933"><ele>68.0</ele><time>2026-05-02T16:14:29.351Z</time></trkpt><trkpt lat="44.0920383" lon="8.1293017"><ele>68.0</ele><time>2026-05-02T16:14:30.353Z</time></trkpt><trkpt lat="44.09211" lon="8.1291167"><ele>68.0</ele><time>2026-05-02T16:14:31.353Z</time></trkpt><trkpt lat="44.0921917" lon="8.1289383"><ele>68.0</ele><time>2026-05-02T16:14:32.355Z</time></trkpt><trkpt lat="44.0922767" lon="8.1287667"><ele>68.5</ele><time>2026-05-02T16:14:33.352Z</time></trkpt><trkpt lat="44.0923683" lon="8.1286"><ele>69.0</ele><time>2026-05-02T16:14:34.352Z</time></trkpt><trkpt lat="44.09246" lon="8.1284483"><ele>69.5</ele><time>2026-05-02T16:14:35.351Z</time></trkpt><trkpt lat="44.092555" lon="8.128325"><ele>70.0</ele><time>2026-05-02T16:14:36.348Z</time></trkpt><trkpt lat="44.0926583" lon="8.12824"><ele>71.0</ele><time>2026-05-02T16:14:37.352Z</time></trkpt><trkpt lat="44.09277" lon="8.1281817"><ele>72.0</ele><time>2026-05-02T16:14:38.348Z</time></trkpt><trkpt lat="44.0929" lon="8.128145"><ele>73.0</ele><time>2026-05-02T16:14:39.35Z</time></trkpt><trkpt lat="44.093045" lon="8.1281067"><ele>74.0</ele><time>2026-05-02T16:14:40.353Z</time></trkpt><trkpt lat="44.093205" lon="8.128065"><ele>74.66666666666667</ele><time>2026-05-02T16:14:41.351Z</time></trkpt><trkpt lat="44.093375" lon="8.128025"><ele>75.33333333333333</ele><time>2026-05-02T16:14:42.355Z</time></trkpt><trkpt lat="44.093545" lon="8.1279883"><ele>76.0</ele><time>2026-05-02T16:14:43.353Z</time></trkpt><trkpt lat="44.0937167" lon="8.1279767"><ele>76.0</ele><time>2026-05-02T16:14:44.352Z</time></trkpt><trkpt lat="44.093895" lon="8.1279867"><ele>76.0</ele><time>2026-05-02T16:14:45.354Z</time></trkpt><trkpt lat="44.094075" lon="8.1280233"><ele>76.0</ele><time>2026-05-02T16:14:46.354Z</time></trkpt><trkpt lat="44.09426" lon="8.12804"><ele>76.0</ele><time>2026-05-02T16:14:47.354Z</time></trkpt><trkpt lat="44.0944467" lon="8.128015"><ele>76.0</ele><time>2026-05-02T16:14:48.348Z</time></trkpt><trkpt lat="44.09463" lon="8.127965"><ele>76.0</ele><time>2026-05-02T16:14:49.35Z</time></trkpt><trkpt lat="44.0948167" lon="8.1278967"><ele>76.33333333333333</ele><time>2026-05-02T16:14:50.35Z</time></trkpt><trkpt lat="44.0949983" lon="8.12782"><ele>76.66666666666667</ele><time>2026-05-02T16:14:51.352Z</time></trkpt><trkpt lat="44.09518" lon="8.1277417"><ele>77.0</ele><time>2026-05-02T16:14:52.351Z</time></trkpt><trkpt lat="44.09536" lon="8.1276483"><ele>77.0</ele><time>2026-05-02T16:14:53.353Z</time></trkpt><trkpt lat="44.09553" lon="8.127525"><ele>77.0</ele><time>2026-05-02T16:14:54.355Z</time></trkpt><trkpt lat="44.09569" lon="8.1273767"><ele>77.0</ele><time>2026-05-02T16:14:55.349Z</time></trkpt><trkpt lat="44.0958317" lon="8.1272017"><ele>78.66666666666667</ele><time>2026-05-02T16:14:56.353Z</time></trkpt><trkpt lat="44.0959567" lon="8.127005"><ele>80.33333333333333</ele><time>2026-05-02T16:14:57.356Z</time></trkpt><trkpt lat="44.0960783" lon="8.1267967"><ele>82.0</ele><time>2026-05-02T16:14:58.354Z</time></trkpt><trkpt lat="44.096195" lon="8.1265817"><ele>83.0</ele><time>2026-05-02T16:14:59.352Z</time></trkpt><trkpt lat="44.096315" lon="8.1263617"><ele>84.0</ele><time>2026-05-02T16:15:00.35Z</time></trkpt><trkpt lat="44.0964367" lon="8.1261467"><ele>85.0</ele><time>2026-05-02T16:15:01.352Z</time></trkpt><trkpt lat="44.0965617" lon="8.1259333"><ele>84.66666666666666</ele><time>2026-05-02T16:15:02.353Z</time></trkpt><trkpt lat="44.09669" lon="8.12573"><ele>84.33333333333333</ele><time>2026-05-02T16:15:03.353Z</time></trkpt><trkpt lat="44.0968217" lon="8.1255417"><ele>84.0</ele><time>2026-05-02T16:15:04.352Z</time></trkpt><trkpt lat="44.0969483" lon="8.1253783"><ele>84.0</ele><time>2026-05-02T16:15:05.354Z</time></trkpt><trkpt lat="44.0970717" lon="8.1252533"><ele>84.0</ele><time>2026-05-02T16:15:06.353Z</time></trkpt><trkpt lat="44.0972017" lon="8.12517"><ele>84.0</ele><time>2026-05-02T16:15:07.35Z</time></trkpt><trkpt lat="44.0973467" lon="8.1251383"><ele>84.0</ele><time>2026-05-02T16:15:08.353Z</time></trkpt><trkpt lat="44.0975083" lon="8.1251517"><ele>87.0</ele><time>2026-05-02T16:15:09.354Z</time></trkpt><trkpt lat="44.09768" lon="8.1252017"><ele>90.0</ele><time>2026-05-02T16:15:10.351Z</time></trkpt><trkpt lat="44.0978617" lon="8.125265"><ele>93.0</ele><time>2026-05-02T16:15:11.35Z</time></trkpt><trkpt lat="44.098045" lon="8.1253167"><ele>93.0</ele><time>2026-05-02T16:15:12.351Z</time></trkpt><trkpt lat="44.0982283" lon="8.12533"><ele>93.0</ele><time>2026-05-02T16:15:13.351Z</time></trkpt><trkpt lat="44.0984033" lon="8.1253133"><ele>93.0</ele><time>2026-05-02T16:15:14.351Z</time></trkpt><trkpt lat="44.0985633" lon="8.125265"><ele>92.66666666666667</ele><time>2026-05-02T16:15:15.356Z</time></trkpt><trkpt lat="44.09871" lon="8.12518"><ele>92.33333333333334</ele><time>2026-05-02T16:15:16.35Z</time></trkpt><trkpt lat="44.098845" lon="8.12506"><ele>92.0</ele><time>2026-05-02T16:15:17.354Z</time></trkpt><trkpt lat="44.0989767" lon="8.1249117"><ele>92.0</ele><time>2026-05-02T16:15:18.354Z</time></trkpt><trkpt lat="44.0991217" lon="8.1247517"><ele>92.0</ele><time>2026-05-02T16:15:19.35Z</time></trkpt><trkpt lat="44.099265" lon="8.12458"><ele>92.0</ele><time>2026-05-02T16:15:20.35Z</time></trkpt><trkpt lat="44.09941" lon="8.1244017"><ele>92.0</ele><time>2026-05-02T16:15:21.353Z</time></trkpt><trkpt lat="44.0995567" lon="8.12422"><ele>92.0</ele><time>2026-05-02T16:15:22.352Z</time></trkpt><trkpt lat="44.0996967" lon="8.1240383"><ele>92.0</ele><time>2026-05-02T16:15:23.354Z</time></trkpt><trkpt lat="44.0998333" lon="8.1238583"><ele>92.33333333333334</ele><time>2026-05-02T16:15:24.354Z</time></trkpt><trkpt lat="44.0999767" lon="8.12368"><ele>92.66666666666667</ele><time>2026-05-02T16:15:25.352Z</time></trkpt><trkpt lat="44.1001267" lon="8.1235183"><ele>93.0</ele><time>2026-05-02T16:15:26.356Z</time></trkpt><trkpt lat="44.10028" lon="8.1233767"><ele>93.0</ele><time>2026-05-02T16:15:27.355Z</time></trkpt><trkpt lat="44.10044" lon="8.12327"><ele>93.0</ele><time>2026-05-02T16:15:28.35Z</time></trkpt><trkpt lat="44.100605" lon="8.1231983"><ele>93.0</ele><time>2026-05-02T16:15:29.352Z</time></trkpt><trkpt lat="44.100775" lon="8.1231667"><ele>94.66666666666666</ele><time>2026-05-02T16:15:30.35Z</time></trkpt><trkpt lat="44.100945" lon="8.1231833"><ele>96.33333333333333</ele><time>2026-05-02T16:15:31.355Z</time></trkpt><trkpt lat="44.1011133" lon="8.1232333"><ele>98.0</ele><time>2026-05-02T16:15:32.355Z</time></trkpt><trkpt lat="44.1012717" lon="8.1233233"><ele>98.0</ele><time>2026-05-02T16:15:33.35Z</time></trkpt><trkpt lat="44.1014233" lon="8.1234367"><ele>98.0</ele><time>2026-05-02T16:15:34.353Z</time></trkpt><trkpt lat="44.1015733" lon="8.1235533"><ele>98.0</ele><time>2026-05-02T16:15:35.353Z</time></trkpt><trkpt lat="44.1017217" lon="8.123645"><ele>97.66666666666666</ele><time>2026-05-02T16:15:36.355Z</time></trkpt><trkpt lat="44.1018817" lon="8.1236917"><ele>97.33333333333334</ele><time>2026-05-02T16:15:37.352Z</time></trkpt><trkpt lat="44.1020517" lon="8.1237067"><ele>97.0</ele><time>2026-05-02T16:15:38.353Z</time></trkpt><trkpt lat="44.1022267" lon="8.123715"><ele>97.0</ele><time>2026-05-02T16:15:39.354Z</time></trkpt><trkpt lat="44.1024" lon="8.123735"><ele>97.0</ele><time>2026-05-02T16:15:40.353Z</time></trkpt><trkpt lat="44.1025767" lon="8.123775"><ele>97.0</ele><time>2026-05-02T16:15:41.35Z</time></trkpt><trkpt lat="44.1027567" lon="8.1238417"><ele>97.66666666666667</ele><time>2026-05-02T16:15:42.352Z</time></trkpt><trkpt lat="44.102935" lon="8.1239267"><ele>98.33333333333334</ele><time>2026-05-02T16:15:43.348Z</time></trkpt><trkpt lat="44.103115" lon="8.1240367"><ele>99.0</ele><time>2026-05-02T16:15:44.357Z</time></trkpt><trkpt lat="44.103295" lon="8.1241483"><ele>101.66666666666666</ele><time>2026-05-02T16:15:45.351Z</time></trkpt><trkpt lat="44.1034767" lon="8.1242583"><ele>104.33333333333333</ele><time>2026-05-02T16:15:46.351Z</time></trkpt><trkpt lat="44.1036583" lon="8.124375"><ele>107.0</ele><time>2026-05-02T16:15:47.352Z</time></trkpt><trkpt lat="44.1038333" lon="8.12449"><ele>107.0</ele><time>2026-05-02T16:15:48.35Z</time></trkpt><trkpt lat="44.1040067" lon="8.1246017"><ele>107.0</ele><time>2026-05-02T16:15:49.35Z</time></trkpt><trkpt lat="44.1041717" lon="8.12468"><ele>107.0</ele><time>2026-05-02T16:15:50.352Z</time></trkpt><trkpt lat="44.1043317" lon="8.1247067"><ele>106.0</ele><time>2026-05-02T16:15:51.356Z</time></trkpt><trkpt lat="44.1044933" lon="8.1246833"><ele>105.0</ele><time>2026-05-02T16:15:52.353Z</time></trkpt><trkpt lat="44.10466" lon="8.1246367"><ele>104.0</ele><time>2026-05-02T16:15:53.349Z</time></trkpt><trkpt lat="44.1048217" lon="8.1245683"><ele>104.0</ele><time>2026-05-02T16:15:54.353Z</time></trkpt><trkpt lat="44.1049783" lon="8.12446"><ele>104.0</ele><time>2026-05-02T16:15:55.355Z</time></trkpt><trkpt lat="44.1051367" lon="8.1243183"><ele>104.0</ele><time>2026-05-02T16:15:56.352Z</time></trkpt><trkpt lat="44.1052933" lon="8.1241417"><ele>105.0</ele><time>2026-05-02T16:15:57.352Z</time></trkpt><trkpt lat="44.1054533" lon="8.1239667"><ele>106.0</ele><time>2026-05-02T16:15:58.354Z</time></trkpt><trkpt lat="44.10562" lon="8.1237917"><ele>107.0</ele><time>2026-05-02T16:15:59.355Z</time></trkpt><trkpt lat="44.1057867" lon="8.123615"><ele>107.0</ele><time>2026-05-02T16:16:00.352Z</time></trkpt><trkpt lat="44.10596" lon="8.1234383"><ele>107.0</ele><time>2026-05-02T16:16:01.353Z</time></trkpt><trkpt lat="44.10613" lon="8.1232583"><ele>107.0</ele><time>2026-05-02T16:16:02.353Z</time></trkpt><trkpt lat="44.106305" lon="8.1230833"><ele>109.0</ele><time>2026-05-02T16:16:03.354Z</time></trkpt><trkpt lat="44.1064817" lon="8.122915"><ele>111.0</ele><time>2026-05-02T16:16:04.355Z</time></trkpt><trkpt lat="44.1066567" lon="8.1227467"><ele>113.0</ele><time>2026-05-02T16:16:05.353Z</time></trkpt><trkpt lat="44.1068283" lon="8.1225767"><ele>112.0</ele><time>2026-05-02T16:16:06.352Z</time></trkpt><trkpt lat="44.1070017" lon="8.1224033"><ele>111.0</ele><time>2026-05-02T16:16:07.353Z</time></trkpt><trkpt lat="44.107175" lon="8.1222383"><ele>110.0</ele><time>2026-05-02T16:16:08.35Z</time></trkpt><trkpt lat="44.1073433" lon="8.1220733"><ele>107.66666666666666</ele><time>2026-05-02T16:16:09.359Z</time></trkpt><trkpt lat="44.1075067" lon="8.12192"><ele>105.33333333333334</ele><time>2026-05-02T16:16:10.353Z</time></trkpt><trkpt lat="44.1076583" lon="8.1217767"><ele>103.0</ele><time>2026-05-02T16:16:11.351Z</time></trkpt><trkpt lat="44.1077917" lon="8.1216267"><ele>103.33333333333334</ele><time>2026-05-02T16:16:12.352Z</time></trkpt><trkpt lat="44.1078983" lon="8.1214683"><ele>103.66666666666666</ele><time>2026-05-02T16:16:13.352Z</time></trkpt><trkpt lat="44.1079817" lon="8.1212833"><ele>104.0</ele><time>2026-05-02T16:16:14.353Z</time></trkpt><trkpt lat="44.10803" lon="8.12107"><ele>104.0</ele><time>2026-05-02T16:16:15.363Z</time></trkpt><trkpt lat="44.1080483" lon="8.120845"><ele>104.0</ele><time>2026-05-02T16:16:16.35Z</time></trkpt><trkpt lat="44.108045" lon="8.1206183"><ele>104.0</ele><time>2026-05-02T16:16:17.352Z</time></trkpt><trkpt lat="44.1080267" lon="8.1204017"><ele>106.0</ele><time>2026-05-02T16:16:18.355Z</time></trkpt><trkpt lat="44.1079983" lon="8.1202033"><ele>108.0</ele><time>2026-05-02T16:16:19.35Z</time></trkpt><trkpt lat="44.1079733" lon="8.12001"><ele>110.0</ele><time>2026-05-02T16:16:20.353Z</time></trkpt><trkpt lat="44.1079633" lon="8.119815"><ele>112.0</ele><time>2026-05-02T16:16:21.356Z</time></trkpt><trkpt lat="44.1079717" lon="8.1196083"><ele>113.66666666666667</ele><time>2026-05-02T16:16:22.353Z</time></trkpt><trkpt lat="44.10799" lon="8.11939"><ele>115.33333333333334</ele><time>2026-05-02T16:16:23.355Z</time></trkpt><trkpt lat="44.10801" lon="8.119165"><ele>117.0</ele><time>2026-05-02T16:16:24.354Z</time></trkpt><trkpt lat="44.1080367" lon="8.1189333"><ele>119.66666666666666</ele><time>2026-05-02T16:16:25.356Z</time></trkpt><trkpt lat="44.1080667" lon="8.1187"><ele>122.33333333333333</ele><time>2026-05-02T16:16:26.355Z</time></trkpt><trkpt lat="44.1081183" lon="8.1184667"><ele>125.0</ele><time>2026-05-02T16:16:27.356Z</time></trkpt><trkpt lat="44.1081917" lon="8.1182433"><ele>120.33333333333333</ele><time>2026-05-02T16:16:28.356Z</time></trkpt><trkpt lat="44.108285" lon="8.1180367"><ele>115.66666666666666</ele><time>2026-05-02T16:16:29.356Z</time></trkpt><trkpt lat="44.1083883" lon="8.1178533"><ele>111.0</ele><time>2026-05-02T16:16:30.353Z</time></trkpt><trkpt lat="44.1084917" lon="8.1176933"><ele>111.0</ele><time>2026-05-02T16:16:31.349Z</time></trkpt><trkpt lat="44.108585" lon="8.1175417"><ele>111.0</ele><time>2026-05-02T16:16:32.352Z</time></trkpt><trkpt lat="44.10866" lon="8.11738"><ele>111.0</ele><time>2026-05-02T16:16:33.355Z</time></trkpt><trkpt lat="44.1087117" lon="8.1171967"><ele>111.0</ele><time>2026-05-02T16:16:34.351Z</time></trkpt><trkpt lat="44.1087583" lon="8.1170017"><ele>115.33333333333334</ele><time>2026-05-02T16:16:35.349Z</time></trkpt><trkpt lat="44.1088167" lon="8.1168033"><ele>119.66666666666667</ele><time>2026-05-02T16:16:36.355Z</time></trkpt><trkpt lat="44.1088867" lon="8.1166067"><ele>124.0</ele><time>2026-05-02T16:16:37.352Z</time></trkpt><trkpt lat="44.1089817" lon="8.1164183"><ele>124.33333333333334</ele><time>2026-05-02T16:16:38.351Z</time></trkpt><trkpt lat="44.109105" lon="8.1162417"><ele>124.66666666666666</ele><time>2026-05-02T16:16:39.35Z</time></trkpt><trkpt lat="44.10924" lon="8.1160733"><ele>125.0</ele><time>2026-05-02T16:16:40.352Z</time></trkpt><trkpt lat="44.109375" lon="8.1159017"><ele>136.0</ele><time>2026-05-02T16:16:41.351Z</time></trkpt><trkpt lat="44.1095133" lon="8.115735"><ele>147.0</ele><time>2026-05-02T16:16:42.353Z</time></trkpt><trkpt lat="44.1096517" lon="8.11558"><ele>158.0</ele><time>2026-05-02T16:16:43.351Z</time></trkpt><trkpt lat="44.1097883" lon="8.11545"><ele>149.0</ele><time>2026-05-02T16:16:44.354Z</time></trkpt><trkpt lat="44.1099383" lon="8.115355"><ele>140.0</ele><time>2026-05-02T16:16:45.356Z</time></trkpt><trkpt lat="44.1100967" lon="8.1152767"><ele>131.0</ele><time>2026-05-02T16:16:46.353Z</time></trkpt><trkpt lat="44.11026" lon="8.1152"><ele>131.0</ele><time>2026-05-02T16:16:47.351Z</time></trkpt><trkpt lat="44.1104283" lon="8.1151183"><ele>131.0</ele><time>2026-05-02T16:16:48.35Z</time></trkpt><trkpt lat="44.1105933" lon="8.1150283"><ele>131.0</ele><time>2026-05-02T16:16:49.35Z</time></trkpt><trkpt lat="44.1107617" lon="8.114935"><ele>136.66666666666666</ele><time>2026-05-02T16:16:50.351Z</time></trkpt><trkpt lat="44.1109183" lon="8.1148283"><ele>142.33333333333334</ele><time>2026-05-02T16:16:51.355Z</time></trkpt><trkpt lat="44.111065" lon="8.114735"><ele>148.0</ele><time>2026-05-02T16:16:52.35Z</time></trkpt><trkpt lat="44.1112117" lon="8.1146717"><ele>148.0</ele><time>2026-05-02T16:16:53.348Z</time></trkpt><trkpt lat="44.1113683" lon="8.11465"><ele>148.0</ele><time>2026-05-02T16:16:54.352Z</time></trkpt><trkpt lat="44.11153" lon="8.11467"><ele>148.0</ele><time>2026-05-02T16:16:55.353Z</time></trkpt><trkpt lat="44.1116983" lon="8.1147233"><ele>144.0</ele><time>2026-05-02T16:16:56.352Z</time></trkpt><trkpt lat="44.111865" lon="8.1148067"><ele>140.0</ele><time>2026-05-02T16:16:57.351Z</time></trkpt><trkpt lat="44.1120283" lon="8.1149067"><ele>136.0</ele><time>2026-05-02T16:16:58.351Z</time></trkpt><trkpt lat="44.112195" lon="8.11502"><ele>132.0</ele><time>2026-05-02T16:16:59.354Z</time></trkpt><trkpt lat="44.112365" lon="8.1151433"><ele>128.0</ele><time>2026-05-02T16:17:00.351Z</time></trkpt><trkpt lat="44.1125383" lon="8.1152717"><ele>124.0</ele><time>2026-05-02T16:17:01.356Z</time></trkpt><trkpt lat="44.1127033" lon="8.115395"><ele>124.0</ele><time>2026-05-02T16:17:02.348Z</time></trkpt><trkpt lat="44.1128633" lon="8.115515"><ele>124.0</ele><time>2026-05-02T16:17:03.355Z</time></trkpt><trkpt lat="44.1130083" lon="8.115625"><ele>124.0</ele><time>2026-05-02T16:17:04.351Z</time></trkpt><trkpt lat="44.11314" lon="8.1157333"><ele>123.5</ele><time>2026-05-02T16:17:05.351Z</time></trkpt><trkpt lat="44.1132417" lon="8.1158633"><ele>123.0</ele><time>2026-05-02T16:17:06.35Z</time></trkpt><trkpt lat="44.1133133" lon="8.1160167"><ele>122.5</ele><time>2026-05-02T16:17:07.35Z</time></trkpt><trkpt lat="44.113355" lon="8.1161867"><ele>122.0</ele><time>2026-05-02T16:17:08.352Z</time></trkpt><trkpt lat="44.11337" lon="8.1163667"><ele>122.0</ele><time>2026-05-02T16:17:09.353Z</time></trkpt><trkpt lat="44.113365" lon="8.1165433"><ele>122.0</ele><time>2026-05-02T16:17:10.349Z</time></trkpt><trkpt lat="44.1133583" lon="8.1167167"><ele>122.0</ele><time>2026-05-02T16:17:11.351Z</time></trkpt><trkpt lat="44.11335" lon="8.11689"><ele>122.0</ele><time>2026-05-02T16:17:12.353Z</time></trkpt><trkpt lat="44.11335" lon="8.1170567"><ele>121.75</ele><time>2026-05-02T16:17:13.353Z</time></trkpt><trkpt lat="44.1133817" lon="8.1171967"><ele>121.5</ele><time>2026-05-02T16:17:14.353Z</time></trkpt><trkpt lat="44.1134533" lon="8.117315"><ele>121.25</ele><time>2026-05-02T16:17:15.352Z</time></trkpt><trkpt lat="44.113555" lon="8.1174217"><ele>121.0</ele><time>2026-05-02T16:17:16.352Z</time></trkpt><trkpt lat="44.1136767" lon="8.1175133"><ele>125.0</ele><time>2026-05-02T16:17:17.351Z</time></trkpt><trkpt lat="44.1138067" lon="8.1176117"><ele>129.0</ele><time>2026-05-02T16:17:18.348Z</time></trkpt><trkpt lat="44.11395" lon="8.117705"><ele>133.0</ele><time>2026-05-02T16:17:19.355Z</time></trkpt><trkpt lat="44.114115" lon="8.117785"><ele>133.0</ele><time>2026-05-02T16:17:20.353Z</time></trkpt><trkpt lat="44.114295" lon="8.117845"><ele>133.0</ele><time>2026-05-02T16:17:21.35Z</time></trkpt><trkpt lat="44.114465" lon="8.1179183"><ele>133.0</ele><time>2026-05-02T16:17:22.352Z</time></trkpt><trkpt lat="44.1146233" lon="8.117985"><ele>133.0</ele><time>2026-05-02T16:17:23.352Z</time></trkpt><trkpt lat="44.1147517" lon="8.118045"><ele>133.0</ele><time>2026-05-02T16:17:24.351Z</time></trkpt><trkpt lat="44.1148833" lon="8.1180667"><ele>133.0</ele><time>2026-05-02T16:17:25.351Z</time></trkpt><trkpt lat="44.1150167" lon="8.11803"><ele>133.0</ele><time>2026-05-02T16:17:26.352Z</time></trkpt><trkpt lat="44.1151533" lon="8.1179733"><ele>131.0</ele><time>2026-05-02T16:17:27.353Z</time></trkpt><trkpt lat="44.1152933" lon="8.1179433"><ele>129.0</ele><time>2026-05-02T16:17:28.352Z</time></trkpt><trkpt lat="44.115455" lon="8.117955"><ele>127.0</ele><time>2026-05-02T16:17:29.353Z</time></trkpt><trkpt lat="44.1156283" lon="8.1179833"><ele>130.33333333333334</ele><time>2026-05-02T16:17:30.354Z</time></trkpt><trkpt lat="44.1158133" lon="8.1180217"><ele>133.66666666666666</ele><time>2026-05-02T16:17:31.349Z</time></trkpt><trkpt lat="44.1160017" lon="8.118055"><ele>137.0</ele><time>2026-05-02T16:17:32.354Z</time></trkpt><trkpt lat="44.1161783" lon="8.1180767"><ele>137.0</ele><time>2026-05-02T16:17:33.352Z</time></trkpt><trkpt lat="44.1163267" lon="8.1181033"><ele>137.0</ele><time>2026-05-02T16:17:34.351Z</time></trkpt><trkpt lat="44.11644" lon="8.1181067"><ele>137.0</ele><time>2026-05-02T16:17:35.349Z</time></trkpt><trkpt lat="44.11653" lon="8.1180683"><ele>137.0</ele><time>2026-05-02T16:17:36.352Z</time></trkpt><trkpt lat="44.1166033" lon="8.1179933"><ele>137.0</ele><time>2026-05-02T16:17:37.354Z</time></trkpt><trkpt lat="44.1166767" lon="8.1179233"><ele>139.6</ele><time>2026-05-02T16:17:38.352Z</time></trkpt><trkpt lat="44.116765" lon="8.1178833"><ele>142.2</ele><time>2026-05-02T16:17:39.353Z</time></trkpt><trkpt lat="44.1168733" lon="8.1178867"><ele>144.8</ele><time>2026-05-02T16:17:40.354Z</time></trkpt><trkpt lat="44.1169817" lon="8.117905"><ele>147.4</ele><time>2026-05-02T16:17:41.348Z</time></trkpt><trkpt lat="44.1170767" lon="8.117895"><ele>150.0</ele><time>2026-05-02T16:17:42.35Z</time></trkpt><trkpt lat="44.1171517" lon="8.1178567"><ele>150.0</ele><time>2026-05-02T16:17:43.349Z</time></trkpt><trkpt lat="44.1172067" lon="8.1177833"><ele>150.0</ele><time>2026-05-02T16:17:44.354Z</time></trkpt><trkpt lat="44.1172517" lon="8.117645"><ele>150.0</ele><time>2026-05-02T16:17:45.351Z</time></trkpt><trkpt lat="44.1172967" lon="8.1175"><ele>150.0</ele><time>2026-05-02T16:17:46.351Z</time></trkpt><trkpt lat="44.1173417" lon="8.11734"><ele>150.0</ele><time>2026-05-02T16:17:47.35Z</time></trkpt><trkpt lat="44.1173783" lon="8.1171833"><ele>153.2</ele><time>2026-05-02T16:17:48.353Z</time></trkpt><trkpt lat="44.11742" lon="8.1170367"><ele>156.4</ele><time>2026-05-02T16:17:49.352Z</time></trkpt><trkpt lat="44.1174717" lon="8.1169"><ele>159.60000000000002</ele><time>2026-05-02T16:17:50.348Z</time></trkpt><trkpt lat="44.11754" lon="8.1168033"><ele>162.8</ele><time>2026-05-02T16:17:51.351Z</time></trkpt><trkpt lat="44.1176217" lon="8.1167617"><ele>166.0</ele><time>2026-05-02T16:17:52.352Z</time></trkpt><trkpt lat="44.117715" lon="8.1167583"><ele>166.0</ele><time>2026-05-02T16:17:53.354Z</time></trkpt><trkpt lat="44.1178133" lon="8.116785"><ele>166.0</ele><time>2026-05-02T16:17:54.354Z</time></trkpt><trkpt lat="44.1179067" lon="8.11681"><ele>166.0</ele><time>2026-05-02T16:17:55.35Z</time></trkpt><trkpt lat="44.11799" lon="8.1168167"><ele>166.0</ele><time>2026-05-02T16:17:56.353Z</time></trkpt><trkpt lat="44.11807" lon="8.1168"><ele>166.0</ele><time>2026-05-02T16:17:57.35Z</time></trkpt><trkpt lat="44.1181717" lon="8.1167267"><ele>166.0</ele><time>2026-05-02T16:17:59.354Z</time></trkpt><trkpt lat="44.118125" lon="8.11663"><ele>166.0</ele><time>2026-05-02T16:18:00.351Z</time></trkpt><trkpt lat="44.1180767" lon="8.1165417"><ele>166.0</ele><time>2026-05-02T16:18:01.35Z</time></trkpt><trkpt lat="44.1180283" lon="8.116435"><ele>166.0</ele><time>2026-05-02T16:18:02.352Z</time></trkpt><trkpt lat="44.1179967" lon="8.1163217"><ele>166.0</ele><time>2026-05-02T16:18:03.356Z</time></trkpt><trkpt lat="44.118015" lon="8.1161883"><ele>166.0</ele><time>2026-05-02T16:18:04.352Z</time></trkpt><trkpt lat="44.1180767" lon="8.1160667"><ele>166.8</ele><time>2026-05-02T16:18:05.353Z</time></trkpt><trkpt lat="44.1181667" lon="8.1159783"><ele>167.60000000000002</ele><time>2026-05-02T16:18:06.35Z</time></trkpt><trkpt lat="44.118255" lon="8.1159267"><ele>168.4</ele><time>2026-05-02T16:18:07.353Z</time></trkpt><trkpt lat="44.1183483" lon="8.1158967"><ele>169.2</ele><time>2026-05-02T16:18:08.348Z</time></trkpt><trkpt lat="44.11845" lon="8.11588"><ele>170.0</ele><time>2026-05-02T16:18:09.351Z</time></trkpt><trkpt lat="44.1185567" lon="8.1158817"><ele>170.0</ele><time>2026-05-02T16:18:10.349Z</time></trkpt><trkpt lat="44.11867" lon="8.1159017"><ele>170.0</ele><time>2026-05-02T16:18:11.353Z</time></trkpt><trkpt lat="44.1187867" lon="8.1159367"><ele>170.0</ele><time>2026-05-02T16:18:12.352Z</time></trkpt><trkpt lat="44.1189067" lon="8.11598"><ele>170.0</ele><time>2026-05-02T16:18:13.348Z</time></trkpt><trkpt lat="44.11903" lon="8.1160467"><ele>171.0</ele><time>2026-05-02T16:18:14.351Z</time></trkpt><trkpt lat="44.1191733" lon="8.116135"><ele>172.0</ele><time>2026-05-02T16:18:15.353Z</time></trkpt><trkpt lat="44.1193333" lon="8.1162483"><ele>173.0</ele><time>2026-05-02T16:18:16.349Z</time></trkpt><trkpt lat="44.1194933" lon="8.1163783"><ele>173.0</ele><time>2026-05-02T16:18:17.352Z</time></trkpt><trkpt lat="44.119635" lon="8.1165017"><ele>173.0</ele><time>2026-05-02T16:18:18.35Z</time></trkpt><trkpt lat="44.1197617" lon="8.1166033"><ele>173.0</ele><time>2026-05-02T16:18:19.351Z</time></trkpt><trkpt lat="44.11989" lon="8.116675"><ele>178.0</ele><time>2026-05-02T16:18:20.353Z</time></trkpt><trkpt lat="44.120025" lon="8.1167067"><ele>183.0</ele><time>2026-05-02T16:18:21.353Z</time></trkpt><trkpt lat="44.12016" lon="8.116735"><ele>188.0</ele><time>2026-05-02T16:18:22.354Z</time></trkpt><trkpt lat="44.1202867" lon="8.116775"><ele>193.0</ele><time>2026-05-02T16:18:23.352Z</time></trkpt><trkpt lat="44.1203833" lon="8.1168367"><ele>193.0</ele><time>2026-05-02T16:18:24.351Z</time></trkpt><trkpt lat="44.1204517" lon="8.1169317"><ele>193.0</ele><time>2026-05-02T16:18:25.352Z</time></trkpt><trkpt lat="44.1204967" lon="8.1170467"><ele>193.0</ele><time>2026-05-02T16:18:26.35Z</time></trkpt><trkpt lat="44.1205517" lon="8.1171467"><ele>193.0</ele><time>2026-05-02T16:18:27.354Z</time></trkpt><trkpt lat="44.120605" lon="8.1172217"><ele>193.0</ele><time>2026-05-02T16:18:28.352Z</time></trkpt><trkpt lat="44.1207017" lon="8.1172233"><ele>193.75</ele><time>2026-05-02T16:18:29.35Z</time></trkpt><trkpt lat="44.1207917" lon="8.1171817"><ele>194.5</ele><time>2026-05-02T16:18:30.35Z</time></trkpt><trkpt lat="44.1208817" lon="8.1170767"><ele>195.25</ele><time>2026-05-02T16:18:31.349Z</time></trkpt><trkpt lat="44.120965" lon="8.1169333"><ele>196.0</ele><time>2026-05-02T16:18:32.357Z</time></trkpt><trkpt lat="44.12103" lon="8.1167617"><ele>196.0</ele><time>2026-05-02T16:18:33.351Z</time></trkpt><trkpt lat="44.1210767" lon="8.1165833"><ele>196.0</ele><time>2026-05-02T16:18:34.355Z</time></trkpt><trkpt lat="44.1211183" lon="8.1164183"><ele>196.0</ele><time>2026-05-02T16:18:35.351Z</time></trkpt><trkpt lat="44.12117" lon="8.116275"><ele>196.0</ele><time>2026-05-02T16:18:36.348Z</time></trkpt><trkpt lat="44.1212483" lon="8.1161833"><ele>197.0</ele><time>2026-05-02T16:18:37.351Z</time></trkpt><trkpt lat="44.12135" lon="8.1161617"><ele>198.0</ele><time>2026-05-02T16:18:38.358Z</time></trkpt><trkpt lat="44.1214683" lon="8.11616"><ele>199.0</ele><time>2026-05-02T16:18:39.351Z</time></trkpt><trkpt lat="44.121595" lon="8.1161683"><ele>200.0</ele><time>2026-05-02T16:18:40.354Z</time></trkpt><trkpt lat="44.1217083" lon="8.1161333"><ele>200.0</ele><time>2026-05-02T16:18:41.353Z</time></trkpt><trkpt lat="44.1218" lon="8.1160483"><ele>200.0</ele><time>2026-05-02T16:18:42.349Z</time></trkpt><trkpt lat="44.12187" lon="8.1159133"><ele>200.0</ele><time>2026-05-02T16:18:43.352Z</time></trkpt><trkpt lat="44.12192" lon="8.1157467"><ele>200.0</ele><time>2026-05-02T16:18:44.348Z</time></trkpt><trkpt lat="44.121955" lon="8.11557"><ele>195.75</ele><time>2026-05-02T16:18:45.352Z</time></trkpt><trkpt lat="44.1219817" lon="8.1153883"><ele>191.5</ele><time>2026-05-02T16:18:46.349Z</time></trkpt><trkpt lat="44.12203" lon="8.11523"><ele>187.25</ele><time>2026-05-02T16:18:47.353Z</time></trkpt><trkpt lat="44.1221017" lon="8.1150983"><ele>183.0</ele><time>2026-05-02T16:18:48.35Z</time></trkpt><trkpt lat="44.1221967" lon="8.1149933"><ele>183.0</ele><time>2026-05-02T16:18:49.349Z</time></trkpt><trkpt lat="44.122305" lon="8.1149183"><ele>183.0</ele><time>2026-05-02T16:18:50.35Z</time></trkpt><trkpt lat="44.1224267" lon="8.1148817"><ele>183.0</ele><time>2026-05-02T16:18:51.349Z</time></trkpt><trkpt lat="44.1225617" lon="8.11488"><ele>183.0</ele><time>2026-05-02T16:18:52.352Z</time></trkpt><trkpt lat="44.1227033" lon="8.11491"><ele>190.75</ele><time>2026-05-02T16:18:53.354Z</time></trkpt><trkpt lat="44.1228433" lon="8.1149667"><ele>198.5</ele><time>2026-05-02T16:18:54.352Z</time></trkpt><trkpt lat="44.1229783" lon="8.1150317"><ele>206.25</ele><time>2026-05-02T16:18:55.353Z</time></trkpt><trkpt lat="44.1231" lon="8.1150617"><ele>214.0</ele><time>2026-05-02T16:18:56.353Z</time></trkpt><trkpt lat="44.123215" lon="8.1150833"><ele>215.5</ele><time>2026-05-02T16:18:57.352Z</time></trkpt><trkpt lat="44.1233183" lon="8.1150683"><ele>217.0</ele><time>2026-05-02T16:18:58.352Z</time></trkpt><trkpt lat="44.1234133" lon="8.1150033"><ele>218.5</ele><time>2026-05-02T16:18:59.35Z</time></trkpt><trkpt lat="44.1235133" lon="8.1149017"><ele>220.0</ele><time>2026-05-02T16:19:00.35Z</time></trkpt><trkpt lat="44.123625" lon="8.1147833"><ele>216.0</ele><time>2026-05-02T16:19:01.353Z</time></trkpt><trkpt lat="44.1237483" lon="8.114675"><ele>212.0</ele><time>2026-05-02T16:19:02.352Z</time></trkpt><trkpt lat="44.1238717" lon="8.1146017"><ele>208.0</ele><time>2026-05-02T16:19:03.355Z</time></trkpt><trkpt lat="44.1239933" lon="8.1145867"><ele>204.0</ele><time>2026-05-02T16:19:04.351Z</time></trkpt><trkpt lat="44.1241067" lon="8.1146067"><ele>204.0</ele><time>2026-05-02T16:19:05.351Z</time></trkpt><trkpt lat="44.124215" lon="8.114625"><ele>204.0</ele><time>2026-05-02T16:19:06.358Z</time></trkpt><trkpt lat="44.1243067" lon="8.1145883"><ele>204.0</ele><time>2026-05-02T16:19:07.353Z</time></trkpt><trkpt lat="44.1244067" lon="8.1145033"><ele>204.0</ele><time>2026-05-02T16:19:08.354Z</time></trkpt><trkpt lat="44.1245167" lon="8.1144017"><ele>204.0</ele><time>2026-05-02T16:19:09.351Z</time></trkpt><trkpt lat="44.124635" lon="8.1142983"><ele>204.0</ele><time>2026-05-02T16:19:10.352Z</time></trkpt><trkpt lat="44.1247533" lon="8.1142183"><ele>204.0</ele><time>2026-05-02T16:19:11.353Z</time></trkpt><trkpt lat="44.1248833" lon="8.1141767"><ele>204.0</ele><time>2026-05-02T16:19:12.349Z</time></trkpt><trkpt lat="44.1250267" lon="8.1141617"><ele>209.33333333333331</ele><time>2026-05-02T16:19:13.351Z</time></trkpt><trkpt lat="44.1251817" lon="8.1141517"><ele>214.66666666666666</ele><time>2026-05-02T16:19:14.349Z</time></trkpt><trkpt lat="44.12535" lon="8.114145"><ele>220.0</ele><time>2026-05-02T16:19:15.353Z</time></trkpt><trkpt lat="44.1255233" lon="8.1141517"><ele>220.0</ele><time>2026-05-02T16:19:16.352Z</time></trkpt><trkpt lat="44.1256917" lon="8.1141633"><ele>220.0</ele><time>2026-05-02T16:19:17.349Z</time></trkpt><trkpt lat="44.1258583" lon="8.114195"><ele>220.0</ele><time>2026-05-02T16:19:18.352Z</time></trkpt><trkpt lat="44.1260183" lon="8.11426"><ele>223.75</ele><time>2026-05-02T16:19:19.354Z</time></trkpt><trkpt lat="44.1261617" lon="8.1143283"><ele>227.5</ele><time>2026-05-02T16:19:20.353Z</time></trkpt><trkpt lat="44.1262883" lon="8.114385"><ele>231.25</ele><time>2026-05-02T16:19:21.35Z</time></trkpt><trkpt lat="44.1263917" lon="8.1144083"><ele>235.0</ele><time>2026-05-02T16:19:22.353Z</time></trkpt><trkpt lat="44.126475" lon="8.1143733"><ele>235.0</ele><time>2026-05-02T16:19:23.348Z</time></trkpt><trkpt lat="44.1265417" lon="8.1143117"><ele>235.0</ele><time>2026-05-02T16:19:24.349Z</time></trkpt><trkpt lat="44.1265733" lon="8.1142017"><ele>235.0</ele><time>2026-05-02T16:19:25.351Z</time></trkpt><trkpt lat="44.1265617" lon="8.1140783"><ele>235.0</ele><time>2026-05-02T16:19:26.352Z</time></trkpt><trkpt lat="44.126515" lon="8.1139517"><ele>235.0</ele><time>2026-05-02T16:19:27.356Z</time></trkpt><trkpt lat="44.126445" lon="8.1138233"><ele>227.25</ele><time>2026-05-02T16:19:28.353Z</time></trkpt><trkpt lat="44.126385" lon="8.1136717"><ele>219.5</ele><time>2026-05-02T16:19:29.353Z</time></trkpt><trkpt lat="44.1263567" lon="8.1135083"><ele>211.75</ele><time>2026-05-02T16:19:30.352Z</time></trkpt><trkpt lat="44.12636" lon="8.113345"><ele>204.0</ele><time>2026-05-02T16:19:31.353Z</time></trkpt><trkpt lat="44.1263967" lon="8.1131883"><ele>199.6</ele><time>2026-05-02T16:19:32.352Z</time></trkpt><trkpt lat="44.1264567" lon="8.1130483"><ele>195.2</ele><time>2026-05-02T16:19:33.352Z</time></trkpt><trkpt lat="44.1265317" lon="8.1129133"><ele>190.79999999999998</ele><time>2026-05-02T16:19:34.353Z</time></trkpt><trkpt lat="44.1266033" lon="8.1128"><ele>186.39999999999998</ele><time>2026-05-02T16:19:35.353Z</time></trkpt><trkpt lat="44.1266667" lon="8.112705"><ele>182.0</ele><time>2026-05-02T16:19:36.353Z</time></trkpt><trkpt lat="44.126735" lon="8.1126183"><ele>186.2</ele><time>2026-05-02T16:19:37.352Z</time></trkpt><trkpt lat="44.1268117" lon="8.1125467"><ele>190.39999999999998</ele><time>2026-05-02T16:19:38.352Z</time></trkpt><trkpt lat="44.1269017" lon="8.1124933"><ele>194.60000000000002</ele><time>2026-05-02T16:19:39.354Z</time></trkpt><trkpt lat="44.1270033" lon="8.1124383"><ele>198.8</ele><time>2026-05-02T16:19:40.353Z</time></trkpt><trkpt lat="44.12711" lon="8.1123933"><ele>203.0</ele><time>2026-05-02T16:19:41.353Z</time></trkpt><trkpt lat="44.127225" lon="8.112375"><ele>203.0</ele><time>2026-05-02T16:19:42.352Z</time></trkpt><trkpt lat="44.127345" lon="8.112385"><ele>203.0</ele><time>2026-05-02T16:19:43.352Z</time></trkpt><trkpt lat="44.1274583" lon="8.112435"><ele>203.0</ele><time>2026-05-02T16:19:44.353Z</time></trkpt><trkpt lat="44.1275583" lon="8.112505"><ele>203.0</ele><time>2026-05-02T16:19:45.355Z</time></trkpt><trkpt lat="44.1276567" lon="8.112585"><ele>214.0</ele><time>2026-05-02T16:19:46.354Z</time></trkpt><trkpt lat="44.1277517" lon="8.1126517"><ele>225.0</ele><time>2026-05-02T16:19:47.35Z</time></trkpt><trkpt lat="44.127845" lon="8.112675"><ele>236.0</ele><time>2026-05-02T16:19:48.353Z</time></trkpt><trkpt lat="44.1279383" lon="8.1126633"><ele>247.0</ele><time>2026-05-02T16:19:49.353Z</time></trkpt><trkpt lat="44.1280317" lon="8.112615"><ele>258.0</ele><time>2026-05-02T16:19:50.351Z</time></trkpt><trkpt lat="44.1281283" lon="8.11255"><ele>259.2</ele><time>2026-05-02T16:19:51.355Z</time></trkpt><trkpt lat="44.1282267" lon="8.1124833"><ele>260.4</ele><time>2026-05-02T16:19:52.353Z</time></trkpt><trkpt lat="44.1283333" lon="8.11244"><ele>261.59999999999997</ele><time>2026-05-02T16:19:53.354Z</time></trkpt><trkpt lat="44.1284467" lon="8.1124167"><ele>262.8</ele><time>2026-05-02T16:19:54.355Z</time></trkpt><trkpt lat="44.1285583" lon="8.1123983"><ele>264.0</ele><time>2026-05-02T16:19:55.354Z</time></trkpt><trkpt lat="44.1286633" lon="8.1123567"><ele>256.4</ele><time>2026-05-02T16:19:56.353Z</time></trkpt><trkpt lat="44.1287483" lon="8.1122783"><ele>248.79999999999998</ele><time>2026-05-02T16:19:57.352Z</time></trkpt><trkpt lat="44.1288217" lon="8.11217"><ele>241.20000000000002</ele><time>2026-05-02T16:19:58.356Z</time></trkpt><trkpt lat="44.1288683" lon="8.1120333"><ele>233.60000000000002</ele><time>2026-05-02T16:19:59.351Z</time></trkpt><trkpt lat="44.1289017" lon="8.1118983"><ele>226.0</ele><time>2026-05-02T16:20:00.352Z</time></trkpt><trkpt lat="44.1289467" lon="8.1117833"><ele>226.0</ele><time>2026-05-02T16:20:01.351Z</time></trkpt><trkpt lat="44.1290033" lon="8.1116983"><ele>226.00000000000003</ele><time>2026-05-02T16:20:02.353Z</time></trkpt><trkpt lat="44.12909" lon="8.1116883"><ele>226.00000000000003</ele><time>2026-05-02T16:20:03.354Z</time></trkpt><trkpt lat="44.12918" lon="8.1117167"><ele>226.0</ele><time>2026-05-02T16:20:04.354Z</time></trkpt><trkpt lat="44.1292933" lon="8.1117633"><ele>226.0</ele><time>2026-05-02T16:20:05.353Z</time></trkpt><trkpt lat="44.1294117" lon="8.11181"><ele>231.25</ele><time>2026-05-02T16:20:06.354Z</time></trkpt><trkpt lat="44.1295383" lon="8.111855"><ele>236.5</ele><time>2026-05-02T16:20:07.351Z</time></trkpt><trkpt lat="44.1296667" lon="8.1119067"><ele>241.75</ele><time>2026-05-02T16:20:08.352Z</time></trkpt><trkpt lat="44.129785" lon="8.1119767"><ele>247.0</ele><time>2026-05-02T16:20:09.353Z</time></trkpt><trkpt lat="44.12989" lon="8.1120833"><ele>247.2</ele><time>2026-05-02T16:20:10.353Z</time></trkpt><trkpt lat="44.1299867" lon="8.1122033"><ele>247.39999999999998</ele><time>2026-05-02T16:20:11.354Z</time></trkpt><trkpt lat="44.1300783" lon="8.1122983"><ele>247.60000000000002</ele><time>2026-05-02T16:20:12.355Z</time></trkpt><trkpt lat="44.1301717" lon="8.1123517"><ele>247.8</ele><time>2026-05-02T16:20:13.351Z</time></trkpt><trkpt lat="44.1302633" lon="8.1123483"><ele>248.0</ele><time>2026-05-02T16:20:14.351Z</time></trkpt><trkpt lat="44.13036" lon="8.1122967"><ele>248.0</ele><time>2026-05-02T16:20:15.351Z</time></trkpt><trkpt lat="44.1304633" lon="8.1122083"><ele>248.0</ele><time>2026-05-02T16:20:16.354Z</time></trkpt><trkpt lat="44.130585" lon="8.112125"><ele>248.0</ele><time>2026-05-02T16:20:17.353Z</time></trkpt><trkpt lat="44.130715" lon="8.1120433"><ele>248.0</ele><time>2026-05-02T16:20:18.351Z</time></trkpt><trkpt lat="44.13084" lon="8.1119817"><ele>248.75</ele><time>2026-05-02T16:20:19.353Z</time></trkpt><trkpt lat="44.1309667" lon="8.1119683"><ele>249.5</ele><time>2026-05-02T16:20:20.352Z</time></trkpt><trkpt lat="44.1310883" lon="8.1119967"><ele>250.25</ele><time>2026-05-02T16:20:21.353Z</time></trkpt><trkpt lat="44.1312033" lon="8.1120333"><ele>251.0</ele><time>2026-05-02T16:20:22.351Z</time></trkpt><trkpt lat="44.13131" lon="8.1120367"><ele>251.0</ele><time>2026-05-02T16:20:23.354Z</time></trkpt><trkpt lat="44.1314" lon="8.1119783"><ele>251.0</ele><time>2026-05-02T16:20:24.352Z</time></trkpt><trkpt lat="44.1314917" lon="8.1118617"><ele>251.0</ele><time>2026-05-02T16:20:25.354Z</time></trkpt><trkpt lat="44.131595" lon="8.11173"><ele>251.0</ele><time>2026-05-02T16:20:26.354Z</time></trkpt><trkpt lat="44.1317083" lon="8.1116133"><ele>250.75</ele><time>2026-05-02T16:20:27.354Z</time></trkpt><trkpt lat="44.1318367" lon="8.111515"><ele>250.5</ele><time>2026-05-02T16:20:28.353Z</time></trkpt><trkpt lat="44.1319767" lon="8.1114433"><ele>250.25</ele><time>2026-05-02T16:20:29.351Z</time></trkpt><trkpt lat="44.1321267" lon="8.1113983"><ele>250.0</ele><time>2026-05-02T16:20:30.355Z</time></trkpt><trkpt lat="44.1322867" lon="8.1113667"><ele>253.5</ele><time>2026-05-02T16:20:31.349Z</time></trkpt><trkpt lat="44.1324417" lon="8.1113383"><ele>257.0</ele><time>2026-05-02T16:20:32.354Z</time></trkpt><trkpt lat="44.1325867" lon="8.1113183"><ele>260.5</ele><time>2026-05-02T16:20:33.354Z</time></trkpt><trkpt lat="44.13273" lon="8.1113067"><ele>264.0</ele><time>2026-05-02T16:20:34.349Z</time></trkpt><trkpt lat="44.1328733" lon="8.1113283"><ele>264.0</ele><time>2026-05-02T16:20:35.356Z</time></trkpt><trkpt lat="44.1330217" lon="8.1113717"><ele>264.0</ele><time>2026-05-02T16:20:36.352Z</time></trkpt><trkpt lat="44.1331783" lon="8.1114283"><ele>264.0</ele><time>2026-05-02T16:20:37.353Z</time></trkpt><trkpt lat="44.1333433" lon="8.1114767"><ele>265.25</ele><time>2026-05-02T16:20:38.353Z</time></trkpt><trkpt lat="44.133505" lon="8.1115383"><ele>266.5</ele><time>2026-05-02T16:20:39.351Z</time></trkpt><trkpt lat="44.1336533" lon="8.1115867"><ele>267.75</ele><time>2026-05-02T16:20:40.355Z</time></trkpt><trkpt lat="44.1337767" lon="8.1115917"><ele>269.0</ele><time>2026-05-02T16:20:41.352Z</time></trkpt><trkpt lat="44.1338733" lon="8.111555"><ele>269.0</ele><time>2026-05-02T16:20:42.351Z</time></trkpt><trkpt lat="44.1339617" lon="8.11148"><ele>269.0</ele><time>2026-05-02T16:20:43.353Z</time></trkpt><trkpt lat="44.1340567" lon="8.111395"><ele>269.0</ele><time>2026-05-02T16:20:44.349Z</time></trkpt><trkpt lat="44.1341633" lon="8.1113183"><ele>269.0</ele><time>2026-05-02T16:20:45.355Z</time></trkpt><trkpt lat="44.1342833" lon="8.111265"><ele>271.75</ele><time>2026-05-02T16:20:46.355Z</time></trkpt><trkpt lat="44.1344217" lon="8.1112317"><ele>274.5</ele><time>2026-05-02T16:20:47.352Z</time></trkpt><trkpt lat="44.1345667" lon="8.1112217"><ele>277.25</ele><time>2026-05-02T16:20:48.354Z</time></trkpt><trkpt lat="44.1347233" lon="8.1112333"><ele>280.0</ele><time>2026-05-02T16:20:49.355Z</time></trkpt><trkpt lat="44.1348833" lon="8.11127"><ele>275.0</ele><time>2026-05-02T16:20:50.353Z</time></trkpt><trkpt lat="44.1350483" lon="8.1113417"><ele>270.0</ele><time>2026-05-02T16:20:51.351Z</time></trkpt><trkpt lat="44.13522" lon="8.1114333"><ele>265.0</ele><time>2026-05-02T16:20:52.35Z</time></trkpt><trkpt lat="44.13539" lon="8.1115283"><ele>269.0</ele><time>2026-05-02T16:20:53.355Z</time></trkpt><trkpt lat="44.1355483" lon="8.111635"><ele>273.0</ele><time>2026-05-02T16:20:54.348Z</time></trkpt><trkpt lat="44.1356983" lon="8.1117617"><ele>277.0</ele><time>2026-05-02T16:20:55.353Z</time></trkpt><trkpt lat="44.1358217" lon="8.1119133"><ele>277.0</ele><time>2026-05-02T16:20:56.351Z</time></trkpt><trkpt lat="44.1359367" lon="8.1120733"><ele>277.0</ele><time>2026-05-02T16:20:57.354Z</time></trkpt><trkpt lat="44.136065" lon="8.1122083"><ele>277.0</ele><time>2026-05-02T16:20:58.351Z</time></trkpt><trkpt lat="44.1361983" lon="8.1123233"><ele>284.0</ele><time>2026-05-02T16:20:59.356Z</time></trkpt><trkpt lat="44.1363083" lon="8.112425"><ele>291.0</ele><time>2026-05-02T16:21:00.351Z</time></trkpt><trkpt lat="44.1363917" lon="8.1125183"><ele>298.0</ele><time>2026-05-02T16:21:01.351Z</time></trkpt><trkpt lat="44.1364367" lon="8.1126267"><ele>305.0</ele><time>2026-05-02T16:21:02.349Z</time></trkpt><trkpt lat="44.1364617" lon="8.1127417"><ele>312.0</ele><time>2026-05-02T16:21:03.354Z</time></trkpt><trkpt lat="44.136485" lon="8.11286"><ele>312.0</ele><time>2026-05-02T16:21:04.353Z</time></trkpt><trkpt lat="44.13653" lon="8.112955"><ele>312.0</ele><time>2026-05-02T16:21:05.353Z</time></trkpt><trkpt lat="44.1365967" lon="8.1130283"><ele>312.0</ele><time>2026-05-02T16:21:06.355Z</time></trkpt><trkpt lat="44.136685" lon="8.1130983"><ele>312.0</ele><time>2026-05-02T16:21:07.357Z</time></trkpt><trkpt lat="44.1367817" lon="8.1131717"><ele>312.0</ele><time>2026-05-02T16:21:08.354Z</time></trkpt><trkpt lat="44.13687" lon="8.11323"><ele>309.8</ele><time>2026-05-02T16:21:09.353Z</time></trkpt><trkpt lat="44.1369483" lon="8.1132533"><ele>307.6</ele><time>2026-05-02T16:21:10.356Z</time></trkpt><trkpt lat="44.1370183" lon="8.1132633"><ele>305.40000000000003</ele><time>2026-05-02T16:21:11.35Z</time></trkpt><trkpt lat="44.1370817" lon="8.113105"><ele>303.2</ele><time>2026-05-02T16:21:13.353Z</time></trkpt><trkpt lat="44.1370917" lon="8.1129567"><ele>301.0</ele><time>2026-05-02T16:21:14.352Z</time></trkpt><trkpt lat="44.1371133" lon="8.1127917"><ele>295.8</ele><time>2026-05-02T16:21:15.353Z</time></trkpt><trkpt lat="44.1371333" lon="8.1126233"><ele>290.6</ele><time>2026-05-02T16:21:16.359Z</time></trkpt><trkpt lat="44.1371683" lon="8.112475"><ele>285.4</ele><time>2026-05-02T16:21:17.355Z</time></trkpt><trkpt lat="44.13722" lon="8.112365"><ele>280.2</ele><time>2026-05-02T16:21:18.358Z</time></trkpt><trkpt lat="44.137285" lon="8.1122783"><ele>275.0</ele><time>2026-05-02T16:21:19.358Z</time></trkpt><trkpt lat="44.1373917" lon="8.1122683"><ele>270.75</ele><time>2026-05-02T16:21:20.355Z</time></trkpt><trkpt lat="44.137515" lon="8.1122367"><ele>266.5</ele><time>2026-05-02T16:21:21.352Z</time></trkpt><trkpt lat="44.1376517" lon="8.1121867"><ele>262.25</ele><time>2026-05-02T16:21:22.352Z</time></trkpt><trkpt lat="44.1377933" lon="8.1121133"><ele>258.0</ele><time>2026-05-02T16:21:23.353Z</time></trkpt><trkpt lat="44.1379467" lon="8.1120317"><ele>258.0</ele><time>2026-05-02T16:21:24.352Z</time></trkpt><trkpt lat="44.1380983" lon="8.11195"><ele>258.0</ele><time>2026-05-02T16:21:25.354Z</time></trkpt><trkpt lat="44.1382317" lon="8.111865"><ele>258.0</ele><time>2026-05-02T16:21:26.354Z</time></trkpt><trkpt lat="44.1383367" lon="8.111755"><ele>258.0</ele><time>2026-05-02T16:21:27.352Z</time></trkpt><trkpt lat="44.1384267" lon="8.1116067"><ele>260.0</ele><time>2026-05-02T16:21:28.352Z</time></trkpt><trkpt lat="44.1385083" lon="8.1114417"><ele>262.0</ele><time>2026-05-02T16:21:29.356Z</time></trkpt><trkpt lat="44.13859" lon="8.1112783"><ele>264.0</ele><time>2026-05-02T16:21:30.352Z</time></trkpt><trkpt lat="44.1386667" lon="8.1111417"><ele>266.0</ele><time>2026-05-02T16:21:31.356Z</time></trkpt><trkpt lat="44.1387483" lon="8.1110433"><ele>266.0</ele><time>2026-05-02T16:21:32.354Z</time></trkpt><trkpt lat="44.13884" lon="8.11098"><ele>266.0</ele><time>2026-05-02T16:21:33.36Z</time></trkpt><trkpt lat="44.138915" lon="8.1109083"><ele>266.0</ele><time>2026-05-02T16:21:34.355Z</time></trkpt><trkpt lat="44.1389583" lon="8.1108067"><ele>266.0</ele><time>2026-05-02T16:21:35.351Z</time></trkpt><trkpt lat="44.138985" lon="8.11071"><ele>266.0</ele><time>2026-05-02T16:21:36.353Z</time></trkpt><trkpt lat="44.1389483" lon="8.1106"><ele>266.0</ele><time>2026-05-02T16:21:37.352Z</time></trkpt><trkpt lat="44.1388783" lon="8.11051"><ele>272.0</ele><time>2026-05-02T16:21:38.357Z</time></trkpt><trkpt lat="44.1387867" lon="8.1104467"><ele>278.0</ele><time>2026-05-02T16:21:39.351Z</time></trkpt><trkpt lat="44.1386733" lon="8.1104333"><ele>284.0</ele><time>2026-05-02T16:21:40.355Z</time></trkpt><trkpt lat="44.1385517" lon="8.110465"><ele>290.0</ele><time>2026-05-02T16:21:41.354Z</time></trkpt><trkpt lat="44.138415" lon="8.1105317"><ele>290.0</ele><time>2026-05-02T16:21:42.354Z</time></trkpt><trkpt lat="44.1382717" lon="8.1105867"><ele>290.0</ele><time>2026-05-02T16:21:43.351Z</time></trkpt><trkpt lat="44.1381167" lon="8.110625"><ele>290.0</ele><time>2026-05-02T16:21:44.353Z</time></trkpt><trkpt lat="44.13796" lon="8.1106767"><ele>285.6666666666667</ele><time>2026-05-02T16:21:45.355Z</time></trkpt><trkpt lat="44.137805" lon="8.110735"><ele>281.3333333333333</ele><time>2026-05-02T16:21:46.353Z</time></trkpt><trkpt lat="44.1376483" lon="8.1107967"><ele>277.0</ele><time>2026-05-02T16:21:47.354Z</time></trkpt><trkpt lat="44.1374917" lon="8.1108533"><ele>272.5</ele><time>2026-05-02T16:21:48.357Z</time></trkpt><trkpt lat="44.13734" lon="8.11089"><ele>268.0</ele><time>2026-05-02T16:21:49.353Z</time></trkpt><trkpt lat="44.1372133" lon="8.1108917"><ele>263.5</ele><time>2026-05-02T16:21:50.351Z</time></trkpt><trkpt lat="44.13711" lon="8.1108783"><ele>259.0</ele><time>2026-05-02T16:21:51.353Z</time></trkpt><trkpt lat="44.1370283" lon="8.1108567"><ele>259.0</ele><time>2026-05-02T16:21:52.354Z</time></trkpt><trkpt lat="44.1369583" lon="8.11082"><ele>259.0</ele><time>2026-05-02T16:21:53.353Z</time></trkpt><trkpt lat="44.13692" lon="8.110715"><ele>259.0</ele><time>2026-05-02T16:21:54.353Z</time></trkpt><trkpt lat="44.1368867" lon="8.1106083"><ele>259.0</ele><time>2026-05-02T16:21:55.354Z</time></trkpt><trkpt lat="44.136865" lon="8.11048"><ele>259.0</ele><time>2026-05-02T16:21:56.353Z</time></trkpt><trkpt lat="44.1368383" lon="8.110315"><ele>263.75</ele><time>2026-05-02T16:21:57.354Z</time></trkpt><trkpt lat="44.1368117" lon="8.1101283"><ele>268.5</ele><time>2026-05-02T16:21:58.358Z</time></trkpt><trkpt lat="44.136775" lon="8.1099517"><ele>273.25</ele><time>2026-05-02T16:21:59.354Z</time></trkpt><trkpt lat="44.1367283" lon="8.1097833"><ele>278.0</ele><time>2026-05-02T16:22:00.352Z</time></trkpt><trkpt lat="44.1366633" lon="8.1096233"><ele>279.75</ele><time>2026-05-02T16:22:01.355Z</time></trkpt><trkpt lat="44.1365683" lon="8.1094817"><ele>281.5</ele><time>2026-05-02T16:22:02.352Z</time></trkpt><trkpt lat="44.1364583" lon="8.10936"><ele>283.25</ele><time>2026-05-02T16:22:03.356Z</time></trkpt><trkpt lat="44.1363567" lon="8.10926"><ele>285.0</ele><time>2026-05-02T16:22:04.354Z</time></trkpt><trkpt lat="44.13628" lon="8.1091517"><ele>292.4</ele><time>2026-05-02T16:22:05.352Z</time></trkpt><trkpt lat="44.13621" lon="8.1090667"><ele>299.8</ele><time>2026-05-02T16:22:06.354Z</time></trkpt><trkpt lat="44.13612" lon="8.1090267"><ele>307.20000000000005</ele><time>2026-05-02T16:22:07.354Z</time></trkpt><trkpt lat="44.1360167" lon="8.10902"><ele>314.6</ele><time>2026-05-02T16:22:08.354Z</time></trkpt><trkpt lat="44.1359" lon="8.1090317"><ele>322.0</ele><time>2026-05-02T16:22:09.356Z</time></trkpt><trkpt lat="44.13578" lon="8.109045"><ele>314.6</ele><time>2026-05-02T16:22:10.349Z</time></trkpt><trkpt lat="44.135665" lon="8.109045"><ele>307.20000000000005</ele><time>2026-05-02T16:22:11.352Z</time></trkpt><trkpt lat="44.13556" lon="8.1090117"><ele>299.8</ele><time>2026-05-02T16:22:12.352Z</time></trkpt><trkpt lat="44.1354783" lon="8.1089583"><ele>292.4</ele><time>2026-05-02T16:22:13.352Z</time></trkpt><trkpt lat="44.1354183" lon="8.108865"><ele>285.0</ele><time>2026-05-02T16:22:14.356Z</time></trkpt><trkpt lat="44.1353667" lon="8.1087517"><ele>285.0</ele><time>2026-05-02T16:22:15.354Z</time></trkpt><trkpt lat="44.13531" lon="8.10859"><ele>285.0</ele><time>2026-05-02T16:22:16.353Z</time></trkpt><trkpt lat="44.1352417" lon="8.1084067"><ele>285.0</ele><time>2026-05-02T16:22:17.352Z</time></trkpt><trkpt lat="44.1351583" lon="8.10823"><ele>285.0</ele><time>2026-05-02T16:22:18.354Z</time></trkpt><trkpt lat="44.13509" lon="8.10807"><ele>284.2</ele><time>2026-05-02T16:22:19.351Z</time></trkpt><trkpt lat="44.1350417" lon="8.1079233"><ele>283.4</ele><time>2026-05-02T16:22:20.35Z</time></trkpt><trkpt lat="44.13502" lon="8.1077783"><ele>282.6</ele><time>2026-05-02T16:22:21.354Z</time></trkpt><trkpt lat="44.135025" lon="8.10764"><ele>281.8</ele><time>2026-05-02T16:22:22.351Z</time></trkpt><trkpt lat="44.1350533" lon="8.107495"><ele>281.0</ele><time>2026-05-02T16:22:23.349Z</time></trkpt><trkpt lat="44.135105" lon="8.10734"><ele>281.0</ele><time>2026-05-02T16:22:24.35Z</time></trkpt><trkpt lat="44.1351683" lon="8.1071833"><ele>281.0</ele><time>2026-05-02T16:22:25.355Z</time></trkpt><trkpt lat="44.1352333" lon="8.107025"><ele>281.0</ele><time>2026-05-02T16:22:26.349Z</time></trkpt><trkpt lat="44.1352917" lon="8.10688"><ele>281.0</ele><time>2026-05-02T16:22:27.355Z</time></trkpt><trkpt lat="44.13536" lon="8.1067467"><ele>281.0</ele><time>2026-05-02T16:22:28.35Z</time></trkpt><trkpt lat="44.135445" lon="8.106655"><ele>281.0</ele><time>2026-05-02T16:22:29.352Z</time></trkpt><trkpt lat="44.1355383" lon="8.1065733"><ele>281.0</ele><time>2026-05-02T16:22:30.35Z</time></trkpt><trkpt lat="44.1356333" lon="8.1065017"><ele>281.0</ele><time>2026-05-02T16:22:31.349Z</time></trkpt><trkpt lat="44.1357383" lon="8.1064533"><ele>281.0</ele><time>2026-05-02T16:22:32.355Z</time></trkpt><trkpt lat="44.1358517" lon="8.10643"><ele>283.25</ele><time>2026-05-02T16:22:33.355Z</time></trkpt><trkpt lat="44.1359667" lon="8.1064067"><ele>285.5</ele><time>2026-05-02T16:22:34.355Z</time></trkpt><trkpt lat="44.1360733" lon="8.10635"><ele>287.75</ele><time>2026-05-02T16:22:35.352Z</time></trkpt><trkpt lat="44.1361683" lon="8.10626"><ele>290.0</ele><time>2026-05-02T16:22:36.352Z</time></trkpt><trkpt lat="44.1362317" lon="8.1061133"><ele>290.0</ele><time>2026-05-02T16:22:37.353Z</time></trkpt><trkpt lat="44.1362867" lon="8.105945"><ele>290.0</ele><time>2026-05-02T16:22:38.351Z</time></trkpt><trkpt lat="44.1363433" lon="8.105765"><ele>290.0</ele><time>2026-05-02T16:22:39.351Z</time></trkpt><trkpt lat="44.13641" lon="8.1055833"><ele>290.0</ele><time>2026-05-02T16:22:40.351Z</time></trkpt><trkpt lat="44.1364633" lon="8.105385"><ele>293.33333333333337</ele><time>2026-05-02T16:22:41.354Z</time></trkpt><trkpt lat="44.1365017" lon="8.10517"><ele>296.6666666666667</ele><time>2026-05-02T16:22:42.349Z</time></trkpt><trkpt lat="44.13654" lon="8.1049617"><ele>300.0</ele><time>2026-05-02T16:22:43.35Z</time></trkpt><trkpt lat="44.1365867" lon="8.1047667"><ele>300.0</ele><time>2026-05-02T16:22:44.352Z</time></trkpt><trkpt lat="44.13664" lon="8.104595"><ele>300.0</ele><time>2026-05-02T16:22:45.352Z</time></trkpt><trkpt lat="44.1367167" lon="8.104455"><ele>300.0</ele><time>2026-05-02T16:22:46.353Z</time></trkpt><trkpt lat="44.1368133" lon="8.1043533"><ele>300.0</ele><time>2026-05-02T16:22:47.351Z</time></trkpt><trkpt lat="44.1369317" lon="8.104275"><ele>300.0</ele><time>2026-05-02T16:22:48.354Z</time></trkpt><trkpt lat="44.1370617" lon="8.1042033"><ele>300.0</ele><time>2026-05-02T16:22:49.352Z</time></trkpt><trkpt lat="44.1372017" lon="8.1041367"><ele>300.0</ele><time>2026-05-02T16:22:50.355Z</time></trkpt><trkpt lat="44.1373367" lon="8.104075"><ele>300.0</ele><time>2026-05-02T16:22:51.354Z</time></trkpt><trkpt lat="44.137455" lon="8.1040017"><ele>302.8</ele><time>2026-05-02T16:22:52.351Z</time></trkpt><trkpt lat="44.13755" lon="8.1039033"><ele>305.6</ele><time>2026-05-02T16:22:53.354Z</time></trkpt><trkpt lat="44.1376133" lon="8.1037883"><ele>308.4</ele><time>2026-05-02T16:22:54.353Z</time></trkpt><trkpt lat="44.13765" lon="8.1036617"><ele>311.2</ele><time>2026-05-02T16:22:55.356Z</time></trkpt><trkpt lat="44.1376517" lon="8.10353"><ele>314.0</ele><time>2026-05-02T16:22:56.353Z</time></trkpt><trkpt lat="44.1376317" lon="8.1033883"><ele>314.0</ele><time>2026-05-02T16:22:57.353Z</time></trkpt><trkpt lat="44.137605" lon="8.10325"><ele>314.0</ele><time>2026-05-02T16:22:58.352Z</time></trkpt><trkpt lat="44.1375883" lon="8.1031017"><ele>314.0</ele><time>2026-05-02T16:22:59.355Z</time></trkpt><trkpt lat="44.137575" lon="8.1029733"><ele>314.0</ele><time>2026-05-02T16:23:00.353Z</time></trkpt><trkpt lat="44.137595" lon="8.1028467"><ele>314.0</ele><time>2026-05-02T16:23:01.353Z</time></trkpt><trkpt lat="44.1376467" lon="8.1027317"><ele>311.2</ele><time>2026-05-02T16:23:02.351Z</time></trkpt><trkpt lat="44.13772" lon="8.1026283"><ele>308.4</ele><time>2026-05-02T16:23:03.353Z</time></trkpt><trkpt lat="44.1377983" lon="8.1025517"><ele>305.6</ele><time>2026-05-02T16:23:04.352Z</time></trkpt><trkpt lat="44.1378817" lon="8.1025183"><ele>302.8</ele><time>2026-05-02T16:23:05.353Z</time></trkpt><trkpt lat="44.137965" lon="8.1025217"><ele>300.0</ele><time>2026-05-02T16:23:06.355Z</time></trkpt><trkpt lat="44.1380683" lon="8.1025483"><ele>300.0</ele><time>2026-05-02T16:23:07.351Z</time></trkpt><trkpt lat="44.13818" lon="8.102555"><ele>300.0</ele><time>2026-05-02T16:23:08.356Z</time></trkpt><trkpt lat="44.1383017" lon="8.1025767"><ele>300.0</ele><time>2026-05-02T16:23:09.357Z</time></trkpt><trkpt lat="44.1384233" lon="8.1026383"><ele>300.0</ele><time>2026-05-02T16:23:10.351Z</time></trkpt><trkpt lat="44.1385217" lon="8.1027217"><ele>305.2</ele><time>2026-05-02T16:23:11.354Z</time></trkpt><trkpt lat="44.1386083" lon="8.1027817"><ele>310.4</ele><time>2026-05-02T16:23:12.351Z</time></trkpt><trkpt lat="44.138685" lon="8.1027983"><ele>315.6</ele><time>2026-05-02T16:23:13.353Z</time></trkpt><trkpt lat="44.1387467" lon="8.1027717"><ele>320.8</ele><time>2026-05-02T16:23:14.355Z</time></trkpt><trkpt lat="44.13878" lon="8.1026067"><ele>326.0</ele><time>2026-05-02T16:23:16.35Z</time></trkpt><trkpt lat="44.13872" lon="8.1024817"><ele>325.20000000000005</ele><time>2026-05-02T16:23:17.35Z</time></trkpt><trkpt lat="44.1386483" lon="8.1023567"><ele>324.40000000000003</ele><time>2026-05-02T16:23:18.35Z</time></trkpt><trkpt lat="44.1385783" lon="8.1022383"><ele>323.6</ele><time>2026-05-02T16:23:19.353Z</time></trkpt><trkpt lat="44.1385267" lon="8.1021217"><ele>322.8</ele><time>2026-05-02T16:23:20.355Z</time></trkpt><trkpt lat="44.1384983" lon="8.1020033"><ele>322.0</ele><time>2026-05-02T16:23:21.351Z</time></trkpt><trkpt lat="44.1385017" lon="8.101895"><ele>322.0</ele><time>2026-05-02T16:23:22.354Z</time></trkpt><trkpt lat="44.1385267" lon="8.10179"><ele>322.0</ele><time>2026-05-02T16:23:23.357Z</time></trkpt><trkpt lat="44.1385833" lon="8.1016967"><ele>322.0</ele><time>2026-05-02T16:23:24.351Z</time></trkpt><trkpt lat="44.138635" lon="8.1016083"><ele>322.0</ele><time>2026-05-02T16:23:25.352Z</time></trkpt><trkpt lat="44.1386717" lon="8.1015183"><ele>322.0</ele><time>2026-05-02T16:23:26.352Z</time></trkpt><trkpt lat="44.1386633" lon="8.1014267"><ele>322.0</ele><time>2026-05-02T16:23:27.353Z</time></trkpt><trkpt lat="44.138595" lon="8.10131"><ele>322.0</ele><time>2026-05-02T16:23:28.355Z</time></trkpt><trkpt lat="44.1385267" lon="8.101185"><ele>322.0</ele><time>2026-05-02T16:23:29.35Z</time></trkpt><trkpt lat="44.1384933" lon="8.10105"><ele>322.0</ele><time>2026-05-02T16:23:30.35Z</time></trkpt><trkpt lat="44.13849" lon="8.1009183"><ele>322.0</ele><time>2026-05-02T16:23:31.355Z</time></trkpt><trkpt lat="44.1385017" lon="8.1007767"><ele>322.0</ele><time>2026-05-02T16:23:32.353Z</time></trkpt><trkpt lat="44.1385167" lon="8.100615"><ele>322.0</ele><time>2026-05-02T16:23:33.354Z</time></trkpt><trkpt lat="44.1385417" lon="8.10044"><ele>322.0</ele><time>2026-05-02T16:23:34.353Z</time></trkpt><trkpt lat="44.1385833" lon="8.100255"><ele>322.0</ele><time>2026-05-02T16:23:35.362Z</time></trkpt><trkpt lat="44.138635" lon="8.1000633"><ele>322.0</ele><time>2026-05-02T16:23:36.35Z</time></trkpt><trkpt lat="44.1386967" lon="8.0998633"><ele>319.3333333333333</ele><time>2026-05-02T16:23:37.351Z</time></trkpt><trkpt lat="44.1387683" lon="8.0996583"><ele>316.6666666666667</ele><time>2026-05-02T16:23:38.349Z</time></trkpt><trkpt lat="44.13884" lon="8.0994433"><ele>314.0</ele><time>2026-05-02T16:23:39.351Z</time></trkpt><trkpt lat="44.1388933" lon="8.0992017"><ele>310.33333333333337</ele><time>2026-05-02T16:23:40.352Z</time></trkpt><trkpt lat="44.13893" lon="8.09896"><ele>306.6666666666667</ele><time>2026-05-02T16:23:41.352Z</time></trkpt><trkpt lat="44.138965" lon="8.098725"><ele>303.0</ele><time>2026-05-02T16:23:42.353Z</time></trkpt><trkpt lat="44.13902" lon="8.098505"><ele>313.6666666666667</ele><time>2026-05-02T16:23:43.354Z</time></trkpt><trkpt lat="44.139095" lon="8.0982933"><ele>324.33333333333337</ele><time>2026-05-02T16:23:44.352Z</time></trkpt><trkpt lat="44.1391683" lon="8.0980867"><ele>335.0</ele><time>2026-05-02T16:23:45.355Z</time></trkpt><trkpt lat="44.1392367" lon="8.0978883"><ele>335.0</ele><time>2026-05-02T16:23:46.354Z</time></trkpt><trkpt lat="44.1393167" lon="8.0977117"><ele>335.0</ele><time>2026-05-02T16:23:47.354Z</time></trkpt><trkpt lat="44.1394083" lon="8.0975717"><ele>335.0</ele><time>2026-05-02T16:23:48.353Z</time></trkpt><trkpt lat="44.1395067" lon="8.0974767"><ele>335.0</ele><time>2026-05-02T16:23:49.353Z</time></trkpt><trkpt lat="44.1396" lon="8.09738"><ele>331.25</ele><time>2026-05-02T16:23:50.35Z</time></trkpt><trkpt lat="44.139665" lon="8.097255"><ele>327.5</ele><time>2026-05-02T16:23:51.354Z</time></trkpt><trkpt lat="44.1397" lon="8.0970883"><ele>323.75</ele><time>2026-05-02T16:23:52.353Z</time></trkpt><trkpt lat="44.139725" lon="8.0969083"><ele>320.0</ele><time>2026-05-02T16:23:53.353Z</time></trkpt><trkpt lat="44.13976" lon="8.09674"><ele>320.0</ele><time>2026-05-02T16:23:54.354Z</time></trkpt><trkpt lat="44.1398133" lon="8.0966033"><ele>320.0</ele><time>2026-05-02T16:23:55.355Z</time></trkpt><trkpt lat="44.1398883" lon="8.0965167"><ele>320.0</ele><time>2026-05-02T16:23:56.357Z</time></trkpt><trkpt lat="44.13999" lon="8.0964883"><ele>320.0</ele><time>2026-05-02T16:23:57.353Z</time></trkpt><trkpt lat="44.140105" lon="8.0965133"><ele>320.0</ele><time>2026-05-02T16:23:58.355Z</time></trkpt><trkpt lat="44.1402283" lon="8.0965883"><ele>332.0</ele><time>2026-05-02T16:23:59.353Z</time></trkpt><trkpt lat="44.1403667" lon="8.09668"><ele>344.0</ele><time>2026-05-02T16:24:00.352Z</time></trkpt><trkpt lat="44.1405183" lon="8.0967533"><ele>356.0</ele><time>2026-05-02T16:24:01.351Z</time></trkpt><trkpt lat="44.1406733" lon="8.096795"><ele>357.0</ele><time>2026-05-02T16:24:02.351Z</time></trkpt><trkpt lat="44.14083" lon="8.0968233"><ele>358.0</ele><time>2026-05-02T16:24:03.351Z</time></trkpt><trkpt lat="44.14098" lon="8.09687"><ele>359.0</ele><time>2026-05-02T16:24:04.351Z</time></trkpt><trkpt lat="44.1411217" lon="8.09692"><ele>359.0</ele><time>2026-05-02T16:24:05.353Z</time></trkpt><trkpt lat="44.1412567" lon="8.0969767"><ele>359.0</ele><time>2026-05-02T16:24:06.351Z</time></trkpt><trkpt lat="44.1413717" lon="8.0970183"><ele>359.0</ele><time>2026-05-02T16:24:07.35Z</time></trkpt><trkpt lat="44.14147" lon="8.097045"><ele>359.0</ele><time>2026-05-02T16:24:08.349Z</time></trkpt><trkpt lat="44.1415533" lon="8.09703"><ele>359.0</ele><time>2026-05-02T16:24:09.35Z</time></trkpt><trkpt lat="44.1416317" lon="8.0969783"><ele>359.0</ele><time>2026-05-02T16:24:10.351Z</time></trkpt><trkpt lat="44.1417117" lon="8.0968933"><ele>359.0</ele><time>2026-05-02T16:24:11.352Z</time></trkpt><trkpt lat="44.14179" lon="8.0967867"><ele>359.0</ele><time>2026-05-02T16:24:12.352Z</time></trkpt><trkpt lat="44.1418667" lon="8.0966867"><ele>359.0</ele><time>2026-05-02T16:24:13.355Z</time></trkpt><trkpt lat="44.141945" lon="8.0966033"><ele>359.0</ele><time>2026-05-02T16:24:14.356Z</time></trkpt><trkpt lat="44.1420233" lon="8.0965317"><ele>358.33333333333337</ele><time>2026-05-02T16:24:15.356Z</time></trkpt><trkpt lat="44.1420783" lon="8.0964417"><ele>357.6666666666667</ele><time>2026-05-02T16:24:16.351Z</time></trkpt><trkpt lat="44.1421" lon="8.09634"><ele>357.0</ele><time>2026-05-02T16:24:17.354Z</time></trkpt><trkpt lat="44.1421" lon="8.09623"><ele>356.3333333333333</ele><time>2026-05-02T16:24:18.353Z</time></trkpt><trkpt lat="44.142075" lon="8.0961017"><ele>355.66666666666663</ele><time>2026-05-02T16:24:19.355Z</time></trkpt><trkpt lat="44.14203" lon="8.0959767"><ele>355.0</ele><time>2026-05-02T16:24:20.352Z</time></trkpt><trkpt lat="44.1419733" lon="8.0958583"><ele>362.0</ele><time>2026-05-02T16:24:21.351Z</time></trkpt><trkpt lat="44.1419217" lon="8.0957433"><ele>369.0</ele><time>2026-05-02T16:24:22.355Z</time></trkpt><trkpt lat="44.141865" lon="8.0956267"><ele>376.0</ele><time>2026-05-02T16:24:23.352Z</time></trkpt><trkpt lat="44.1417817" lon="8.0955117"><ele>383.0</ele><time>2026-05-02T16:24:24.356Z</time></trkpt><trkpt lat="44.1416683" lon="8.0954"><ele>373.33333333333337</ele><time>2026-05-02T16:24:25.354Z</time></trkpt><trkpt lat="44.1415417" lon="8.09527"><ele>363.6666666666667</ele><time>2026-05-02T16:24:26.352Z</time></trkpt><trkpt lat="44.14142" lon="8.0951183"><ele>354.0</ele><time>2026-05-02T16:24:27.355Z</time></trkpt><trkpt lat="44.1412967" lon="8.0949717"><ele>362.0</ele><time>2026-05-02T16:24:28.35Z</time></trkpt><trkpt lat="44.1411733" lon="8.0948167"><ele>370.0</ele><time>2026-05-02T16:24:29.353Z</time></trkpt><trkpt lat="44.1410483" lon="8.0946733"><ele>378.0</ele><time>2026-05-02T16:24:30.354Z</time></trkpt><trkpt lat="44.1409267" lon="8.094535"><ele>378.0</ele><time>2026-05-02T16:24:31.353Z</time></trkpt><trkpt lat="44.1408217" lon="8.0944117"><ele>378.0</ele><time>2026-05-02T16:24:32.35Z</time></trkpt><trkpt lat="44.1407317" lon="8.0942817"><ele>378.0</ele><time>2026-05-02T16:24:33.354Z</time></trkpt><trkpt lat="44.1406667" lon="8.0941517"><ele>378.0</ele><time>2026-05-02T16:24:34.35Z</time></trkpt><trkpt lat="44.1406267" lon="8.0940117"><ele>370.75</ele><time>2026-05-02T16:24:35.353Z</time></trkpt><trkpt lat="44.140615" lon="8.0938517"><ele>363.5</ele><time>2026-05-02T16:24:36.353Z</time></trkpt><trkpt lat="44.1406217" lon="8.0936833"><ele>356.25</ele><time>2026-05-02T16:24:37.353Z</time></trkpt><trkpt lat="44.1406367" lon="8.09351"><ele>349.0</ele><time>2026-05-02T16:24:38.35Z</time></trkpt><trkpt lat="44.1406483" lon="8.0933383"><ele>351.79999999999995</ele><time>2026-05-02T16:24:39.356Z</time></trkpt><trkpt lat="44.140655" lon="8.09318"><ele>354.59999999999997</ele><time>2026-05-02T16:24:40.352Z</time></trkpt><trkpt lat="44.140645" lon="8.09304"><ele>357.4</ele><time>2026-05-02T16:24:41.355Z</time></trkpt><trkpt lat="44.1406033" lon="8.0929167"><ele>360.2</ele><time>2026-05-02T16:24:42.355Z</time></trkpt><trkpt lat="44.1405333" lon="8.0928067"><ele>363.0</ele><time>2026-05-02T16:24:43.357Z</time></trkpt><trkpt lat="44.1404517" lon="8.092705"><ele>363.0</ele><time>2026-05-02T16:24:44.357Z</time></trkpt><trkpt lat="44.140375" lon="8.0926033"><ele>363.0</ele><time>2026-05-02T16:24:45.352Z</time></trkpt><trkpt lat="44.14032" lon="8.0924883"><ele>363.0</ele><time>2026-05-02T16:24:46.353Z</time></trkpt><trkpt lat="44.1402983" lon="8.09236"><ele>363.0</ele><time>2026-05-02T16:24:47.35Z</time></trkpt><trkpt lat="44.1403017" lon="8.0922133"><ele>363.0</ele><time>2026-05-02T16:24:48.353Z</time></trkpt><trkpt lat="44.14032" lon="8.09206"><ele>363.75</ele><time>2026-05-02T16:24:49.353Z</time></trkpt><trkpt lat="44.14036" lon="8.091905"><ele>364.5</ele><time>2026-05-02T16:24:50.355Z</time></trkpt><trkpt lat="44.1404267" lon="8.0917617"><ele>365.25</ele><time>2026-05-02T16:24:51.353Z</time></trkpt><trkpt lat="44.1405167" lon="8.0916267"><ele>366.0</ele><time>2026-05-02T16:24:52.355Z</time></trkpt><trkpt lat="44.140615" lon="8.091495"><ele>372.5</ele><time>2026-05-02T16:24:53.351Z</time></trkpt><trkpt lat="44.1407167" lon="8.0913583"><ele>379.0</ele><time>2026-05-02T16:24:54.352Z</time></trkpt><trkpt lat="44.1408217" lon="8.09122"><ele>385.5</ele><time>2026-05-02T16:24:55.352Z</time></trkpt><trkpt lat="44.14093" lon="8.0910817"><ele>392.0</ele><time>2026-05-02T16:24:56.352Z</time></trkpt><trkpt lat="44.1410333" lon="8.090955"><ele>392.0</ele><time>2026-05-02T16:24:57.354Z</time></trkpt><trkpt lat="44.1411133" lon="8.0908317"><ele>392.0</ele><time>2026-05-02T16:24:58.35Z</time></trkpt><trkpt lat="44.1411633" lon="8.0906833"><ele>392.0</ele><time>2026-05-02T16:24:59.353Z</time></trkpt><trkpt lat="44.1412067" lon="8.0905083"><ele>392.0</ele><time>2026-05-02T16:25:00.354Z</time></trkpt><trkpt lat="44.1412433" lon="8.0903033"><ele>390.0</ele><time>2026-05-02T16:25:01.355Z</time></trkpt><trkpt lat="44.1412767" lon="8.0900817"><ele>388.0</ele><time>2026-05-02T16:25:02.357Z</time></trkpt><trkpt lat="44.1413" lon="8.089855"><ele>386.0</ele><time>2026-05-02T16:25:03.354Z</time></trkpt><trkpt lat="44.1413233" lon="8.089645"><ele>384.75</ele><time>2026-05-02T16:25:04.352Z</time></trkpt><trkpt lat="44.1413483" lon="8.0894517"><ele>383.5</ele><time>2026-05-02T16:25:05.353Z</time></trkpt><trkpt lat="44.1413717" lon="8.0892733"><ele>382.25</ele><time>2026-05-02T16:25:06.35Z</time></trkpt><trkpt lat="44.1413883" lon="8.0891083"><ele>381.0</ele><time>2026-05-02T16:25:07.354Z</time></trkpt><trkpt lat="44.141415" lon="8.0889583"><ele>380.0</ele><time>2026-05-02T16:25:08.354Z</time></trkpt><trkpt lat="44.1414683" lon="8.088815"><ele>379.0</ele><time>2026-05-02T16:25:09.354Z</time></trkpt><trkpt lat="44.1415367" lon="8.088675"><ele>378.0</ele><time>2026-05-02T16:25:10.355Z</time></trkpt><trkpt lat="44.14161" lon="8.088515"><ele>377.0</ele><time>2026-05-02T16:25:11.353Z</time></trkpt><trkpt lat="44.1416867" lon="8.0883317"><ele>383.0</ele><time>2026-05-02T16:25:12.353Z</time></trkpt><trkpt lat="44.1417583" lon="8.0881417"><ele>389.0</ele><time>2026-05-02T16:25:13.351Z</time></trkpt><trkpt lat="44.1418333" lon="8.0879583"><ele>395.0</ele><time>2026-05-02T16:25:14.351Z</time></trkpt><trkpt lat="44.1419283" lon="8.0878017"><ele>395.0</ele><time>2026-05-02T16:25:15.36Z</time></trkpt><trkpt lat="44.14205" lon="8.0876817"><ele>395.0</ele><time>2026-05-02T16:25:16.35Z</time></trkpt><trkpt lat="44.142185" lon="8.087595"><ele>395.0</ele><time>2026-05-02T16:25:17.35Z</time></trkpt><trkpt lat="44.1423167" lon="8.0875067"><ele>395.0</ele><time>2026-05-02T16:25:18.351Z</time></trkpt><trkpt lat="44.1424333" lon="8.0873867"><ele>397.75</ele><time>2026-05-02T16:25:19.353Z</time></trkpt><trkpt lat="44.14254" lon="8.0872683"><ele>400.5</ele><time>2026-05-02T16:25:20.354Z</time></trkpt><trkpt lat="44.1426417" lon="8.0871717"><ele>403.25</ele><time>2026-05-02T16:25:21.358Z</time></trkpt><trkpt lat="44.142725" lon="8.08709"><ele>406.0</ele><time>2026-05-02T16:25:22.35Z</time></trkpt><trkpt lat="44.14277" lon="8.0869817"><ele>406.0</ele><time>2026-05-02T16:25:23.352Z</time></trkpt><trkpt lat="44.1427867" lon="8.0868283"><ele>406.0</ele><time>2026-05-02T16:25:24.356Z</time></trkpt><trkpt lat="44.1428167" lon="8.0866683"><ele>406.0</ele><time>2026-05-02T16:25:25.349Z</time></trkpt><trkpt lat="44.142875" lon="8.0865117"><ele>406.0</ele><time>2026-05-02T16:25:26.353Z</time></trkpt><trkpt lat="44.14297" lon="8.0863683"><ele>401.6666666666667</ele><time>2026-05-02T16:25:27.353Z</time></trkpt><trkpt lat="44.14308" lon="8.08624"><ele>397.33333333333337</ele><time>2026-05-02T16:25:28.352Z</time></trkpt><trkpt lat="44.143185" lon="8.0860933"><ele>393.0</ele><time>2026-05-02T16:25:29.35Z</time></trkpt><trkpt lat="44.14328" lon="8.0859117"><ele>400.0</ele><time>2026-05-02T16:25:30.352Z</time></trkpt><trkpt lat="44.143385" lon="8.0857167"><ele>407.0</ele><time>2026-05-02T16:25:31.354Z</time></trkpt><trkpt lat="44.143495" lon="8.0855217"><ele>414.0</ele><time>2026-05-02T16:25:32.35Z</time></trkpt><trkpt lat="44.1435983" lon="8.0853233"><ele>414.0</ele><time>2026-05-02T16:25:33.352Z</time></trkpt><trkpt lat="44.1436817" lon="8.085105"><ele>414.0</ele><time>2026-05-02T16:25:34.351Z</time></trkpt><trkpt lat="44.1437467" lon="8.0848717"><ele>414.0</ele><time>2026-05-02T16:25:35.359Z</time></trkpt><trkpt lat="44.1438067" lon="8.0846433"><ele>408.66666666666663</ele><time>2026-05-02T16:25:36.35Z</time></trkpt><trkpt lat="44.14388" lon="8.0844433"><ele>403.3333333333333</ele><time>2026-05-02T16:25:37.352Z</time></trkpt><trkpt lat="44.1439567" lon="8.0842633"><ele>398.0</ele><time>2026-05-02T16:25:38.352Z</time></trkpt><trkpt lat="44.144015" lon="8.08407"><ele>412.3333333333333</ele><time>2026-05-02T16:25:39.355Z</time></trkpt><trkpt lat="44.1440533" lon="8.083855"><ele>426.66666666666663</ele><time>2026-05-02T16:25:40.351Z</time></trkpt><trkpt lat="44.1440933" lon="8.0836233"><ele>441.0</ele><time>2026-05-02T16:25:41.354Z</time></trkpt><trkpt lat="44.1441383" lon="8.0833817"><ele>439.33333333333337</ele><time>2026-05-02T16:25:42.352Z</time></trkpt><trkpt lat="44.1441867" lon="8.0831367"><ele>437.6666666666667</ele><time>2026-05-02T16:25:43.353Z</time></trkpt><trkpt lat="44.1442167" lon="8.0828983"><ele>436.0</ele><time>2026-05-02T16:25:44.355Z</time></trkpt><trkpt lat="44.144225" lon="8.082675"><ele>436.0</ele><time>2026-05-02T16:25:45.359Z</time></trkpt><trkpt lat="44.1442283" lon="8.0824683"><ele>436.0</ele><time>2026-05-02T16:25:46.353Z</time></trkpt><trkpt lat="44.1442517" lon="8.082285"><ele>436.0</ele><time>2026-05-02T16:25:47.359Z</time></trkpt><trkpt lat="44.1442917" lon="8.0820983"><ele>436.0</ele><time>2026-05-02T16:25:48.351Z</time></trkpt><trkpt lat="44.144345" lon="8.081915"><ele>432.25</ele><time>2026-05-02T16:25:49.359Z</time></trkpt><trkpt lat="44.1444167" lon="8.08174"><ele>428.5</ele><time>2026-05-02T16:25:50.355Z</time></trkpt><trkpt lat="44.1445067" lon="8.0815867"><ele>424.75</ele><time>2026-05-02T16:25:51.352Z</time></trkpt><trkpt lat="44.1446017" lon="8.08146"><ele>421.0</ele><time>2026-05-02T16:25:52.353Z</time></trkpt><trkpt lat="44.1447017" lon="8.0813567"><ele>417.4</ele><time>2026-05-02T16:25:53.354Z</time></trkpt><trkpt lat="44.1448083" lon="8.0813083"><ele>413.8</ele><time>2026-05-02T16:25:54.355Z</time></trkpt><trkpt lat="44.144915" lon="8.0812667"><ele>410.2</ele><time>2026-05-02T16:25:55.353Z</time></trkpt><trkpt lat="44.14501" lon="8.0811933"><ele>406.59999999999997</ele><time>2026-05-02T16:25:56.353Z</time></trkpt><trkpt lat="44.145085" lon="8.081075"><ele>403.0</ele><time>2026-05-02T16:25:57.353Z</time></trkpt><trkpt lat="44.1451367" lon="8.0809333"><ele>406.79999999999995</ele><time>2026-05-02T16:25:58.352Z</time></trkpt><trkpt lat="44.14518" lon="8.0807867"><ele>410.6</ele><time>2026-05-02T16:25:59.357Z</time></trkpt><trkpt lat="44.1452383" lon="8.080665"><ele>414.4</ele><time>2026-05-02T16:26:00.352Z</time></trkpt><trkpt lat="44.145315" lon="8.0805967"><ele>418.20000000000005</ele><time>2026-05-02T16:26:01.355Z</time></trkpt><trkpt lat="44.1453933" lon="8.0805583"><ele>422.0</ele><time>2026-05-02T16:26:02.351Z</time></trkpt><trkpt lat="44.14548" lon="8.080585"><ele>422.0</ele><time>2026-05-02T16:26:03.355Z</time></trkpt><trkpt lat="44.1455833" lon="8.0806667"><ele>422.0</ele><time>2026-05-02T16:26:04.354Z</time></trkpt><trkpt lat="44.145695" lon="8.0807683"><ele>422.0</ele><time>2026-05-02T16:26:05.35Z</time></trkpt><trkpt lat="44.1458133" lon="8.0808867"><ele>422.0</ele><time>2026-05-02T16:26:06.355Z</time></trkpt><trkpt lat="44.145945" lon="8.081"><ele>432.3333333333333</ele><time>2026-05-02T16:26:07.351Z</time></trkpt><trkpt lat="44.1460867" lon="8.0810967"><ele>442.66666666666663</ele><time>2026-05-02T16:26:08.351Z</time></trkpt><trkpt lat="44.1462433" lon="8.081155"><ele>453.0</ele><time>2026-05-02T16:26:09.353Z</time></trkpt><trkpt lat="44.14641" lon="8.0811867"><ele>450.25</ele><time>2026-05-02T16:26:10.352Z</time></trkpt><trkpt lat="44.14657" lon="8.0811867"><ele>447.5</ele><time>2026-05-02T16:26:11.353Z</time></trkpt><trkpt lat="44.146715" lon="8.0811833"><ele>444.75</ele><time>2026-05-02T16:26:12.354Z</time></trkpt><trkpt lat="44.1468417" lon="8.0811783"><ele>442.0</ele><time>2026-05-02T16:26:13.354Z</time></trkpt><trkpt lat="44.14695" lon="8.0811917"><ele>442.0</ele><time>2026-05-02T16:26:14.356Z</time></trkpt><trkpt lat="44.1470483" lon="8.0812483"><ele>442.0</ele><time>2026-05-02T16:26:15.355Z</time></trkpt><trkpt lat="44.1471467" lon="8.0813583"><ele>442.0</ele><time>2026-05-02T16:26:16.357Z</time></trkpt><trkpt lat="44.14724" lon="8.08151"><ele>442.0</ele><time>2026-05-02T16:26:17.356Z</time></trkpt><trkpt lat="44.1473233" lon="8.08168"><ele>440.6666666666667</ele><time>2026-05-02T16:26:18.352Z</time></trkpt><trkpt lat="44.1474017" lon="8.0818733"><ele>439.33333333333337</ele><time>2026-05-02T16:26:19.352Z</time></trkpt><trkpt lat="44.1474833" lon="8.0820783"><ele>438.0</ele><time>2026-05-02T16:26:20.354Z</time></trkpt><trkpt lat="44.14757" lon="8.082295"><ele>445.33333333333337</ele><time>2026-05-02T16:26:21.353Z</time></trkpt><trkpt lat="44.1476633" lon="8.0825117"><ele>452.6666666666667</ele><time>2026-05-02T16:26:22.356Z</time></trkpt><trkpt lat="44.14775" lon="8.0827283"><ele>460.0</ele><time>2026-05-02T16:26:23.354Z</time></trkpt><trkpt lat="44.147845" lon="8.08293"><ele>460.0</ele><time>2026-05-02T16:26:24.353Z</time></trkpt><trkpt lat="44.1479517" lon="8.0830983"><ele>460.0</ele><time>2026-05-02T16:26:25.351Z</time></trkpt><trkpt lat="44.14807" lon="8.0832333"><ele>460.0</ele><time>2026-05-02T16:26:26.353Z</time></trkpt><trkpt lat="44.1481983" lon="8.0833267"><ele>455.25</ele><time>2026-05-02T16:26:27.35Z</time></trkpt><trkpt lat="44.1483317" lon="8.0833733"><ele>450.5</ele><time>2026-05-02T16:26:28.351Z</time></trkpt><trkpt lat="44.1484617" lon="8.0833617"><ele>445.75</ele><time>2026-05-02T16:26:29.349Z</time></trkpt><trkpt lat="44.1485983" lon="8.0833167"><ele>441.0</ele><time>2026-05-02T16:26:30.35Z</time></trkpt><trkpt lat="44.1487333" lon="8.0832733"><ele>441.0</ele><time>2026-05-02T16:26:31.352Z</time></trkpt><trkpt lat="44.1488583" lon="8.0832567"><ele>441.0</ele><time>2026-05-02T16:26:32.354Z</time></trkpt><trkpt lat="44.1489683" lon="8.0832717"><ele>441.0</ele><time>2026-05-02T16:26:33.355Z</time></trkpt><trkpt lat="44.1490683" lon="8.0833317"><ele>441.0</ele><time>2026-05-02T16:26:34.352Z</time></trkpt><trkpt lat="44.1491667" lon="8.0834333"><ele>437.5</ele><time>2026-05-02T16:26:35.349Z</time></trkpt><trkpt lat="44.1492767" lon="8.08356"><ele>434.0</ele><time>2026-05-02T16:26:36.352Z</time></trkpt><trkpt lat="44.1493933" lon="8.0836967"><ele>430.5</ele><time>2026-05-02T16:26:37.353Z</time></trkpt><trkpt lat="44.1495133" lon="8.0838283"><ele>427.0</ele><time>2026-05-02T16:26:38.352Z</time></trkpt><trkpt lat="44.1496317" lon="8.083935"><ele>427.0</ele><time>2026-05-02T16:26:39.351Z</time></trkpt><trkpt lat="44.1497617" lon="8.083985"><ele>427.0</ele><time>2026-05-02T16:26:40.351Z</time></trkpt><trkpt lat="44.1499067" lon="8.083985"><ele>427.0</ele><time>2026-05-02T16:26:41.352Z</time></trkpt><trkpt lat="44.1500583" lon="8.0839717"><ele>427.0</ele><time>2026-05-02T16:26:42.353Z</time></trkpt><trkpt lat="44.1502167" lon="8.0839733"><ele>426.25</ele><time>2026-05-02T16:26:43.351Z</time></trkpt><trkpt lat="44.1503683" lon="8.0839933"><ele>425.5</ele><time>2026-05-02T16:26:44.352Z</time></trkpt><trkpt lat="44.1505117" lon="8.0840317"><ele>424.75</ele><time>2026-05-02T16:26:45.354Z</time></trkpt><trkpt lat="44.1506433" lon="8.0840883"><ele>424.0</ele><time>2026-05-02T16:26:46.351Z</time></trkpt><trkpt lat="44.1507567" lon="8.0841567"><ele>426.0</ele><time>2026-05-02T16:26:47.353Z</time></trkpt><trkpt lat="44.150845" lon="8.0842417"><ele>428.0</ele><time>2026-05-02T16:26:48.353Z</time></trkpt><trkpt lat="44.1509083" lon="8.0843383"><ele>430.0</ele><time>2026-05-02T16:26:49.352Z</time></trkpt><trkpt lat="44.1509567" lon="8.08443"><ele>432.0</ele><time>2026-05-02T16:26:50.353Z</time></trkpt><trkpt lat="44.151015" lon="8.0844983"><ele>434.0</ele><time>2026-05-02T16:26:51.363Z</time></trkpt><trkpt lat="44.1511233" lon="8.0844467"><ele>433.99999999999994</ele><time>2026-05-02T16:26:53.353Z</time></trkpt><trkpt lat="44.151155" lon="8.0843633"><ele>434.0</ele><time>2026-05-02T16:26:54.352Z</time></trkpt><trkpt lat="44.1511617" lon="8.0842417"><ele>434.0</ele><time>2026-05-02T16:26:55.353Z</time></trkpt><trkpt lat="44.1511733" lon="8.08413"><ele>434.0</ele><time>2026-05-02T16:26:56.352Z</time></trkpt><trkpt lat="44.1511983" lon="8.08403"><ele>433.99999999999994</ele><time>2026-05-02T16:26:57.351Z</time></trkpt><trkpt lat="44.1512333" lon="8.08394"><ele>434.0</ele><time>2026-05-02T16:26:58.359Z</time></trkpt><trkpt lat="44.1513033" lon="8.0838867"><ele>435.25</ele><time>2026-05-02T16:26:59.351Z</time></trkpt><trkpt lat="44.1513967" lon="8.0838383"><ele>436.5</ele><time>2026-05-02T16:27:00.35Z</time></trkpt><trkpt lat="44.15152" lon="8.08382"><ele>437.75</ele><time>2026-05-02T16:27:01.349Z</time></trkpt><trkpt lat="44.151655" lon="8.0838083"><ele>439.0</ele><time>2026-05-02T16:27:02.353Z</time></trkpt><trkpt lat="44.1518017" lon="8.0837933"><ele>439.33333333333337</ele><time>2026-05-02T16:27:03.352Z</time></trkpt><trkpt lat="44.1519517" lon="8.0837633"><ele>439.66666666666663</ele><time>2026-05-02T16:27:04.35Z</time></trkpt><trkpt lat="44.15209" lon="8.08368"><ele>440.0</ele><time>2026-05-02T16:27:05.351Z</time></trkpt><trkpt lat="44.1522167" lon="8.08356"><ele>440.0</ele><time>2026-05-02T16:27:06.349Z</time></trkpt><trkpt lat="44.1523333" lon="8.0834133"><ele>440.0</ele><time>2026-05-02T16:27:07.352Z</time></trkpt><trkpt lat="44.1524483" lon="8.08328"><ele>440.0</ele><time>2026-05-02T16:27:08.352Z</time></trkpt><trkpt lat="44.1525717" lon="8.083165"><ele>444.25</ele><time>2026-05-02T16:27:09.352Z</time></trkpt><trkpt lat="44.1526767" lon="8.0830267"><ele>448.5</ele><time>2026-05-02T16:27:10.351Z</time></trkpt><trkpt lat="44.1527667" lon="8.08288"><ele>452.75</ele><time>2026-05-02T16:27:11.35Z</time></trkpt><trkpt lat="44.15286" lon="8.0827433"><ele>457.0</ele><time>2026-05-02T16:27:12.352Z</time></trkpt><trkpt lat="44.1529733" lon="8.0826233"><ele>457.0</ele><time>2026-05-02T16:27:13.349Z</time></trkpt><trkpt lat="44.1531083" lon="8.0825033"><ele>457.0</ele><time>2026-05-02T16:27:14.351Z</time></trkpt><trkpt lat="44.1532567" lon="8.0823883"><ele>457.0</ele><time>2026-05-02T16:27:15.35Z</time></trkpt><trkpt lat="44.1534067" lon="8.0822667"><ele>464.0</ele><time>2026-05-02T16:27:16.351Z</time></trkpt><trkpt lat="44.153555" lon="8.0821433"><ele>471.0</ele><time>2026-05-02T16:27:17.351Z</time></trkpt><trkpt lat="44.153695" lon="8.0820183"><ele>478.0</ele><time>2026-05-02T16:27:18.354Z</time></trkpt><trkpt lat="44.1538317" lon="8.0818917"><ele>478.0</ele><time>2026-05-02T16:27:19.352Z</time></trkpt><trkpt lat="44.1539717" lon="8.081805"><ele>478.0</ele><time>2026-05-02T16:27:20.352Z</time></trkpt><trkpt lat="44.1541117" lon="8.0817567"><ele>478.0</ele><time>2026-05-02T16:27:21.357Z</time></trkpt><trkpt lat="44.1542533" lon="8.081765"><ele>478.0</ele><time>2026-05-02T16:27:22.353Z</time></trkpt><trkpt lat="44.1543967" lon="8.0817917"><ele>476.25</ele><time>2026-05-02T16:27:23.354Z</time></trkpt><trkpt lat="44.1545433" lon="8.08181"><ele>474.5</ele><time>2026-05-02T16:27:24.352Z</time></trkpt><trkpt lat="44.1546917" lon="8.0818033"><ele>472.75</ele><time>2026-05-02T16:27:25.359Z</time></trkpt><trkpt lat="44.1548333" lon="8.0817567"><ele>471.0</ele><time>2026-05-02T16:27:26.353Z</time></trkpt><trkpt lat="44.1549817" lon="8.08169"><ele>471.0</ele><time>2026-05-02T16:27:27.354Z</time></trkpt><trkpt lat="44.1551333" lon="8.0816117"><ele>471.0</ele><time>2026-05-02T16:27:28.355Z</time></trkpt><trkpt lat="44.155285" lon="8.0815317"><ele>471.0</ele><time>2026-05-02T16:27:29.354Z</time></trkpt><trkpt lat="44.1554367" lon="8.0814517"><ele>472.0</ele><time>2026-05-02T16:27:30.353Z</time></trkpt><trkpt lat="44.1555783" lon="8.0813717"><ele>473.0</ele><time>2026-05-02T16:27:31.352Z</time></trkpt><trkpt lat="44.1557067" lon="8.0813"><ele>474.0</ele><time>2026-05-02T16:27:32.349Z</time></trkpt><trkpt lat="44.1558133" lon="8.0812333"><ele>475.0</ele><time>2026-05-02T16:27:33.356Z</time></trkpt><trkpt lat="44.1558933" lon="8.0811617"><ele>475.00000000000006</ele><time>2026-05-02T16:27:34.357Z</time></trkpt><trkpt lat="44.1559367" lon="8.0810717"><ele>475.0</ele><time>2026-05-02T16:27:35.355Z</time></trkpt><trkpt lat="44.155945" lon="8.0809683"><ele>475.0</ele><time>2026-05-02T16:27:36.354Z</time></trkpt><trkpt lat="44.1559083" lon="8.0808633"><ele>475.0</ele><time>2026-05-02T16:27:37.353Z</time></trkpt><trkpt lat="44.15585" lon="8.080775"><ele>475.00000000000006</ele><time>2026-05-02T16:27:38.351Z</time></trkpt><trkpt lat="44.1557467" lon="8.0807567"><ele>475.0</ele><time>2026-05-02T16:27:39.354Z</time></trkpt><trkpt lat="44.1556333" lon="8.0807767"><ele>475.0</ele><time>2026-05-02T16:27:40.351Z</time></trkpt><trkpt lat="44.1555083" lon="8.0807933"><ele>475.0</ele><time>2026-05-02T16:27:41.35Z</time></trkpt><trkpt lat="44.1553817" lon="8.0807967"><ele>475.0</ele><time>2026-05-02T16:27:42.353Z</time></trkpt><trkpt lat="44.15526" lon="8.08077"><ele>475.0</ele><time>2026-05-02T16:27:43.44Z</time></trkpt><trkpt lat="44.155145" lon="8.0807133"><ele>480.75</ele><time>2026-05-02T16:27:44.354Z</time></trkpt><trkpt lat="44.155025" lon="8.080645"><ele>486.5</ele><time>2026-05-02T16:27:45.353Z</time></trkpt><trkpt lat="44.154905" lon="8.08061"><ele>492.25</ele><time>2026-05-02T16:27:46.353Z</time></trkpt><trkpt lat="44.1547667" lon="8.08064"><ele>498.0</ele><time>2026-05-02T16:27:47.35Z</time></trkpt><trkpt lat="44.1546117" lon="8.0806967"><ele>496.0</ele><time>2026-05-02T16:27:48.352Z</time></trkpt><trkpt lat="44.15444" lon="8.0807567"><ele>494.0</ele><time>2026-05-02T16:27:49.353Z</time></trkpt><trkpt lat="44.1542617" lon="8.080815"><ele>492.0</ele><time>2026-05-02T16:27:50.353Z</time></trkpt><trkpt lat="44.15408" lon="8.0808767"><ele>497.33333333333337</ele><time>2026-05-02T16:27:51.354Z</time></trkpt><trkpt lat="44.153905" lon="8.08094"><ele>502.6666666666667</ele><time>2026-05-02T16:27:52.351Z</time></trkpt><trkpt lat="44.1537367" lon="8.081"><ele>508.0</ele><time>2026-05-02T16:27:53.35Z</time></trkpt><trkpt lat="44.153585" lon="8.08106"><ele>508.0</ele><time>2026-05-02T16:27:54.353Z</time></trkpt><trkpt lat="44.1534517" lon="8.0811267"><ele>508.0</ele><time>2026-05-02T16:27:55.354Z</time></trkpt><trkpt lat="44.1533317" lon="8.08119"><ele>508.0</ele><time>2026-05-02T16:27:56.353Z</time></trkpt><trkpt lat="44.153215" lon="8.0812183"><ele>508.0</ele><time>2026-05-02T16:27:57.352Z</time></trkpt><trkpt lat="44.1531033" lon="8.08122"><ele>506.25</ele><time>2026-05-02T16:27:58.355Z</time></trkpt><trkpt lat="44.1529983" lon="8.0811667"><ele>504.5</ele><time>2026-05-02T16:27:59.354Z</time></trkpt><trkpt lat="44.1529083" lon="8.08106"><ele>502.75</ele><time>2026-05-02T16:28:00.352Z</time></trkpt><trkpt lat="44.152825" lon="8.0809067"><ele>501.0</ele><time>2026-05-02T16:28:01.356Z</time></trkpt><trkpt lat="44.1527333" lon="8.0807567"><ele>511.0</ele><time>2026-05-02T16:28:02.354Z</time></trkpt><trkpt lat="44.1526117" lon="8.0806417"><ele>521.0</ele><time>2026-05-02T16:28:03.351Z</time></trkpt><trkpt lat="44.152475" lon="8.08056"><ele>531.0</ele><time>2026-05-02T16:28:04.353Z</time></trkpt><trkpt lat="44.152325" lon="8.0805217"><ele>541.0</ele><time>2026-05-02T16:28:05.349Z</time></trkpt><trkpt lat="44.1521683" lon="8.080525"><ele>542.0</ele><time>2026-05-02T16:28:06.352Z</time></trkpt><trkpt lat="44.15201" lon="8.080575"><ele>543.0</ele><time>2026-05-02T16:28:07.354Z</time></trkpt><trkpt lat="44.151855" lon="8.0806567"><ele>544.0</ele><time>2026-05-02T16:28:08.352Z</time></trkpt><trkpt lat="44.1517167" lon="8.08075"><ele>536.6</ele><time>2026-05-02T16:28:09.352Z</time></trkpt><trkpt lat="44.1515967" lon="8.0808333"><ele>529.2</ele><time>2026-05-02T16:28:10.352Z</time></trkpt><trkpt lat="44.1514933" lon="8.0808717"><ele>521.8000000000001</ele><time>2026-05-02T16:28:11.355Z</time></trkpt><trkpt lat="44.1514067" lon="8.080845"><ele>514.4</ele><time>2026-05-02T16:28:12.354Z</time></trkpt><trkpt lat="44.1513333" lon="8.0807633"><ele>507.0</ele><time>2026-05-02T16:28:13.352Z</time></trkpt><trkpt lat="44.1512583" lon="8.080655"><ele>507.0</ele><time>2026-05-02T16:28:14.353Z</time></trkpt><trkpt lat="44.15117" lon="8.0805217"><ele>507.0</ele><time>2026-05-02T16:28:15.352Z</time></trkpt><trkpt lat="44.1510767" lon="8.08037"><ele>507.0</ele><time>2026-05-02T16:28:16.353Z</time></trkpt><trkpt lat="44.1510017" lon="8.0801867"><ele>507.0</ele><time>2026-05-02T16:28:17.351Z</time></trkpt><trkpt lat="44.1509417" lon="8.0799767"><ele>513.3333333333334</ele><time>2026-05-02T16:28:18.353Z</time></trkpt><trkpt lat="44.1509" lon="8.0797567"><ele>519.6666666666667</ele><time>2026-05-02T16:28:19.354Z</time></trkpt><trkpt lat="44.1508783" lon="8.07952"><ele>526.0</ele><time>2026-05-02T16:28:20.351Z</time></trkpt><trkpt lat="44.150855" lon="8.079295"><ele>526.0</ele><time>2026-05-02T16:28:21.356Z</time></trkpt><trkpt lat="44.15082" lon="8.0791033"><ele>526.0</ele><time>2026-05-02T16:28:22.351Z</time></trkpt><trkpt lat="44.1507717" lon="8.078945"><ele>526.0</ele><time>2026-05-02T16:28:23.352Z</time></trkpt><trkpt lat="44.1507033" lon="8.0788233"><ele>526.0</ele><time>2026-05-02T16:28:24.351Z</time></trkpt><trkpt lat="44.150625" lon="8.0787233"><ele>524.5</ele><time>2026-05-02T16:28:25.353Z</time></trkpt><trkpt lat="44.1505517" lon="8.0786183"><ele>523.0</ele><time>2026-05-02T16:28:26.356Z</time></trkpt><trkpt lat="44.1505033" lon="8.0784767"><ele>521.5</ele><time>2026-05-02T16:28:27.351Z</time></trkpt><trkpt lat="44.150455" lon="8.0783133"><ele>520.0</ele><time>2026-05-02T16:28:28.351Z</time></trkpt><trkpt lat="44.15038" lon="8.07815"><ele>528.3333333333334</ele><time>2026-05-02T16:28:29.353Z</time></trkpt><trkpt lat="44.1502667" lon="8.0780117"><ele>536.6666666666666</ele><time>2026-05-02T16:28:30.353Z</time></trkpt><trkpt lat="44.1501333" lon="8.0778683"><ele>545.0</ele><time>2026-05-02T16:28:31.356Z</time></trkpt><trkpt lat="44.1499983" lon="8.0777267"><ele>537.75</ele><time>2026-05-02T16:28:32.353Z</time></trkpt><trkpt lat="44.1498733" lon="8.0775983"><ele>530.5</ele><time>2026-05-02T16:28:33.349Z</time></trkpt><trkpt lat="44.1497617" lon="8.07749"><ele>523.25</ele><time>2026-05-02T16:28:34.352Z</time></trkpt><trkpt lat="44.1496833" lon="8.077375"><ele>516.0</ele><time>2026-05-02T16:28:35.355Z</time></trkpt><trkpt lat="44.1496433" lon="8.0772383"><ele>516.0</ele><time>2026-05-02T16:28:36.354Z</time></trkpt><trkpt lat="44.14962" lon="8.0770783"><ele>516.0</ele><time>2026-05-02T16:28:37.353Z</time></trkpt><trkpt lat="44.1496117" lon="8.0768967"><ele>516.0</ele><time>2026-05-02T16:28:38.353Z</time></trkpt><trkpt lat="44.1496133" lon="8.07669"><ele>516.0</ele><time>2026-05-02T16:28:39.353Z</time></trkpt><trkpt lat="44.14962" lon="8.0764633"><ele>516.3333333333334</ele><time>2026-05-02T16:28:40.354Z</time></trkpt><trkpt lat="44.1496317" lon="8.0762317"><ele>516.6666666666667</ele><time>2026-05-02T16:28:41.353Z</time></trkpt><trkpt lat="44.1496433" lon="8.076015"><ele>517.0</ele><time>2026-05-02T16:28:42.351Z</time></trkpt><trkpt lat="44.14966" lon="8.0758217"><ele>516.0</ele><time>2026-05-02T16:28:43.351Z</time></trkpt><trkpt lat="44.149695" lon="8.0756517"><ele>515.0</ele><time>2026-05-02T16:28:44.355Z</time></trkpt><trkpt lat="44.14976" lon="8.0754933"><ele>514.0</ele><time>2026-05-02T16:28:45.354Z</time></trkpt><trkpt lat="44.14982" lon="8.07533"><ele>513.0</ele><time>2026-05-02T16:28:46.353Z</time></trkpt><trkpt lat="44.1498583" lon="8.0751433"><ele>516.25</ele><time>2026-05-02T16:28:47.355Z</time></trkpt><trkpt lat="44.1498867" lon="8.074965"><ele>519.5</ele><time>2026-05-02T16:28:48.353Z</time></trkpt><trkpt lat="44.149895" lon="8.0748017"><ele>522.75</ele><time>2026-05-02T16:28:49.355Z</time></trkpt><trkpt lat="44.149865" lon="8.0746417"><ele>526.0</ele><time>2026-05-02T16:28:50.354Z</time></trkpt><trkpt lat="44.1498033" lon="8.0744833"><ele>526.0</ele><time>2026-05-02T16:28:51.351Z</time></trkpt><trkpt lat="44.149745" lon="8.0743083"><ele>526.0</ele><time>2026-05-02T16:28:52.354Z</time></trkpt><trkpt lat="44.1497" lon="8.07412"><ele>526.0</ele><time>2026-05-02T16:28:53.355Z</time></trkpt><trkpt lat="44.149645" lon="8.073925"><ele>526.0</ele><time>2026-05-02T16:28:54.358Z</time></trkpt><trkpt lat="44.149565" lon="8.0737417"><ele>527.0</ele><time>2026-05-02T16:28:55.355Z</time></trkpt><trkpt lat="44.14948" lon="8.0735817"><ele>528.0</ele><time>2026-05-02T16:28:56.352Z</time></trkpt><trkpt lat="44.1494083" lon="8.07344"><ele>529.0</ele><time>2026-05-02T16:28:57.352Z</time></trkpt><trkpt lat="44.149365" lon="8.0733033"><ele>530.0</ele><time>2026-05-02T16:28:58.351Z</time></trkpt><trkpt lat="44.1493683" lon="8.073185"><ele>530.0</ele><time>2026-05-02T16:28:59.357Z</time></trkpt><trkpt lat="44.1493967" lon="8.0730717"><ele>530.0</ele><time>2026-05-02T16:29:00.353Z</time></trkpt><trkpt lat="44.14948" lon="8.072995"><ele>530.0</ele><time>2026-05-02T16:29:01.352Z</time></trkpt><trkpt lat="44.1496067" lon="8.072945"><ele>530.0</ele><time>2026-05-02T16:29:02.352Z</time></trkpt><trkpt lat="44.149755" lon="8.07291"><ele>540.3333333333333</ele><time>2026-05-02T16:29:03.351Z</time></trkpt><trkpt lat="44.1499133" lon="8.072845"><ele>550.6666666666666</ele><time>2026-05-02T16:29:04.353Z</time></trkpt><trkpt lat="44.1500667" lon="8.0727467"><ele>561.0</ele><time>2026-05-02T16:29:05.353Z</time></trkpt><trkpt lat="44.15022" lon="8.0726367"><ele>561.0</ele><time>2026-05-02T16:29:06.354Z</time></trkpt><trkpt lat="44.150355" lon="8.0725233"><ele>561.0</ele><time>2026-05-02T16:29:07.354Z</time></trkpt><trkpt lat="44.15045" lon="8.0724017"><ele>561.0</ele><time>2026-05-02T16:29:08.353Z</time></trkpt><trkpt lat="44.150495" lon="8.0722567"><ele>561.0</ele><time>2026-05-02T16:29:09.354Z</time></trkpt><trkpt lat="44.1505017" lon="8.07209"><ele>556.0</ele><time>2026-05-02T16:29:10.35Z</time></trkpt><trkpt lat="44.1505017" lon="8.0719167"><ele>551.0</ele><time>2026-05-02T16:29:11.353Z</time></trkpt><trkpt lat="44.1505217" lon="8.071755"><ele>546.0</ele><time>2026-05-02T16:29:12.348Z</time></trkpt><trkpt lat="44.150585" lon="8.0716167"><ele>541.0</ele><time>2026-05-02T16:29:13.349Z</time></trkpt><trkpt lat="44.150685" lon="8.0715033"><ele>546.6666666666667</ele><time>2026-05-02T16:29:14.351Z</time></trkpt><trkpt lat="44.1508167" lon="8.0714083"><ele>552.3333333333334</ele><time>2026-05-02T16:29:15.352Z</time></trkpt><trkpt lat="44.1509633" lon="8.0713133"><ele>558.0</ele><time>2026-05-02T16:29:16.354Z</time></trkpt><trkpt lat="44.15113" lon="8.0712283"><ele>558.0</ele><time>2026-05-02T16:29:17.353Z</time></trkpt><trkpt lat="44.1512933" lon="8.0711267"><ele>558.0</ele><time>2026-05-02T16:29:18.354Z</time></trkpt><trkpt lat="44.1514417" lon="8.0709917"><ele>558.0</ele><time>2026-05-02T16:29:19.355Z</time></trkpt><trkpt lat="44.1515783" lon="8.070825"><ele>562.0</ele><time>2026-05-02T16:29:20.354Z</time></trkpt><trkpt lat="44.1516983" lon="8.0706417"><ele>566.0</ele><time>2026-05-02T16:29:21.353Z</time></trkpt><trkpt lat="44.1517967" lon="8.0704367"><ele>570.0</ele><time>2026-05-02T16:29:22.354Z</time></trkpt><trkpt lat="44.1518667" lon="8.07023"><ele>570.0</ele><time>2026-05-02T16:29:23.355Z</time></trkpt><trkpt lat="44.1519433" lon="8.07004"><ele>570.0</ele><time>2026-05-02T16:29:24.352Z</time></trkpt><trkpt lat="44.1520483" lon="8.06987"><ele>570.0</ele><time>2026-05-02T16:29:25.354Z</time></trkpt><trkpt lat="44.15218" lon="8.0697183"><ele>573.0</ele><time>2026-05-02T16:29:26.353Z</time></trkpt><trkpt lat="44.1523183" lon="8.0695883"><ele>576.0</ele><time>2026-05-02T16:29:27.352Z</time></trkpt><trkpt lat="44.1524533" lon="8.0694867"><ele>579.0</ele><time>2026-05-02T16:29:28.353Z</time></trkpt><trkpt lat="44.15255" lon="8.06937"><ele>582.0</ele><time>2026-05-02T16:29:29.351Z</time></trkpt><trkpt lat="44.1526133" lon="8.06923"><ele>573.5</ele><time>2026-05-02T16:29:30.352Z</time></trkpt><trkpt lat="44.1526633" lon="8.0690667"><ele>565.0</ele><time>2026-05-02T16:29:31.351Z</time></trkpt><trkpt lat="44.1527283" lon="8.0689167"><ele>556.5</ele><time>2026-05-02T16:29:32.354Z</time></trkpt><trkpt lat="44.1528117" lon="8.0688217"><ele>548.0</ele><time>2026-05-02T16:29:33.35Z</time></trkpt><trkpt lat="44.1529067" lon="8.06878"><ele>548.0</ele><time>2026-05-02T16:29:34.352Z</time></trkpt><trkpt lat="44.153015" lon="8.0688117"><ele>548.0</ele><time>2026-05-02T16:29:35.353Z</time></trkpt><trkpt lat="44.1531383" lon="8.0688667"><ele>548.0</ele><time>2026-05-02T16:29:36.354Z</time></trkpt><trkpt lat="44.153275" lon="8.0689083"><ele>548.0</ele><time>2026-05-02T16:29:37.355Z</time></trkpt><trkpt lat="44.1534433" lon="8.068925"><ele>556.0</ele><time>2026-05-02T16:29:38.351Z</time></trkpt><trkpt lat="44.1536317" lon="8.06893"><ele>564.0</ele><time>2026-05-02T16:29:39.35Z</time></trkpt><trkpt lat="44.153825" lon="8.0689017"><ele>572.0</ele><time>2026-05-02T16:29:40.351Z</time></trkpt><trkpt lat="44.154015" lon="8.0688633"><ele>576.0</ele><time>2026-05-02T16:29:41.355Z</time></trkpt><trkpt lat="44.1541967" lon="8.06883"><ele>580.0</ele><time>2026-05-02T16:29:42.353Z</time></trkpt><trkpt lat="44.1543617" lon="8.0687767"><ele>584.0</ele><time>2026-05-02T16:29:43.354Z</time></trkpt><trkpt lat="44.1545067" lon="8.0686817"><ele>584.0</ele><time>2026-05-02T16:29:44.353Z</time></trkpt><trkpt lat="44.1546317" lon="8.0685683"><ele>584.0</ele><time>2026-05-02T16:29:45.356Z</time></trkpt><trkpt lat="44.1547467" lon="8.0684967"><ele>584.0</ele><time>2026-05-02T16:29:46.352Z</time></trkpt><trkpt lat="44.1548617" lon="8.068485"><ele>584.0</ele><time>2026-05-02T16:29:47.356Z</time></trkpt><trkpt lat="44.15498" lon="8.0685233"><ele>588.0</ele><time>2026-05-02T16:29:48.351Z</time></trkpt><trkpt lat="44.1550983" lon="8.0685517"><ele>592.0</ele><time>2026-05-02T16:29:49.351Z</time></trkpt><trkpt lat="44.1552217" lon="8.0685283"><ele>596.0</ele><time>2026-05-02T16:29:50.358Z</time></trkpt><trkpt lat="44.1553367" lon="8.0684383"><ele>600.0</ele><time>2026-05-02T16:29:51.351Z</time></trkpt><trkpt lat="44.1554467" lon="8.0683167"><ele>598.5</ele><time>2026-05-02T16:29:52.357Z</time></trkpt><trkpt lat="44.1555567" lon="8.0681817"><ele>597.0</ele><time>2026-05-02T16:29:53.353Z</time></trkpt><trkpt lat="44.15567" lon="8.068055"><ele>595.5</ele><time>2026-05-02T16:29:54.353Z</time></trkpt><trkpt lat="44.15579" lon="8.0679483"><ele>594.0</ele><time>2026-05-02T16:29:55.352Z</time></trkpt><trkpt lat="44.1559283" lon="8.0678633"><ele>594.0</ele><time>2026-05-02T16:29:56.35Z</time></trkpt><trkpt lat="44.156085" lon="8.0677967"><ele>594.0</ele><time>2026-05-02T16:29:57.354Z</time></trkpt><trkpt lat="44.1562583" lon="8.0677317"><ele>594.0</ele><time>2026-05-02T16:29:58.351Z</time></trkpt><trkpt lat="44.1564483" lon="8.06767"><ele>592.3333333333334</ele><time>2026-05-02T16:29:59.354Z</time></trkpt><trkpt lat="44.15665" lon="8.0675983"><ele>590.6666666666667</ele><time>2026-05-02T16:30:00.352Z</time></trkpt><trkpt lat="44.1568583" lon="8.0675167"><ele>589.0</ele><time>2026-05-02T16:30:01.352Z</time></trkpt><trkpt lat="44.1570833" lon="8.06743"><ele>589.0</ele><time>2026-05-02T16:30:02.354Z</time></trkpt><trkpt lat="44.1573133" lon="8.0673417"><ele>589.0</ele><time>2026-05-02T16:30:03.355Z</time></trkpt><trkpt lat="44.157545" lon="8.06726"><ele>589.0</ele><time>2026-05-02T16:30:04.354Z</time></trkpt><trkpt lat="44.1577733" lon="8.06718"><ele>589.0</ele><time>2026-05-02T16:30:05.351Z</time></trkpt><trkpt lat="44.1579933" lon="8.0671067"><ele>589.0</ele><time>2026-05-02T16:30:06.353Z</time></trkpt><trkpt lat="44.1581867" lon="8.0670433"><ele>589.0</ele><time>2026-05-02T16:30:07.354Z</time></trkpt><trkpt lat="44.1583533" lon="8.0670083"><ele>589.0</ele><time>2026-05-02T16:30:08.353Z</time></trkpt><trkpt lat="44.1584983" lon="8.067015"><ele>591.0</ele><time>2026-05-02T16:30:09.356Z</time></trkpt><trkpt lat="44.1586333" lon="8.0670783"><ele>593.0</ele><time>2026-05-02T16:30:10.353Z</time></trkpt><trkpt lat="44.15875" lon="8.0671417"><ele>595.0</ele><time>2026-05-02T16:30:11.351Z</time></trkpt><trkpt lat="44.15887" lon="8.067165"><ele>597.0</ele><time>2026-05-02T16:30:12.352Z</time></trkpt><trkpt lat="44.15898" lon="8.0671317"><ele>599.5</ele><time>2026-05-02T16:30:13.352Z</time></trkpt><trkpt lat="44.1590767" lon="8.06704"><ele>602.0</ele><time>2026-05-02T16:30:14.443Z</time></trkpt><trkpt lat="44.1591467" lon="8.066895"><ele>604.5</ele><time>2026-05-02T16:30:15.354Z</time></trkpt><trkpt lat="44.1591783" lon="8.0666983"><ele>607.0</ele><time>2026-05-02T16:30:16.352Z</time></trkpt><trkpt lat="44.1591917" lon="8.066475"><ele>607.0</ele><time>2026-05-02T16:30:17.35Z</time></trkpt><trkpt lat="44.1592033" lon="8.066255"><ele>607.0</ele><time>2026-05-02T16:30:18.352Z</time></trkpt><trkpt lat="44.15922" lon="8.0660433"><ele>607.0</ele><time>2026-05-02T16:30:19.354Z</time></trkpt><trkpt lat="44.1592383" lon="8.06584"><ele>601.75</ele><time>2026-05-02T16:30:20.351Z</time></trkpt><trkpt lat="44.1592733" lon="8.0656567"><ele>596.5</ele><time>2026-05-02T16:30:21.355Z</time></trkpt><trkpt lat="44.1593333" lon="8.0654833"><ele>591.25</ele><time>2026-05-02T16:30:22.354Z</time></trkpt><trkpt lat="44.15941" lon="8.0653317"><ele>586.0</ele><time>2026-05-02T16:30:23.353Z</time></trkpt><trkpt lat="44.1595033" lon="8.065215"><ele>586.0</ele><time>2026-05-02T16:30:24.352Z</time></trkpt><trkpt lat="44.15962" lon="8.0651433"><ele>586.0</ele><time>2026-05-02T16:30:25.349Z</time></trkpt><trkpt lat="44.1597617" lon="8.0650883"><ele>586.0</ele><time>2026-05-02T16:30:26.353Z</time></trkpt><trkpt lat="44.1599033" lon="8.0649983"><ele>586.0</ele><time>2026-05-02T16:30:27.354Z</time></trkpt><trkpt lat="44.1600317" lon="8.0648883"><ele>586.75</ele><time>2026-05-02T16:30:28.352Z</time></trkpt><trkpt lat="44.1601567" lon="8.0647967"><ele>587.5</ele><time>2026-05-02T16:30:29.351Z</time></trkpt><trkpt lat="44.16028" lon="8.0647383"><ele>588.25</ele><time>2026-05-02T16:30:30.354Z</time></trkpt><trkpt lat="44.1604017" lon="8.0647267"><ele>589.0</ele><time>2026-05-02T16:30:31.349Z</time></trkpt><trkpt lat="44.1605183" lon="8.0647767"><ele>589.0</ele><time>2026-05-02T16:30:32.354Z</time></trkpt><trkpt lat="44.16063" lon="8.06487"><ele>589.0</ele><time>2026-05-02T16:30:33.353Z</time></trkpt><trkpt lat="44.1607517" lon="8.064965"><ele>589.0</ele><time>2026-05-02T16:30:34.354Z</time></trkpt><trkpt lat="44.1608883" lon="8.0650633"><ele>589.0</ele><time>2026-05-02T16:30:35.353Z</time></trkpt><trkpt lat="44.1610283" lon="8.06512"><ele>597.75</ele><time>2026-05-02T16:30:36.352Z</time></trkpt><trkpt lat="44.1611717" lon="8.0651617"><ele>606.5</ele><time>2026-05-02T16:30:37.352Z</time></trkpt><trkpt lat="44.161305" lon="8.0652033"><ele>615.25</ele><time>2026-05-02T16:30:38.351Z</time></trkpt><trkpt lat="44.1614233" lon="8.06527"><ele>624.0</ele><time>2026-05-02T16:30:39.354Z</time></trkpt><trkpt lat="44.161525" lon="8.06536"><ele>623.6</ele><time>2026-05-02T16:30:40.352Z</time></trkpt><trkpt lat="44.1616033" lon="8.0654783"><ele>623.2</ele><time>2026-05-02T16:30:41.352Z</time></trkpt><trkpt lat="44.1616717" lon="8.0656033"><ele>622.8000000000001</ele><time>2026-05-02T16:30:42.349Z</time></trkpt><trkpt lat="44.16172" lon="8.065735"><ele>622.4</ele><time>2026-05-02T16:30:43.353Z</time></trkpt><trkpt lat="44.161765" lon="8.0658667"><ele>622.0</ele><time>2026-05-02T16:30:44.354Z</time></trkpt><trkpt lat="44.1618083" lon="8.0659867"><ele>626.0</ele><time>2026-05-02T16:30:45.352Z</time></trkpt><trkpt lat="44.1618483" lon="8.066095"><ele>630.0</ele><time>2026-05-02T16:30:46.35Z</time></trkpt><trkpt lat="44.161885" lon="8.0661867"><ele>634.0</ele><time>2026-05-02T16:30:47.354Z</time></trkpt><trkpt lat="44.1619217" lon="8.066265"><ele>638.0</ele><time>2026-05-02T16:30:48.351Z</time></trkpt><trkpt lat="44.1620167" lon="8.0663817"><ele>642.0</ele><time>2026-05-02T16:30:50.352Z</time></trkpt><trkpt lat="44.1621533" lon="8.0664017"><ele>642.0</ele><time>2026-05-02T16:30:52.35Z</time></trkpt><trkpt lat="44.1622383" lon="8.0663283"><ele>642.0</ele><time>2026-05-02T16:30:53.355Z</time></trkpt><trkpt lat="44.162315" lon="8.0662183"><ele>642.0</ele><time>2026-05-02T16:30:54.353Z</time></trkpt><trkpt lat="44.1623833" lon="8.0661017"><ele>642.0</ele><time>2026-05-02T16:30:55.352Z</time></trkpt><trkpt lat="44.1624433" lon="8.065995"><ele>642.0</ele><time>2026-05-02T16:30:56.353Z</time></trkpt><trkpt lat="44.1624967" lon="8.065885"><ele>642.5</ele><time>2026-05-02T16:30:57.355Z</time></trkpt><trkpt lat="44.1625417" lon="8.0657817"><ele>643.0</ele><time>2026-05-02T16:30:58.352Z</time></trkpt><trkpt lat="44.1625783" lon="8.06567"><ele>643.5</ele><time>2026-05-02T16:30:59.354Z</time></trkpt><trkpt lat="44.1626067" lon="8.0655617"><ele>644.0</ele><time>2026-05-02T16:31:00.351Z</time></trkpt><trkpt lat="44.162625" lon="8.0654517"><ele>644.5</ele><time>2026-05-02T16:31:01.351Z</time></trkpt><trkpt lat="44.1626333" lon="8.0653417"><ele>645.0</ele><time>2026-05-02T16:31:02.353Z</time></trkpt><trkpt lat="44.16263" lon="8.0652283"><ele>643.6</ele><time>2026-05-02T16:31:03.357Z</time></trkpt><trkpt lat="44.1626133" lon="8.06512"><ele>642.2</ele><time>2026-05-02T16:31:04.35Z</time></trkpt><trkpt lat="44.162595" lon="8.0650167"><ele>640.8</ele><time>2026-05-02T16:31:05.348Z</time></trkpt><trkpt lat="44.1625833" lon="8.0649267"><ele>639.4</ele><time>2026-05-02T16:31:06.35Z</time></trkpt><trkpt lat="44.1625883" lon="8.0647683"><ele>638.0</ele><time>2026-05-02T16:31:08.352Z</time></trkpt><trkpt lat="44.16265" lon="8.064625"><ele>636.4</ele><time>2026-05-02T16:31:10.352Z</time></trkpt><trkpt lat="44.1627833" lon="8.0646283"><ele>634.8</ele><time>2026-05-02T16:31:12.348Z</time></trkpt><trkpt lat="44.1628683" lon="8.0646917"><ele>633.2</ele><time>2026-05-02T16:31:13.353Z</time></trkpt><trkpt lat="44.1629567" lon="8.0647767"><ele>631.6</ele><time>2026-05-02T16:31:14.352Z</time></trkpt><trkpt lat="44.163045" lon="8.0648567"><ele>630.0</ele><time>2026-05-02T16:31:15.351Z</time></trkpt><trkpt lat="44.1631417" lon="8.0649217"><ele>635.4</ele><time>2026-05-02T16:31:16.351Z</time></trkpt><trkpt lat="44.1632383" lon="8.0649767"><ele>640.8</ele><time>2026-05-02T16:31:17.354Z</time></trkpt><trkpt lat="44.1633367" lon="8.0650083"><ele>646.2</ele><time>2026-05-02T16:31:18.353Z</time></trkpt><trkpt lat="44.16344" lon="8.065025"><ele>651.6</ele><time>2026-05-02T16:31:19.352Z</time></trkpt><trkpt lat="44.1635467" lon="8.0650233"><ele>657.0</ele><time>2026-05-02T16:31:20.352Z</time></trkpt><trkpt lat="44.1636667" lon="8.064995"><ele>653.0</ele><time>2026-05-02T16:31:21.354Z</time></trkpt><trkpt lat="44.1638067" lon="8.0649317"><ele>649.0</ele><time>2026-05-02T16:31:22.353Z</time></trkpt><trkpt lat="44.1639617" lon="8.06486"><ele>645.0</ele><time>2026-05-02T16:31:23.353Z</time></trkpt><trkpt lat="44.1641083" lon="8.06479"><ele>645.0</ele><time>2026-05-02T16:31:24.356Z</time></trkpt><trkpt lat="44.1642383" lon="8.06473"><ele>645.0</ele><time>2026-05-02T16:31:25.349Z</time></trkpt><trkpt lat="44.1643433" lon="8.0646733"><ele>645.0</ele><time>2026-05-02T16:31:26.35Z</time></trkpt><trkpt lat="44.1644383" lon="8.0646267"><ele>645.0</ele><time>2026-05-02T16:31:27.353Z</time></trkpt><trkpt lat="44.1645333" lon="8.0645783"><ele>645.0</ele><time>2026-05-02T16:31:28.35Z</time></trkpt><trkpt lat="44.16463" lon="8.0645433"><ele>645.0</ele><time>2026-05-02T16:31:29.356Z</time></trkpt><trkpt lat="44.1647217" lon="8.0645167"><ele>645.0</ele><time>2026-05-02T16:31:30.349Z</time></trkpt><trkpt lat="44.16482" lon="8.0644917"><ele>645.0</ele><time>2026-05-02T16:31:31.353Z</time></trkpt><trkpt lat="44.164915" lon="8.0644717"><ele>645.0</ele><time>2026-05-02T16:31:32.352Z</time></trkpt><trkpt lat="44.165" lon="8.0644617"><ele>646.8333333333334</ele><time>2026-05-02T16:31:33.356Z</time></trkpt><trkpt lat="44.165085" lon="8.0644583"><ele>648.6666666666666</ele><time>2026-05-02T16:31:34.352Z</time></trkpt><trkpt lat="44.1651617" lon="8.0644783"><ele>650.5</ele><time>2026-05-02T16:31:35.354Z</time></trkpt><trkpt lat="44.1652333" lon="8.0645317"><ele>652.3333333333333</ele><time>2026-05-02T16:31:36.352Z</time></trkpt><trkpt lat="44.16529" lon="8.064615"><ele>654.1666666666666</ele><time>2026-05-02T16:31:37.353Z</time></trkpt><trkpt lat="44.165335" lon="8.0646983"><ele>656.0</ele><time>2026-05-02T16:31:38.354Z</time></trkpt><trkpt lat="44.1653733" lon="8.0647733"><ele>656.0</ele><time>2026-05-02T16:31:39.356Z</time></trkpt><trkpt lat="44.1654133" lon="8.0648483"><ele>656.0</ele><time>2026-05-02T16:31:40.351Z</time></trkpt><trkpt lat="44.165465" lon="8.06491"><ele>656.0</ele><time>2026-05-02T16:31:41.353Z</time></trkpt><trkpt lat="44.1656" lon="8.0649367"><ele>656.0</ele><time>2026-05-02T16:31:43.352Z</time></trkpt><trkpt lat="44.165705" lon="8.0648733"><ele>656.0</ele><time>2026-05-02T16:31:44.352Z</time></trkpt><trkpt lat="44.165825" lon="8.0647883"><ele>658.0</ele><time>2026-05-02T16:31:45.353Z</time></trkpt><trkpt lat="44.1659717" lon="8.0646867"><ele>660.0</ele><time>2026-05-02T16:31:46.353Z</time></trkpt><trkpt lat="44.1661317" lon="8.06457"><ele>662.0</ele><time>2026-05-02T16:31:47.357Z</time></trkpt><trkpt lat="44.1662817" lon="8.064455"><ele>662.0</ele><time>2026-05-02T16:31:48.351Z</time></trkpt><trkpt lat="44.1664167" lon="8.0643467"><ele>662.0</ele><time>2026-05-02T16:31:49.349Z</time></trkpt><trkpt lat="44.1665417" lon="8.0642483"><ele>662.0</ele><time>2026-05-02T16:31:50.348Z</time></trkpt><trkpt lat="44.1666567" lon="8.0641733"><ele>662.0</ele><time>2026-05-02T16:31:51.35Z</time></trkpt><trkpt lat="44.1667717" lon="8.0641383"><ele>666.5</ele><time>2026-05-02T16:31:52.349Z</time></trkpt><trkpt lat="44.1668883" lon="8.0641383"><ele>671.0</ele><time>2026-05-02T16:31:53.355Z</time></trkpt><trkpt lat="44.167015" lon="8.0641433"><ele>675.5</ele><time>2026-05-02T16:31:54.353Z</time></trkpt><trkpt lat="44.1671567" lon="8.0641533"><ele>680.0</ele><time>2026-05-02T16:31:55.353Z</time></trkpt><trkpt lat="44.1673083" lon="8.0641783"><ele>682.0</ele><time>2026-05-02T16:31:56.351Z</time></trkpt><trkpt lat="44.16747" lon="8.06421"><ele>684.0</ele><time>2026-05-02T16:31:57.354Z</time></trkpt><trkpt lat="44.1676317" lon="8.0642483"><ele>686.0</ele><time>2026-05-02T16:31:58.349Z</time></trkpt><trkpt lat="44.1677867" lon="8.064285"><ele>686.0</ele><time>2026-05-02T16:31:59.353Z</time></trkpt><trkpt lat="44.16792" lon="8.0643167"><ele>686.0</ele><time>2026-05-02T16:32:00.353Z</time></trkpt><trkpt lat="44.1680317" lon="8.0642983"><ele>686.0</ele><time>2026-05-02T16:32:01.351Z</time></trkpt><trkpt lat="44.168125" lon="8.064315"><ele>686.0</ele><time>2026-05-02T16:32:02.354Z</time></trkpt><trkpt lat="44.1682033" lon="8.06434"><ele>686.0</ele><time>2026-05-02T16:32:03.349Z</time></trkpt><trkpt lat="44.1682683" lon="8.064365"><ele>684.0</ele><time>2026-05-02T16:32:04.352Z</time></trkpt><trkpt lat="44.1683517" lon="8.064475"><ele>682.0</ele><time>2026-05-02T16:32:06.353Z</time></trkpt><trkpt lat="44.1683367" lon="8.0646917"><ele>680.0</ele><time>2026-05-02T16:32:08.351Z</time></trkpt><trkpt lat="44.168305" lon="8.06486"><ele>678.0</ele><time>2026-05-02T16:32:09.354Z</time></trkpt><trkpt lat="44.1682517" lon="8.0650667"><ele>683.6666666666666</ele><time>2026-05-02T16:32:10.353Z</time></trkpt><trkpt lat="44.1681967" lon="8.065265"><ele>689.3333333333333</ele><time>2026-05-02T16:32:11.353Z</time></trkpt><trkpt lat="44.1681367" lon="8.0654667"><ele>695.0</ele><time>2026-05-02T16:32:12.351Z</time></trkpt><trkpt lat="44.1680867" lon="8.0656683"><ele>703.25</ele><time>2026-05-02T16:32:13.352Z</time></trkpt><trkpt lat="44.16806" lon="8.0658783"><ele>711.5</ele><time>2026-05-02T16:32:14.349Z</time></trkpt><trkpt lat="44.168055" lon="8.0660783"><ele>719.75</ele><time>2026-05-02T16:32:15.352Z</time></trkpt><trkpt lat="44.1680583" lon="8.06626"><ele>728.0</ele><time>2026-05-02T16:32:16.351Z</time></trkpt><trkpt lat="44.1680683" lon="8.0664117"><ele>728.0</ele><time>2026-05-02T16:32:17.351Z</time></trkpt><trkpt lat="44.16809" lon="8.0665383"><ele>728.0</ele><time>2026-05-02T16:32:18.354Z</time></trkpt><trkpt lat="44.16812" lon="8.06665"><ele>728.0</ele><time>2026-05-02T16:32:19.353Z</time></trkpt><trkpt lat="44.1681983" lon="8.0667233"><ele>728.0</ele><time>2026-05-02T16:32:20.352Z</time></trkpt><trkpt lat="44.1682833" lon="8.06679"><ele>728.0</ele><time>2026-05-02T16:32:21.353Z</time></trkpt><trkpt lat="44.1683983" lon="8.0668567"><ele>720.0</ele><time>2026-05-02T16:32:22.35Z</time></trkpt><trkpt lat="44.168545" lon="8.0669133"><ele>712.0</ele><time>2026-05-02T16:32:23.355Z</time></trkpt><trkpt lat="44.1687017" lon="8.0669783"><ele>704.0</ele><time>2026-05-02T16:32:24.351Z</time></trkpt><trkpt lat="44.1688583" lon="8.067045"><ele>704.0</ele><time>2026-05-02T16:32:25.353Z</time></trkpt><trkpt lat="44.1690067" lon="8.067105"><ele>704.0</ele><time>2026-05-02T16:32:26.35Z</time></trkpt><trkpt lat="44.16914" lon="8.06717"><ele>704.0</ele><time>2026-05-02T16:32:27.352Z</time></trkpt><trkpt lat="44.1692617" lon="8.067255"><ele>704.0</ele><time>2026-05-02T16:32:28.351Z</time></trkpt><trkpt lat="44.1693717" lon="8.0673667"><ele>706.75</ele><time>2026-05-02T16:32:29.351Z</time></trkpt><trkpt lat="44.1694783" lon="8.067485"><ele>709.5</ele><time>2026-05-02T16:32:30.35Z</time></trkpt><trkpt lat="44.1695767" lon="8.0675967"><ele>712.25</ele><time>2026-05-02T16:32:31.353Z</time></trkpt><trkpt lat="44.16966" lon="8.0677067"><ele>715.0</ele><time>2026-05-02T16:32:32.353Z</time></trkpt><trkpt lat="44.1697333" lon="8.067815"><ele>715.0</ele><time>2026-05-02T16:32:33.35Z</time></trkpt><trkpt lat="44.1698" lon="8.067935"><ele>715.0</ele><time>2026-05-02T16:32:34.35Z</time></trkpt><trkpt lat="44.169855" lon="8.0680583"><ele>715.0</ele><time>2026-05-02T16:32:35.356Z</time></trkpt><trkpt lat="44.1699033" lon="8.0681817"><ele>715.0</ele><time>2026-05-02T16:32:36.352Z</time></trkpt><trkpt lat="44.16995" lon="8.0682983"><ele>715.0</ele><time>2026-05-02T16:32:37.353Z</time></trkpt><trkpt lat="44.16999" lon="8.0684133"><ele>714.5</ele><time>2026-05-02T16:32:38.352Z</time></trkpt><trkpt lat="44.1700317" lon="8.068525"><ele>714.0</ele><time>2026-05-02T16:32:39.35Z</time></trkpt><trkpt lat="44.1700783" lon="8.0686233"><ele>713.5</ele><time>2026-05-02T16:32:40.352Z</time></trkpt><trkpt lat="44.1701383" lon="8.0687017"><ele>713.0</ele><time>2026-05-02T16:32:41.351Z</time></trkpt><trkpt lat="44.1702033" lon="8.0687517"><ele>712.5</ele><time>2026-05-02T16:32:42.354Z</time></trkpt><trkpt lat="44.1702867" lon="8.06875"><ele>712.0</ele><time>2026-05-02T16:32:43.353Z</time></trkpt><trkpt lat="44.1703867" lon="8.0686767"><ele>712.0</ele><time>2026-05-02T16:32:44.351Z</time></trkpt><trkpt lat="44.1704683" lon="8.06855"><ele>712.0</ele><time>2026-05-02T16:32:45.353Z</time></trkpt><trkpt lat="44.1705433" lon="8.0683867"><ele>712.0</ele><time>2026-05-02T16:32:46.352Z</time></trkpt><trkpt lat="44.1706183" lon="8.0682083"><ele>712.0</ele><time>2026-05-02T16:32:47.355Z</time></trkpt><trkpt lat="44.17069" lon="8.0680317"><ele>711.8</ele><time>2026-05-02T16:32:48.351Z</time></trkpt><trkpt lat="44.1707483" lon="8.0678767"><ele>711.6</ele><time>2026-05-02T16:32:49.353Z</time></trkpt><trkpt lat="44.1707967" lon="8.067735"><ele>711.4</ele><time>2026-05-02T16:32:50.353Z</time></trkpt><trkpt lat="44.17084" lon="8.0676217"><ele>711.1999999999999</ele><time>2026-05-02T16:32:51.355Z</time></trkpt><trkpt lat="44.17088" lon="8.0675317"><ele>711.0</ele><time>2026-05-02T16:32:52.353Z</time></trkpt><trkpt lat="44.1709333" lon="8.06746"><ele>707.0</ele><time>2026-05-02T16:32:53.357Z</time></trkpt><trkpt lat="44.1710067" lon="8.06741"><ele>703.0</ele><time>2026-05-02T16:32:54.353Z</time></trkpt><trkpt lat="44.171095" lon="8.0673717"><ele>699.0</ele><time>2026-05-02T16:32:55.35Z</time></trkpt><trkpt lat="44.1711917" lon="8.067345"><ele>695.0</ele><time>2026-05-02T16:32:56.354Z</time></trkpt><trkpt lat="44.1712833" lon="8.0673167"><ele>691.0</ele><time>2026-05-02T16:32:57.35Z</time></trkpt><trkpt lat="44.1713733" lon="8.0672983"><ele>691.0</ele><time>2026-05-02T16:32:58.352Z</time></trkpt><trkpt lat="44.171455" lon="8.0673117"><ele>691.0</ele><time>2026-05-02T16:32:59.354Z</time></trkpt><trkpt lat="44.171525" lon="8.06734"><ele>691.0</ele><time>2026-05-02T16:33:00.358Z</time></trkpt><trkpt lat="44.1715883" lon="8.0673917"><ele>691.0</ele><time>2026-05-02T16:33:01.358Z</time></trkpt><trkpt lat="44.1716467" lon="8.0674683"><ele>691.0</ele><time>2026-05-02T16:33:02.354Z</time></trkpt><trkpt lat="44.171695" lon="8.06758"><ele>691.0</ele><time>2026-05-02T16:33:03.353Z</time></trkpt><trkpt lat="44.1717333" lon="8.0677717"><ele>699.6666666666667</ele><time>2026-05-02T16:33:04.351Z</time></trkpt><trkpt lat="44.1718017" lon="8.0679567"><ele>708.3333333333334</ele><time>2026-05-02T16:33:05.35Z</time></trkpt><trkpt lat="44.171885" lon="8.0681433"><ele>717.0</ele><time>2026-05-02T16:33:06.35Z</time></trkpt><trkpt lat="44.1719967" lon="8.0683367"><ele>717.6666666666666</ele><time>2026-05-02T16:33:07.352Z</time></trkpt><trkpt lat="44.1721317" lon="8.0685183"><ele>718.3333333333333</ele><time>2026-05-02T16:33:08.353Z</time></trkpt><trkpt lat="44.1722883" lon="8.068675"><ele>719.0</ele><time>2026-05-02T16:33:09.355Z</time></trkpt><trkpt lat="44.1724733" lon="8.06879"><ele>719.0</ele><time>2026-05-02T16:33:10.354Z</time></trkpt><trkpt lat="44.1726583" lon="8.0688883"><ele>719.0</ele><time>2026-05-02T16:33:11.349Z</time></trkpt><trkpt lat="44.1728467" lon="8.0689633"><ele>719.0</ele><time>2026-05-02T16:33:12.35Z</time></trkpt><trkpt lat="44.1730167" lon="8.0690167"><ele>719.0</ele><time>2026-05-02T16:33:13.35Z</time></trkpt><trkpt lat="44.1731583" lon="8.0690367"><ele>719.0</ele><time>2026-05-02T16:33:14.354Z</time></trkpt><trkpt lat="44.1732917" lon="8.0690167"><ele>719.0</ele><time>2026-05-02T16:33:15.352Z</time></trkpt><trkpt lat="44.1734083" lon="8.068955"><ele>719.0</ele><time>2026-05-02T16:33:16.352Z</time></trkpt><trkpt lat="44.1734867" lon="8.0688367"><ele>722.75</ele><time>2026-05-02T16:33:17.348Z</time></trkpt><trkpt lat="44.17351" lon="8.06866"><ele>726.5</ele><time>2026-05-02T16:33:18.351Z</time></trkpt><trkpt lat="44.173495" lon="8.0684767"><ele>730.25</ele><time>2026-05-02T16:33:19.351Z</time></trkpt><trkpt lat="44.1734367" lon="8.0682933"><ele>734.0</ele><time>2026-05-02T16:33:20.349Z</time></trkpt><trkpt lat="44.17334" lon="8.06814"><ele>737.5</ele><time>2026-05-02T16:33:21.35Z</time></trkpt><trkpt lat="44.17324" lon="8.068005"><ele>741.0</ele><time>2026-05-02T16:33:22.352Z</time></trkpt><trkpt lat="44.1731633" lon="8.0678583"><ele>744.5</ele><time>2026-05-02T16:33:23.352Z</time></trkpt><trkpt lat="44.1731117" lon="8.0676867"><ele>748.0</ele><time>2026-05-02T16:33:24.353Z</time></trkpt><trkpt lat="44.1730667" lon="8.0674917"><ele>739.0</ele><time>2026-05-02T16:33:25.349Z</time></trkpt><trkpt lat="44.1730117" lon="8.06729"><ele>730.0</ele><time>2026-05-02T16:33:26.353Z</time></trkpt><trkpt lat="44.1729367" lon="8.0670917"><ele>721.0</ele><time>2026-05-02T16:33:27.354Z</time></trkpt><trkpt lat="44.1728567" lon="8.0669067"><ele>721.0</ele><time>2026-05-02T16:33:28.358Z</time></trkpt><trkpt lat="44.1727833" lon="8.066745"><ele>721.0</ele><time>2026-05-02T16:33:29.349Z</time></trkpt><trkpt lat="44.17273" lon="8.0665933"><ele>721.0</ele><time>2026-05-02T16:33:30.35Z</time></trkpt><trkpt lat="44.1727083" lon="8.066455"><ele>721.0</ele><time>2026-05-02T16:33:31.352Z</time></trkpt><trkpt lat="44.17272" lon="8.0663217"><ele>720.25</ele><time>2026-05-02T16:33:32.349Z</time></trkpt><trkpt lat="44.1727483" lon="8.0661883"><ele>719.5</ele><time>2026-05-02T16:33:33.355Z</time></trkpt><trkpt lat="44.1727933" lon="8.0660517"><ele>718.75</ele><time>2026-05-02T16:33:34.348Z</time></trkpt><trkpt lat="44.1728517" lon="8.065905"><ele>718.0</ele><time>2026-05-02T16:33:35.352Z</time></trkpt><trkpt lat="44.1729217" lon="8.0657567"><ele>715.25</ele><time>2026-05-02T16:33:36.356Z</time></trkpt><trkpt lat="44.1730017" lon="8.065615"><ele>712.5</ele><time>2026-05-02T16:33:37.352Z</time></trkpt><trkpt lat="44.1730883" lon="8.06549"><ele>709.75</ele><time>2026-05-02T16:33:38.352Z</time></trkpt><trkpt lat="44.1732033" lon="8.065395"><ele>707.0</ele><time>2026-05-02T16:33:39.355Z</time></trkpt><trkpt lat="44.1733367" lon="8.065315"><ele>715.3333333333333</ele><time>2026-05-02T16:33:40.352Z</time></trkpt><trkpt lat="44.1734867" lon="8.0652383"><ele>723.6666666666666</ele><time>2026-05-02T16:33:41.35Z</time></trkpt><trkpt lat="44.173645" lon="8.0651517"><ele>732.0</ele><time>2026-05-02T16:33:42.355Z</time></trkpt><trkpt lat="44.1738" lon="8.0650533"><ele>732.0</ele><time>2026-05-02T16:33:43.348Z</time></trkpt><trkpt lat="44.1739617" lon="8.064975"><ele>732.0</ele><time>2026-05-02T16:33:44.351Z</time></trkpt><trkpt lat="44.1741283" lon="8.06492"><ele>732.0</ele><time>2026-05-02T16:33:45.353Z</time></trkpt><trkpt lat="44.174305" lon="8.0648917"><ele>730.6666666666666</ele><time>2026-05-02T16:33:46.355Z</time></trkpt><trkpt lat="44.1744917" lon="8.0648717"><ele>729.3333333333333</ele><time>2026-05-02T16:33:47.353Z</time></trkpt><trkpt lat="44.1746767" lon="8.06484"><ele>728.0</ele><time>2026-05-02T16:33:48.351Z</time></trkpt><trkpt lat="44.1748617" lon="8.0648233"><ele>732.6666666666666</ele><time>2026-05-02T16:33:49.352Z</time></trkpt><trkpt lat="44.1750383" lon="8.0648333"><ele>737.3333333333334</ele><time>2026-05-02T16:33:50.35Z</time></trkpt><trkpt lat="44.17519" lon="8.0648517"><ele>742.0</ele><time>2026-05-02T16:33:51.353Z</time></trkpt><trkpt lat="44.175325" lon="8.0648417"><ele>742.0</ele><time>2026-05-02T16:33:52.349Z</time></trkpt><trkpt lat="44.1754417" lon="8.0647817"><ele>742.0</ele><time>2026-05-02T16:33:53.348Z</time></trkpt><trkpt lat="44.1755283" lon="8.0646717"><ele>742.0</ele><time>2026-05-02T16:33:54.349Z</time></trkpt><trkpt lat="44.1755783" lon="8.06452"><ele>742.0</ele><time>2026-05-02T16:33:55.35Z</time></trkpt><trkpt lat="44.17559" lon="8.0643567"><ele>742.0</ele><time>2026-05-02T16:33:56.351Z</time></trkpt><trkpt lat="44.1755433" lon="8.064175"><ele>742.0</ele><time>2026-05-02T16:33:57.354Z</time></trkpt><trkpt lat="44.1754767" lon="8.064005"><ele>742.0</ele><time>2026-05-02T16:33:58.351Z</time></trkpt><trkpt lat="44.175425" lon="8.0638317"><ele>742.0</ele><time>2026-05-02T16:33:59.349Z</time></trkpt><trkpt lat="44.175405" lon="8.0636633"><ele>743.25</ele><time>2026-05-02T16:34:00.354Z</time></trkpt><trkpt lat="44.1754283" lon="8.0635017"><ele>744.5</ele><time>2026-05-02T16:34:01.353Z</time></trkpt><trkpt lat="44.1754833" lon="8.06333"><ele>745.75</ele><time>2026-05-02T16:34:02.353Z</time></trkpt><trkpt lat="44.1755433" lon="8.063145"><ele>747.0</ele><time>2026-05-02T16:34:03.354Z</time></trkpt><trkpt lat="44.1756083" lon="8.0629533"><ele>750.75</ele><time>2026-05-02T16:34:04.35Z</time></trkpt><trkpt lat="44.1756667" lon="8.0627683"><ele>754.5</ele><time>2026-05-02T16:34:05.351Z</time></trkpt><trkpt lat="44.1756967" lon="8.0625967"><ele>758.25</ele><time>2026-05-02T16:34:06.353Z</time></trkpt><trkpt lat="44.17568" lon="8.06244"><ele>762.0</ele><time>2026-05-02T16:34:07.353Z</time></trkpt><trkpt lat="44.175625" lon="8.0622933"><ele>767.25</ele><time>2026-05-02T16:34:08.352Z</time></trkpt><trkpt lat="44.1755367" lon="8.06216"><ele>772.5</ele><time>2026-05-02T16:34:09.352Z</time></trkpt><trkpt lat="44.1754233" lon="8.0620383"><ele>777.75</ele><time>2026-05-02T16:34:10.352Z</time></trkpt><trkpt lat="44.1752883" lon="8.06195"><ele>783.0</ele><time>2026-05-02T16:34:11.35Z</time></trkpt><trkpt lat="44.1751383" lon="8.0619117"><ele>783.0</ele><time>2026-05-02T16:34:12.353Z</time></trkpt><trkpt lat="44.17498" lon="8.061935"><ele>783.0</ele><time>2026-05-02T16:34:13.353Z</time></trkpt><trkpt lat="44.1748167" lon="8.0620433"><ele>783.0</ele><time>2026-05-02T16:34:14.35Z</time></trkpt><trkpt lat="44.1746717" lon="8.062155"><ele>786.25</ele><time>2026-05-02T16:34:15.352Z</time></trkpt><trkpt lat="44.1745383" lon="8.06226"><ele>789.5</ele><time>2026-05-02T16:34:16.35Z</time></trkpt><trkpt lat="44.1744133" lon="8.0623383"><ele>792.75</ele><time>2026-05-02T16:34:17.349Z</time></trkpt><trkpt lat="44.1742933" lon="8.06237"><ele>796.0</ele><time>2026-05-02T16:34:18.351Z</time></trkpt><trkpt lat="44.174175" lon="8.0623333"><ele>796.0</ele><time>2026-05-02T16:34:19.354Z</time></trkpt><trkpt lat="44.174045" lon="8.0622783"><ele>796.0</ele><time>2026-05-02T16:34:20.354Z</time></trkpt><trkpt lat="44.1739" lon="8.062235"><ele>796.0</ele><time>2026-05-02T16:34:21.353Z</time></trkpt><trkpt lat="44.173735" lon="8.06223"><ele>796.0</ele><time>2026-05-02T16:34:22.352Z</time></trkpt><trkpt lat="44.17356" lon="8.0622483"><ele>799.0</ele><time>2026-05-02T16:34:23.349Z</time></trkpt><trkpt lat="44.1733733" lon="8.0622717"><ele>802.0</ele><time>2026-05-02T16:34:24.349Z</time></trkpt><trkpt lat="44.1731867" lon="8.06229"><ele>805.0</ele><time>2026-05-02T16:34:25.35Z</time></trkpt><trkpt lat="44.17301" lon="8.0622983"><ele>798.5</ele><time>2026-05-02T16:34:26.352Z</time></trkpt><trkpt lat="44.172855" lon="8.0622917"><ele>792.0</ele><time>2026-05-02T16:34:27.355Z</time></trkpt><trkpt lat="44.1727183" lon="8.062275"><ele>785.5</ele><time>2026-05-02T16:34:28.352Z</time></trkpt><trkpt lat="44.1726267" lon="8.0622283"><ele>779.0</ele><time>2026-05-02T16:34:29.353Z</time></trkpt><trkpt lat="44.1725767" lon="8.0621333"><ele>779.0</ele><time>2026-05-02T16:34:30.353Z</time></trkpt><trkpt lat="44.172555" lon="8.062025"><ele>779.0</ele><time>2026-05-02T16:34:31.352Z</time></trkpt><trkpt lat="44.1725433" lon="8.0618833"><ele>779.0</ele><time>2026-05-02T16:34:32.349Z</time></trkpt><trkpt lat="44.1725317" lon="8.06172"><ele>779.0</ele><time>2026-05-02T16:34:33.353Z</time></trkpt><trkpt lat="44.17253" lon="8.0615467"><ele>779.0</ele><time>2026-05-02T16:34:34.352Z</time></trkpt><trkpt lat="44.1725517" lon="8.06137"><ele>779.25</ele><time>2026-05-02T16:34:35.352Z</time></trkpt><trkpt lat="44.1726033" lon="8.0611967"><ele>779.5</ele><time>2026-05-02T16:34:36.352Z</time></trkpt><trkpt lat="44.17268" lon="8.0610233"><ele>779.75</ele><time>2026-05-02T16:34:37.351Z</time></trkpt><trkpt lat="44.1727467" lon="8.0608333"><ele>780.0</ele><time>2026-05-02T16:34:38.352Z</time></trkpt><trkpt lat="44.1727883" lon="8.060615"><ele>778.3333333333333</ele><time>2026-05-02T16:34:39.35Z</time></trkpt><trkpt lat="44.1728183" lon="8.0603883"><ele>776.6666666666666</ele><time>2026-05-02T16:34:40.354Z</time></trkpt><trkpt lat="44.172855" lon="8.06017"><ele>775.0</ele><time>2026-05-02T16:34:41.35Z</time></trkpt><trkpt lat="44.1729217" lon="8.0599583"><ele>776.3333333333333</ele><time>2026-05-02T16:34:42.351Z</time></trkpt><trkpt lat="44.172995" lon="8.0597517"><ele>777.6666666666667</ele><time>2026-05-02T16:34:43.352Z</time></trkpt><trkpt lat="44.1730567" lon="8.059545"><ele>779.0</ele><time>2026-05-02T16:34:44.353Z</time></trkpt><trkpt lat="44.173095" lon="8.0593333"><ele>779.6666666666667</ele><time>2026-05-02T16:34:45.351Z</time></trkpt><trkpt lat="44.17311" lon="8.059115"><ele>780.3333333333333</ele><time>2026-05-02T16:34:46.352Z</time></trkpt><trkpt lat="44.173105" lon="8.0588833"><ele>781.0</ele><time>2026-05-02T16:34:47.354Z</time></trkpt><trkpt lat="44.1730833" lon="8.0586367"><ele>781.0</ele><time>2026-05-02T16:34:48.355Z</time></trkpt><trkpt lat="44.1730567" lon="8.0583867"><ele>781.0</ele><time>2026-05-02T16:34:49.349Z</time></trkpt><trkpt lat="44.17303" lon="8.0581517"><ele>781.0</ele><time>2026-05-02T16:34:50.352Z</time></trkpt><trkpt lat="44.1730083" lon="8.0579283"><ele>782.3333333333333</ele><time>2026-05-02T16:34:51.353Z</time></trkpt><trkpt lat="44.1730067" lon="8.0577067"><ele>783.6666666666667</ele><time>2026-05-02T16:34:52.35Z</time></trkpt><trkpt lat="44.173035" lon="8.05748"><ele>785.0</ele><time>2026-05-02T16:34:53.352Z</time></trkpt><trkpt lat="44.1730733" lon="8.0572417"><ele>786.3333333333334</ele><time>2026-05-02T16:34:54.35Z</time></trkpt><trkpt lat="44.1731017" lon="8.0569883"><ele>787.6666666666667</ele><time>2026-05-02T16:34:55.35Z</time></trkpt><trkpt lat="44.1731217" lon="8.0567283"><ele>789.0</ele><time>2026-05-02T16:34:56.356Z</time></trkpt><trkpt lat="44.17314" lon="8.0564667"><ele>790.6666666666667</ele><time>2026-05-02T16:34:57.354Z</time></trkpt><trkpt lat="44.1731533" lon="8.0562183"><ele>792.3333333333334</ele><time>2026-05-02T16:34:58.351Z</time></trkpt><trkpt lat="44.1731567" lon="8.055975"><ele>794.0</ele><time>2026-05-02T16:34:59.355Z</time></trkpt><trkpt lat="44.1731317" lon="8.0557433"><ele>795.5</ele><time>2026-05-02T16:35:00.353Z</time></trkpt><trkpt lat="44.1730917" lon="8.0555317"><ele>797.0</ele><time>2026-05-02T16:35:01.353Z</time></trkpt><trkpt lat="44.1730483" lon="8.055355"><ele>798.5</ele><time>2026-05-02T16:35:02.351Z</time></trkpt><trkpt lat="44.173015" lon="8.0552"><ele>800.0</ele><time>2026-05-02T16:35:03.354Z</time></trkpt><trkpt lat="44.1730133" lon="8.05506"><ele>798.75</ele><time>2026-05-02T16:35:04.35Z</time></trkpt><trkpt lat="44.17305" lon="8.05493"><ele>797.5</ele><time>2026-05-02T16:35:05.352Z</time></trkpt><trkpt lat="44.1731333" lon="8.0548283"><ele>796.25</ele><time>2026-05-02T16:35:06.354Z</time></trkpt><trkpt lat="44.17324" lon="8.05474"><ele>795.0</ele><time>2026-05-02T16:35:07.353Z</time></trkpt><trkpt lat="44.1733617" lon="8.054635"><ele>799.6666666666667</ele><time>2026-05-02T16:35:08.353Z</time></trkpt><trkpt lat="44.1734733" lon="8.0544867"><ele>804.3333333333334</ele><time>2026-05-02T16:35:09.354Z</time></trkpt><trkpt lat="44.1735617" lon="8.0543033"><ele>809.0</ele><time>2026-05-02T16:35:10.35Z</time></trkpt><trkpt lat="44.17362" lon="8.0540883"><ele>809.0</ele><time>2026-05-02T16:35:11.356Z</time></trkpt><trkpt lat="44.17366" lon="8.0538783"><ele>809.0</ele><time>2026-05-02T16:35:12.352Z</time></trkpt><trkpt lat="44.17369" lon="8.0536967"><ele>809.0</ele><time>2026-05-02T16:35:13.352Z</time></trkpt><trkpt lat="44.1737133" lon="8.05356"><ele>809.0</ele><time>2026-05-02T16:35:14.351Z</time></trkpt><trkpt lat="44.17375" lon="8.05346"><ele>809.0</ele><time>2026-05-02T16:35:15.35Z</time></trkpt><trkpt lat="44.173855" lon="8.05347"><ele>809.0</ele><time>2026-05-02T16:35:17.353Z</time></trkpt><trkpt lat="44.173875" lon="8.0535533"><ele>809.0</ele><time>2026-05-02T16:35:18.349Z</time></trkpt><trkpt lat="44.1738817" lon="8.0536667"><ele>809.0</ele><time>2026-05-02T16:35:19.352Z</time></trkpt><trkpt lat="44.1738633" lon="8.0538117"><ele>809.0</ele><time>2026-05-02T16:35:20.352Z</time></trkpt><trkpt lat="44.1738317" lon="8.05399"><ele>810.75</ele><time>2026-05-02T16:35:21.353Z</time></trkpt><trkpt lat="44.1738067" lon="8.05418"><ele>812.5</ele><time>2026-05-02T16:35:22.354Z</time></trkpt><trkpt lat="44.1737917" lon="8.0543783"><ele>814.25</ele><time>2026-05-02T16:35:23.354Z</time></trkpt><trkpt lat="44.17379" lon="8.0545717"><ele>816.0</ele><time>2026-05-02T16:35:24.354Z</time></trkpt><trkpt lat="44.1737983" lon="8.0547617"><ele>816.0</ele><time>2026-05-02T16:35:25.353Z</time></trkpt><trkpt lat="44.17381" lon="8.05495"><ele>816.0</ele><time>2026-05-02T16:35:26.351Z</time></trkpt><trkpt lat="44.1738283" lon="8.0551367"><ele>816.0</ele><time>2026-05-02T16:35:27.353Z</time></trkpt><trkpt lat="44.1738417" lon="8.0553183"><ele>816.0</ele><time>2026-05-02T16:35:28.351Z</time></trkpt><trkpt lat="44.173855" lon="8.0554767"><ele>816.4</ele><time>2026-05-02T16:35:29.353Z</time></trkpt><trkpt lat="44.1738817" lon="8.0556"><ele>816.8</ele><time>2026-05-02T16:35:30.353Z</time></trkpt><trkpt lat="44.1739167" lon="8.055705"><ele>817.1999999999999</ele><time>2026-05-02T16:35:31.351Z</time></trkpt><trkpt lat="44.1740483" lon="8.0556767"><ele>817.5999999999999</ele><time>2026-05-02T16:35:33.353Z</time></trkpt><trkpt lat="44.1741133" lon="8.0555967"><ele>818.0</ele><time>2026-05-02T16:35:34.352Z</time></trkpt><trkpt lat="44.17417" lon="8.05549"><ele>822.0</ele><time>2026-05-02T16:35:35.354Z</time></trkpt><trkpt lat="44.17422" lon="8.055355"><ele>826.0</ele><time>2026-05-02T16:35:36.352Z</time></trkpt><trkpt lat="44.1742767" lon="8.0551567"><ele>830.0</ele><time>2026-05-02T16:35:37.354Z</time></trkpt><trkpt lat="44.17434" lon="8.0549617"><ele>834.0</ele><time>2026-05-02T16:35:38.35Z</time></trkpt><trkpt lat="44.1743967" lon="8.0547567"><ele>834.0</ele><time>2026-05-02T16:35:39.354Z</time></trkpt><trkpt lat="44.1744533" lon="8.0545433"><ele>834.0</ele><time>2026-05-02T16:35:40.353Z</time></trkpt><trkpt lat="44.17451" lon="8.054325"><ele>834.0</ele><time>2026-05-02T16:35:41.353Z</time></trkpt><trkpt lat="44.174565" lon="8.0540983"><ele>834.0</ele><time>2026-05-02T16:35:42.353Z</time></trkpt><trkpt lat="44.174615" lon="8.0538767"><ele>834.0</ele><time>2026-05-02T16:35:43.35Z</time></trkpt><trkpt lat="44.17466" lon="8.0536433"><ele>834.0</ele><time>2026-05-02T16:35:44.353Z</time></trkpt><trkpt lat="44.17469" lon="8.0534117"><ele>835.3333333333333</ele><time>2026-05-02T16:35:45.349Z</time></trkpt><trkpt lat="44.1746967" lon="8.0531733"><ele>836.6666666666666</ele><time>2026-05-02T16:35:46.354Z</time></trkpt><trkpt lat="44.1746883" lon="8.0529317"><ele>838.0</ele><time>2026-05-02T16:35:47.348Z</time></trkpt><trkpt lat="44.1746767" lon="8.0526867"><ele>838.3333333333333</ele><time>2026-05-02T16:35:48.354Z</time></trkpt><trkpt lat="44.1746683" lon="8.0524417"><ele>838.6666666666667</ele><time>2026-05-02T16:35:49.35Z</time></trkpt><trkpt lat="44.1746633" lon="8.0522083"><ele>839.0</ele><time>2026-05-02T16:35:50.354Z</time></trkpt><trkpt lat="44.1746567" lon="8.0519983"><ele>839.0</ele><time>2026-05-02T16:35:51.354Z</time></trkpt><trkpt lat="44.1746617" lon="8.05181"><ele>839.0</ele><time>2026-05-02T16:35:52.349Z</time></trkpt><trkpt lat="44.1746917" lon="8.05166"><ele>839.0</ele><time>2026-05-02T16:35:53.354Z</time></trkpt><trkpt lat="44.1747533" lon="8.0515533"><ele>839.0</ele><time>2026-05-02T16:35:54.35Z</time></trkpt><trkpt lat="44.1748417" lon="8.0514783"><ele>839.0</ele><time>2026-05-02T16:35:55.355Z</time></trkpt><trkpt lat="44.1749317" lon="8.0514017"><ele>840.6</ele><time>2026-05-02T16:35:56.349Z</time></trkpt><trkpt lat="44.1749983" lon="8.05131"><ele>842.2</ele><time>2026-05-02T16:35:57.352Z</time></trkpt><trkpt lat="44.175045" lon="8.0512067"><ele>843.8000000000001</ele><time>2026-05-02T16:35:58.352Z</time></trkpt><trkpt lat="44.1750133" lon="8.05108"><ele>845.4000000000001</ele><time>2026-05-02T16:35:59.356Z</time></trkpt><trkpt lat="44.174935" lon="8.0509517"><ele>847.0</ele><time>2026-05-02T16:36:00.349Z</time></trkpt><trkpt lat="44.1748467" lon="8.0508183"><ele>848.5</ele><time>2026-05-02T16:36:01.354Z</time></trkpt><trkpt lat="44.1747633" lon="8.0506833"><ele>850.0</ele><time>2026-05-02T16:36:02.354Z</time></trkpt><trkpt lat="44.1747017" lon="8.05054"><ele>851.5</ele><time>2026-05-02T16:36:03.357Z</time></trkpt><trkpt lat="44.1746733" lon="8.0503867"><ele>853.0</ele><time>2026-05-02T16:36:04.353Z</time></trkpt><trkpt lat="44.1746783" lon="8.0502167"><ele>853.0</ele><time>2026-05-02T16:36:05.351Z</time></trkpt><trkpt lat="44.1747017" lon="8.0500417"><ele>853.0</ele><time>2026-05-02T16:36:06.353Z</time></trkpt><trkpt lat="44.1747267" lon="8.0498617"><ele>853.0</ele><time>2026-05-02T16:36:07.349Z</time></trkpt><trkpt lat="44.174725" lon="8.0496717"><ele>853.0</ele><time>2026-05-02T16:36:08.355Z</time></trkpt><trkpt lat="44.1746967" lon="8.049465"><ele>857.6666666666666</ele><time>2026-05-02T16:36:09.356Z</time></trkpt><trkpt lat="44.1746583" lon="8.0492517"><ele>862.3333333333333</ele><time>2026-05-02T16:36:10.353Z</time></trkpt><trkpt lat="44.1746167" lon="8.0490433"><ele>867.0</ele><time>2026-05-02T16:36:11.35Z</time></trkpt><trkpt lat="44.1745683" lon="8.0488333"><ele>874.3333333333333</ele><time>2026-05-02T16:36:12.349Z</time></trkpt><trkpt lat="44.1745033" lon="8.0486383"><ele>881.6666666666666</ele><time>2026-05-02T16:36:13.354Z</time></trkpt><trkpt lat="44.17441" lon="8.0484717"><ele>889.0</ele><time>2026-05-02T16:36:14.353Z</time></trkpt><trkpt lat="44.1742867" lon="8.048335"><ele>898.0</ele><time>2026-05-02T16:36:15.355Z</time></trkpt><trkpt lat="44.1741317" lon="8.0482217"><ele>907.0</ele><time>2026-05-02T16:36:16.353Z</time></trkpt><trkpt lat="44.1739667" lon="8.0481217"><ele>916.0</ele><time>2026-05-02T16:36:17.351Z</time></trkpt><trkpt lat="44.1737967" lon="8.0480383"><ele>916.0</ele><time>2026-05-02T16:36:18.354Z</time></trkpt><trkpt lat="44.1736233" lon="8.04798"><ele>916.0</ele><time>2026-05-02T16:36:19.351Z</time></trkpt><trkpt lat="44.17345" lon="8.047935"><ele>916.0</ele><time>2026-05-02T16:36:20.354Z</time></trkpt><trkpt lat="44.1732817" lon="8.047895"><ele>920.6666666666666</ele><time>2026-05-02T16:36:21.354Z</time></trkpt><trkpt lat="44.1731233" lon="8.0478833"><ele>925.3333333333333</ele><time>2026-05-02T16:36:22.352Z</time></trkpt><trkpt lat="44.1729717" lon="8.0479083"><ele>930.0</ele><time>2026-05-02T16:36:23.352Z</time></trkpt><trkpt lat="44.1728183" lon="8.0479867"><ele>930.0</ele><time>2026-05-02T16:36:24.353Z</time></trkpt><trkpt lat="44.17267" lon="8.0480867"><ele>930.0</ele><time>2026-05-02T16:36:25.352Z</time></trkpt><trkpt lat="44.1725167" lon="8.0481917"><ele>930.0</ele><time>2026-05-02T16:36:26.354Z</time></trkpt><trkpt lat="44.172355" lon="8.0482867"><ele>923.0</ele><time>2026-05-02T16:36:27.352Z</time></trkpt><trkpt lat="44.1721867" lon="8.0483467"><ele>916.0</ele><time>2026-05-02T16:36:28.351Z</time></trkpt><trkpt lat="44.1720133" lon="8.048395"><ele>909.0</ele><time>2026-05-02T16:36:29.355Z</time></trkpt><trkpt lat="44.1718383" lon="8.0484467"><ele>909.0</ele><time>2026-05-02T16:36:30.353Z</time></trkpt><trkpt lat="44.17166" lon="8.048505"><ele>909.0</ele><time>2026-05-02T16:36:31.355Z</time></trkpt><trkpt lat="44.1714917" lon="8.0485667"><ele>909.0</ele><time>2026-05-02T16:36:32.355Z</time></trkpt><trkpt lat="44.171335" lon="8.0486417"><ele>905.75</ele><time>2026-05-02T16:36:33.352Z</time></trkpt><trkpt lat="44.171195" lon="8.04873"><ele>902.5</ele><time>2026-05-02T16:36:34.351Z</time></trkpt><trkpt lat="44.1710733" lon="8.048835"><ele>899.25</ele><time>2026-05-02T16:36:35.354Z</time></trkpt><trkpt lat="44.1709767" lon="8.04892"><ele>896.0</ele><time>2026-05-02T16:36:36.352Z</time></trkpt><trkpt lat="44.1708933" lon="8.0489833"><ele>896.0000000000001</ele><time>2026-05-02T16:36:37.357Z</time></trkpt><trkpt lat="44.1708217" lon="8.049"><ele>896.0</ele><time>2026-05-02T16:36:38.351Z</time></trkpt><trkpt lat="44.170755" lon="8.04898"><ele>896.0</ele><time>2026-05-02T16:36:39.349Z</time></trkpt><trkpt lat="44.1707583" lon="8.0488217"><ele>896.0</ele><time>2026-05-02T16:36:41.353Z</time></trkpt><trkpt lat="44.170805" lon="8.04874"><ele>896.0000000000001</ele><time>2026-05-02T16:36:42.354Z</time></trkpt><trkpt lat="44.1709017" lon="8.0486633"><ele>896.0</ele><time>2026-05-02T16:36:43.357Z</time></trkpt><trkpt lat="44.17102" lon="8.0485833"><ele>896.0</ele><time>2026-05-02T16:36:44.354Z</time></trkpt><trkpt lat="44.1711417" lon="8.048505"><ele>896.0</ele><time>2026-05-02T16:36:45.353Z</time></trkpt><trkpt lat="44.1712717" lon="8.048425"><ele>896.0</ele><time>2026-05-02T16:36:46.352Z</time></trkpt><trkpt lat="44.1714133" lon="8.04834"><ele>896.0</ele><time>2026-05-02T16:36:47.352Z</time></trkpt><trkpt lat="44.1715617" lon="8.048255"><ele>906.6666666666667</ele><time>2026-05-02T16:36:48.354Z</time></trkpt><trkpt lat="44.171715" lon="8.048165"><ele>917.3333333333333</ele><time>2026-05-02T16:36:49.354Z</time></trkpt><trkpt lat="44.1718717" lon="8.0480733"><ele>928.0</ele><time>2026-05-02T16:36:50.354Z</time></trkpt><trkpt lat="44.1720283" lon="8.0479667"><ele>928.0</ele><time>2026-05-02T16:36:51.351Z</time></trkpt><trkpt lat="44.1721767" lon="8.0478317"><ele>928.0</ele><time>2026-05-02T16:36:52.353Z</time></trkpt><trkpt lat="44.1723133" lon="8.04768"><ele>928.0</ele><time>2026-05-02T16:36:53.35Z</time></trkpt><trkpt lat="44.172455" lon="8.0475283"><ele>937.0</ele><time>2026-05-02T16:36:54.354Z</time></trkpt><trkpt lat="44.1726033" lon="8.0473967"><ele>946.0</ele><time>2026-05-02T16:36:55.353Z</time></trkpt><trkpt lat="44.1727583" lon="8.0472767"><ele>955.0</ele><time>2026-05-02T16:36:56.353Z</time></trkpt><trkpt lat="44.17292" lon="8.0471667"><ele>955.0</ele><time>2026-05-02T16:36:57.354Z</time></trkpt><trkpt lat="44.1730867" lon="8.0470783"><ele>955.0</ele><time>2026-05-02T16:36:58.356Z</time></trkpt><trkpt lat="44.173265" lon="8.0470067"><ele>955.0</ele><time>2026-05-02T16:36:59.352Z</time></trkpt><trkpt lat="44.1734467" lon="8.04694"><ele>952.3333333333333</ele><time>2026-05-02T16:37:00.352Z</time></trkpt><trkpt lat="44.1736333" lon="8.0468917"><ele>949.6666666666667</ele><time>2026-05-02T16:37:01.357Z</time></trkpt><trkpt lat="44.1738217" lon="8.0468617"><ele>947.0</ele><time>2026-05-02T16:37:02.354Z</time></trkpt><trkpt lat="44.17401" lon="8.0468283"><ele>947.3333333333334</ele><time>2026-05-02T16:37:03.36Z</time></trkpt><trkpt lat="44.174195" lon="8.0467833"><ele>947.6666666666667</ele><time>2026-05-02T16:37:04.35Z</time></trkpt><trkpt lat="44.1743717" lon="8.04674"><ele>948.0</ele><time>2026-05-02T16:37:05.353Z</time></trkpt><trkpt lat="44.174535" lon="8.0467283"><ele>948.0</ele><time>2026-05-02T16:37:06.357Z</time></trkpt><trkpt lat="44.1746783" lon="8.0467433"><ele>948.0</ele><time>2026-05-02T16:37:07.355Z</time></trkpt><trkpt lat="44.1748033" lon="8.0467483"><ele>948.0</ele><time>2026-05-02T16:37:08.353Z</time></trkpt><trkpt lat="44.1749017" lon="8.0467183"><ele>948.0</ele><time>2026-05-02T16:37:09.355Z</time></trkpt><trkpt lat="44.1749917" lon="8.0466283"><ele>950.8</ele><time>2026-05-02T16:37:10.351Z</time></trkpt><trkpt lat="44.1750517" lon="8.046495"><ele>953.5999999999999</ele><time>2026-05-02T16:37:11.351Z</time></trkpt><trkpt lat="44.1750917" lon="8.04633"><ele>956.4000000000001</ele><time>2026-05-02T16:37:12.355Z</time></trkpt><trkpt lat="44.1751317" lon="8.0461867"><ele>959.2</ele><time>2026-05-02T16:37:13.354Z</time></trkpt><trkpt lat="44.1751933" lon="8.0460967"><ele>962.0</ele><time>2026-05-02T16:37:14.354Z</time></trkpt><trkpt lat="44.1752767" lon="8.0460667"><ele>962.0</ele><time>2026-05-02T16:37:15.354Z</time></trkpt><trkpt lat="44.1753733" lon="8.0460867"><ele>962.0</ele><time>2026-05-02T16:37:16.356Z</time></trkpt><trkpt lat="44.1755" lon="8.04614"><ele>962.0</ele><time>2026-05-02T16:37:17.351Z</time></trkpt><trkpt lat="44.1756333" lon="8.0462183"><ele>962.0</ele><time>2026-05-02T16:37:18.351Z</time></trkpt><trkpt lat="44.17577" lon="8.0463383"><ele>963.0</ele><time>2026-05-02T16:37:19.353Z</time></trkpt><trkpt lat="44.1758983" lon="8.04649"><ele>964.0</ele><time>2026-05-02T16:37:20.354Z</time></trkpt><trkpt lat="44.1760233" lon="8.0466483"><ele>965.0</ele><time>2026-05-02T16:37:21.35Z</time></trkpt><trkpt lat="44.1761517" lon="8.0467967"><ele>963.3333333333334</ele><time>2026-05-02T16:37:22.354Z</time></trkpt><trkpt lat="44.1762867" lon="8.046935"><ele>961.6666666666667</ele><time>2026-05-02T16:37:23.354Z</time></trkpt><trkpt lat="44.1764217" lon="8.0470617"><ele>960.0</ele><time>2026-05-02T16:37:24.352Z</time></trkpt><trkpt lat="44.176555" lon="8.0471717"><ele>960.0</ele><time>2026-05-02T16:37:25.357Z</time></trkpt><trkpt lat="44.1766917" lon="8.0472583"><ele>960.0</ele><time>2026-05-02T16:37:26.352Z</time></trkpt><trkpt lat="44.1768267" lon="8.0473333"><ele>960.0</ele><time>2026-05-02T16:37:27.35Z</time></trkpt><trkpt lat="44.17696" lon="8.0474"><ele>960.0</ele><time>2026-05-02T16:37:28.35Z</time></trkpt><trkpt lat="44.1770867" lon="8.047455"><ele>958.6666666666666</ele><time>2026-05-02T16:37:29.35Z</time></trkpt><trkpt lat="44.1772017" lon="8.0474833"><ele>957.3333333333333</ele><time>2026-05-02T16:37:30.349Z</time></trkpt><trkpt lat="44.1773033" lon="8.047485"><ele>956.0</ele><time>2026-05-02T16:37:31.353Z</time></trkpt><trkpt lat="44.1773767" lon="8.0474383"><ele>954.6666666666666</ele><time>2026-05-02T16:37:32.35Z</time></trkpt><trkpt lat="44.1774333" lon="8.0473933"><ele>953.3333333333333</ele><time>2026-05-02T16:37:33.35Z</time></trkpt><trkpt lat="44.1774933" lon="8.0473483"><ele>952.0</ele><time>2026-05-02T16:37:35.353Z</time></trkpt><trkpt lat="44.1775433" lon="8.04727"><ele>952.0</ele><time>2026-05-02T16:37:39.351Z</time></trkpt><trkpt lat="44.1774833" lon="8.0472283"><ele>952.0</ele><time>2026-05-02T16:37:51.351Z</time></trkpt><trkpt lat="44.1774" lon="8.0472783"><ele>952.0</ele><time>2026-05-02T16:37:53.352Z</time></trkpt><trkpt lat="44.177285" lon="8.047275"><ele>952.0</ele><time>2026-05-02T16:37:55.351Z</time></trkpt><trkpt lat="44.1772167" lon="8.0472567"><ele>952.0</ele><time>2026-05-02T16:37:56.348Z</time></trkpt><trkpt lat="44.177125" lon="8.047175"><ele>951.9999999999999</ele><time>2026-05-02T16:37:58.35Z</time></trkpt><trkpt lat="44.177105" lon="8.0470867"><ele>952.0</ele><time>2026-05-02T16:38:00.351Z</time></trkpt><trkpt lat="44.1771583" lon="8.04716"><ele>952.0</ele><time>2026-05-02T16:38:07.351Z</time></trkpt><trkpt lat="44.1772217" lon="8.047265"><ele>952.0</ele><time>2026-05-02T16:38:25.352Z</time></trkpt><trkpt lat="44.1773267" lon="8.0473"><ele>951.9999999999999</ele><time>2026-05-02T16:38:27.353Z</time></trkpt><trkpt lat="44.1773933" lon="8.04732"><ele>952.0</ele><time>2026-05-02T16:38:28.353Z</time></trkpt><trkpt lat="44.177455" lon="8.0473517"><ele>952.0</ele><time>2026-05-02T16:38:30.355Z</time></trkpt><trkpt lat="44.1773917" lon="8.0473417"><ele>952.0</ele><time>2026-05-02T16:49:00.35Z</time></trkpt><trkpt lat="44.1773783" lon="8.0474383"><ele>952.0</ele><time>2026-05-02T16:49:08.351Z</time></trkpt><trkpt lat="44.1774267" lon="8.0473817"><ele>952.0</ele><time>2026-05-02T16:49:30.357Z</time></trkpt><trkpt lat="44.1774974" lon="8.047282"><ele>952.0</ele><time>2026-05-02T16:51:29.41Z</time></trkpt><trkpt lat="44.1773264" lon="8.0470727"><ele>954.6666666666666</ele><time>2026-05-02T16:51:32.355Z</time></trkpt><trkpt lat="44.1771616" lon="8.046937"><ele>957.3333333333333</ele><time>2026-05-02T16:51:33.354Z</time></trkpt><trkpt lat="44.1769967" lon="8.0467884"><ele>960.0</ele><time>2026-05-02T16:51:34.356Z</time></trkpt><trkpt lat="44.1768157" lon="8.0466176"><ele>961.6666666666667</ele><time>2026-05-02T16:51:35.356Z</time></trkpt><trkpt lat="44.1766263" lon="8.0464494"><ele>963.3333333333334</ele><time>2026-05-02T16:51:36.358Z</time></trkpt><trkpt lat="44.1764503" lon="8.0463036"><ele>965.0</ele><time>2026-05-02T16:51:37.356Z</time></trkpt><trkpt lat="44.176311" lon="8.0461766"><ele>965.0</ele><time>2026-05-02T16:51:38.352Z</time></trkpt><trkpt lat="44.1762065" lon="8.0460463"><ele>965.0</ele><time>2026-05-02T16:51:39.356Z</time></trkpt><trkpt lat="44.1761301" lon="8.0458898"><ele>965.0</ele><time>2026-05-02T16:51:40.354Z</time></trkpt><trkpt lat="44.1760685" lon="8.0457007"><ele>965.0</ele><time>2026-05-02T16:51:41.354Z</time></trkpt><trkpt lat="44.1760045" lon="8.0455061"><ele>965.5</ele><time>2026-05-02T16:51:42.357Z</time></trkpt><trkpt lat="44.175931" lon="8.0453098"><ele>966.0</ele><time>2026-05-02T16:51:43.356Z</time></trkpt><trkpt lat="44.1758617" lon="8.0451221"><ele>966.5</ele><time>2026-05-02T16:51:44.351Z</time></trkpt><trkpt lat="44.1758039" lon="8.0449704"><ele>967.0</ele><time>2026-05-02T16:51:45.354Z</time></trkpt><trkpt lat="44.175755" lon="8.0448717"><ele>967.0</ele><time>2026-05-02T16:51:46.353Z</time></trkpt><trkpt lat="44.1757083" lon="8.0447933"><ele>967.0</ele><time>2026-05-02T16:51:47.353Z</time></trkpt><trkpt lat="44.1756367" lon="8.044745"><ele>967.0</ele><time>2026-05-02T16:51:49.354Z</time></trkpt><trkpt lat="44.175615" lon="8.0448617"><ele>967.0</ele><time>2026-05-02T16:51:52.354Z</time></trkpt><trkpt lat="44.1757133" lon="8.045005"><ele>967.0</ele><time>2026-05-02T16:51:54.354Z</time></trkpt><trkpt lat="44.1757817" lon="8.04511"><ele>967.0</ele><time>2026-05-02T16:51:55.354Z</time></trkpt><trkpt lat="44.175865" lon="8.04525"><ele>967.0</ele><time>2026-05-02T16:51:56.355Z</time></trkpt><trkpt lat="44.1759567" lon="8.045385"><ele>967.0</ele><time>2026-05-02T16:51:57.355Z</time></trkpt><trkpt lat="44.1760283" lon="8.0455033"><ele>967.0</ele><time>2026-05-02T16:51:58.355Z</time></trkpt><trkpt lat="44.17608" lon="8.0456333"><ele>967.0</ele><time>2026-05-02T16:51:59.355Z</time></trkpt><trkpt lat="44.1761217" lon="8.0457917"><ele>967.0</ele><time>2026-05-02T16:52:00.352Z</time></trkpt><trkpt lat="44.176165" lon="8.0459467"><ele>967.0</ele><time>2026-05-02T16:52:01.355Z</time></trkpt><trkpt lat="44.176215" lon="8.0460667"><ele>967.0</ele><time>2026-05-02T16:52:02.353Z</time></trkpt><trkpt lat="44.1762917" lon="8.046175"><ele>967.0</ele><time>2026-05-02T16:52:03.351Z</time></trkpt><trkpt lat="44.1764033" lon="8.046295"><ele>966.3333333333333</ele><time>2026-05-02T16:52:04.352Z</time></trkpt><trkpt lat="44.1765417" lon="8.0464233"><ele>965.6666666666667</ele><time>2026-05-02T16:52:05.352Z</time></trkpt><trkpt lat="44.1766817" lon="8.046535"><ele>965.0</ele><time>2026-05-02T16:52:06.351Z</time></trkpt><trkpt lat="44.1768033" lon="8.0466367"><ele>964.0</ele><time>2026-05-02T16:52:07.36Z</time></trkpt><trkpt lat="44.1769067" lon="8.0467283"><ele>963.0</ele><time>2026-05-02T16:52:08.355Z</time></trkpt><trkpt lat="44.1769867" lon="8.0468083"><ele>962.0</ele><time>2026-05-02T16:52:09.359Z</time></trkpt><trkpt lat="44.1770567" lon="8.0468783"><ele>961.0</ele><time>2026-05-02T16:52:10.352Z</time></trkpt><trkpt lat="44.1771183" lon="8.04694"><ele>960.0</ele><time>2026-05-02T16:52:11.353Z</time></trkpt><trkpt lat="44.1772117" lon="8.0470017"><ele>960.0</ele><time>2026-05-02T16:52:13.351Z</time></trkpt><trkpt lat="44.17727" lon="8.047065"><ele>960.0</ele><time>2026-05-02T16:52:15.353Z</time></trkpt><trkpt lat="44.1773533" lon="8.0471683"><ele>960.0</ele><time>2026-05-02T16:52:17.355Z</time></trkpt><trkpt lat="44.1774517" lon="8.0471933"><ele>960.0</ele><time>2026-05-02T16:52:19.358Z</time></trkpt><trkpt lat="44.1775083" lon="8.0471433"><ele>960.0</ele><time>2026-05-02T16:52:21.359Z</time></trkpt><trkpt lat="44.1774883" lon="8.047045"><ele>960.0</ele><time>2026-05-02T16:52:24.351Z</time></trkpt><trkpt lat="44.1774217" lon="8.0470333"><ele>958.6666666666666</ele><time>2026-05-02T16:52:27.356Z</time></trkpt><trkpt lat="44.1774117" lon="8.0471833"><ele>957.3333333333333</ele><time>2026-05-02T16:52:37.353Z</time></trkpt><trkpt lat="44.1774333" lon="8.047315"><ele>956.0</ele><time>2026-05-02T16:52:39.356Z</time></trkpt><trkpt lat="44.177515" lon="8.04733"><ele>954.6666666666666</ele><time>2026-05-02T16:52:52.355Z</time></trkpt><trkpt lat="44.177535" lon="8.047235"><ele>953.3333333333333</ele><time>2026-05-02T16:52:54.355Z</time></trkpt><trkpt lat="44.1775117" lon="8.0471467"><ele>952.0</ele><time>2026-05-02T16:52:56.356Z</time></trkpt><trkpt lat="44.1774433" lon="8.0470617"><ele>953.6</ele><time>2026-05-02T16:54:04.353Z</time></trkpt><trkpt lat="44.1773367" lon="8.0470083"><ele>955.2</ele><time>2026-05-02T16:54:06.353Z</time></trkpt><trkpt lat="44.1772783" lon="8.046945"><ele>956.8</ele><time>2026-05-02T16:54:07.354Z</time></trkpt><trkpt lat="44.1772233" lon="8.0468533"><ele>958.4</ele><time>2026-05-02T16:54:08.355Z</time></trkpt><trkpt lat="44.1771717" lon="8.0467367"><ele>960.0</ele><time>2026-05-02T16:54:09.354Z</time></trkpt><trkpt lat="44.1771283" lon="8.0466"><ele>961.25</ele><time>2026-05-02T16:54:10.354Z</time></trkpt><trkpt lat="44.1770917" lon="8.0464467"><ele>962.5</ele><time>2026-05-02T16:54:11.354Z</time></trkpt><trkpt lat="44.1770667" lon="8.0462767"><ele>963.75</ele><time>2026-05-02T16:54:12.355Z</time></trkpt><trkpt lat="44.17706" lon="8.0460983"><ele>965.0</ele><time>2026-05-02T16:54:13.353Z</time></trkpt><trkpt lat="44.177065" lon="8.045915"><ele>962.25</ele><time>2026-05-02T16:54:14.354Z</time></trkpt><trkpt lat="44.1770567" lon="8.0457267"><ele>959.5</ele><time>2026-05-02T16:54:15.354Z</time></trkpt><trkpt lat="44.177025" lon="8.0455367"><ele>956.75</ele><time>2026-05-02T16:54:16.354Z</time></trkpt><trkpt lat="44.176975" lon="8.0453533"><ele>954.0</ele><time>2026-05-02T16:54:17.354Z</time></trkpt><trkpt lat="44.1769083" lon="8.045185"><ele>954.0</ele><time>2026-05-02T16:54:18.354Z</time></trkpt><trkpt lat="44.176835" lon="8.04505"><ele>954.0000000000001</ele><time>2026-05-02T16:54:19.351Z</time></trkpt><trkpt lat="44.1767467" lon="8.0449583"><ele>954.0000000000001</ele><time>2026-05-02T16:54:20.35Z</time></trkpt><trkpt lat="44.1766567" lon="8.0448933"><ele>954.0</ele><time>2026-05-02T16:54:21.356Z</time></trkpt><trkpt lat="44.17659" lon="8.0448217"><ele>954.0</ele><time>2026-05-02T16:54:22.354Z</time></trkpt><trkpt lat="44.1765417" lon="8.04475"><ele>952.4000000000001</ele><time>2026-05-02T16:54:23.352Z</time></trkpt><trkpt lat="44.17658" lon="8.0446217"><ele>950.8000000000001</ele><time>2026-05-02T16:54:25.349Z</time></trkpt><trkpt lat="44.1766667" lon="8.044605"><ele>949.1999999999999</ele><time>2026-05-02T16:54:26.35Z</time></trkpt><trkpt lat="44.1767583" lon="8.0446483"><ele>947.5999999999999</ele><time>2026-05-02T16:54:27.355Z</time></trkpt><trkpt lat="44.17685" lon="8.0447383"><ele>946.0</ele><time>2026-05-02T16:54:28.355Z</time></trkpt><trkpt lat="44.17694" lon="8.044845"><ele>948.0</ele><time>2026-05-02T16:54:29.354Z</time></trkpt><trkpt lat="44.1770283" lon="8.044975"><ele>950.0</ele><time>2026-05-02T16:54:30.349Z</time></trkpt><trkpt lat="44.17711" lon="8.045115"><ele>952.0</ele><time>2026-05-02T16:54:31.352Z</time></trkpt><trkpt lat="44.1771817" lon="8.0452783"><ele>954.0</ele><time>2026-05-02T16:54:32.352Z</time></trkpt><trkpt lat="44.1772467" lon="8.045465"><ele>954.0</ele><time>2026-05-02T16:54:33.351Z</time></trkpt><trkpt lat="44.177305" lon="8.0456667"><ele>954.0</ele><time>2026-05-02T16:54:34.353Z</time></trkpt><trkpt lat="44.1773633" lon="8.0458683"><ele>954.0</ele><time>2026-05-02T16:54:35.353Z</time></trkpt><trkpt lat="44.1774233" lon="8.04606"><ele>950.5</ele><time>2026-05-02T16:54:36.352Z</time></trkpt><trkpt lat="44.1774967" lon="8.0462233"><ele>947.0</ele><time>2026-05-02T16:54:37.353Z</time></trkpt><trkpt lat="44.1775983" lon="8.0463417"><ele>943.5</ele><time>2026-05-02T16:54:38.353Z</time></trkpt><trkpt lat="44.1777283" lon="8.04642"><ele>940.0</ele><time>2026-05-02T16:54:39.355Z</time></trkpt><trkpt lat="44.1778733" lon="8.046475"><ele>940.0</ele><time>2026-05-02T16:54:40.354Z</time></trkpt><trkpt lat="44.17802" lon="8.0465333"><ele>940.0</ele><time>2026-05-02T16:54:41.351Z</time></trkpt><trkpt lat="44.178165" lon="8.0465917"><ele>940.0</ele><time>2026-05-02T16:54:42.354Z</time></trkpt><trkpt lat="44.178315" lon="8.04663"><ele>939.25</ele><time>2026-05-02T16:54:43.355Z</time></trkpt><trkpt lat="44.1784567" lon="8.046635"><ele>938.5</ele><time>2026-05-02T16:54:44.352Z</time></trkpt><trkpt lat="44.1785867" lon="8.0465917"><ele>937.75</ele><time>2026-05-02T16:54:45.355Z</time></trkpt><trkpt lat="44.1787083" lon="8.046525"><ele>937.0</ele><time>2026-05-02T16:54:46.351Z</time></trkpt><trkpt lat="44.1788217" lon="8.0464783"><ele>935.8</ele><time>2026-05-02T16:54:47.35Z</time></trkpt><trkpt lat="44.1789317" lon="8.0464817"><ele>934.6</ele><time>2026-05-02T16:54:48.353Z</time></trkpt><trkpt lat="44.1790317" lon="8.0465333"><ele>933.3999999999999</ele><time>2026-05-02T16:54:49.354Z</time></trkpt><trkpt lat="44.179115" lon="8.0466217"><ele>932.1999999999999</ele><time>2026-05-02T16:54:50.352Z</time></trkpt><trkpt lat="44.1791833" lon="8.0467267"><ele>931.0</ele><time>2026-05-02T16:54:51.354Z</time></trkpt><trkpt lat="44.1792467" lon="8.0468383"><ele>931.0</ele><time>2026-05-02T16:54:52.359Z</time></trkpt><trkpt lat="44.1793233" lon="8.0469383"><ele>930.9999999999999</ele><time>2026-05-02T16:54:53.353Z</time></trkpt><trkpt lat="44.1794117" lon="8.047005"><ele>930.9999999999999</ele><time>2026-05-02T16:54:54.353Z</time></trkpt><trkpt lat="44.1795167" lon="8.0470267"><ele>931.0</ele><time>2026-05-02T16:54:55.356Z</time></trkpt><trkpt lat="44.1796267" lon="8.047"><ele>931.0</ele><time>2026-05-02T16:54:56.355Z</time></trkpt><trkpt lat="44.17973" lon="8.04695"><ele>931.0</ele><time>2026-05-02T16:54:57.356Z</time></trkpt><trkpt lat="44.1798317" lon="8.0469133"><ele>930.9999999999999</ele><time>2026-05-02T16:54:58.353Z</time></trkpt><trkpt lat="44.1799283" lon="8.0469117"><ele>930.9999999999999</ele><time>2026-05-02T16:54:59.352Z</time></trkpt><trkpt lat="44.18001" lon="8.0469617"><ele>931.0</ele><time>2026-05-02T16:55:00.351Z</time></trkpt><trkpt lat="44.180065" lon="8.0470633"><ele>931.0</ele><time>2026-05-02T16:55:01.353Z</time></trkpt><trkpt lat="44.1801067" lon="8.047195"><ele>931.75</ele><time>2026-05-02T16:55:02.351Z</time></trkpt><trkpt lat="44.1801517" lon="8.0473417"><ele>932.5</ele><time>2026-05-02T16:55:03.355Z</time></trkpt><trkpt lat="44.1802033" lon="8.0474933"><ele>933.25</ele><time>2026-05-02T16:55:04.352Z</time></trkpt><trkpt lat="44.1802867" lon="8.047625"><ele>934.0</ele><time>2026-05-02T16:55:05.352Z</time></trkpt><trkpt lat="44.1804" lon="8.047725"><ele>934.0</ele><time>2026-05-02T16:55:06.352Z</time></trkpt><trkpt lat="44.1805267" lon="8.0478017"><ele>934.0</ele><time>2026-05-02T16:55:07.353Z</time></trkpt><trkpt lat="44.180655" lon="8.0478733"><ele>934.0</ele><time>2026-05-02T16:55:08.361Z</time></trkpt><trkpt lat="44.1807817" lon="8.0479617"><ele>934.0</ele><time>2026-05-02T16:55:09.351Z</time></trkpt><trkpt lat="44.180895" lon="8.0480683"><ele>930.75</ele><time>2026-05-02T16:55:10.353Z</time></trkpt><trkpt lat="44.1809883" lon="8.0481967"><ele>927.5</ele><time>2026-05-02T16:55:11.353Z</time></trkpt><trkpt lat="44.1810633" lon="8.0483467"><ele>924.25</ele><time>2026-05-02T16:55:12.352Z</time></trkpt><trkpt lat="44.1811083" lon="8.0485183"><ele>921.0</ele><time>2026-05-02T16:55:13.355Z</time></trkpt><trkpt lat="44.1811283" lon="8.0487083"><ele>921.0</ele><time>2026-05-02T16:55:14.35Z</time></trkpt><trkpt lat="44.1811267" lon="8.048915"><ele>921.0</ele><time>2026-05-02T16:55:15.353Z</time></trkpt><trkpt lat="44.1811217" lon="8.0491267"><ele>921.0</ele><time>2026-05-02T16:55:16.353Z</time></trkpt><trkpt lat="44.1811217" lon="8.0493367"><ele>920.6666666666667</ele><time>2026-05-02T16:55:17.349Z</time></trkpt><trkpt lat="44.181125" lon="8.0495483"><ele>920.3333333333334</ele><time>2026-05-02T16:55:18.355Z</time></trkpt><trkpt lat="44.18113" lon="8.0497617"><ele>920.0</ele><time>2026-05-02T16:55:19.354Z</time></trkpt><trkpt lat="44.1811317" lon="8.04997"><ele>920.0</ele><time>2026-05-02T16:55:20.353Z</time></trkpt><trkpt lat="44.181135" lon="8.0501617"><ele>920.0</ele><time>2026-05-02T16:55:21.351Z</time></trkpt><trkpt lat="44.1811483" lon="8.0503217"><ele>920.0</ele><time>2026-05-02T16:55:22.353Z</time></trkpt><trkpt lat="44.181175" lon="8.0504483"><ele>920.0</ele><time>2026-05-02T16:55:23.353Z</time></trkpt><trkpt lat="44.1812217" lon="8.050535"><ele>920.0</ele><time>2026-05-02T16:55:24.352Z</time></trkpt><trkpt lat="44.1813533" lon="8.05053"><ele>920.0</ele><time>2026-05-02T16:55:26.352Z</time></trkpt><trkpt lat="44.18141" lon="8.0504267"><ele>920.0</ele><time>2026-05-02T16:55:27.351Z</time></trkpt><trkpt lat="44.1814383" lon="8.05031"><ele>920.0</ele><time>2026-05-02T16:55:28.352Z</time></trkpt><trkpt lat="44.1814417" lon="8.0501333"><ele>920.0</ele><time>2026-05-02T16:55:29.353Z</time></trkpt><trkpt lat="44.18145" lon="8.049935"><ele>921.6666666666667</ele><time>2026-05-02T16:55:30.356Z</time></trkpt><trkpt lat="44.1814733" lon="8.04973"><ele>923.3333333333333</ele><time>2026-05-02T16:55:31.348Z</time></trkpt><trkpt lat="44.1815067" lon="8.04951"><ele>925.0</ele><time>2026-05-02T16:55:32.351Z</time></trkpt><trkpt lat="44.181545" lon="8.0492833"><ele>912.0</ele><time>2026-05-02T16:55:33.354Z</time></trkpt><trkpt lat="44.1815883" lon="8.0490583"><ele>899.0</ele><time>2026-05-02T16:55:34.351Z</time></trkpt><trkpt lat="44.1816367" lon="8.04883"><ele>886.0</ele><time>2026-05-02T16:55:35.351Z</time></trkpt><trkpt lat="44.1817017" lon="8.0486033"><ele>886.0</ele><time>2026-05-02T16:55:36.35Z</time></trkpt><trkpt lat="44.1817833" lon="8.0483733"><ele>886.0</ele><time>2026-05-02T16:55:37.351Z</time></trkpt><trkpt lat="44.18187" lon="8.0481333"><ele>886.0</ele><time>2026-05-02T16:55:38.348Z</time></trkpt><trkpt lat="44.1819533" lon="8.0478783"><ele>884.0</ele><time>2026-05-02T16:55:39.354Z</time></trkpt><trkpt lat="44.1820367" lon="8.0476167"><ele>882.0</ele><time>2026-05-02T16:55:40.351Z</time></trkpt><trkpt lat="44.18212" lon="8.0473567"><ele>880.0</ele><time>2026-05-02T16:55:41.352Z</time></trkpt><trkpt lat="44.1821967" lon="8.0470983"><ele>876.0</ele><time>2026-05-02T16:55:42.353Z</time></trkpt><trkpt lat="44.182265" lon="8.0468533"><ele>872.0</ele><time>2026-05-02T16:55:43.353Z</time></trkpt><trkpt lat="44.1823367" lon="8.04662"><ele>868.0</ele><time>2026-05-02T16:55:44.353Z</time></trkpt><trkpt lat="44.1824317" lon="8.0464117"><ele>864.3333333333333</ele><time>2026-05-02T16:55:45.351Z</time></trkpt><trkpt lat="44.1825383" lon="8.0462217"><ele>860.6666666666667</ele><time>2026-05-02T16:55:46.353Z</time></trkpt><trkpt lat="44.1826367" lon="8.046025"><ele>857.0</ele><time>2026-05-02T16:55:47.353Z</time></trkpt><trkpt lat="44.1827267" lon="8.0458367"><ele>851.0</ele><time>2026-05-02T16:55:48.354Z</time></trkpt><trkpt lat="44.18283" lon="8.04568"><ele>845.0</ele><time>2026-05-02T16:55:49.353Z</time></trkpt><trkpt lat="44.1829533" lon="8.0455483"><ele>839.0</ele><time>2026-05-02T16:55:50.352Z</time></trkpt><trkpt lat="44.1830933" lon="8.0454283"><ele>843.0</ele><time>2026-05-02T16:55:51.35Z</time></trkpt><trkpt lat="44.1832383" lon="8.0453067"><ele>847.0</ele><time>2026-05-02T16:55:52.357Z</time></trkpt><trkpt lat="44.18338" lon="8.0451733"><ele>851.0</ele><time>2026-05-02T16:55:53.354Z</time></trkpt><trkpt lat="44.1835267" lon="8.045035"><ele>843.6666666666667</ele><time>2026-05-02T16:55:54.353Z</time></trkpt><trkpt lat="44.1836783" lon="8.044905"><ele>836.3333333333333</ele><time>2026-05-02T16:55:55.353Z</time></trkpt><trkpt lat="44.183835" lon="8.0447867"><ele>829.0</ele><time>2026-05-02T16:55:56.355Z</time></trkpt><trkpt lat="44.183985" lon="8.044665"><ele>832.3333333333333</ele><time>2026-05-02T16:55:57.352Z</time></trkpt><trkpt lat="44.18413" lon="8.0445483"><ele>835.6666666666667</ele><time>2026-05-02T16:55:58.353Z</time></trkpt><trkpt lat="44.1842733" lon="8.0444533"><ele>839.0</ele><time>2026-05-02T16:55:59.351Z</time></trkpt><trkpt lat="44.18442" lon="8.0444033"><ele>839.0</ele><time>2026-05-02T16:56:00.353Z</time></trkpt><trkpt lat="44.1845733" lon="8.0443883"><ele>839.0</ele><time>2026-05-02T16:56:01.354Z</time></trkpt><trkpt lat="44.1847267" lon="8.044365"><ele>839.0</ele><time>2026-05-02T16:56:02.353Z</time></trkpt><trkpt lat="44.1848783" lon="8.0442967"><ele>841.0</ele><time>2026-05-02T16:56:03.355Z</time></trkpt><trkpt lat="44.18503" lon="8.0441867"><ele>843.0</ele><time>2026-05-02T16:56:04.356Z</time></trkpt><trkpt lat="44.18518" lon="8.044055"><ele>845.0</ele><time>2026-05-02T16:56:05.355Z</time></trkpt><trkpt lat="44.1853333" lon="8.0439267"><ele>839.3333333333334</ele><time>2026-05-02T16:56:06.352Z</time></trkpt><trkpt lat="44.1854933" lon="8.0438083"><ele>833.6666666666667</ele><time>2026-05-02T16:56:07.351Z</time></trkpt><trkpt lat="44.1856483" lon="8.0436767"><ele>828.0</ele><time>2026-05-02T16:56:08.352Z</time></trkpt><trkpt lat="44.1857933" lon="8.043535"><ele>828.0</ele><time>2026-05-02T16:56:09.353Z</time></trkpt><trkpt lat="44.1859317" lon="8.04339"><ele>828.0</ele><time>2026-05-02T16:56:10.35Z</time></trkpt><trkpt lat="44.1860517" lon="8.0432467"><ele>828.0</ele><time>2026-05-02T16:56:11.355Z</time></trkpt><trkpt lat="44.18615" lon="8.04311"><ele>826.1666666666666</ele><time>2026-05-02T16:56:12.354Z</time></trkpt><trkpt lat="44.1862317" lon="8.04299"><ele>824.3333333333333</ele><time>2026-05-02T16:56:13.352Z</time></trkpt><trkpt lat="44.18629" lon="8.0428867"><ele>822.5</ele><time>2026-05-02T16:56:14.349Z</time></trkpt><trkpt lat="44.1863117" lon="8.0427867"><ele>820.6666666666666</ele><time>2026-05-02T16:56:15.349Z</time></trkpt><trkpt lat="44.1863117" lon="8.042695"><ele>818.8333333333333</ele><time>2026-05-02T16:56:16.354Z</time></trkpt><trkpt lat="44.1862567" lon="8.0426283"><ele>817.0</ele><time>2026-05-02T16:56:17.351Z</time></trkpt><trkpt lat="44.18619" lon="8.0426117"><ele>817.0</ele><time>2026-05-02T16:56:18.353Z</time></trkpt><trkpt lat="44.1861283" lon="8.042655"><ele>817.0</ele><time>2026-05-02T16:56:19.351Z</time></trkpt><trkpt lat="44.1860733" lon="8.0427433"><ele>817.0</ele><time>2026-05-02T16:56:20.35Z</time></trkpt><trkpt lat="44.1860033" lon="8.04287"><ele>817.0</ele><time>2026-05-02T16:56:21.357Z</time></trkpt><trkpt lat="44.1859133" lon="8.0429917"><ele>817.0</ele><time>2026-05-02T16:56:22.353Z</time></trkpt><trkpt lat="44.185805" lon="8.04311"><ele>815.0</ele><time>2026-05-02T16:56:23.352Z</time></trkpt><trkpt lat="44.1856783" lon="8.0432267"><ele>813.0</ele><time>2026-05-02T16:56:24.354Z</time></trkpt><trkpt lat="44.1855533" lon="8.0433383"><ele>811.0</ele><time>2026-05-02T16:56:25.352Z</time></trkpt><trkpt lat="44.185435" lon="8.0434367"><ele>809.0</ele><time>2026-05-02T16:56:26.352Z</time></trkpt><trkpt lat="44.1853333" lon="8.043505"><ele>809.0000000000001</ele><time>2026-05-02T16:56:27.357Z</time></trkpt><trkpt lat="44.185245" lon="8.0435383"><ele>809.0</ele><time>2026-05-02T16:56:28.355Z</time></trkpt><trkpt lat="44.1851767" lon="8.043525"><ele>809.0</ele><time>2026-05-02T16:56:29.351Z</time></trkpt><trkpt lat="44.18513" lon="8.0433883"><ele>809.0</ele><time>2026-05-02T16:56:31.35Z</time></trkpt><trkpt lat="44.1851767" lon="8.0433183"><ele>809.0000000000001</ele><time>2026-05-02T16:56:32.355Z</time></trkpt><trkpt lat="44.185255" lon="8.0432617"><ele>809.0</ele><time>2026-05-02T16:56:33.353Z</time></trkpt><trkpt lat="44.1853533" lon="8.0431883"><ele>809.0</ele><time>2026-05-02T16:56:34.354Z</time></trkpt><trkpt lat="44.18546" lon="8.043105"><ele>809.0</ele><time>2026-05-02T16:56:35.356Z</time></trkpt><trkpt lat="44.18558" lon="8.043015"><ele>809.0</ele><time>2026-05-02T16:56:36.351Z</time></trkpt><trkpt lat="44.1857" lon="8.0429133"><ele>809.0</ele><time>2026-05-02T16:56:37.351Z</time></trkpt><trkpt lat="44.18581" lon="8.0427933"><ele>807.5</ele><time>2026-05-02T16:56:38.354Z</time></trkpt><trkpt lat="44.1858933" lon="8.04264"><ele>806.0</ele><time>2026-05-02T16:56:39.353Z</time></trkpt><trkpt lat="44.1859467" lon="8.0424633"><ele>804.5</ele><time>2026-05-02T16:56:40.351Z</time></trkpt><trkpt lat="44.185975" lon="8.04227"><ele>803.0</ele><time>2026-05-02T16:56:41.352Z</time></trkpt><trkpt lat="44.186" lon="8.0420767"><ele>803.0</ele><time>2026-05-02T16:56:42.354Z</time></trkpt><trkpt lat="44.1860383" lon="8.0419033"><ele>803.0</ele><time>2026-05-02T16:56:43.358Z</time></trkpt><trkpt lat="44.1860967" lon="8.041755"><ele>803.0</ele><time>2026-05-02T16:56:44.351Z</time></trkpt><trkpt lat="44.1861867" lon="8.0416517"><ele>803.0</ele><time>2026-05-02T16:56:45.351Z</time></trkpt><trkpt lat="44.1863" lon="8.0416"><ele>801.25</ele><time>2026-05-02T16:56:46.437Z</time></trkpt><trkpt lat="44.1864317" lon="8.0415767"><ele>799.5</ele><time>2026-05-02T16:56:47.348Z</time></trkpt><trkpt lat="44.1865783" lon="8.0415433"><ele>797.75</ele><time>2026-05-02T16:56:48.353Z</time></trkpt><trkpt lat="44.1867267" lon="8.041485"><ele>796.0</ele><time>2026-05-02T16:56:49.352Z</time></trkpt><trkpt lat="44.1868683" lon="8.0413867"><ele>796.0</ele><time>2026-05-02T16:56:50.35Z</time></trkpt><trkpt lat="44.187" lon="8.0412517"><ele>796.0</ele><time>2026-05-02T16:56:51.353Z</time></trkpt><trkpt lat="44.187115" lon="8.0410933"><ele>796.0</ele><time>2026-05-02T16:56:52.351Z</time></trkpt><trkpt lat="44.18721" lon="8.040915"><ele>797.6666666666666</ele><time>2026-05-02T16:56:53.352Z</time></trkpt><trkpt lat="44.187275" lon="8.0407083"><ele>799.3333333333333</ele><time>2026-05-02T16:56:54.35Z</time></trkpt><trkpt lat="44.1873267" lon="8.0404817"><ele>801.0</ele><time>2026-05-02T16:56:55.353Z</time></trkpt><trkpt lat="44.187365" lon="8.0402417"><ele>801.0</ele><time>2026-05-02T16:56:56.351Z</time></trkpt><trkpt lat="44.1873933" lon="8.0399917"><ele>801.0</ele><time>2026-05-02T16:56:57.352Z</time></trkpt><trkpt lat="44.1874067" lon="8.03974"><ele>801.0</ele><time>2026-05-02T16:56:58.351Z</time></trkpt><trkpt lat="44.1874183" lon="8.039495"><ele>799.6666666666667</ele><time>2026-05-02T16:56:59.352Z</time></trkpt><trkpt lat="44.1874483" lon="8.0392567"><ele>798.3333333333334</ele><time>2026-05-02T16:57:00.353Z</time></trkpt><trkpt lat="44.18749" lon="8.0390283"><ele>797.0</ele><time>2026-05-02T16:57:01.352Z</time></trkpt><trkpt lat="44.1875383" lon="8.0388"><ele>795.25</ele><time>2026-05-02T16:57:02.35Z</time></trkpt><trkpt lat="44.1875883" lon="8.0386017"><ele>793.5</ele><time>2026-05-02T16:57:03.356Z</time></trkpt><trkpt lat="44.187645" lon="8.0384433"><ele>791.75</ele><time>2026-05-02T16:57:04.349Z</time></trkpt><trkpt lat="44.1877233" lon="8.0383333"><ele>790.0</ele><time>2026-05-02T16:57:05.354Z</time></trkpt><trkpt lat="44.1878183" lon="8.038275"><ele>787.4</ele><time>2026-05-02T16:57:06.357Z</time></trkpt><trkpt lat="44.1879117" lon="8.03824"><ele>784.8</ele><time>2026-05-02T16:57:07.353Z</time></trkpt><trkpt lat="44.1879917" lon="8.0381883"><ele>782.2</ele><time>2026-05-02T16:57:08.352Z</time></trkpt><trkpt lat="44.1880517" lon="8.03813"><ele>779.6</ele><time>2026-05-02T16:57:09.353Z</time></trkpt><trkpt lat="44.18801" lon="8.0379683"><ele>777.0</ele><time>2026-05-02T16:57:11.353Z</time></trkpt><trkpt lat="44.1879483" lon="8.0379167"><ele>777.0</ele><time>2026-05-02T16:57:12.348Z</time></trkpt><trkpt lat="44.1878583" lon="8.0379317"><ele>777.0</ele><time>2026-05-02T16:57:13.35Z</time></trkpt><trkpt lat="44.1877433" lon="8.0379917"><ele>777.0</ele><time>2026-05-02T16:57:14.355Z</time></trkpt><trkpt lat="44.1876317" lon="8.0380783"><ele>777.0</ele><time>2026-05-02T16:57:15.352Z</time></trkpt><trkpt lat="44.1875267" lon="8.0382117"><ele>773.3333333333334</ele><time>2026-05-02T16:57:16.354Z</time></trkpt><trkpt lat="44.1874417" lon="8.03838"><ele>769.6666666666667</ele><time>2026-05-02T16:57:17.351Z</time></trkpt><trkpt lat="44.18736" lon="8.0385667"><ele>766.0</ele><time>2026-05-02T16:57:18.352Z</time></trkpt><trkpt lat="44.1872633" lon="8.0387417"><ele>766.0</ele><time>2026-05-02T16:57:19.35Z</time></trkpt><trkpt lat="44.187145" lon="8.038875"><ele>766.0</ele><time>2026-05-02T16:57:20.35Z</time></trkpt><trkpt lat="44.18703" lon="8.03898"><ele>766.0</ele><time>2026-05-02T16:57:21.353Z</time></trkpt><trkpt lat="44.1869417" lon="8.0390917"><ele>766.0</ele><time>2026-05-02T16:57:22.352Z</time></trkpt><trkpt lat="44.1868867" lon="8.0392383"><ele>767.75</ele><time>2026-05-02T16:57:23.354Z</time></trkpt><trkpt lat="44.1868617" lon="8.0394117"><ele>769.5</ele><time>2026-05-02T16:57:24.351Z</time></trkpt><trkpt lat="44.1868417" lon="8.0395933"><ele>771.25</ele><time>2026-05-02T16:57:25.351Z</time></trkpt><trkpt lat="44.186805" lon="8.0397783"><ele>773.0</ele><time>2026-05-02T16:57:26.352Z</time></trkpt><trkpt lat="44.18675" lon="8.0399633"><ele>775.0</ele><time>2026-05-02T16:57:27.354Z</time></trkpt><trkpt lat="44.1866817" lon="8.040135"><ele>777.0</ele><time>2026-05-02T16:57:28.355Z</time></trkpt><trkpt lat="44.1865983" lon="8.04028"><ele>779.0</ele><time>2026-05-02T16:57:29.353Z</time></trkpt><trkpt lat="44.1864917" lon="8.04039"><ele>781.0</ele><time>2026-05-02T16:57:30.354Z</time></trkpt><trkpt lat="44.186365" lon="8.0404367"><ele>776.25</ele><time>2026-05-02T16:57:31.349Z</time></trkpt><trkpt lat="44.186225" lon="8.0404383"><ele>771.5</ele><time>2026-05-02T16:57:32.352Z</time></trkpt><trkpt lat="44.18608" lon="8.040445"><ele>766.75</ele><time>2026-05-02T16:57:33.351Z</time></trkpt><trkpt lat="44.1859333" lon="8.040485"><ele>762.0</ele><time>2026-05-02T16:57:34.351Z</time></trkpt><trkpt lat="44.1857933" lon="8.04054"><ele>759.25</ele><time>2026-05-02T16:57:35.351Z</time></trkpt><trkpt lat="44.1856533" lon="8.0405667"><ele>756.5</ele><time>2026-05-02T16:57:36.348Z</time></trkpt><trkpt lat="44.1855167" lon="8.0405667"><ele>753.75</ele><time>2026-05-02T16:57:37.351Z</time></trkpt><trkpt lat="44.185395" lon="8.040565"><ele>751.0</ele><time>2026-05-02T16:57:38.352Z</time></trkpt><trkpt lat="44.1853017" lon="8.0405983"><ele>751.0</ele><time>2026-05-02T16:57:39.354Z</time></trkpt><trkpt lat="44.1852317" lon="8.0406733"><ele>751.0</ele><time>2026-05-02T16:57:40.353Z</time></trkpt><trkpt lat="44.185185" lon="8.0407767"><ele>751.0</ele><time>2026-05-02T16:57:41.352Z</time></trkpt><trkpt lat="44.1851383" lon="8.040875"><ele>751.0</ele><time>2026-05-02T16:57:42.354Z</time></trkpt><trkpt lat="44.18509" lon="8.0409583"><ele>751.0</ele><time>2026-05-02T16:57:43.353Z</time></trkpt><trkpt lat="44.1850283" lon="8.04094"><ele>751.0</ele><time>2026-05-02T16:57:44.354Z</time></trkpt><trkpt lat="44.184985" lon="8.040865"><ele>751.0</ele><time>2026-05-02T16:57:45.353Z</time></trkpt><trkpt lat="44.1849733" lon="8.04077"><ele>751.0</ele><time>2026-05-02T16:57:46.354Z</time></trkpt><trkpt lat="44.1849967" lon="8.0406483"><ele>751.0</ele><time>2026-05-02T16:57:47.349Z</time></trkpt><trkpt lat="44.185045" lon="8.0405033"><ele>751.0</ele><time>2026-05-02T16:57:48.358Z</time></trkpt><trkpt lat="44.1851083" lon="8.0403617"><ele>751.0</ele><time>2026-05-02T16:57:49.357Z</time></trkpt><trkpt lat="44.185185" lon="8.0402517"><ele>751.0</ele><time>2026-05-02T16:57:50.351Z</time></trkpt><trkpt lat="44.185285" lon="8.0402017"><ele>751.0</ele><time>2026-05-02T16:57:51.353Z</time></trkpt><trkpt lat="44.185405" lon="8.04021"><ele>751.0</ele><time>2026-05-02T16:57:52.352Z</time></trkpt><trkpt lat="44.1855283" lon="8.0402267"><ele>751.0</ele><time>2026-05-02T16:57:53.348Z</time></trkpt><trkpt lat="44.1856517" lon="8.04022"><ele>749.25</ele><time>2026-05-02T16:57:54.349Z</time></trkpt><trkpt lat="44.18578" lon="8.0401683"><ele>747.5</ele><time>2026-05-02T16:57:55.356Z</time></trkpt><trkpt lat="44.1859067" lon="8.0400667"><ele>745.75</ele><time>2026-05-02T16:57:56.353Z</time></trkpt><trkpt lat="44.1860283" lon="8.03995"><ele>744.0</ele><time>2026-05-02T16:57:57.35Z</time></trkpt><trkpt lat="44.186135" lon="8.039835"><ele>744.0</ele><time>2026-05-02T16:57:58.357Z</time></trkpt><trkpt lat="44.1862217" lon="8.0397133"><ele>744.0</ele><time>2026-05-02T16:57:59.354Z</time></trkpt><trkpt lat="44.186275" lon="8.0395717"><ele>744.0</ele><time>2026-05-02T16:58:00.354Z</time></trkpt><trkpt lat="44.1862883" lon="8.039415"><ele>744.0</ele><time>2026-05-02T16:58:01.352Z</time></trkpt><trkpt lat="44.186255" lon="8.0392633"><ele>742.0</ele><time>2026-05-02T16:58:02.35Z</time></trkpt><trkpt lat="44.186195" lon="8.03912"><ele>740.0</ele><time>2026-05-02T16:58:03.356Z</time></trkpt><trkpt lat="44.1861467" lon="8.0389867"><ele>738.0</ele><time>2026-05-02T16:58:04.353Z</time></trkpt><trkpt lat="44.1861333" lon="8.0388483"><ele>736.0</ele><time>2026-05-02T16:58:05.352Z</time></trkpt><trkpt lat="44.1861617" lon="8.0387083"><ele>734.0</ele><time>2026-05-02T16:58:06.349Z</time></trkpt><trkpt lat="44.1862217" lon="8.0385717"><ele>734.0</ele><time>2026-05-02T16:58:07.349Z</time></trkpt><trkpt lat="44.1862967" lon="8.0384333"><ele>734.0</ele><time>2026-05-02T16:58:08.35Z</time></trkpt><trkpt lat="44.18637" lon="8.0382917"><ele>734.0</ele><time>2026-05-02T16:58:09.353Z</time></trkpt><trkpt lat="44.1864217" lon="8.0381617"><ele>734.0</ele><time>2026-05-02T16:58:10.351Z</time></trkpt><trkpt lat="44.1864467" lon="8.0380433"><ele>734.0</ele><time>2026-05-02T16:58:11.353Z</time></trkpt><trkpt lat="44.1864533" lon="8.0379433"><ele>732.3333333333333</ele><time>2026-05-02T16:58:12.352Z</time></trkpt><trkpt lat="44.1864417" lon="8.03785"><ele>730.6666666666666</ele><time>2026-05-02T16:58:14.353Z</time></trkpt><trkpt lat="44.1863967" lon="8.0377383"><ele>729.0</ele><time>2026-05-02T17:00:58.354Z</time></trkpt><trkpt lat="44.1863833" lon="8.0376367"><ele>727.3333333333334</ele><time>2026-05-02T17:00:59.354Z</time></trkpt><trkpt lat="44.186385" lon="8.0375233"><ele>725.6666666666667</ele><time>2026-05-02T17:01:00.355Z</time></trkpt><trkpt lat="44.18641" lon="8.0374083"><ele>724.0</ele><time>2026-05-02T17:01:01.351Z</time></trkpt><trkpt lat="44.18647" lon="8.0372833"><ele>726.75</ele><time>2026-05-02T17:01:02.352Z</time></trkpt><trkpt lat="44.1865517" lon="8.0371667"><ele>729.5</ele><time>2026-05-02T17:01:03.35Z</time></trkpt><trkpt lat="44.186645" lon="8.0370617"><ele>732.25</ele><time>2026-05-02T17:01:04.355Z</time></trkpt><trkpt lat="44.186745" lon="8.0369467"><ele>735.0</ele><time>2026-05-02T17:01:05.352Z</time></trkpt><trkpt lat="44.1868433" lon="8.03682"><ele>735.0</ele><time>2026-05-02T17:01:06.352Z</time></trkpt><trkpt lat="44.1869383" lon="8.0366983"><ele>735.0</ele><time>2026-05-02T17:01:07.355Z</time></trkpt><trkpt lat="44.18704" lon="8.03659"><ele>735.0</ele><time>2026-05-02T17:01:08.353Z</time></trkpt><trkpt lat="44.187155" lon="8.0365017"><ele>735.0</ele><time>2026-05-02T17:01:09.354Z</time></trkpt><trkpt lat="44.1872833" lon="8.0364283"><ele>733.0</ele><time>2026-05-02T17:01:10.353Z</time></trkpt><trkpt lat="44.1874183" lon="8.0363483"><ele>731.0</ele><time>2026-05-02T17:01:11.35Z</time></trkpt><trkpt lat="44.1875567" lon="8.0362583"><ele>729.0</ele><time>2026-05-02T17:01:12.353Z</time></trkpt><trkpt lat="44.18768" lon="8.0361567"><ele>727.0</ele><time>2026-05-02T17:01:13.354Z</time></trkpt><trkpt lat="44.1877833" lon="8.0360167"><ele>727.0</ele><time>2026-05-02T17:01:14.354Z</time></trkpt><trkpt lat="44.1878583" lon="8.035835"><ele>727.0</ele><time>2026-05-02T17:01:15.354Z</time></trkpt><trkpt lat="44.1879183" lon="8.0356383"><ele>727.0</ele><time>2026-05-02T17:01:16.352Z</time></trkpt><trkpt lat="44.1879817" lon="8.035455"><ele>726.0</ele><time>2026-05-02T17:01:17.353Z</time></trkpt><trkpt lat="44.18806" lon="8.0352967"><ele>725.0</ele><time>2026-05-02T17:01:18.351Z</time></trkpt><trkpt lat="44.1881633" lon="8.0351633"><ele>724.0</ele><time>2026-05-02T17:01:19.353Z</time></trkpt><trkpt lat="44.1882917" lon="8.0350583"><ele>723.0</ele><time>2026-05-02T17:01:20.352Z</time></trkpt><trkpt lat="44.1884433" lon="8.0349633"><ele>716.0</ele><time>2026-05-02T17:01:21.354Z</time></trkpt><trkpt lat="44.1886117" lon="8.0348767"><ele>709.0</ele><time>2026-05-02T17:01:22.353Z</time></trkpt><trkpt lat="44.18878" lon="8.03477"><ele>702.0</ele><time>2026-05-02T17:01:23.353Z</time></trkpt><trkpt lat="44.1889533" lon="8.034645"><ele>705.3333333333334</ele><time>2026-05-02T17:01:24.352Z</time></trkpt><trkpt lat="44.1891233" lon="8.03451"><ele>708.6666666666667</ele><time>2026-05-02T17:01:25.352Z</time></trkpt><trkpt lat="44.18929" lon="8.0343783"><ele>712.0</ele><time>2026-05-02T17:01:26.354Z</time></trkpt><trkpt lat="44.1894517" lon="8.03425"><ele>705.6666666666667</ele><time>2026-05-02T17:01:27.353Z</time></trkpt><trkpt lat="44.1896033" lon="8.034115"><ele>699.3333333333334</ele><time>2026-05-02T17:01:28.354Z</time></trkpt><trkpt lat="44.1897317" lon="8.0339667"><ele>693.0</ele><time>2026-05-02T17:01:29.352Z</time></trkpt><trkpt lat="44.1898333" lon="8.0338233"><ele>693.0</ele><time>2026-05-02T17:01:30.352Z</time></trkpt><trkpt lat="44.1898983" lon="8.0336983"><ele>693.0</ele><time>2026-05-02T17:01:31.35Z</time></trkpt><trkpt lat="44.189925" lon="8.03359"><ele>693.0</ele><time>2026-05-02T17:01:32.349Z</time></trkpt><trkpt lat="44.1899267" lon="8.0334783"><ele>693.0</ele><time>2026-05-02T17:01:33.351Z</time></trkpt><trkpt lat="44.189885" lon="8.0334033"><ele>693.0</ele><time>2026-05-02T17:01:34.35Z</time></trkpt><trkpt lat="44.189805" lon="8.0333717"><ele>693.0</ele><time>2026-05-02T17:01:35.352Z</time></trkpt><trkpt lat="44.1897133" lon="8.0334117"><ele>693.0</ele><time>2026-05-02T17:01:36.356Z</time></trkpt><trkpt lat="44.189625" lon="8.03349"><ele>693.0</ele><time>2026-05-02T17:01:37.353Z</time></trkpt><trkpt lat="44.1895133" lon="8.0336133"><ele>693.0</ele><time>2026-05-02T17:01:38.354Z</time></trkpt><trkpt lat="44.1893683" lon="8.03374"><ele>693.0</ele><time>2026-05-02T17:01:39.352Z</time></trkpt><trkpt lat="44.1892133" lon="8.033815"><ele>693.0</ele><time>2026-05-02T17:01:40.352Z</time></trkpt><trkpt lat="44.1890433" lon="8.0338583"><ele>693.0</ele><time>2026-05-02T17:01:41.352Z</time></trkpt><trkpt lat="44.1888667" lon="8.033915"><ele>693.0</ele><time>2026-05-02T17:01:42.352Z</time></trkpt><trkpt lat="44.1886883" lon="8.034005"><ele>694.3333333333334</ele><time>2026-05-02T17:01:43.352Z</time></trkpt><trkpt lat="44.18852" lon="8.03412"><ele>695.6666666666667</ele><time>2026-05-02T17:01:44.353Z</time></trkpt><trkpt lat="44.1883617" lon="8.03424"><ele>697.0</ele><time>2026-05-02T17:01:45.35Z</time></trkpt><trkpt lat="44.188225" lon="8.0343483"><ele>699.0</ele><time>2026-05-02T17:01:46.353Z</time></trkpt><trkpt lat="44.1881167" lon="8.034435"><ele>701.0</ele><time>2026-05-02T17:01:47.351Z</time></trkpt><trkpt lat="44.1880267" lon="8.0344967"><ele>703.0</ele><time>2026-05-02T17:01:48.352Z</time></trkpt><trkpt lat="44.1879567" lon="8.0345183"><ele>705.0</ele><time>2026-05-02T17:01:49.353Z</time></trkpt><trkpt lat="44.1879083" lon="8.03446"><ele>707.0</ele><time>2026-05-02T17:01:50.353Z</time></trkpt><trkpt lat="44.1879" lon="8.03437"><ele>709.0</ele><time>2026-05-02T17:01:51.354Z</time></trkpt><trkpt lat="44.1879417" lon="8.0342683"><ele>709.0</ele><time>2026-05-02T17:01:52.35Z</time></trkpt><trkpt lat="44.1880133" lon="8.0341833"><ele>709.0</ele><time>2026-05-02T17:01:53.351Z</time></trkpt><trkpt lat="44.18812" lon="8.0340817"><ele>709.0</ele><time>2026-05-02T17:01:54.353Z</time></trkpt><trkpt lat="44.1882583" lon="8.0339533"><ele>709.0</ele><time>2026-05-02T17:01:55.352Z</time></trkpt><trkpt lat="44.1884" lon="8.0338183"><ele>705.0</ele><time>2026-05-02T17:01:56.354Z</time></trkpt><trkpt lat="44.18855" lon="8.03369"><ele>701.0</ele><time>2026-05-02T17:01:57.356Z</time></trkpt><trkpt lat="44.1887067" lon="8.0335817"><ele>697.0</ele><time>2026-05-02T17:01:58.355Z</time></trkpt><trkpt lat="44.188865" lon="8.0334867"><ele>695.6666666666667</ele><time>2026-05-02T17:01:59.351Z</time></trkpt><trkpt lat="44.1890167" lon="8.03338"><ele>694.3333333333334</ele><time>2026-05-02T17:02:00.353Z</time></trkpt><trkpt lat="44.189145" lon="8.0332333"><ele>693.0</ele><time>2026-05-02T17:02:01.358Z</time></trkpt><trkpt lat="44.1892433" lon="8.0330517"><ele>692.3333333333334</ele><time>2026-05-02T17:02:02.353Z</time></trkpt><trkpt lat="44.1893233" lon="8.0328667"><ele>691.6666666666667</ele><time>2026-05-02T17:02:03.355Z</time></trkpt><trkpt lat="44.1894017" lon="8.0326917"><ele>691.0</ele><time>2026-05-02T17:02:04.352Z</time></trkpt><trkpt lat="44.1894983" lon="8.0325367"><ele>691.0</ele><time>2026-05-02T17:02:05.352Z</time></trkpt><trkpt lat="44.1896233" lon="8.0324183"><ele>691.0</ele><time>2026-05-02T17:02:06.352Z</time></trkpt><trkpt lat="44.189765" lon="8.0323383"><ele>691.0</ele><time>2026-05-02T17:02:07.353Z</time></trkpt><trkpt lat="44.1899267" lon="8.03228"><ele>691.0</ele><time>2026-05-02T17:02:08.352Z</time></trkpt><trkpt lat="44.1900983" lon="8.0322183"><ele>691.0</ele><time>2026-05-02T17:02:09.353Z</time></trkpt><trkpt lat="44.1902833" lon="8.032155"><ele>691.0</ele><time>2026-05-02T17:02:10.353Z</time></trkpt><trkpt lat="44.1904717" lon="8.032085"><ele>691.0</ele><time>2026-05-02T17:02:11.353Z</time></trkpt><trkpt lat="44.1906633" lon="8.032015"><ele>691.0</ele><time>2026-05-02T17:02:12.352Z</time></trkpt><trkpt lat="44.1908583" lon="8.0319517"><ele>691.0</ele><time>2026-05-02T17:02:13.355Z</time></trkpt><trkpt lat="44.1910517" lon="8.031885"><ele>687.3333333333334</ele><time>2026-05-02T17:02:14.353Z</time></trkpt><trkpt lat="44.1912417" lon="8.0318283"><ele>683.6666666666666</ele><time>2026-05-02T17:02:15.356Z</time></trkpt><trkpt lat="44.191435" lon="8.0318"><ele>680.0</ele><time>2026-05-02T17:02:16.354Z</time></trkpt><trkpt lat="44.1916317" lon="8.031805"><ele>676.6666666666666</ele><time>2026-05-02T17:02:17.353Z</time></trkpt><trkpt lat="44.191835" lon="8.0318383"><ele>673.3333333333334</ele><time>2026-05-02T17:02:18.354Z</time></trkpt><trkpt lat="44.192035" lon="8.031865"><ele>670.0</ele><time>2026-05-02T17:02:19.352Z</time></trkpt><trkpt lat="44.1922383" lon="8.0318967"><ele>668.3333333333334</ele><time>2026-05-02T17:02:20.354Z</time></trkpt><trkpt lat="44.1924317" lon="8.0318783"><ele>666.6666666666666</ele><time>2026-05-02T17:02:21.358Z</time></trkpt><trkpt lat="44.19261" lon="8.0318017"><ele>665.0</ele><time>2026-05-02T17:02:22.359Z</time></trkpt><trkpt lat="44.1927967" lon="8.0316983"><ele>667.0</ele><time>2026-05-02T17:02:23.359Z</time></trkpt><trkpt lat="44.1929867" lon="8.0316133"><ele>669.0</ele><time>2026-05-02T17:02:24.354Z</time></trkpt><trkpt lat="44.1931767" lon="8.0315517"><ele>671.0</ele><time>2026-05-02T17:02:25.354Z</time></trkpt><trkpt lat="44.1933633" lon="8.0314817"><ele>666.0</ele><time>2026-05-02T17:02:26.351Z</time></trkpt><trkpt lat="44.1935383" lon="8.0313767"><ele>661.0</ele><time>2026-05-02T17:02:27.353Z</time></trkpt><trkpt lat="44.1937017" lon="8.031235"><ele>656.0</ele><time>2026-05-02T17:02:28.353Z</time></trkpt><trkpt lat="44.19386" lon="8.0310867"><ele>652.3333333333333</ele><time>2026-05-02T17:02:29.36Z</time></trkpt><trkpt lat="44.19403" lon="8.0309633"><ele>648.6666666666666</ele><time>2026-05-02T17:02:30.353Z</time></trkpt><trkpt lat="44.194205" lon="8.0308533"><ele>645.0</ele><time>2026-05-02T17:02:31.35Z</time></trkpt><trkpt lat="44.1943817" lon="8.03075"><ele>645.0</ele><time>2026-05-02T17:02:32.354Z</time></trkpt><trkpt lat="44.1945583" lon="8.0306283"><ele>645.0</ele><time>2026-05-02T17:02:33.355Z</time></trkpt><trkpt lat="44.194735" lon="8.03049"><ele>645.0</ele><time>2026-05-02T17:02:34.349Z</time></trkpt><trkpt lat="44.1949083" lon="8.0303433"><ele>648.0</ele><time>2026-05-02T17:02:35.351Z</time></trkpt><trkpt lat="44.1950733" lon="8.030185"><ele>651.0</ele><time>2026-05-02T17:02:36.349Z</time></trkpt><trkpt lat="44.1952367" lon="8.0300283"><ele>654.0</ele><time>2026-05-02T17:02:37.355Z</time></trkpt><trkpt lat="44.1953983" lon="8.0298933"><ele>654.0</ele><time>2026-05-02T17:02:38.351Z</time></trkpt><trkpt lat="44.19556" lon="8.0297833"><ele>654.0</ele><time>2026-05-02T17:02:39.352Z</time></trkpt><trkpt lat="44.1957283" lon="8.0296817"><ele>654.0</ele><time>2026-05-02T17:02:40.352Z</time></trkpt><trkpt lat="44.1959" lon="8.0295817"><ele>647.0</ele><time>2026-05-02T17:02:41.35Z</time></trkpt><trkpt lat="44.1960683" lon="8.0294883"><ele>640.0</ele><time>2026-05-02T17:02:42.353Z</time></trkpt><trkpt lat="44.196235" lon="8.0293967"><ele>633.0</ele><time>2026-05-02T17:02:43.351Z</time></trkpt><trkpt lat="44.1964" lon="8.029305"><ele>629.0</ele><time>2026-05-02T17:02:44.354Z</time></trkpt><trkpt lat="44.1965583" lon="8.0292133"><ele>625.0</ele><time>2026-05-02T17:02:45.352Z</time></trkpt><trkpt lat="44.1967183" lon="8.0291233"><ele>621.0</ele><time>2026-05-02T17:02:46.353Z</time></trkpt><trkpt lat="44.196875" lon="8.0290333"><ele>631.6666666666666</ele><time>2026-05-02T17:02:47.353Z</time></trkpt><trkpt lat="44.197025" lon="8.028935"><ele>642.3333333333333</ele><time>2026-05-02T17:02:48.352Z</time></trkpt><trkpt lat="44.1971717" lon="8.0288283"><ele>653.0</ele><time>2026-05-02T17:02:49.351Z</time></trkpt><trkpt lat="44.19731" lon="8.0287083"><ele>645.6666666666666</ele><time>2026-05-02T17:02:50.354Z</time></trkpt><trkpt lat="44.19744" lon="8.0285717"><ele>638.3333333333334</ele><time>2026-05-02T17:02:51.353Z</time></trkpt><trkpt lat="44.1975633" lon="8.028425"><ele>631.0</ele><time>2026-05-02T17:02:52.355Z</time></trkpt><trkpt lat="44.1976917" lon="8.028275"><ele>631.0</ele><time>2026-05-02T17:02:53.351Z</time></trkpt><trkpt lat="44.19782" lon="8.0281183"><ele>631.0</ele><time>2026-05-02T17:02:54.352Z</time></trkpt><trkpt lat="44.1979533" lon="8.0279583"><ele>631.0</ele><time>2026-05-02T17:02:55.354Z</time></trkpt><trkpt lat="44.1980917" lon="8.0277983"><ele>622.0</ele><time>2026-05-02T17:02:56.352Z</time></trkpt><trkpt lat="44.1982333" lon="8.02764"><ele>613.0</ele><time>2026-05-02T17:02:57.351Z</time></trkpt><trkpt lat="44.1983783" lon="8.0274867"><ele>604.0</ele><time>2026-05-02T17:02:58.352Z</time></trkpt><trkpt lat="44.1985233" lon="8.0273367"><ele>604.0</ele><time>2026-05-02T17:02:59.354Z</time></trkpt><trkpt lat="44.1986633" lon="8.027185"><ele>604.0</ele><time>2026-05-02T17:03:00.356Z</time></trkpt><trkpt lat="44.1988" lon="8.0270317"><ele>604.0</ele><time>2026-05-02T17:03:01.349Z</time></trkpt><trkpt lat="44.1989367" lon="8.0268733"><ele>603.6666666666667</ele><time>2026-05-02T17:03:02.354Z</time></trkpt><trkpt lat="44.19907" lon="8.0267133"><ele>603.3333333333334</ele><time>2026-05-02T17:03:03.354Z</time></trkpt><trkpt lat="44.199205" lon="8.0265517"><ele>603.0</ele><time>2026-05-02T17:03:04.353Z</time></trkpt><trkpt lat="44.19934" lon="8.0263817"><ele>601.0</ele><time>2026-05-02T17:03:05.356Z</time></trkpt><trkpt lat="44.1994717" lon="8.0262067"><ele>599.0</ele><time>2026-05-02T17:03:06.352Z</time></trkpt><trkpt lat="44.1996" lon="8.02603"><ele>597.0</ele><time>2026-05-02T17:03:07.354Z</time></trkpt><trkpt lat="44.199725" lon="8.0258567"><ele>597.0</ele><time>2026-05-02T17:03:08.354Z</time></trkpt><trkpt lat="44.199845" lon="8.0256833"><ele>597.0</ele><time>2026-05-02T17:03:09.354Z</time></trkpt><trkpt lat="44.19996" lon="8.0255083"><ele>597.0</ele><time>2026-05-02T17:03:10.353Z</time></trkpt><trkpt lat="44.200075" lon="8.02533"><ele>597.0</ele><time>2026-05-02T17:03:11.35Z</time></trkpt><trkpt lat="44.2001917" lon="8.025155"><ele>597.0</ele><time>2026-05-02T17:03:12.351Z</time></trkpt><trkpt lat="44.2003083" lon="8.0249883"><ele>597.0</ele><time>2026-05-02T17:03:13.352Z</time></trkpt><trkpt lat="44.2004183" lon="8.0248133"><ele>596.6666666666666</ele><time>2026-05-02T17:03:14.353Z</time></trkpt><trkpt lat="44.20053" lon="8.0246367"><ele>596.3333333333333</ele><time>2026-05-02T17:03:15.355Z</time></trkpt><trkpt lat="44.2006433" lon="8.024455"><ele>596.0</ele><time>2026-05-02T17:03:16.354Z</time></trkpt><trkpt lat="44.2007617" lon="8.02428"><ele>594.3333333333333</ele><time>2026-05-02T17:03:17.35Z</time></trkpt><trkpt lat="44.2008783" lon="8.024105"><ele>592.6666666666666</ele><time>2026-05-02T17:03:18.354Z</time></trkpt><trkpt lat="44.200995" lon="8.02392"><ele>591.0</ele><time>2026-05-02T17:03:19.353Z</time></trkpt><trkpt lat="44.201115" lon="8.023735"><ele>591.0</ele><time>2026-05-02T17:03:20.354Z</time></trkpt><trkpt lat="44.2012333" lon="8.023555"><ele>591.0</ele><time>2026-05-02T17:03:21.357Z</time></trkpt><trkpt lat="44.2013567" lon="8.0233717"><ele>591.0</ele><time>2026-05-02T17:03:22.356Z</time></trkpt><trkpt lat="44.201475" lon="8.0231917"><ele>590.6666666666666</ele><time>2026-05-02T17:03:23.352Z</time></trkpt><trkpt lat="44.2015933" lon="8.023005"><ele>590.3333333333333</ele><time>2026-05-02T17:03:24.353Z</time></trkpt><trkpt lat="44.2017067" lon="8.022825"><ele>590.0</ele><time>2026-05-02T17:03:25.353Z</time></trkpt><trkpt lat="44.2018183" lon="8.0226467"><ele>589.3333333333333</ele><time>2026-05-02T17:03:26.351Z</time></trkpt><trkpt lat="44.20193" lon="8.0224683"><ele>588.6666666666666</ele><time>2026-05-02T17:03:27.35Z</time></trkpt><trkpt lat="44.2020383" lon="8.0223"><ele>588.0</ele><time>2026-05-02T17:03:28.355Z</time></trkpt><trkpt lat="44.20215" lon="8.0221417"><ele>588.0</ele><time>2026-05-02T17:03:29.352Z</time></trkpt><trkpt lat="44.20227" lon="8.02201"><ele>588.0</ele><time>2026-05-02T17:03:30.35Z</time></trkpt><trkpt lat="44.2024033" lon="8.0219233"><ele>588.0</ele><time>2026-05-02T17:03:31.35Z</time></trkpt><trkpt lat="44.2025483" lon="8.0218833"><ele>588.0</ele><time>2026-05-02T17:03:32.35Z</time></trkpt><trkpt lat="44.2027017" lon="8.0218733"><ele>588.0</ele><time>2026-05-02T17:03:33.351Z</time></trkpt><trkpt lat="44.2028483" lon="8.0218783"><ele>588.0</ele><time>2026-05-02T17:03:34.351Z</time></trkpt><trkpt lat="44.202985" lon="8.0218833"><ele>588.0</ele><time>2026-05-02T17:03:35.35Z</time></trkpt><trkpt lat="44.20311" lon="8.0218867"><ele>588.0</ele><time>2026-05-02T17:03:36.351Z</time></trkpt><trkpt lat="44.2032167" lon="8.0218883"><ele>587.8333333333334</ele><time>2026-05-02T17:03:37.35Z</time></trkpt><trkpt lat="44.2033133" lon="8.0218867"><ele>587.6666666666666</ele><time>2026-05-02T17:03:38.351Z</time></trkpt><trkpt lat="44.2033933" lon="8.0218833"><ele>587.5</ele><time>2026-05-02T17:03:39.35Z</time></trkpt><trkpt lat="44.2034567" lon="8.0218767"><ele>587.3333333333333</ele><time>2026-05-02T17:03:40.352Z</time></trkpt><trkpt lat="44.20354" lon="8.021875"><ele>587.1666666666666</ele><time>2026-05-02T17:03:42.354Z</time></trkpt><trkpt lat="44.2036433" lon="8.0218883"><ele>587.0</ele><time>2026-05-02T17:04:29.352Z</time></trkpt><trkpt lat="44.2037083" lon="8.0218317"><ele>587.0</ele><time>2026-05-02T17:04:30.351Z</time></trkpt><trkpt lat="44.2037667" lon="8.0217533"><ele>587.0</ele><time>2026-05-02T17:04:31.352Z</time></trkpt><trkpt lat="44.2038083" lon="8.0216467"><ele>587.0</ele><time>2026-05-02T17:04:32.354Z</time></trkpt><trkpt lat="44.2038367" lon="8.021505"><ele>587.0</ele><time>2026-05-02T17:04:33.353Z</time></trkpt><trkpt lat="44.2038567" lon="8.021355"><ele>587.0</ele><time>2026-05-02T17:04:34.352Z</time></trkpt><trkpt lat="44.20387" lon="8.0211917"><ele>586.75</ele><time>2026-05-02T17:04:35.353Z</time></trkpt><trkpt lat="44.2038883" lon="8.021035"><ele>586.5</ele><time>2026-05-02T17:04:36.351Z</time></trkpt><trkpt lat="44.2039017" lon="8.0208683"><ele>586.25</ele><time>2026-05-02T17:04:37.351Z</time></trkpt><trkpt lat="44.203915" lon="8.0207017"><ele>586.0</ele><time>2026-05-02T17:04:38.351Z</time></trkpt><trkpt lat="44.2039533" lon="8.0205167"><ele>585.25</ele><time>2026-05-02T17:04:39.351Z</time></trkpt><trkpt lat="44.2039683" lon="8.0203417"><ele>584.5</ele><time>2026-05-02T17:04:40.357Z</time></trkpt><trkpt lat="44.2039767" lon="8.0201683"><ele>583.75</ele><time>2026-05-02T17:04:41.352Z</time></trkpt><trkpt lat="44.2039867" lon="8.01999"><ele>583.0</ele><time>2026-05-02T17:04:42.35Z</time></trkpt><trkpt lat="44.2039967" lon="8.01982"><ele>582.8</ele><time>2026-05-02T17:04:43.354Z</time></trkpt><trkpt lat="44.2040083" lon="8.0196617"><ele>582.5999999999999</ele><time>2026-05-02T17:04:44.351Z</time></trkpt><trkpt lat="44.2040217" lon="8.0195133"><ele>582.4000000000001</ele><time>2026-05-02T17:04:45.353Z</time></trkpt><trkpt lat="44.20403" lon="8.0193733"><ele>582.2</ele><time>2026-05-02T17:04:46.351Z</time></trkpt><trkpt lat="44.2040333" lon="8.019245"><ele>582.0</ele><time>2026-05-02T17:04:47.351Z</time></trkpt><trkpt lat="44.2040433" lon="8.019135"><ele>582.3333333333334</ele><time>2026-05-02T17:04:48.354Z</time></trkpt><trkpt lat="44.204045" lon="8.0190117"><ele>582.6666666666666</ele><time>2026-05-02T17:04:49.352Z</time></trkpt><trkpt lat="44.2040483" lon="8.018895"><ele>583.0</ele><time>2026-05-02T17:04:50.35Z</time></trkpt><trkpt lat="44.204055" lon="8.0187883"><ele>583.3333333333333</ele><time>2026-05-02T17:04:51.351Z</time></trkpt><trkpt lat="44.20406" lon="8.0186817"><ele>583.6666666666666</ele><time>2026-05-02T17:04:52.351Z</time></trkpt><trkpt lat="44.2040483" lon="8.0185417"><ele>584.0</ele><time>2026-05-02T17:04:54.35Z</time></trkpt><trkpt lat="44.2039633" lon="8.0184733"><ele>584.2</ele><time>2026-05-02T17:04:56.35Z</time></trkpt><trkpt lat="44.2038383" lon="8.018435"><ele>584.4</ele><time>2026-05-02T17:04:58.349Z</time></trkpt><trkpt lat="44.2037517" lon="8.018405"><ele>584.6</ele><time>2026-05-02T17:04:59.351Z</time></trkpt><trkpt lat="44.2036583" lon="8.018365"><ele>584.8</ele><time>2026-05-02T17:05:00.353Z</time></trkpt><trkpt lat="44.203555" lon="8.018315"><ele>585.0</ele><time>2026-05-02T17:05:01.355Z</time></trkpt><trkpt lat="44.2034433" lon="8.01825"><ele>585.0</ele><time>2026-05-02T17:05:02.35Z</time></trkpt><trkpt lat="44.20333" lon="8.0181733"><ele>585.0</ele><time>2026-05-02T17:05:03.353Z</time></trkpt><trkpt lat="44.2032133" lon="8.018095"><ele>585.0</ele><time>2026-05-02T17:05:04.352Z</time></trkpt><trkpt lat="44.203095" lon="8.0180033"><ele>585.0</ele><time>2026-05-02T17:05:05.357Z</time></trkpt><trkpt lat="44.2029767" lon="8.0179133"><ele>585.5</ele><time>2026-05-02T17:05:06.354Z</time></trkpt><trkpt lat="44.20285" lon="8.017825"><ele>586.0</ele><time>2026-05-02T17:05:07.352Z</time></trkpt><trkpt lat="44.2027183" lon="8.0177383"><ele>586.5</ele><time>2026-05-02T17:05:08.353Z</time></trkpt><trkpt lat="44.2025833" lon="8.017645"><ele>587.0</ele><time>2026-05-02T17:05:09.354Z</time></trkpt><trkpt lat="44.2024517" lon="8.0175567"><ele>587.5</ele><time>2026-05-02T17:05:10.351Z</time></trkpt><trkpt lat="44.20232" lon="8.01747"><ele>588.0</ele><time>2026-05-02T17:05:11.352Z</time></trkpt><trkpt lat="44.2022" lon="8.0173833"><ele>588.5</ele><time>2026-05-02T17:05:12.353Z</time></trkpt><trkpt lat="44.202085" lon="8.0172983"><ele>589.0</ele><time>2026-05-02T17:05:13.352Z</time></trkpt><trkpt lat="44.2019767" lon="8.017225"><ele>589.0</ele><time>2026-05-02T17:05:14.354Z</time></trkpt><trkpt lat="44.2018733" lon="8.01716"><ele>589.0</ele><time>2026-05-02T17:05:15.354Z</time></trkpt><trkpt lat="44.2017783" lon="8.0171033"><ele>589.0</ele><time>2026-05-02T17:05:16.35Z</time></trkpt><trkpt lat="44.2017" lon="8.01705"><ele>589.0</ele><time>2026-05-02T17:05:17.352Z</time></trkpt><trkpt lat="44.2016233" lon="8.01699"><ele>589.0</ele><time>2026-05-02T17:05:18.349Z</time></trkpt><trkpt lat="44.2015667" lon="8.0169217"><ele>589.0</ele><time>2026-05-02T17:05:19.361Z</time></trkpt><trkpt lat="44.201535" lon="8.0168233"><ele>589.0</ele><time>2026-05-02T17:05:20.355Z</time></trkpt><trkpt lat="44.2015283" lon="8.0167"><ele>589.0</ele><time>2026-05-02T17:05:21.352Z</time></trkpt><trkpt lat="44.2015467" lon="8.0165483"><ele>589.0</ele><time>2026-05-02T17:05:22.351Z</time></trkpt><trkpt lat="44.2015683" lon="8.0163683"><ele>589.0</ele><time>2026-05-02T17:05:23.351Z</time></trkpt><trkpt lat="44.2015917" lon="8.0161717"><ele>588.3333333333334</ele><time>2026-05-02T17:05:24.352Z</time></trkpt><trkpt lat="44.2016183" lon="8.0159617"><ele>587.6666666666666</ele><time>2026-05-02T17:05:25.349Z</time></trkpt><trkpt lat="44.20164" lon="8.0157483"><ele>587.0</ele><time>2026-05-02T17:05:26.352Z</time></trkpt><trkpt lat="44.2016717" lon="8.0155183"><ele>585.0</ele><time>2026-05-02T17:05:27.353Z</time></trkpt><trkpt lat="44.201715" lon="8.015285"><ele>583.0</ele><time>2026-05-02T17:05:28.35Z</time></trkpt><trkpt lat="44.2017633" lon="8.01505"><ele>581.0</ele><time>2026-05-02T17:05:29.35Z</time></trkpt><trkpt lat="44.2018117" lon="8.0148167"><ele>580.6666666666666</ele><time>2026-05-02T17:05:30.351Z</time></trkpt><trkpt lat="44.2018583" lon="8.01459"><ele>580.3333333333334</ele><time>2026-05-02T17:05:31.352Z</time></trkpt><trkpt lat="44.2019" lon="8.0143717"><ele>580.0</ele><time>2026-05-02T17:05:32.35Z</time></trkpt><trkpt lat="44.2019383" lon="8.014165"><ele>580.8</ele><time>2026-05-02T17:05:33.355Z</time></trkpt><trkpt lat="44.2019733" lon="8.01398"><ele>581.6</ele><time>2026-05-02T17:05:34.348Z</time></trkpt><trkpt lat="44.202" lon="8.01383"><ele>582.4</ele><time>2026-05-02T17:05:35.349Z</time></trkpt><trkpt lat="44.202025" lon="8.0137133"><ele>583.2</ele><time>2026-05-02T17:05:36.349Z</time></trkpt><trkpt lat="44.2020517" lon="8.013625"><ele>584.0</ele><time>2026-05-02T17:05:37.352Z</time></trkpt><trkpt lat="44.2021117" lon="8.0135333"><ele>584.0</ele><time>2026-05-02T17:05:39.357Z</time></trkpt><trkpt lat="44.2021917" lon="8.0135383"><ele>584.0</ele><time>2026-05-02T17:05:45.354Z</time></trkpt><trkpt lat="44.2023467" lon="8.0135933"><ele>584.0</ele><time>2026-05-02T17:05:47.351Z</time></trkpt><trkpt lat="44.2024517" lon="8.01363"><ele>584.0</ele><time>2026-05-02T17:05:48.352Z</time></trkpt><trkpt lat="44.2025583" lon="8.0136733"><ele>584.25</ele><time>2026-05-02T17:05:49.351Z</time></trkpt><trkpt lat="44.2026667" lon="8.01372"><ele>584.5</ele><time>2026-05-02T17:05:50.353Z</time></trkpt><trkpt lat="44.2027817" lon="8.0137667"><ele>584.75</ele><time>2026-05-02T17:05:51.351Z</time></trkpt><trkpt lat="44.2029017" lon="8.013815"><ele>585.0</ele><time>2026-05-02T17:05:52.352Z</time></trkpt><trkpt lat="44.2030267" lon="8.013865"><ele>585.0</ele><time>2026-05-02T17:05:53.349Z</time></trkpt><trkpt lat="44.2031567" lon="8.0139167"><ele>585.0</ele><time>2026-05-02T17:05:54.353Z</time></trkpt><trkpt lat="44.20329" lon="8.0139717"><ele>585.0</ele><time>2026-05-02T17:05:55.355Z</time></trkpt><trkpt lat="44.2034267" lon="8.01403"><ele>585.0</ele><time>2026-05-02T17:05:56.355Z</time></trkpt><trkpt lat="44.2035617" lon="8.014085"><ele>585.0</ele><time>2026-05-02T17:05:57.351Z</time></trkpt><trkpt lat="44.2036967" lon="8.0141367"><ele>585.0</ele><time>2026-05-02T17:05:58.351Z</time></trkpt><trkpt lat="44.2038317" lon="8.01419"><ele>585.0</ele><time>2026-05-02T17:05:59.352Z</time></trkpt><trkpt lat="44.2039717" lon="8.0142433"><ele>585.0</ele><time>2026-05-02T17:06:00.354Z</time></trkpt><trkpt lat="44.2041083" lon="8.0142983"><ele>585.25</ele><time>2026-05-02T17:06:01.352Z</time></trkpt><trkpt lat="44.204245" lon="8.0143533"><ele>585.5</ele><time>2026-05-02T17:06:02.354Z</time></trkpt><trkpt lat="44.2043783" lon="8.0144033"><ele>585.75</ele><time>2026-05-02T17:06:03.354Z</time></trkpt><trkpt lat="44.2045017" lon="8.0144567"><ele>586.0</ele><time>2026-05-02T17:06:04.349Z</time></trkpt><trkpt lat="44.2046233" lon="8.014505"><ele>586.0</ele><time>2026-05-02T17:06:05.352Z</time></trkpt><trkpt lat="44.20474" lon="8.0145367"><ele>586.0</ele><time>2026-05-02T17:06:06.351Z</time></trkpt><trkpt lat="44.2048417" lon="8.0145683"><ele>586.0</ele><time>2026-05-02T17:06:07.35Z</time></trkpt><trkpt lat="44.2049383" lon="8.0146083"><ele>586.0</ele><time>2026-05-02T17:06:08.35Z</time></trkpt><trkpt lat="44.2050283" lon="8.014635"><ele>586.0</ele><time>2026-05-02T17:06:09.351Z</time></trkpt><trkpt lat="44.2051267" lon="8.014665"><ele>586.0</ele><time>2026-05-02T17:06:10.355Z</time></trkpt><trkpt lat="44.2052183" lon="8.0146833"><ele>586.0</ele><time>2026-05-02T17:06:11.352Z</time></trkpt><trkpt lat="44.20531" lon="8.0146933"><ele>586.0</ele><time>2026-05-02T17:06:12.352Z</time></trkpt><trkpt lat="44.2053967" lon="8.0147067"><ele>586.0</ele><time>2026-05-02T17:06:13.351Z</time></trkpt><trkpt lat="44.205475" lon="8.0147133"><ele>586.0</ele><time>2026-05-02T17:06:14.351Z</time></trkpt><trkpt lat="44.2055433" lon="8.0147167"><ele>586.0</ele><time>2026-05-02T17:06:15.35Z</time></trkpt><trkpt lat="44.2056567" lon="8.0147133"><ele>585.5</ele><time>2026-05-02T17:06:17.353Z</time></trkpt><trkpt lat="44.20574" lon="8.0147"><ele>585.0</ele><time>2026-05-02T17:06:20.35Z</time></trkpt><trkpt lat="44.2058133" lon="8.0146817"><ele>584.5</ele><time>2026-05-02T17:06:23.355Z</time></trkpt><trkpt lat="44.205895" lon="8.01468"><ele>584.0</ele><time>2026-05-02T17:06:25.355Z</time></trkpt><trkpt lat="44.2060017" lon="8.01469"><ele>583.5</ele><time>2026-05-02T17:06:27.357Z</time></trkpt><trkpt lat="44.20607" lon="8.0147017"><ele>583.0</ele><time>2026-05-02T17:06:28.352Z</time></trkpt><trkpt lat="44.2061533" lon="8.01471"><ele>583.0</ele><time>2026-05-02T17:06:29.35Z</time></trkpt><trkpt lat="44.2062433" lon="8.0147217"><ele>583.0</ele><time>2026-05-02T17:06:30.353Z</time></trkpt><trkpt lat="44.2063467" lon="8.0147283"><ele>583.0</ele><time>2026-05-02T17:06:31.352Z</time></trkpt><trkpt lat="44.2064567" lon="8.0147333"><ele>583.0</ele><time>2026-05-02T17:06:32.352Z</time></trkpt><trkpt lat="44.206575" lon="8.0147417"><ele>583.0</ele><time>2026-05-02T17:06:33.36Z</time></trkpt><trkpt lat="44.2066933" lon="8.0147517"><ele>582.0</ele><time>2026-05-02T17:06:34.349Z</time></trkpt><trkpt lat="44.206815" lon="8.0147617"><ele>581.0</ele><time>2026-05-02T17:06:35.355Z</time></trkpt><trkpt lat="44.20694" lon="8.0147733"><ele>580.0</ele><time>2026-05-02T17:06:36.354Z</time></trkpt><trkpt lat="44.20707" lon="8.0147817"><ele>579.0</ele><time>2026-05-02T17:06:37.359Z</time></trkpt><trkpt lat="44.2072" lon="8.01479"><ele>579.0</ele><time>2026-05-02T17:06:38.357Z</time></trkpt><trkpt lat="44.2073233" lon="8.0148"><ele>579.0</ele><time>2026-05-02T17:06:39.353Z</time></trkpt><trkpt lat="44.2074383" lon="8.01481"><ele>579.0</ele><time>2026-05-02T17:06:40.352Z</time></trkpt><trkpt lat="44.2075533" lon="8.0148183"><ele>579.0</ele><time>2026-05-02T17:06:41.348Z</time></trkpt><trkpt lat="44.20767" lon="8.01483"><ele>578.75</ele><time>2026-05-02T17:06:42.351Z</time></trkpt><trkpt lat="44.2077933" lon="8.0148383"><ele>578.5</ele><time>2026-05-02T17:06:43.353Z</time></trkpt><trkpt lat="44.20792" lon="8.0148467"><ele>578.25</ele><time>2026-05-02T17:06:44.35Z</time></trkpt><trkpt lat="44.2080533" lon="8.014855"><ele>578.0</ele><time>2026-05-02T17:06:45.352Z</time></trkpt><trkpt lat="44.2081917" lon="8.0148667"><ele>577.75</ele><time>2026-05-02T17:06:46.352Z</time></trkpt><trkpt lat="44.2083333" lon="8.01488"><ele>577.5</ele><time>2026-05-02T17:06:47.352Z</time></trkpt><trkpt lat="44.2084767" lon="8.0148883"><ele>577.25</ele><time>2026-05-02T17:06:48.354Z</time></trkpt><trkpt lat="44.2086233" lon="8.01489"><ele>577.0</ele><time>2026-05-02T17:06:49.35Z</time></trkpt><trkpt lat="44.2087783" lon="8.014895"><ele>577.0</ele><time>2026-05-02T17:06:50.351Z</time></trkpt><trkpt lat="44.2089367" lon="8.01491"><ele>577.0</ele><time>2026-05-02T17:06:51.35Z</time></trkpt><trkpt lat="44.2090933" lon="8.0149267"><ele>577.0</ele><time>2026-05-02T17:06:52.354Z</time></trkpt><trkpt lat="44.209245" lon="8.014945"><ele>577.0</ele><time>2026-05-02T17:06:53.35Z</time></trkpt><trkpt lat="44.209395" lon="8.0149533"><ele>577.0</ele><time>2026-05-02T17:06:54.356Z</time></trkpt><trkpt lat="44.209545" lon="8.0149483"><ele>577.0</ele><time>2026-05-02T17:06:55.35Z</time></trkpt><trkpt lat="44.209695" lon="8.0149217"><ele>576.6666666666667</ele><time>2026-05-02T17:06:56.354Z</time></trkpt><trkpt lat="44.2098483" lon="8.014875"><ele>576.3333333333334</ele><time>2026-05-02T17:06:57.351Z</time></trkpt><trkpt lat="44.2100033" lon="8.014815"><ele>576.0</ele><time>2026-05-02T17:06:58.355Z</time></trkpt><trkpt lat="44.21016" lon="8.0147533"><ele>576.0</ele><time>2026-05-02T17:06:59.349Z</time></trkpt><trkpt lat="44.2103133" lon="8.0146967"><ele>576.0</ele><time>2026-05-02T17:07:00.355Z</time></trkpt><trkpt lat="44.21046" lon="8.0146433"><ele>576.0</ele><time>2026-05-02T17:07:01.353Z</time></trkpt><trkpt lat="44.2106" lon="8.0145883"><ele>575.25</ele><time>2026-05-02T17:07:02.352Z</time></trkpt><trkpt lat="44.210735" lon="8.0145433"><ele>574.5</ele><time>2026-05-02T17:07:03.352Z</time></trkpt><trkpt lat="44.210875" lon="8.0144983"><ele>573.75</ele><time>2026-05-02T17:07:04.351Z</time></trkpt><trkpt lat="44.2110133" lon="8.014455"><ele>573.0</ele><time>2026-05-02T17:07:05.35Z</time></trkpt><trkpt lat="44.2111567" lon="8.01442"><ele>573.0</ele><time>2026-05-02T17:07:06.352Z</time></trkpt><trkpt lat="44.2113117" lon="8.0143917"><ele>573.0</ele><time>2026-05-02T17:07:07.352Z</time></trkpt><trkpt lat="44.211485" lon="8.0143683"><ele>573.0</ele><time>2026-05-02T17:07:08.35Z</time></trkpt><trkpt lat="44.2116733" lon="8.0143517"><ele>572.6666666666666</ele><time>2026-05-02T17:07:09.35Z</time></trkpt><trkpt lat="44.21188" lon="8.0143467"><ele>572.3333333333333</ele><time>2026-05-02T17:07:10.353Z</time></trkpt><trkpt lat="44.21208" lon="8.0143567"><ele>572.0</ele><time>2026-05-02T17:07:11.353Z</time></trkpt><trkpt lat="44.2122783" lon="8.014375"><ele>571.6666666666666</ele><time>2026-05-02T17:07:12.352Z</time></trkpt><trkpt lat="44.2124683" lon="8.0143933"><ele>571.3333333333334</ele><time>2026-05-02T17:07:13.354Z</time></trkpt><trkpt lat="44.2126517" lon="8.0144083"><ele>571.0</ele><time>2026-05-02T17:07:14.353Z</time></trkpt><trkpt lat="44.21283" lon="8.0144217"><ele>571.0</ele><time>2026-05-02T17:07:15.356Z</time></trkpt><trkpt lat="44.2129983" lon="8.0144367"><ele>571.0</ele><time>2026-05-02T17:07:16.354Z</time></trkpt><trkpt lat="44.2131683" lon="8.0144483"><ele>571.0</ele><time>2026-05-02T17:07:17.353Z</time></trkpt><trkpt lat="44.2133433" lon="8.0144517"><ele>571.0</ele><time>2026-05-02T17:07:18.351Z</time></trkpt><trkpt lat="44.2135317" lon="8.0144583"><ele>571.0</ele><time>2026-05-02T17:07:19.353Z</time></trkpt><trkpt lat="44.21373" lon="8.0144733"><ele>571.0</ele><time>2026-05-02T17:07:20.351Z</time></trkpt><trkpt lat="44.21394" lon="8.014495"><ele>570.3333333333334</ele><time>2026-05-02T17:07:21.354Z</time></trkpt><trkpt lat="44.21416" lon="8.0145133"><ele>569.6666666666666</ele><time>2026-05-02T17:07:22.353Z</time></trkpt><trkpt lat="44.2143867" lon="8.0145267"><ele>569.0</ele><time>2026-05-02T17:07:23.352Z</time></trkpt><trkpt lat="44.21462" lon="8.0145367"><ele>568.5</ele><time>2026-05-02T17:07:24.351Z</time></trkpt><trkpt lat="44.21485" lon="8.01455"><ele>568.0</ele><time>2026-05-02T17:07:25.35Z</time></trkpt><trkpt lat="44.2150817" lon="8.0145733"><ele>568.0</ele><time>2026-05-02T17:07:26.352Z</time></trkpt><trkpt lat="44.2153133" lon="8.0145983"><ele>568.0</ele><time>2026-05-02T17:07:27.352Z</time></trkpt><trkpt lat="44.21555" lon="8.0146167"><ele>567.0</ele><time>2026-05-02T17:07:28.352Z</time></trkpt><trkpt lat="44.2157883" lon="8.0146333"><ele>566.0</ele><time>2026-05-02T17:07:29.352Z</time></trkpt><trkpt lat="44.2160333" lon="8.01465"><ele>566.0</ele><time>2026-05-02T17:07:30.353Z</time></trkpt><trkpt lat="44.2162783" lon="8.01467"><ele>566.0</ele><time>2026-05-02T17:07:31.352Z</time></trkpt><trkpt lat="44.216525" lon="8.01469"><ele>565.5</ele><time>2026-05-02T17:07:32.351Z</time></trkpt><trkpt lat="44.2167733" lon="8.0147117"><ele>565.0</ele><time>2026-05-02T17:07:33.351Z</time></trkpt><trkpt lat="44.21702" lon="8.0147333"><ele>565.0</ele><time>2026-05-02T17:07:34.356Z</time></trkpt><trkpt lat="44.2172717" lon="8.0147517"><ele>565.0</ele><time>2026-05-02T17:07:35.353Z</time></trkpt><trkpt lat="44.217525" lon="8.0147683"><ele>565.0</ele><time>2026-05-02T17:07:36.359Z</time></trkpt><trkpt lat="44.21778" lon="8.014785"><ele>565.0</ele><time>2026-05-02T17:07:37.35Z</time></trkpt><trkpt lat="44.2180367" lon="8.0148"><ele>565.0</ele><time>2026-05-02T17:07:38.351Z</time></trkpt><trkpt lat="44.2182933" lon="8.0148167"><ele>565.0</ele><time>2026-05-02T17:07:39.353Z</time></trkpt><trkpt lat="44.21855" lon="8.0148333"><ele>565.0</ele><time>2026-05-02T17:07:40.353Z</time></trkpt><trkpt lat="44.2188067" lon="8.0148483"><ele>565.0</ele><time>2026-05-02T17:07:41.351Z</time></trkpt><trkpt lat="44.219065" lon="8.0148683"><ele>564.5</ele><time>2026-05-02T17:07:42.352Z</time></trkpt><trkpt lat="44.2193267" lon="8.0148867"><ele>564.0</ele><time>2026-05-02T17:07:43.352Z</time></trkpt><trkpt lat="44.2195883" lon="8.014905"><ele>564.5</ele><time>2026-05-02T17:07:44.352Z</time></trkpt><trkpt lat="44.2198533" lon="8.0149233"><ele>565.0</ele><time>2026-05-02T17:07:45.35Z</time></trkpt><trkpt lat="44.2201217" lon="8.0149383"><ele>565.0</ele><time>2026-05-02T17:07:46.353Z</time></trkpt><trkpt lat="44.22039" lon="8.0149583"><ele>565.0</ele><time>2026-05-02T17:07:47.354Z</time></trkpt><trkpt lat="44.22066" lon="8.0149783"><ele>563.5</ele><time>2026-05-02T17:07:48.35Z</time></trkpt><trkpt lat="44.22093" lon="8.0149967"><ele>562.0</ele><time>2026-05-02T17:07:49.35Z</time></trkpt><trkpt lat="44.2212033" lon="8.0150133"><ele>562.0</ele><time>2026-05-02T17:07:50.355Z</time></trkpt><trkpt lat="44.2214733" lon="8.0150317"><ele>562.0</ele><time>2026-05-02T17:07:51.353Z</time></trkpt><trkpt lat="44.2217383" lon="8.015055"><ele>561.5</ele><time>2026-05-02T17:07:52.35Z</time></trkpt><trkpt lat="44.222005" lon="8.015075"><ele>561.0</ele><time>2026-05-02T17:07:53.355Z</time></trkpt><trkpt lat="44.2222717" lon="8.0150933"><ele>560.5</ele><time>2026-05-02T17:07:54.353Z</time></trkpt><trkpt lat="44.22254" lon="8.0151117"><ele>560.0</ele><time>2026-05-02T17:07:55.358Z</time></trkpt><trkpt lat="44.2228083" lon="8.01513"><ele>560.0</ele><time>2026-05-02T17:07:56.357Z</time></trkpt><trkpt lat="44.2230783" lon="8.0151533"><ele>560.0</ele><time>2026-05-02T17:07:57.349Z</time></trkpt><trkpt lat="44.2233483" lon="8.015175"><ele>560.5</ele><time>2026-05-02T17:07:58.355Z</time></trkpt><trkpt lat="44.22362" lon="8.015195"><ele>561.0</ele><time>2026-05-02T17:07:59.351Z</time></trkpt><trkpt lat="44.22389" lon="8.0152133"><ele>561.0</ele><time>2026-05-02T17:08:00.353Z</time></trkpt><trkpt lat="44.2241617" lon="8.0152333"><ele>561.0</ele><time>2026-05-02T17:08:01.352Z</time></trkpt><trkpt lat="44.2244317" lon="8.0152617"><ele>561.0</ele><time>2026-05-02T17:08:02.353Z</time></trkpt><trkpt lat="44.2247017" lon="8.0152967"><ele>561.0</ele><time>2026-05-02T17:08:03.35Z</time></trkpt><trkpt lat="44.2249767" lon="8.0153417"><ele>560.5</ele><time>2026-05-02T17:08:04.354Z</time></trkpt><trkpt lat="44.2252533" lon="8.015395"><ele>560.0</ele><time>2026-05-02T17:08:05.35Z</time></trkpt><trkpt lat="44.2255283" lon="8.01546"><ele>566.0</ele><time>2026-05-02T17:08:06.354Z</time></trkpt><trkpt lat="44.2258" lon="8.0155367"><ele>572.0</ele><time>2026-05-02T17:08:07.355Z</time></trkpt><trkpt lat="44.2260667" lon="8.0156333"><ele>572.0</ele><time>2026-05-02T17:08:08.354Z</time></trkpt><trkpt lat="44.22633" lon="8.0157417"><ele>572.0</ele><time>2026-05-02T17:08:09.354Z</time></trkpt><trkpt lat="44.226585" lon="8.0158617"><ele>569.0</ele><time>2026-05-02T17:08:10.351Z</time></trkpt><trkpt lat="44.22684" lon="8.0159817"><ele>566.0</ele><time>2026-05-02T17:08:11.349Z</time></trkpt><trkpt lat="44.2270917" lon="8.0161067"><ele>571.0</ele><time>2026-05-02T17:08:12.349Z</time></trkpt><trkpt lat="44.22734" lon="8.0162417"><ele>576.0</ele><time>2026-05-02T17:08:13.357Z</time></trkpt><trkpt lat="44.22758" lon="8.016385"><ele>576.0</ele><time>2026-05-02T17:08:14.353Z</time></trkpt><trkpt lat="44.22782" lon="8.0165317"><ele>576.0</ele><time>2026-05-02T17:08:15.356Z</time></trkpt><trkpt lat="44.2280567" lon="8.0166817"><ele>570.0</ele><time>2026-05-02T17:08:16.353Z</time></trkpt><trkpt lat="44.228295" lon="8.0168267"><ele>564.0</ele><time>2026-05-02T17:08:17.351Z</time></trkpt><trkpt lat="44.2285283" lon="8.0169683"><ele>564.0</ele><time>2026-05-02T17:08:18.354Z</time></trkpt><trkpt lat="44.2287567" lon="8.0171017"><ele>564.0</ele><time>2026-05-02T17:08:19.35Z</time></trkpt><trkpt lat="44.228985" lon="8.0172267"><ele>566.0</ele><time>2026-05-02T17:08:20.349Z</time></trkpt><trkpt lat="44.2292233" lon="8.0173233"><ele>568.0</ele><time>2026-05-02T17:08:21.349Z</time></trkpt><trkpt lat="44.22947" lon="8.017395"><ele>568.0</ele><time>2026-05-02T17:08:22.35Z</time></trkpt><trkpt lat="44.229725" lon="8.0174333"><ele>568.0</ele><time>2026-05-02T17:08:23.349Z</time></trkpt><trkpt lat="44.2299817" lon="8.0174383"><ele>570.5</ele><time>2026-05-02T17:08:24.352Z</time></trkpt><trkpt lat="44.23024" lon="8.0174067"><ele>573.0</ele><time>2026-05-02T17:08:25.355Z</time></trkpt><trkpt lat="44.2304983" lon="8.0173483"><ele>571.5</ele><time>2026-05-02T17:08:26.353Z</time></trkpt><trkpt lat="44.2307517" lon="8.0172633"><ele>570.0</ele><time>2026-05-02T17:08:27.353Z</time></trkpt><trkpt lat="44.2310017" lon="8.0171583"><ele>570.0</ele><time>2026-05-02T17:08:28.351Z</time></trkpt><trkpt lat="44.2312417" lon="8.017025"><ele>570.0</ele><time>2026-05-02T17:08:29.351Z</time></trkpt><trkpt lat="44.2314767" lon="8.016875"><ele>570.5</ele><time>2026-05-02T17:08:30.351Z</time></trkpt><trkpt lat="44.231715" lon="8.016715"><ele>571.0</ele><time>2026-05-02T17:08:31.353Z</time></trkpt><trkpt lat="44.2319533" lon="8.016555"><ele>571.0</ele><time>2026-05-02T17:08:32.35Z</time></trkpt><trkpt lat="44.2321983" lon="8.0164"><ele>571.0</ele><time>2026-05-02T17:08:33.35Z</time></trkpt><trkpt lat="44.232435" lon="8.01624"><ele>565.5</ele><time>2026-05-02T17:08:34.351Z</time></trkpt><trkpt lat="44.2326683" lon="8.0160733"><ele>560.0</ele><time>2026-05-02T17:08:35.351Z</time></trkpt><trkpt lat="44.2328933" lon="8.015915"><ele>561.5</ele><time>2026-05-02T17:08:36.352Z</time></trkpt><trkpt lat="44.2331183" lon="8.0157583"><ele>563.0</ele><time>2026-05-02T17:08:37.351Z</time></trkpt><trkpt lat="44.2333417" lon="8.01561"><ele>559.5</ele><time>2026-05-02T17:08:38.353Z</time></trkpt><trkpt lat="44.2335717" lon="8.0154817"><ele>556.0</ele><time>2026-05-02T17:08:39.352Z</time></trkpt><trkpt lat="44.2338067" lon="8.0153817"><ele>553.5</ele><time>2026-05-02T17:08:40.354Z</time></trkpt><trkpt lat="44.234045" lon="8.0153033"><ele>551.0</ele><time>2026-05-02T17:08:41.352Z</time></trkpt><trkpt lat="44.23429" lon="8.0152483"><ele>551.0</ele><time>2026-05-02T17:08:42.352Z</time></trkpt><trkpt lat="44.234535" lon="8.0152117"><ele>551.0</ele><time>2026-05-02T17:08:43.351Z</time></trkpt><trkpt lat="44.2347817" lon="8.0152033"><ele>550.5</ele><time>2026-05-02T17:08:44.348Z</time></trkpt><trkpt lat="44.2350283" lon="8.01521"><ele>550.0</ele><time>2026-05-02T17:08:45.349Z</time></trkpt><trkpt lat="44.235275" lon="8.015215"><ele>550.0</ele><time>2026-05-02T17:08:46.349Z</time></trkpt><trkpt lat="44.235525" lon="8.015215"><ele>550.0</ele><time>2026-05-02T17:08:47.35Z</time></trkpt><trkpt lat="44.23578" lon="8.0152133"><ele>548.0</ele><time>2026-05-02T17:08:48.353Z</time></trkpt><trkpt lat="44.2360333" lon="8.0152167"><ele>546.0</ele><time>2026-05-02T17:08:49.352Z</time></trkpt><trkpt lat="44.2362867" lon="8.0152217"><ele>546.5</ele><time>2026-05-02T17:08:50.349Z</time></trkpt><trkpt lat="44.2365367" lon="8.0152283"><ele>547.0</ele><time>2026-05-02T17:08:51.349Z</time></trkpt><trkpt lat="44.2367867" lon="8.0152417"><ele>547.0</ele><time>2026-05-02T17:08:52.352Z</time></trkpt><trkpt lat="44.237035" lon="8.0152667"><ele>547.0</ele><time>2026-05-02T17:08:53.352Z</time></trkpt><trkpt lat="44.2372767" lon="8.0153183"><ele>546.5</ele><time>2026-05-02T17:08:54.352Z</time></trkpt><trkpt lat="44.2375117" lon="8.015405"><ele>546.0</ele><time>2026-05-02T17:08:55.349Z</time></trkpt><trkpt lat="44.2377417" lon="8.015515"><ele>546.0</ele><time>2026-05-02T17:08:56.353Z</time></trkpt><trkpt lat="44.2379633" lon="8.0156533"><ele>546.0</ele><time>2026-05-02T17:08:57.354Z</time></trkpt><trkpt lat="44.238175" lon="8.0158217"><ele>546.5</ele><time>2026-05-02T17:08:58.349Z</time></trkpt><trkpt lat="44.238375" lon="8.0160183"><ele>547.0</ele><time>2026-05-02T17:08:59.353Z</time></trkpt><trkpt lat="44.2385617" lon="8.0162333"><ele>547.0</ele><time>2026-05-02T17:09:00.351Z</time></trkpt><trkpt lat="44.23873" lon="8.01647"><ele>547.0</ele><time>2026-05-02T17:09:01.351Z</time></trkpt><trkpt lat="44.2388833" lon="8.0167283"><ele>547.0</ele><time>2026-05-02T17:09:02.355Z</time></trkpt><trkpt lat="44.2390167" lon="8.0170067"><ele>547.0</ele><time>2026-05-02T17:09:03.351Z</time></trkpt><trkpt lat="44.23913" lon="8.0172967"><ele>547.5</ele><time>2026-05-02T17:09:04.353Z</time></trkpt><trkpt lat="44.239225" lon="8.0175983"><ele>548.0</ele><time>2026-05-02T17:09:05.349Z</time></trkpt><trkpt lat="44.2393017" lon="8.0179133"><ele>548.0</ele><time>2026-05-02T17:09:06.352Z</time></trkpt><trkpt lat="44.2393817" lon="8.018235"><ele>548.0</ele><time>2026-05-02T17:09:07.355Z</time></trkpt><trkpt lat="44.2394767" lon="8.0185483"><ele>548.0</ele><time>2026-05-02T17:09:08.35Z</time></trkpt><trkpt lat="44.2395983" lon="8.01885"><ele>548.0</ele><time>2026-05-02T17:09:09.357Z</time></trkpt><trkpt lat="44.239725" lon="8.01915"><ele>551.5</ele><time>2026-05-02T17:09:10.353Z</time></trkpt><trkpt lat="44.2398533" lon="8.0194533"><ele>555.0</ele><time>2026-05-02T17:09:11.353Z</time></trkpt><trkpt lat="44.2399817" lon="8.01975"><ele>552.5</ele><time>2026-05-02T17:09:12.35Z</time></trkpt><trkpt lat="44.240105" lon="8.0200283"><ele>550.0</ele><time>2026-05-02T17:09:13.351Z</time></trkpt><trkpt lat="44.2402267" lon="8.02029"><ele>550.0</ele><time>2026-05-02T17:09:14.353Z</time></trkpt><trkpt lat="44.2403483" lon="8.0205283"><ele>550.0</ele><time>2026-05-02T17:09:15.351Z</time></trkpt><trkpt lat="44.2404817" lon="8.0207383"><ele>550.0</ele><time>2026-05-02T17:09:16.353Z</time></trkpt><trkpt lat="44.2406283" lon="8.0209117"><ele>550.0</ele><time>2026-05-02T17:09:17.351Z</time></trkpt><trkpt lat="44.2407917" lon="8.02106"><ele>550.0</ele><time>2026-05-02T17:09:18.353Z</time></trkpt><trkpt lat="44.240975" lon="8.0211867"><ele>550.0</ele><time>2026-05-02T17:09:19.352Z</time></trkpt><trkpt lat="44.2411767" lon="8.0212883"><ele>550.0</ele><time>2026-05-02T17:09:20.354Z</time></trkpt><trkpt lat="44.2413767" lon="8.0213767"><ele>550.0</ele><time>2026-05-02T17:09:21.352Z</time></trkpt><trkpt lat="44.24157" lon="8.0214683"><ele>550.0</ele><time>2026-05-02T17:09:22.353Z</time></trkpt><trkpt lat="44.2417517" lon="8.021555"><ele>549.6666666666667</ele><time>2026-05-02T17:09:23.353Z</time></trkpt><trkpt lat="44.2419267" lon="8.0216217"><ele>549.3333333333334</ele><time>2026-05-02T17:09:24.349Z</time></trkpt><trkpt lat="44.2420983" lon="8.021655"><ele>549.0</ele><time>2026-05-02T17:09:25.355Z</time></trkpt><trkpt lat="44.2422683" lon="8.0216633"><ele>549.3333333333334</ele><time>2026-05-02T17:09:26.352Z</time></trkpt><trkpt lat="44.24243" lon="8.0216617"><ele>549.6666666666667</ele><time>2026-05-02T17:09:27.355Z</time></trkpt><trkpt lat="44.2425867" lon="8.0216633"><ele>550.0</ele><time>2026-05-02T17:09:28.351Z</time></trkpt><trkpt lat="44.242745" lon="8.0216633"><ele>550.0</ele><time>2026-05-02T17:09:29.352Z</time></trkpt><trkpt lat="44.242905" lon="8.021665"><ele>550.0</ele><time>2026-05-02T17:09:30.355Z</time></trkpt><trkpt lat="44.2430617" lon="8.0216633"><ele>550.0</ele><time>2026-05-02T17:09:31.353Z</time></trkpt><trkpt lat="44.24321" lon="8.0216583"><ele>549.5</ele><time>2026-05-02T17:09:32.355Z</time></trkpt><trkpt lat="44.2433467" lon="8.02166"><ele>549.0</ele><time>2026-05-02T17:09:33.354Z</time></trkpt><trkpt lat="44.2434767" lon="8.0216633"><ele>548.5</ele><time>2026-05-02T17:09:34.352Z</time></trkpt><trkpt lat="44.2436033" lon="8.0216633"><ele>548.0</ele><time>2026-05-02T17:09:35.353Z</time></trkpt><trkpt lat="44.2437267" lon="8.0216617"><ele>548.0</ele><time>2026-05-02T17:09:36.354Z</time></trkpt><trkpt lat="44.243845" lon="8.0216583"><ele>548.0</ele><time>2026-05-02T17:09:37.361Z</time></trkpt><trkpt lat="44.24396" lon="8.0216567"><ele>548.0</ele><time>2026-05-02T17:09:38.35Z</time></trkpt><trkpt lat="44.2440717" lon="8.0216567"><ele>548.0</ele><time>2026-05-02T17:09:39.354Z</time></trkpt><trkpt lat="44.2441833" lon="8.0216567"><ele>548.0</ele><time>2026-05-02T17:09:40.353Z</time></trkpt><trkpt lat="44.2442933" lon="8.021655"><ele>548.0</ele><time>2026-05-02T17:09:41.352Z</time></trkpt><trkpt lat="44.2444067" lon="8.0216483"><ele>548.0</ele><time>2026-05-02T17:09:42.354Z</time></trkpt><trkpt lat="44.2445217" lon="8.0216483"><ele>548.0</ele><time>2026-05-02T17:09:43.354Z</time></trkpt><trkpt lat="44.2446383" lon="8.021645"><ele>550.0</ele><time>2026-05-02T17:09:44.35Z</time></trkpt><trkpt lat="44.2447517" lon="8.02164"><ele>552.0</ele><time>2026-05-02T17:09:45.353Z</time></trkpt><trkpt lat="44.244865" lon="8.0216333"><ele>554.0</ele><time>2026-05-02T17:09:46.354Z</time></trkpt><trkpt lat="44.244975" lon="8.0216217"><ele>556.0</ele><time>2026-05-02T17:09:47.351Z</time></trkpt><trkpt lat="44.24509" lon="8.0216217"><ele>557.5</ele><time>2026-05-02T17:09:48.351Z</time></trkpt><trkpt lat="44.245215" lon="8.02163"><ele>559.0</ele><time>2026-05-02T17:09:49.348Z</time></trkpt><trkpt lat="44.2453433" lon="8.0216367"><ele>560.5</ele><time>2026-05-02T17:09:50.352Z</time></trkpt><trkpt lat="44.2454767" lon="8.0216367"><ele>562.0</ele><time>2026-05-02T17:09:51.356Z</time></trkpt><trkpt lat="44.2456167" lon="8.0216317"><ele>561.6666666666667</ele><time>2026-05-02T17:09:52.352Z</time></trkpt><trkpt lat="44.245765" lon="8.0216283"><ele>561.3333333333334</ele><time>2026-05-02T17:09:53.352Z</time></trkpt><trkpt lat="44.2459167" lon="8.0216267"><ele>561.0</ele><time>2026-05-02T17:09:54.352Z</time></trkpt><trkpt lat="44.246075" lon="8.021625"><ele>561.0</ele><time>2026-05-02T17:09:55.353Z</time></trkpt><trkpt lat="44.2462383" lon="8.0216217"><ele>561.0</ele><time>2026-05-02T17:09:56.351Z</time></trkpt><trkpt lat="44.2464067" lon="8.0216167"><ele>561.0</ele><time>2026-05-02T17:09:57.352Z</time></trkpt><trkpt lat="44.2465783" lon="8.021615"><ele>558.6666666666666</ele><time>2026-05-02T17:09:58.351Z</time></trkpt><trkpt lat="44.2467567" lon="8.0216167"><ele>556.3333333333333</ele><time>2026-05-02T17:09:59.353Z</time></trkpt><trkpt lat="44.2469367" lon="8.021615"><ele>554.0</ele><time>2026-05-02T17:10:00.352Z</time></trkpt><trkpt lat="44.2471233" lon="8.0216133"><ele>552.0</ele><time>2026-05-02T17:10:01.35Z</time></trkpt><trkpt lat="44.2473167" lon="8.02161"><ele>550.0</ele><time>2026-05-02T17:10:02.35Z</time></trkpt><trkpt lat="44.2475167" lon="8.0216067"><ele>548.0</ele><time>2026-05-02T17:10:03.351Z</time></trkpt><trkpt lat="44.2477233" lon="8.0215983"><ele>548.0</ele><time>2026-05-02T17:10:04.352Z</time></trkpt><trkpt lat="44.2479383" lon="8.02159"><ele>548.0</ele><time>2026-05-02T17:10:05.349Z</time></trkpt><trkpt lat="44.2481583" lon="8.021585"><ele>548.0</ele><time>2026-05-02T17:10:06.353Z</time></trkpt><trkpt lat="44.2483833" lon="8.0215817"><ele>544.0</ele><time>2026-05-02T17:10:07.35Z</time></trkpt><trkpt lat="44.24861" lon="8.0215733"><ele>540.0</ele><time>2026-05-02T17:10:08.351Z</time></trkpt><trkpt lat="44.2488417" lon="8.0215633"><ele>540.0</ele><time>2026-05-02T17:10:09.353Z</time></trkpt><trkpt lat="44.2490717" lon="8.021555"><ele>540.0</ele><time>2026-05-02T17:10:10.35Z</time></trkpt><trkpt lat="44.2493033" lon="8.0215467"><ele>540.0</ele><time>2026-05-02T17:10:11.353Z</time></trkpt><trkpt lat="44.24954" lon="8.0215383"><ele>540.0</ele><time>2026-05-02T17:10:12.349Z</time></trkpt><trkpt lat="44.2497783" lon="8.0215333"><ele>543.0</ele><time>2026-05-02T17:10:13.354Z</time></trkpt><trkpt lat="44.2500183" lon="8.0215283"><ele>546.0</ele><time>2026-05-02T17:10:14.352Z</time></trkpt><trkpt lat="44.2502583" lon="8.0215217"><ele>546.0</ele><time>2026-05-02T17:10:15.354Z</time></trkpt><trkpt lat="44.2504967" lon="8.0215133"><ele>546.0</ele><time>2026-05-02T17:10:16.351Z</time></trkpt><trkpt lat="44.25073" lon="8.0214983"><ele>546.5</ele><time>2026-05-02T17:10:17.353Z</time></trkpt><trkpt lat="44.25096" lon="8.02147"><ele>547.0</ele><time>2026-05-02T17:10:18.35Z</time></trkpt><trkpt lat="44.2511833" lon="8.0214083"><ele>547.0</ele><time>2026-05-02T17:10:19.351Z</time></trkpt><trkpt lat="44.2514" lon="8.021305"><ele>547.0</ele><time>2026-05-02T17:10:20.353Z</time></trkpt><trkpt lat="44.2516083" lon="8.0211683"><ele>546.0</ele><time>2026-05-02T17:10:21.353Z</time></trkpt><trkpt lat="44.2518183" lon="8.0210167"><ele>545.0</ele><time>2026-05-02T17:10:22.351Z</time></trkpt><trkpt lat="44.2520317" lon="8.0208683"><ele>555.5</ele><time>2026-05-02T17:10:23.352Z</time></trkpt><trkpt lat="44.2522483" lon="8.020735"><ele>566.0</ele><time>2026-05-02T17:10:24.352Z</time></trkpt><trkpt lat="44.2524717" lon="8.0206133"><ele>566.0</ele><time>2026-05-02T17:10:25.354Z</time></trkpt><trkpt lat="44.2527033" lon="8.020505"><ele>566.0</ele><time>2026-05-02T17:10:26.35Z</time></trkpt><trkpt lat="44.2529417" lon="8.0204167"><ele>565.0</ele><time>2026-05-02T17:10:27.351Z</time></trkpt><trkpt lat="44.2531833" lon="8.0203483"><ele>564.0</ele><time>2026-05-02T17:10:28.35Z</time></trkpt><trkpt lat="44.2534283" lon="8.020295"><ele>564.0</ele><time>2026-05-02T17:10:29.35Z</time></trkpt><trkpt lat="44.2536733" lon="8.02025"><ele>564.0</ele><time>2026-05-02T17:10:30.352Z</time></trkpt><trkpt lat="44.2539167" lon="8.0202033"><ele>557.5</ele><time>2026-05-02T17:10:31.352Z</time></trkpt><trkpt lat="44.2541667" lon="8.0201517"><ele>551.0</ele><time>2026-05-02T17:10:32.349Z</time></trkpt><trkpt lat="44.2544183" lon="8.0201067"><ele>551.0</ele><time>2026-05-02T17:10:33.354Z</time></trkpt><trkpt lat="44.254665" lon="8.0200783"><ele>551.0</ele><time>2026-05-02T17:10:34.353Z</time></trkpt><trkpt lat="44.25491" lon="8.0200667"><ele>546.0</ele><time>2026-05-02T17:10:35.353Z</time></trkpt><trkpt lat="44.2551533" lon="8.0200717"><ele>541.0</ele><time>2026-05-02T17:10:36.351Z</time></trkpt><trkpt lat="44.2553967" lon="8.0200933"><ele>541.5</ele><time>2026-05-02T17:10:37.353Z</time></trkpt><trkpt lat="44.2556317" lon="8.020145"><ele>542.0</ele><time>2026-05-02T17:10:38.349Z</time></trkpt><trkpt lat="44.25586" lon="8.0202383"><ele>542.0</ele><time>2026-05-02T17:10:39.351Z</time></trkpt><trkpt lat="44.2560833" lon="8.02037"><ele>542.0</ele><time>2026-05-02T17:10:40.352Z</time></trkpt><trkpt lat="44.2563" lon="8.0205117"><ele>545.0</ele><time>2026-05-02T17:10:41.353Z</time></trkpt><trkpt lat="44.256515" lon="8.02066"><ele>548.0</ele><time>2026-05-02T17:10:42.358Z</time></trkpt><trkpt lat="44.2567283" lon="8.020815"><ele>541.5</ele><time>2026-05-02T17:10:43.352Z</time></trkpt><trkpt lat="44.256945" lon="8.0209683"><ele>535.0</ele><time>2026-05-02T17:10:44.352Z</time></trkpt><trkpt lat="44.2571617" lon="8.0211067"><ele>537.3333333333334</ele><time>2026-05-02T17:10:45.354Z</time></trkpt><trkpt lat="44.25737" lon="8.02124"><ele>539.6666666666666</ele><time>2026-05-02T17:10:46.352Z</time></trkpt><trkpt lat="44.2575667" lon="8.0213683"><ele>542.0</ele><time>2026-05-02T17:10:47.352Z</time></trkpt><trkpt lat="44.2577467" lon="8.021495"><ele>542.0</ele><time>2026-05-02T17:10:48.353Z</time></trkpt><trkpt lat="44.2579033" lon="8.02163"><ele>542.0</ele><time>2026-05-02T17:10:49.355Z</time></trkpt><trkpt lat="44.2580417" lon="8.02178"><ele>542.0</ele><time>2026-05-02T17:10:50.356Z</time></trkpt><trkpt lat="44.2581683" lon="8.02194"><ele>541.3333333333333</ele><time>2026-05-02T17:10:51.355Z</time></trkpt><trkpt lat="44.2582883" lon="8.022095"><ele>540.6666666666666</ele><time>2026-05-02T17:10:52.352Z</time></trkpt><trkpt lat="44.258405" lon="8.0222483"><ele>540.0</ele><time>2026-05-02T17:10:53.353Z</time></trkpt><trkpt lat="44.25852" lon="8.0224017"><ele>537.6666666666666</ele><time>2026-05-02T17:10:54.35Z</time></trkpt><trkpt lat="44.2586367" lon="8.0225583"><ele>535.3333333333333</ele><time>2026-05-02T17:10:55.353Z</time></trkpt><trkpt lat="44.2587567" lon="8.0227183"><ele>533.0</ele><time>2026-05-02T17:10:56.351Z</time></trkpt><trkpt lat="44.2588817" lon="8.0228867"><ele>531.6666666666666</ele><time>2026-05-02T17:10:57.357Z</time></trkpt><trkpt lat="44.259015" lon="8.023055"><ele>530.3333333333334</ele><time>2026-05-02T17:10:58.351Z</time></trkpt><trkpt lat="44.2591533" lon="8.02322"><ele>529.0</ele><time>2026-05-02T17:10:59.353Z</time></trkpt><trkpt lat="44.2593067" lon="8.023365"><ele>529.0</ele><time>2026-05-02T17:11:00.352Z</time></trkpt><trkpt lat="44.2594733" lon="8.0234983"><ele>529.0</ele><time>2026-05-02T17:11:01.354Z</time></trkpt><trkpt lat="44.2596483" lon="8.0236283"><ele>529.0</ele><time>2026-05-02T17:11:02.353Z</time></trkpt><trkpt lat="44.2598383" lon="8.0237583"><ele>534.0</ele><time>2026-05-02T17:11:03.354Z</time></trkpt><trkpt lat="44.2600417" lon="8.0238917"><ele>539.0</ele><time>2026-05-02T17:11:04.355Z</time></trkpt><trkpt lat="44.2602483" lon="8.0240317"><ele>533.5</ele><time>2026-05-02T17:11:05.355Z</time></trkpt><trkpt lat="44.2604617" lon="8.0241767"><ele>528.0</ele><time>2026-05-02T17:11:06.355Z</time></trkpt><trkpt lat="44.260685" lon="8.0243217"><ele>528.0</ele><time>2026-05-02T17:11:07.353Z</time></trkpt><trkpt lat="44.260915" lon="8.02447"><ele>528.0</ele><time>2026-05-02T17:11:08.355Z</time></trkpt><trkpt lat="44.2611533" lon="8.02462"><ele>528.0</ele><time>2026-05-02T17:11:09.355Z</time></trkpt><trkpt lat="44.261395" lon="8.0247733"><ele>528.0</ele><time>2026-05-02T17:11:10.35Z</time></trkpt><trkpt lat="44.26164" lon="8.0249283"><ele>526.0</ele><time>2026-05-02T17:11:11.352Z</time></trkpt><trkpt lat="44.2618867" lon="8.0250867"><ele>524.0</ele><time>2026-05-02T17:11:12.352Z</time></trkpt><trkpt lat="44.2621383" lon="8.0252417"><ele>526.5</ele><time>2026-05-02T17:11:13.35Z</time></trkpt><trkpt lat="44.2623917" lon="8.0254"><ele>529.0</ele><time>2026-05-02T17:11:14.356Z</time></trkpt><trkpt lat="44.2626433" lon="8.02556"><ele>529.0</ele><time>2026-05-02T17:11:15.352Z</time></trkpt><trkpt lat="44.2628983" lon="8.0257183"><ele>529.0</ele><time>2026-05-02T17:11:16.353Z</time></trkpt><trkpt lat="44.2631567" lon="8.025875"><ele>529.0</ele><time>2026-05-02T17:11:17.351Z</time></trkpt><trkpt lat="44.26341" lon="8.0260317"><ele>529.0</ele><time>2026-05-02T17:11:18.351Z</time></trkpt><trkpt lat="44.2636667" lon="8.0261917"><ele>529.0</ele><time>2026-05-02T17:11:19.355Z</time></trkpt><trkpt lat="44.2639283" lon="8.0263517"><ele>529.0</ele><time>2026-05-02T17:11:20.355Z</time></trkpt><trkpt lat="44.26419" lon="8.0265133"><ele>526.5</ele><time>2026-05-02T17:11:21.356Z</time></trkpt><trkpt lat="44.264455" lon="8.02668"><ele>524.0</ele><time>2026-05-02T17:11:22.351Z</time></trkpt><trkpt lat="44.26472" lon="8.026845"><ele>525.5</ele><time>2026-05-02T17:11:23.352Z</time></trkpt><trkpt lat="44.2649867" lon="8.02701"><ele>527.0</ele><time>2026-05-02T17:11:24.352Z</time></trkpt><trkpt lat="44.2652567" lon="8.0271767"><ele>527.0</ele><time>2026-05-02T17:11:25.354Z</time></trkpt><trkpt lat="44.265525" lon="8.027345"><ele>527.0</ele><time>2026-05-02T17:11:26.354Z</time></trkpt><trkpt lat="44.2657983" lon="8.0275183"><ele>524.5</ele><time>2026-05-02T17:11:27.353Z</time></trkpt><trkpt lat="44.2660717" lon="8.0276933"><ele>522.0</ele><time>2026-05-02T17:11:28.351Z</time></trkpt><trkpt lat="44.2663467" lon="8.0278683"><ele>521.0</ele><time>2026-05-02T17:11:29.349Z</time></trkpt><trkpt lat="44.266625" lon="8.0280433"><ele>520.0</ele><time>2026-05-02T17:11:30.352Z</time></trkpt><trkpt lat="44.2669033" lon="8.02822"><ele>519.5</ele><time>2026-05-02T17:11:31.35Z</time></trkpt><trkpt lat="44.2671817" lon="8.028395"><ele>519.0</ele><time>2026-05-02T17:11:32.351Z</time></trkpt><trkpt lat="44.2674633" lon="8.02857"><ele>518.5</ele><time>2026-05-02T17:11:33.356Z</time></trkpt><trkpt lat="44.2677433" lon="8.028745"><ele>518.0</ele><time>2026-05-02T17:11:34.351Z</time></trkpt><trkpt lat="44.2680233" lon="8.0289217"><ele>517.0</ele><time>2026-05-02T17:11:35.352Z</time></trkpt><trkpt lat="44.2683017" lon="8.0290983"><ele>516.0</ele><time>2026-05-02T17:11:36.356Z</time></trkpt><trkpt lat="44.2685783" lon="8.0292717"><ele>516.0</ele><time>2026-05-02T17:11:37.351Z</time></trkpt><trkpt lat="44.2688517" lon="8.02944"><ele>516.0</ele><time>2026-05-02T17:11:38.353Z</time></trkpt><trkpt lat="44.2691233" lon="8.0296"><ele>517.5</ele><time>2026-05-02T17:11:39.354Z</time></trkpt><trkpt lat="44.2693967" lon="8.0297367"><ele>519.0</ele><time>2026-05-02T17:11:40.353Z</time></trkpt><trkpt lat="44.2696717" lon="8.0298467"><ele>518.5</ele><time>2026-05-02T17:11:41.352Z</time></trkpt><trkpt lat="44.2699483" lon="8.029935"><ele>518.0</ele><time>2026-05-02T17:11:42.353Z</time></trkpt><trkpt lat="44.270225" lon="8.03001"><ele>518.0</ele><time>2026-05-02T17:11:43.353Z</time></trkpt><trkpt lat="44.2704983" lon="8.0300867"><ele>518.0</ele><time>2026-05-02T17:11:44.354Z</time></trkpt><trkpt lat="44.2707717" lon="8.0301667"><ele>519.5</ele><time>2026-05-02T17:11:45.355Z</time></trkpt><trkpt lat="44.2710417" lon="8.0302483"><ele>521.0</ele><time>2026-05-02T17:11:46.353Z</time></trkpt><trkpt lat="44.271315" lon="8.0303283"><ele>520.0</ele><time>2026-05-02T17:11:47.354Z</time></trkpt><trkpt lat="44.2715883" lon="8.030405"><ele>519.0</ele><time>2026-05-02T17:11:48.352Z</time></trkpt><trkpt lat="44.2718617" lon="8.0304817"><ele>519.0</ele><time>2026-05-02T17:11:49.353Z</time></trkpt><trkpt lat="44.272135" lon="8.0305567"><ele>519.0</ele><time>2026-05-02T17:11:50.35Z</time></trkpt><trkpt lat="44.2723983" lon="8.0306283"><ele>520.5</ele><time>2026-05-02T17:11:51.351Z</time></trkpt><trkpt lat="44.2726467" lon="8.0306983"><ele>522.0</ele><time>2026-05-02T17:11:52.352Z</time></trkpt><trkpt lat="44.272885" lon="8.0307633"><ele>523.0</ele><time>2026-05-02T17:11:53.352Z</time></trkpt><trkpt lat="44.27311" lon="8.0308267"><ele>524.0</ele><time>2026-05-02T17:11:54.357Z</time></trkpt><trkpt lat="44.2733133" lon="8.0308867"><ele>525.0</ele><time>2026-05-02T17:11:55.353Z</time></trkpt><trkpt lat="44.2734933" lon="8.0309533"><ele>525.0</ele><time>2026-05-02T17:11:56.353Z</time></trkpt><trkpt lat="44.2736583" lon="8.0310367"><ele>525.0</ele><time>2026-05-02T17:11:57.354Z</time></trkpt><trkpt lat="44.273815" lon="8.031155"><ele>525.0</ele><time>2026-05-02T17:11:58.354Z</time></trkpt><trkpt lat="44.27395" lon="8.03133"><ele>530.0</ele><time>2026-05-02T17:11:59.356Z</time></trkpt><trkpt lat="44.2741817" lon="8.03178"><ele>535.0</ele><time>2026-05-02T17:12:01.356Z</time></trkpt><trkpt lat="44.27429" lon="8.0320283"><ele>535.0</ele><time>2026-05-02T17:12:02.354Z</time></trkpt><trkpt lat="44.274405" lon="8.0322917"><ele>535.0</ele><time>2026-05-02T17:12:03.356Z</time></trkpt><trkpt lat="44.2745233" lon="8.03256"><ele>535.0</ele><time>2026-05-02T17:12:04.354Z</time></trkpt><trkpt lat="44.2746433" lon="8.0328217"><ele>531.0</ele><time>2026-05-02T17:12:05.352Z</time></trkpt><trkpt lat="44.274775" lon="8.0330617"><ele>527.0</ele><time>2026-05-02T17:12:06.355Z</time></trkpt><trkpt lat="44.2749067" lon="8.0332733"><ele>523.0</ele><time>2026-05-02T17:12:07.353Z</time></trkpt><trkpt lat="44.2750567" lon="8.033455"><ele>523.0</ele><time>2026-05-02T17:12:08.353Z</time></trkpt><trkpt lat="44.275225" lon="8.0336133"><ele>523.0</ele><time>2026-05-02T17:12:09.353Z</time></trkpt><trkpt lat="44.2753983" lon="8.0337683"><ele>523.0</ele><time>2026-05-02T17:12:10.354Z</time></trkpt><trkpt lat="44.275565" lon="8.033925"><ele>521.0</ele><time>2026-05-02T17:12:11.353Z</time></trkpt><trkpt lat="44.275725" lon="8.0340667"><ele>519.0</ele><time>2026-05-02T17:12:12.353Z</time></trkpt><trkpt lat="44.2758867" lon="8.03419"><ele>517.0</ele><time>2026-05-02T17:12:13.355Z</time></trkpt><trkpt lat="44.2760533" lon="8.0342817"><ele>517.0</ele><time>2026-05-02T17:12:14.349Z</time></trkpt><trkpt lat="44.2762333" lon="8.0343317"><ele>517.0</ele><time>2026-05-02T17:12:15.353Z</time></trkpt><trkpt lat="44.2764217" lon="8.0343483"><ele>517.0</ele><time>2026-05-02T17:12:16.351Z</time></trkpt><trkpt lat="44.2766367" lon="8.0343417"><ele>517.5</ele><time>2026-05-02T17:12:17.355Z</time></trkpt><trkpt lat="44.2768583" lon="8.0343467"><ele>518.0</ele><time>2026-05-02T17:12:18.356Z</time></trkpt><trkpt lat="44.2770867" lon="8.0343617"><ele>515.5</ele><time>2026-05-02T17:12:19.355Z</time></trkpt><trkpt lat="44.2773167" lon="8.0343767"><ele>513.0</ele><time>2026-05-02T17:12:20.353Z</time></trkpt><trkpt lat="44.2775467" lon="8.03439"><ele>513.0</ele><time>2026-05-02T17:12:21.356Z</time></trkpt><trkpt lat="44.2777783" lon="8.0343967"><ele>513.0</ele><time>2026-05-02T17:12:22.355Z</time></trkpt><trkpt lat="44.2780067" lon="8.0344033"><ele>512.3333333333334</ele><time>2026-05-02T17:12:23.353Z</time></trkpt><trkpt lat="44.2782267" lon="8.03441"><ele>511.6666666666667</ele><time>2026-05-02T17:12:24.357Z</time></trkpt><trkpt lat="44.2784367" lon="8.03442"><ele>511.0</ele><time>2026-05-02T17:12:25.354Z</time></trkpt><trkpt lat="44.2786317" lon="8.0344483"><ele>511.0</ele><time>2026-05-02T17:12:26.352Z</time></trkpt><trkpt lat="44.27881" lon="8.0345017"><ele>511.0</ele><time>2026-05-02T17:12:27.351Z</time></trkpt><trkpt lat="44.2789683" lon="8.0345933"><ele>511.0</ele><time>2026-05-02T17:12:28.352Z</time></trkpt><trkpt lat="44.279095" lon="8.0347267"><ele>511.0</ele><time>2026-05-02T17:12:29.351Z</time></trkpt><trkpt lat="44.2792133" lon="8.03487"><ele>511.0</ele><time>2026-05-02T17:12:30.351Z</time></trkpt><trkpt lat="44.279335" lon="8.035"><ele>511.0</ele><time>2026-05-02T17:12:31.353Z</time></trkpt><trkpt lat="44.2794667" lon="8.035115"><ele>509.6666666666667</ele><time>2026-05-02T17:12:32.351Z</time></trkpt><trkpt lat="44.2796283" lon="8.0351917"><ele>508.33333333333337</ele><time>2026-05-02T17:12:33.35Z</time></trkpt><trkpt lat="44.27981" lon="8.03522"><ele>507.0</ele><time>2026-05-02T17:12:34.352Z</time></trkpt><trkpt lat="44.2799967" lon="8.0351983"><ele>507.0</ele><time>2026-05-02T17:12:35.351Z</time></trkpt><trkpt lat="44.2801833" lon="8.0351233"><ele>507.0</ele><time>2026-05-02T17:12:36.352Z</time></trkpt><trkpt lat="44.2803617" lon="8.035005"><ele>507.0</ele><time>2026-05-02T17:12:37.354Z</time></trkpt><trkpt lat="44.2805417" lon="8.0348583"><ele>507.66666666666663</ele><time>2026-05-02T17:12:38.351Z</time></trkpt><trkpt lat="44.2807283" lon="8.0347033"><ele>508.3333333333333</ele><time>2026-05-02T17:12:39.354Z</time></trkpt><trkpt lat="44.2809233" lon="8.0345433"><ele>509.0</ele><time>2026-05-02T17:12:40.354Z</time></trkpt><trkpt lat="44.28113" lon="8.034365"><ele>509.0</ele><time>2026-05-02T17:12:41.354Z</time></trkpt><trkpt lat="44.281345" lon="8.0341733"><ele>509.0</ele><time>2026-05-02T17:12:42.354Z</time></trkpt><trkpt lat="44.2815533" lon="8.033985"><ele>519.5</ele><time>2026-05-02T17:12:43.35Z</time></trkpt><trkpt lat="44.2817567" lon="8.033805"><ele>530.0</ele><time>2026-05-02T17:12:44.351Z</time></trkpt><trkpt lat="44.2819533" lon="8.0336167"><ele>530.0</ele><time>2026-05-02T17:12:45.352Z</time></trkpt><trkpt lat="44.282155" lon="8.0334183"><ele>530.0</ele><time>2026-05-02T17:12:46.356Z</time></trkpt><trkpt lat="44.282375" lon="8.0332333"><ele>531.5</ele><time>2026-05-02T17:12:47.354Z</time></trkpt><trkpt lat="44.28261" lon="8.033075"><ele>533.0</ele><time>2026-05-02T17:12:48.353Z</time></trkpt><trkpt lat="44.2828533" lon="8.0329367"><ele>533.0</ele><time>2026-05-02T17:12:49.355Z</time></trkpt><trkpt lat="44.2830967" lon="8.0328283"><ele>533.0</ele><time>2026-05-02T17:12:50.352Z</time></trkpt><trkpt lat="44.2833433" lon="8.0327517"><ele>521.5</ele><time>2026-05-02T17:12:51.356Z</time></trkpt><trkpt lat="44.283585" lon="8.0327117"><ele>510.0</ele><time>2026-05-02T17:12:52.352Z</time></trkpt><trkpt lat="44.2838267" lon="8.032715"><ele>511.0</ele><time>2026-05-02T17:12:53.354Z</time></trkpt><trkpt lat="44.2840683" lon="8.0327483"><ele>512.0</ele><time>2026-05-02T17:12:54.355Z</time></trkpt><trkpt lat="44.2843017" lon="8.03278"><ele>512.0</ele><time>2026-05-02T17:12:55.351Z</time></trkpt><trkpt lat="44.2845267" lon="8.0327767"><ele>512.0</ele><time>2026-05-02T17:12:56.354Z</time></trkpt><trkpt lat="44.284755" lon="8.03274"><ele>512.0</ele><time>2026-05-02T17:12:57.352Z</time></trkpt><trkpt lat="44.2849767" lon="8.032715"><ele>512.0</ele><time>2026-05-02T17:12:58.351Z</time></trkpt><trkpt lat="44.2851983" lon="8.032725"><ele>512.0</ele><time>2026-05-02T17:12:59.354Z</time></trkpt><trkpt lat="44.2854133" lon="8.03277"><ele>512.5</ele><time>2026-05-02T17:13:00.349Z</time></trkpt><trkpt lat="44.2856367" lon="8.0328467"><ele>513.0</ele><time>2026-05-02T17:13:01.354Z</time></trkpt><trkpt lat="44.2858667" lon="8.03293"><ele>513.0</ele><time>2026-05-02T17:13:02.351Z</time></trkpt><trkpt lat="44.286105" lon="8.03301"><ele>513.0</ele><time>2026-05-02T17:13:03.355Z</time></trkpt><trkpt lat="44.2863483" lon="8.0330817"><ele>516.0</ele><time>2026-05-02T17:13:04.356Z</time></trkpt><trkpt lat="44.286595" lon="8.0331433"><ele>519.0</ele><time>2026-05-02T17:13:05.352Z</time></trkpt><trkpt lat="44.2868467" lon="8.0331983"><ele>519.0</ele><time>2026-05-02T17:13:06.357Z</time></trkpt><trkpt lat="44.2871" lon="8.0332617"><ele>519.0</ele><time>2026-05-02T17:13:07.353Z</time></trkpt><trkpt lat="44.2873567" lon="8.03333"><ele>511.0</ele><time>2026-05-02T17:13:08.357Z</time></trkpt><trkpt lat="44.287615" lon="8.0334083"><ele>503.0</ele><time>2026-05-02T17:13:09.361Z</time></trkpt><trkpt lat="44.287865" lon="8.0335083"><ele>505.0</ele><time>2026-05-02T17:13:10.351Z</time></trkpt><trkpt lat="44.288115" lon="8.0336383"><ele>507.0</ele><time>2026-05-02T17:13:11.349Z</time></trkpt><trkpt lat="44.2883683" lon="8.0337667"><ele>507.0</ele><time>2026-05-02T17:13:12.352Z</time></trkpt><trkpt lat="44.2886167" lon="8.0339017"><ele>507.0</ele><time>2026-05-02T17:13:13.352Z</time></trkpt><trkpt lat="44.2888683" lon="8.034025"><ele>501.5</ele><time>2026-05-02T17:13:14.351Z</time></trkpt><trkpt lat="44.2891183" lon="8.0341383"><ele>496.0</ele><time>2026-05-02T17:13:15.354Z</time></trkpt><trkpt lat="44.2893717" lon="8.034245"><ele>496.0</ele><time>2026-05-02T17:13:16.35Z</time></trkpt><trkpt lat="44.2896267" lon="8.03435"><ele>496.0</ele><time>2026-05-02T17:13:17.353Z</time></trkpt><trkpt lat="44.2898817" lon="8.0344517"><ele>496.5</ele><time>2026-05-02T17:13:18.353Z</time></trkpt><trkpt lat="44.2901383" lon="8.034555"><ele>497.0</ele><time>2026-05-02T17:13:19.354Z</time></trkpt><trkpt lat="44.2903967" lon="8.0346583"><ele>498.0</ele><time>2026-05-02T17:13:20.355Z</time></trkpt><trkpt lat="44.290655" lon="8.03476"><ele>499.0</ele><time>2026-05-02T17:13:21.353Z</time></trkpt><trkpt lat="44.2909133" lon="8.0348617"><ele>499.0</ele><time>2026-05-02T17:13:22.354Z</time></trkpt><trkpt lat="44.29117" lon="8.0349667"><ele>499.0</ele><time>2026-05-02T17:13:23.355Z</time></trkpt><trkpt lat="44.2914283" lon="8.035075"><ele>497.5</ele><time>2026-05-02T17:13:24.354Z</time></trkpt><trkpt lat="44.291685" lon="8.0351867"><ele>496.0</ele><time>2026-05-02T17:13:25.356Z</time></trkpt><trkpt lat="44.2919417" lon="8.0353"><ele>496.0</ele><time>2026-05-02T17:13:26.353Z</time></trkpt><trkpt lat="44.2921983" lon="8.0354083"><ele>496.0</ele><time>2026-05-02T17:13:27.354Z</time></trkpt><trkpt lat="44.2924517" lon="8.0355167"><ele>497.0</ele><time>2026-05-02T17:13:28.353Z</time></trkpt><trkpt lat="44.2927017" lon="8.0356133"><ele>498.0</ele><time>2026-05-02T17:13:29.352Z</time></trkpt><trkpt lat="44.2929417" lon="8.0357033"><ele>497.0</ele><time>2026-05-02T17:13:30.354Z</time></trkpt><trkpt lat="44.293165" lon="8.0357983"><ele>496.0</ele><time>2026-05-02T17:13:31.352Z</time></trkpt><trkpt lat="44.2933767" lon="8.0359"><ele>496.0</ele><time>2026-05-02T17:13:32.355Z</time></trkpt><trkpt lat="44.2935717" lon="8.03602"><ele>496.0</ele><time>2026-05-02T17:13:33.353Z</time></trkpt><trkpt lat="44.293755" lon="8.03617"><ele>496.0</ele><time>2026-05-02T17:13:34.357Z</time></trkpt><trkpt lat="44.29392" lon="8.0363583"><ele>495.5</ele><time>2026-05-02T17:13:35.353Z</time></trkpt><trkpt lat="44.2940717" lon="8.0365883"><ele>495.0</ele><time>2026-05-02T17:13:36.355Z</time></trkpt><trkpt lat="44.294215" lon="8.03684"><ele>495.0</ele><time>2026-05-02T17:13:37.352Z</time></trkpt><trkpt lat="44.2943583" lon="8.0371067"><ele>495.0</ele><time>2026-05-02T17:13:38.359Z</time></trkpt><trkpt lat="44.2945067" lon="8.0373833"><ele>495.0</ele><time>2026-05-02T17:13:39.353Z</time></trkpt><trkpt lat="44.2946583" lon="8.0376683"><ele>495.0</ele><time>2026-05-02T17:13:40.356Z</time></trkpt><trkpt lat="44.2948133" lon="8.0379633"><ele>495.0</ele><time>2026-05-02T17:13:41.354Z</time></trkpt><trkpt lat="44.2949733" lon="8.0382583"><ele>495.0</ele><time>2026-05-02T17:13:42.351Z</time></trkpt><trkpt lat="44.295135" lon="8.0385567"><ele>493.5</ele><time>2026-05-02T17:13:43.354Z</time></trkpt><trkpt lat="44.2953017" lon="8.0388567"><ele>492.0</ele><time>2026-05-02T17:13:44.353Z</time></trkpt><trkpt lat="44.295465" lon="8.039155"><ele>497.5</ele><time>2026-05-02T17:13:45.353Z</time></trkpt><trkpt lat="44.2956283" lon="8.0394583"><ele>503.0</ele><time>2026-05-02T17:13:46.351Z</time></trkpt><trkpt lat="44.2957883" lon="8.0397633"><ele>497.5</ele><time>2026-05-02T17:13:47.351Z</time></trkpt><trkpt lat="44.2959383" lon="8.0400783"><ele>492.0</ele><time>2026-05-02T17:13:48.349Z</time></trkpt><trkpt lat="44.2960683" lon="8.040405"><ele>492.0</ele><time>2026-05-02T17:13:49.353Z</time></trkpt><trkpt lat="44.2961867" lon="8.0407317"><ele>492.0</ele><time>2026-05-02T17:13:50.351Z</time></trkpt><trkpt lat="44.2963017" lon="8.0410483"><ele>490.0</ele><time>2026-05-02T17:13:51.352Z</time></trkpt><trkpt lat="44.2964133" lon="8.0413433"><ele>488.0</ele><time>2026-05-02T17:13:52.351Z</time></trkpt><trkpt lat="44.2965283" lon="8.0416083"><ele>490.0</ele><time>2026-05-02T17:13:53.354Z</time></trkpt><trkpt lat="44.29665" lon="8.0418417"><ele>492.0</ele><time>2026-05-02T17:13:54.35Z</time></trkpt><trkpt lat="44.29679" lon="8.0420433"><ele>494.0</ele><time>2026-05-02T17:13:55.355Z</time></trkpt><trkpt lat="44.29695" lon="8.0422083"><ele>494.0</ele><time>2026-05-02T17:13:56.352Z</time></trkpt><trkpt lat="44.297115" lon="8.0423517"><ele>494.0</ele><time>2026-05-02T17:13:57.353Z</time></trkpt><trkpt lat="44.2972783" lon="8.0424767"><ele>494.0</ele><time>2026-05-02T17:13:58.356Z</time></trkpt><trkpt lat="44.2974433" lon="8.0425783"><ele>493.3333333333333</ele><time>2026-05-02T17:13:59.349Z</time></trkpt><trkpt lat="44.2976067" lon="8.0426633"><ele>492.66666666666663</ele><time>2026-05-02T17:14:00.354Z</time></trkpt><trkpt lat="44.2977667" lon="8.04276"><ele>492.0</ele><time>2026-05-02T17:14:01.354Z</time></trkpt><trkpt lat="44.29792" lon="8.042875"><ele>492.0</ele><time>2026-05-02T17:14:02.353Z</time></trkpt><trkpt lat="44.2980717" lon="8.0430033"><ele>492.0</ele><time>2026-05-02T17:14:03.354Z</time></trkpt><trkpt lat="44.2982267" lon="8.043135"><ele>492.0</ele><time>2026-05-02T17:14:04.354Z</time></trkpt><trkpt lat="44.2983733" lon="8.04327"><ele>491.33333333333337</ele><time>2026-05-02T17:14:05.354Z</time></trkpt><trkpt lat="44.29851" lon="8.04342"><ele>490.6666666666667</ele><time>2026-05-02T17:14:06.355Z</time></trkpt><trkpt lat="44.2986333" lon="8.0435917"><ele>490.0</ele><time>2026-05-02T17:14:07.354Z</time></trkpt><trkpt lat="44.2987433" lon="8.0437817"><ele>490.0</ele><time>2026-05-02T17:14:08.353Z</time></trkpt><trkpt lat="44.2988383" lon="8.0439767"><ele>490.0</ele><time>2026-05-02T17:14:09.356Z</time></trkpt><trkpt lat="44.298925" lon="8.04417"><ele>490.0</ele><time>2026-05-02T17:14:10.354Z</time></trkpt><trkpt lat="44.2990067" lon="8.044355"><ele>490.0</ele><time>2026-05-02T17:14:11.352Z</time></trkpt><trkpt lat="44.299085" lon="8.0445383"><ele>490.0</ele><time>2026-05-02T17:14:12.354Z</time></trkpt><trkpt lat="44.2991617" lon="8.044715"><ele>490.0</ele><time>2026-05-02T17:14:13.35Z</time></trkpt><trkpt lat="44.2992517" lon="8.044865"><ele>490.0</ele><time>2026-05-02T17:14:14.351Z</time></trkpt><trkpt lat="44.2993667" lon="8.0449783"><ele>489.75</ele><time>2026-05-02T17:14:15.352Z</time></trkpt><trkpt lat="44.2995033" lon="8.0450583"><ele>489.5</ele><time>2026-05-02T17:14:16.352Z</time></trkpt><trkpt lat="44.2996483" lon="8.04511"><ele>489.25</ele><time>2026-05-02T17:14:17.354Z</time></trkpt><trkpt lat="44.299795" lon="8.0451367"><ele>489.0</ele><time>2026-05-02T17:14:18.354Z</time></trkpt><trkpt lat="44.299945" lon="8.0451267"><ele>489.0</ele><time>2026-05-02T17:14:19.354Z</time></trkpt><trkpt lat="44.3000983" lon="8.0450767"><ele>489.0</ele><time>2026-05-02T17:14:20.351Z</time></trkpt><trkpt lat="44.3002517" lon="8.044995"><ele>489.0</ele><time>2026-05-02T17:14:21.353Z</time></trkpt><trkpt lat="44.3004033" lon="8.0448983"><ele>489.0</ele><time>2026-05-02T17:14:22.352Z</time></trkpt><trkpt lat="44.3005567" lon="8.0447983"><ele>489.0</ele><time>2026-05-02T17:14:23.354Z</time></trkpt><trkpt lat="44.3007133" lon="8.044705"><ele>489.0</ele><time>2026-05-02T17:14:24.352Z</time></trkpt><trkpt lat="44.3008733" lon="8.0446167"><ele>490.33333333333337</ele><time>2026-05-02T17:14:25.351Z</time></trkpt><trkpt lat="44.301035" lon="8.0445283"><ele>491.6666666666667</ele><time>2026-05-02T17:14:26.353Z</time></trkpt><trkpt lat="44.3012" lon="8.0444433"><ele>493.0</ele><time>2026-05-02T17:14:27.35Z</time></trkpt><trkpt lat="44.3013683" lon="8.0443617"><ele>493.0</ele><time>2026-05-02T17:14:28.353Z</time></trkpt><trkpt lat="44.3015383" lon="8.0443"><ele>493.0</ele><time>2026-05-02T17:14:29.35Z</time></trkpt><trkpt lat="44.3017017" lon="8.0442667"><ele>493.0</ele><time>2026-05-02T17:14:30.355Z</time></trkpt><trkpt lat="44.3018583" lon="8.0442683"><ele>493.0</ele><time>2026-05-02T17:14:31.353Z</time></trkpt><trkpt lat="44.3020033" lon="8.0443017"><ele>493.0</ele><time>2026-05-02T17:14:32.352Z</time></trkpt><trkpt lat="44.3021433" lon="8.044355"><ele>493.0</ele><time>2026-05-02T17:14:33.354Z</time></trkpt><trkpt lat="44.302285" lon="8.044415"><ele>493.0</ele><time>2026-05-02T17:14:34.353Z</time></trkpt><trkpt lat="44.3024317" lon="8.0444733"><ele>493.33333333333337</ele><time>2026-05-02T17:14:35.357Z</time></trkpt><trkpt lat="44.3025783" lon="8.0445317"><ele>493.66666666666663</ele><time>2026-05-02T17:14:36.353Z</time></trkpt><trkpt lat="44.3027317" lon="8.044595"><ele>494.0</ele><time>2026-05-02T17:14:37.353Z</time></trkpt><trkpt lat="44.302885" lon="8.0446583"><ele>494.0</ele><time>2026-05-02T17:14:38.355Z</time></trkpt><trkpt lat="44.3030417" lon="8.04472"><ele>494.0</ele><time>2026-05-02T17:14:39.353Z</time></trkpt><trkpt lat="44.3031967" lon="8.044785"><ele>494.0</ele><time>2026-05-02T17:14:40.355Z</time></trkpt><trkpt lat="44.3033567" lon="8.0448483"><ele>494.0</ele><time>2026-05-02T17:14:41.354Z</time></trkpt><trkpt lat="44.30351" lon="8.0449133"><ele>494.0</ele><time>2026-05-02T17:14:42.354Z</time></trkpt><trkpt lat="44.3036717" lon="8.0449733"><ele>494.0</ele><time>2026-05-02T17:14:43.351Z</time></trkpt><trkpt lat="44.3038283" lon="8.04503"><ele>492.0</ele><time>2026-05-02T17:14:44.357Z</time></trkpt><trkpt lat="44.30398" lon="8.0450867"><ele>490.0</ele><time>2026-05-02T17:14:45.355Z</time></trkpt><trkpt lat="44.3041333" lon="8.0451417"><ele>488.0</ele><time>2026-05-02T17:14:46.354Z</time></trkpt><trkpt lat="44.30428" lon="8.045195"><ele>488.0</ele><time>2026-05-02T17:14:47.35Z</time></trkpt><trkpt lat="44.3044233" lon="8.0452483"><ele>488.0</ele><time>2026-05-02T17:14:48.353Z</time></trkpt><trkpt lat="44.30456" lon="8.0453067"><ele>488.0</ele><time>2026-05-02T17:14:49.354Z</time></trkpt><trkpt lat="44.304695" lon="8.0453567"><ele>488.0</ele><time>2026-05-02T17:14:50.354Z</time></trkpt><trkpt lat="44.30483" lon="8.0454083"><ele>487.5</ele><time>2026-05-02T17:14:51.356Z</time></trkpt><trkpt lat="44.3049667" lon="8.0454633"><ele>487.0</ele><time>2026-05-02T17:14:52.353Z</time></trkpt><trkpt lat="44.3051083" lon="8.0455183"><ele>486.5</ele><time>2026-05-02T17:14:53.35Z</time></trkpt><trkpt lat="44.305255" lon="8.0455667"><ele>486.0</ele><time>2026-05-02T17:14:54.352Z</time></trkpt><trkpt lat="44.3054017" lon="8.04562"><ele>486.0</ele><time>2026-05-02T17:14:55.353Z</time></trkpt><trkpt lat="44.3055517" lon="8.0456783"><ele>486.0</ele><time>2026-05-02T17:14:56.352Z</time></trkpt><trkpt lat="44.305705" lon="8.0457317"><ele>486.0</ele><time>2026-05-02T17:14:57.351Z</time></trkpt><trkpt lat="44.3058617" lon="8.04579"><ele>486.0</ele><time>2026-05-02T17:14:58.35Z</time></trkpt><trkpt lat="44.3060183" lon="8.0458517"><ele>486.0</ele><time>2026-05-02T17:14:59.353Z</time></trkpt><trkpt lat="44.306175" lon="8.0459133"><ele>486.0</ele><time>2026-05-02T17:15:00.354Z</time></trkpt><trkpt lat="44.3063333" lon="8.0459767"><ele>486.33333333333337</ele><time>2026-05-02T17:15:01.354Z</time></trkpt><trkpt lat="44.3064917" lon="8.0460383"><ele>486.6666666666667</ele><time>2026-05-02T17:15:02.352Z</time></trkpt><trkpt lat="44.30665" lon="8.0460983"><ele>487.0</ele><time>2026-05-02T17:15:03.353Z</time></trkpt><trkpt lat="44.3068067" lon="8.0461583"><ele>487.0</ele><time>2026-05-02T17:15:04.351Z</time></trkpt><trkpt lat="44.3069683" lon="8.0462167"><ele>487.0</ele><time>2026-05-02T17:15:05.354Z</time></trkpt><trkpt lat="44.307135" lon="8.046275"><ele>487.0</ele><time>2026-05-02T17:15:06.353Z</time></trkpt><trkpt lat="44.3073017" lon="8.04633"><ele>488.0</ele><time>2026-05-02T17:15:07.349Z</time></trkpt><trkpt lat="44.30747" lon="8.0463917"><ele>489.0</ele><time>2026-05-02T17:15:08.354Z</time></trkpt><trkpt lat="44.307645" lon="8.04644"><ele>490.0</ele><time>2026-05-02T17:15:09.351Z</time></trkpt><trkpt lat="44.3078167" lon="8.0465067"><ele>490.0</ele><time>2026-05-02T17:15:10.355Z</time></trkpt><trkpt lat="44.3079933" lon="8.0465833"><ele>490.0</ele><time>2026-05-02T17:15:11.361Z</time></trkpt><trkpt lat="44.3081767" lon="8.0466567"><ele>490.0</ele><time>2026-05-02T17:15:12.354Z</time></trkpt><trkpt lat="44.3083683" lon="8.046735"><ele>488.33333333333337</ele><time>2026-05-02T17:15:13.352Z</time></trkpt><trkpt lat="44.3085633" lon="8.0468133"><ele>486.66666666666663</ele><time>2026-05-02T17:15:14.352Z</time></trkpt><trkpt lat="44.308765" lon="8.04689"><ele>485.0</ele><time>2026-05-02T17:15:15.352Z</time></trkpt><trkpt lat="44.3089717" lon="8.0469717"><ele>484.66666666666663</ele><time>2026-05-02T17:15:16.351Z</time></trkpt><trkpt lat="44.3091833" lon="8.0470533"><ele>484.33333333333337</ele><time>2026-05-02T17:15:17.351Z</time></trkpt><trkpt lat="44.3093983" lon="8.0471367"><ele>484.0</ele><time>2026-05-02T17:15:18.355Z</time></trkpt><trkpt lat="44.3096167" lon="8.0472217"><ele>485.0</ele><time>2026-05-02T17:15:19.351Z</time></trkpt><trkpt lat="44.3098317" lon="8.047305"><ele>486.0</ele><time>2026-05-02T17:15:20.353Z</time></trkpt><trkpt lat="44.3100467" lon="8.0473883"><ele>487.0</ele><time>2026-05-02T17:15:21.351Z</time></trkpt><trkpt lat="44.3102567" lon="8.04747"><ele>485.6666666666667</ele><time>2026-05-02T17:15:22.354Z</time></trkpt><trkpt lat="44.3104617" lon="8.0475483"><ele>484.33333333333337</ele><time>2026-05-02T17:15:23.35Z</time></trkpt><trkpt lat="44.3106633" lon="8.047625"><ele>483.0</ele><time>2026-05-02T17:15:24.351Z</time></trkpt><trkpt lat="44.310865" lon="8.0477017"><ele>483.0</ele><time>2026-05-02T17:15:25.357Z</time></trkpt><trkpt lat="44.3110633" lon="8.0477783"><ele>483.0</ele><time>2026-05-02T17:15:26.354Z</time></trkpt><trkpt lat="44.3112617" lon="8.0478517"><ele>483.0</ele><time>2026-05-02T17:15:27.355Z</time></trkpt><trkpt lat="44.31146" lon="8.0479267"><ele>482.66666666666663</ele><time>2026-05-02T17:15:28.353Z</time></trkpt><trkpt lat="44.311655" lon="8.0480033"><ele>482.3333333333333</ele><time>2026-05-02T17:15:29.351Z</time></trkpt><trkpt lat="44.311845" lon="8.0480767"><ele>482.0</ele><time>2026-05-02T17:15:30.354Z</time></trkpt><trkpt lat="44.3120283" lon="8.04815"><ele>482.0</ele><time>2026-05-02T17:15:31.351Z</time></trkpt><trkpt lat="44.31221" lon="8.0482217"><ele>482.0</ele><time>2026-05-02T17:15:32.353Z</time></trkpt><trkpt lat="44.3123933" lon="8.048295"><ele>482.0</ele><time>2026-05-02T17:15:33.353Z</time></trkpt><trkpt lat="44.31258" lon="8.0483633"><ele>481.0</ele><time>2026-05-02T17:15:34.35Z</time></trkpt><trkpt lat="44.3127633" lon="8.048435"><ele>480.0</ele><time>2026-05-02T17:15:35.353Z</time></trkpt><trkpt lat="44.31295" lon="8.0485083"><ele>479.0</ele><time>2026-05-02T17:15:36.35Z</time></trkpt><trkpt lat="44.3131383" lon="8.04858"><ele>478.66666666666663</ele><time>2026-05-02T17:15:37.35Z</time></trkpt><trkpt lat="44.3133267" lon="8.0486517"><ele>478.33333333333337</ele><time>2026-05-02T17:15:38.349Z</time></trkpt><trkpt lat="44.313515" lon="8.0487217"><ele>478.0</ele><time>2026-05-02T17:15:39.355Z</time></trkpt><trkpt lat="44.3137083" lon="8.0487917"><ele>478.0</ele><time>2026-05-02T17:15:40.354Z</time></trkpt><trkpt lat="44.3139017" lon="8.0488633"><ele>478.0</ele><time>2026-05-02T17:15:41.353Z</time></trkpt><trkpt lat="44.3140983" lon="8.0489383"><ele>478.0</ele><time>2026-05-02T17:15:42.353Z</time></trkpt><trkpt lat="44.314305" lon="8.0490167"><ele>477.5</ele><time>2026-05-02T17:15:43.354Z</time></trkpt><trkpt lat="44.3145183" lon="8.0490933"><ele>477.0</ele><time>2026-05-02T17:15:44.35Z</time></trkpt><trkpt lat="44.3147433" lon="8.0491683"><ele>478.0</ele><time>2026-05-02T17:15:45.354Z</time></trkpt><trkpt lat="44.3149783" lon="8.0492483"><ele>479.0</ele><time>2026-05-02T17:15:46.355Z</time></trkpt><trkpt lat="44.3152167" lon="8.0493367"><ele>479.0</ele><time>2026-05-02T17:15:47.352Z</time></trkpt><trkpt lat="44.31546" lon="8.0494317"><ele>479.0</ele><time>2026-05-02T17:15:48.354Z</time></trkpt><trkpt lat="44.3157133" lon="8.0495283"><ele>480.5</ele><time>2026-05-02T17:15:49.351Z</time></trkpt><trkpt lat="44.3159733" lon="8.0496267"><ele>482.0</ele><time>2026-05-02T17:15:50.353Z</time></trkpt><trkpt lat="44.31624" lon="8.0497233"><ele>481.5</ele><time>2026-05-02T17:15:51.354Z</time></trkpt><trkpt lat="44.3165" lon="8.04982"><ele>481.0</ele><time>2026-05-02T17:15:52.355Z</time></trkpt><trkpt lat="44.316755" lon="8.0499183"><ele>480.0</ele><time>2026-05-02T17:15:53.349Z</time></trkpt><trkpt lat="44.3170033" lon="8.0500233"><ele>479.0</ele><time>2026-05-02T17:15:54.354Z</time></trkpt><trkpt lat="44.3172483" lon="8.0501283"><ele>478.5</ele><time>2026-05-02T17:15:55.351Z</time></trkpt><trkpt lat="44.3174917" lon="8.0502267"><ele>478.0</ele><time>2026-05-02T17:15:56.355Z</time></trkpt><trkpt lat="44.317735" lon="8.05032"><ele>478.0</ele><time>2026-05-02T17:15:57.351Z</time></trkpt><trkpt lat="44.31798" lon="8.0504117"><ele>478.0</ele><time>2026-05-02T17:15:58.351Z</time></trkpt><trkpt lat="44.318225" lon="8.0505033"><ele>478.5</ele><time>2026-05-02T17:15:59.352Z</time></trkpt><trkpt lat="44.31847" lon="8.0505933"><ele>479.0</ele><time>2026-05-02T17:16:00.352Z</time></trkpt><trkpt lat="44.3187167" lon="8.0506767"><ele>477.0</ele><time>2026-05-02T17:16:01.353Z</time></trkpt><trkpt lat="44.31897" lon="8.0507533"><ele>475.0</ele><time>2026-05-02T17:16:02.351Z</time></trkpt><trkpt lat="44.319225" lon="8.05082"><ele>475.0</ele><time>2026-05-02T17:16:03.354Z</time></trkpt><trkpt lat="44.319485" lon="8.05088"><ele>475.0</ele><time>2026-05-02T17:16:04.356Z</time></trkpt><trkpt lat="44.319745" lon="8.0509367"><ele>474.0</ele><time>2026-05-02T17:16:05.353Z</time></trkpt><trkpt lat="44.3200017" lon="8.0509983"><ele>473.0</ele><time>2026-05-02T17:16:06.353Z</time></trkpt><trkpt lat="44.3202583" lon="8.0510583"><ele>473.0</ele><time>2026-05-02T17:16:07.35Z</time></trkpt><trkpt lat="44.3205183" lon="8.0511133"><ele>473.0</ele><time>2026-05-02T17:16:08.352Z</time></trkpt><trkpt lat="44.3207783" lon="8.0511717"><ele>472.0</ele><time>2026-05-02T17:16:09.356Z</time></trkpt><trkpt lat="44.3210383" lon="8.0512317"><ele>471.0</ele><time>2026-05-02T17:16:10.353Z</time></trkpt><trkpt lat="44.3213" lon="8.0512933"><ele>472.0</ele><time>2026-05-02T17:16:11.354Z</time></trkpt><trkpt lat="44.32157" lon="8.0513483"><ele>473.0</ele><time>2026-05-02T17:16:12.353Z</time></trkpt><trkpt lat="44.3218417" lon="8.051405"><ele>473.0</ele><time>2026-05-02T17:16:13.353Z</time></trkpt><trkpt lat="44.3221133" lon="8.051465"><ele>473.0</ele><time>2026-05-02T17:16:14.352Z</time></trkpt><trkpt lat="44.3223833" lon="8.051525"><ele>473.5</ele><time>2026-05-02T17:16:15.351Z</time></trkpt><trkpt lat="44.3226533" lon="8.0515817"><ele>474.0</ele><time>2026-05-02T17:16:16.353Z</time></trkpt><trkpt lat="44.32293" lon="8.0516367"><ele>471.5</ele><time>2026-05-02T17:16:17.353Z</time></trkpt><trkpt lat="44.3232067" lon="8.0516917"><ele>469.0</ele><time>2026-05-02T17:16:18.35Z</time></trkpt><trkpt lat="44.32348" lon="8.0517533"><ele>469.0</ele><time>2026-05-02T17:16:19.353Z</time></trkpt><trkpt lat="44.3237533" lon="8.05182"><ele>469.0</ele><time>2026-05-02T17:16:20.352Z</time></trkpt><trkpt lat="44.324025" lon="8.0518883"><ele>468.5</ele><time>2026-05-02T17:16:21.353Z</time></trkpt><trkpt lat="44.324295" lon="8.0519533"><ele>468.0</ele><time>2026-05-02T17:16:22.355Z</time></trkpt><trkpt lat="44.324565" lon="8.0520167"><ele>467.0</ele><time>2026-05-02T17:16:23.353Z</time></trkpt><trkpt lat="44.3248383" lon="8.0520767"><ele>466.0</ele><time>2026-05-02T17:16:24.354Z</time></trkpt><trkpt lat="44.3251117" lon="8.0521367"><ele>466.0</ele><time>2026-05-02T17:16:25.352Z</time></trkpt><trkpt lat="44.3253833" lon="8.0521967"><ele>466.0</ele><time>2026-05-02T17:16:26.354Z</time></trkpt><trkpt lat="44.3256533" lon="8.0522583"><ele>465.0</ele><time>2026-05-02T17:16:27.355Z</time></trkpt><trkpt lat="44.3259283" lon="8.05232"><ele>464.0</ele><time>2026-05-02T17:16:28.354Z</time></trkpt><trkpt lat="44.3262033" lon="8.0523817"><ele>464.0</ele><time>2026-05-02T17:16:29.353Z</time></trkpt><trkpt lat="44.3264733" lon="8.0524433"><ele>464.0</ele><time>2026-05-02T17:16:30.349Z</time></trkpt><trkpt lat="44.326745" lon="8.0525033"><ele>464.0</ele><time>2026-05-02T17:16:31.354Z</time></trkpt><trkpt lat="44.3270217" lon="8.0525583"><ele>464.0</ele><time>2026-05-02T17:16:32.349Z</time></trkpt><trkpt lat="44.3273" lon="8.0526117"><ele>464.5</ele><time>2026-05-02T17:16:33.35Z</time></trkpt><trkpt lat="44.32758" lon="8.052675"><ele>465.0</ele><time>2026-05-02T17:16:34.351Z</time></trkpt><trkpt lat="44.3278583" lon="8.0527517"><ele>464.5</ele><time>2026-05-02T17:16:35.353Z</time></trkpt><trkpt lat="44.3281317" lon="8.0528317"><ele>464.0</ele><time>2026-05-02T17:16:36.353Z</time></trkpt><trkpt lat="44.3284083" lon="8.0529017"><ele>464.0</ele><time>2026-05-02T17:16:37.351Z</time></trkpt><trkpt lat="44.3286867" lon="8.052965"><ele>464.0</ele><time>2026-05-02T17:16:38.353Z</time></trkpt><trkpt lat="44.3289633" lon="8.0530267"><ele>464.5</ele><time>2026-05-02T17:16:39.35Z</time></trkpt><trkpt lat="44.32924" lon="8.05309"><ele>465.0</ele><time>2026-05-02T17:16:40.352Z</time></trkpt><trkpt lat="44.329515" lon="8.0531533"><ele>464.5</ele><time>2026-05-02T17:16:41.353Z</time></trkpt><trkpt lat="44.3297933" lon="8.0532133"><ele>464.0</ele><time>2026-05-02T17:16:42.354Z</time></trkpt><trkpt lat="44.3300667" lon="8.053275"><ele>463.0</ele><time>2026-05-02T17:16:43.357Z</time></trkpt><trkpt lat="44.33034" lon="8.0533333"><ele>462.0</ele><time>2026-05-02T17:16:44.354Z</time></trkpt><trkpt lat="44.3306117" lon="8.0533933"><ele>462.0</ele><time>2026-05-02T17:16:45.354Z</time></trkpt><trkpt lat="44.3308833" lon="8.0534517"><ele>462.0</ele><time>2026-05-02T17:16:46.349Z</time></trkpt><trkpt lat="44.3311533" lon="8.0535117"><ele>462.5</ele><time>2026-05-02T17:16:47.354Z</time></trkpt><trkpt lat="44.331425" lon="8.0535717"><ele>463.0</ele><time>2026-05-02T17:16:48.354Z</time></trkpt><trkpt lat="44.331695" lon="8.0536317"><ele>463.0</ele><time>2026-05-02T17:16:49.354Z</time></trkpt><trkpt lat="44.331965" lon="8.0536867"><ele>463.0</ele><time>2026-05-02T17:16:50.351Z</time></trkpt><trkpt lat="44.332235" lon="8.05374"><ele>465.5</ele><time>2026-05-02T17:16:51.357Z</time></trkpt><trkpt lat="44.332505" lon="8.0537933"><ele>468.0</ele><time>2026-05-02T17:16:52.351Z</time></trkpt><trkpt lat="44.3327767" lon="8.0538467"><ele>468.0</ele><time>2026-05-02T17:16:53.352Z</time></trkpt><trkpt lat="44.33304" lon="8.0539017"><ele>468.0</ele><time>2026-05-02T17:16:54.354Z</time></trkpt><trkpt lat="44.3332983" lon="8.053965"><ele>467.0</ele><time>2026-05-02T17:16:55.352Z</time></trkpt><trkpt lat="44.3335533" lon="8.054045"><ele>466.0</ele><time>2026-05-02T17:16:56.356Z</time></trkpt><trkpt lat="44.3338017" lon="8.0541417"><ele>466.0</ele><time>2026-05-02T17:16:57.354Z</time></trkpt><trkpt lat="44.3340417" lon="8.0542667"><ele>466.0</ele><time>2026-05-02T17:16:58.354Z</time></trkpt><trkpt lat="44.33427" lon="8.0544183"><ele>466.0</ele><time>2026-05-02T17:16:59.356Z</time></trkpt><trkpt lat="44.3344867" lon="8.0545967"><ele>466.0</ele><time>2026-05-02T17:17:00.351Z</time></trkpt><trkpt lat="44.3347" lon="8.0547883"><ele>465.0</ele><time>2026-05-02T17:17:01.353Z</time></trkpt><trkpt lat="44.3349067" lon="8.0549833"><ele>464.0</ele><time>2026-05-02T17:17:02.352Z</time></trkpt><trkpt lat="44.3351183" lon="8.055175"><ele>464.0</ele><time>2026-05-02T17:17:03.354Z</time></trkpt><trkpt lat="44.3353283" lon="8.0553683"><ele>464.0</ele><time>2026-05-02T17:17:04.353Z</time></trkpt><trkpt lat="44.3355367" lon="8.055565"><ele>464.0</ele><time>2026-05-02T17:17:05.351Z</time></trkpt><trkpt lat="44.3357467" lon="8.0557633"><ele>464.0</ele><time>2026-05-02T17:17:06.352Z</time></trkpt><trkpt lat="44.335955" lon="8.0559633"><ele>463.0</ele><time>2026-05-02T17:17:07.352Z</time></trkpt><trkpt lat="44.3361683" lon="8.0561617"><ele>462.0</ele><time>2026-05-02T17:17:08.352Z</time></trkpt><trkpt lat="44.33638" lon="8.05636"><ele>462.5</ele><time>2026-05-02T17:17:09.353Z</time></trkpt><trkpt lat="44.3365917" lon="8.0565583"><ele>463.0</ele><time>2026-05-02T17:17:10.351Z</time></trkpt><trkpt lat="44.3368033" lon="8.0567533"><ele>463.0</ele><time>2026-05-02T17:17:11.351Z</time></trkpt><trkpt lat="44.337005" lon="8.056945"><ele>463.0</ele><time>2026-05-02T17:17:12.353Z</time></trkpt><trkpt lat="44.3371983" lon="8.0571267"><ele>462.33333333333337</ele><time>2026-05-02T17:17:13.355Z</time></trkpt><trkpt lat="44.3373833" lon="8.0573"><ele>461.66666666666663</ele><time>2026-05-02T17:17:14.352Z</time></trkpt><trkpt lat="44.337555" lon="8.0574633"><ele>461.0</ele><time>2026-05-02T17:17:15.353Z</time></trkpt><trkpt lat="44.33772" lon="8.0576217"><ele>461.0</ele><time>2026-05-02T17:17:16.351Z</time></trkpt><trkpt lat="44.3378767" lon="8.0577733"><ele>461.0</ele><time>2026-05-02T17:17:17.353Z</time></trkpt><trkpt lat="44.3380267" lon="8.0579167"><ele>461.0</ele><time>2026-05-02T17:17:18.35Z</time></trkpt><trkpt lat="44.3381733" lon="8.058055"><ele>461.0</ele><time>2026-05-02T17:17:19.353Z</time></trkpt><trkpt lat="44.33831" lon="8.05819"><ele>461.0</ele><time>2026-05-02T17:17:20.353Z</time></trkpt><trkpt lat="44.3384467" lon="8.0583183"><ele>461.0</ele><time>2026-05-02T17:17:21.353Z</time></trkpt><trkpt lat="44.3385833" lon="8.05844"><ele>462.0</ele><time>2026-05-02T17:17:22.355Z</time></trkpt><trkpt lat="44.33872" lon="8.0585617"><ele>463.0</ele><time>2026-05-02T17:17:23.356Z</time></trkpt><trkpt lat="44.338855" lon="8.0586867"><ele>464.0</ele><time>2026-05-02T17:17:24.355Z</time></trkpt><trkpt lat="44.3389917" lon="8.0588133"><ele>464.0</ele><time>2026-05-02T17:17:25.354Z</time></trkpt><trkpt lat="44.3391317" lon="8.0589383"><ele>464.0</ele><time>2026-05-02T17:17:26.352Z</time></trkpt><trkpt lat="44.339275" lon="8.05906"><ele>464.0</ele><time>2026-05-02T17:17:27.354Z</time></trkpt><trkpt lat="44.33942" lon="8.0591767"><ele>465.3333333333333</ele><time>2026-05-02T17:17:28.355Z</time></trkpt><trkpt lat="44.3395717" lon="8.0592883"><ele>466.66666666666663</ele><time>2026-05-02T17:17:29.353Z</time></trkpt><trkpt lat="44.339725" lon="8.0593967"><ele>468.0</ele><time>2026-05-02T17:17:30.353Z</time></trkpt><trkpt lat="44.3398817" lon="8.059505"><ele>468.0</ele><time>2026-05-02T17:17:31.353Z</time></trkpt><trkpt lat="44.3400367" lon="8.0596117"><ele>468.0</ele><time>2026-05-02T17:17:32.351Z</time></trkpt><trkpt lat="44.3401933" lon="8.0597217"><ele>468.0</ele><time>2026-05-02T17:17:33.35Z</time></trkpt><trkpt lat="44.3403433" lon="8.0598333"><ele>468.0</ele><time>2026-05-02T17:17:34.35Z</time></trkpt><trkpt lat="44.3405" lon="8.05994"><ele>468.0</ele><time>2026-05-02T17:17:35.351Z</time></trkpt><trkpt lat="44.34065" lon="8.0600467"><ele>468.0</ele><time>2026-05-02T17:17:36.349Z</time></trkpt><trkpt lat="44.3408083" lon="8.060155"><ele>468.0</ele><time>2026-05-02T17:17:37.355Z</time></trkpt><trkpt lat="44.3409654" lon="8.0602657"><ele>468.0</ele><time>2026-05-02T17:17:38.353Z</time></trkpt><trkpt lat="44.341122" lon="8.0603778"><ele>468.0</ele><time>2026-05-02T17:17:39.353Z</time></trkpt><trkpt lat="44.341281" lon="8.0604863"><ele>466.0</ele><time>2026-05-02T17:17:40.353Z</time></trkpt><trkpt lat="44.3414394" lon="8.0605943"><ele>464.0</ele><time>2026-05-02T17:17:41.352Z</time></trkpt><trkpt lat="44.3415969" lon="8.0606997"><ele>462.0</ele><time>2026-05-02T17:17:42.353Z</time></trkpt><trkpt lat="44.341756" lon="8.0608083"><ele>462.0</ele><time>2026-05-02T17:17:43.351Z</time></trkpt><trkpt lat="44.3419112" lon="8.0609235"><ele>462.0</ele><time>2026-05-02T17:17:44.352Z</time></trkpt><trkpt lat="44.3420634" lon="8.0610401"><ele>462.0</ele><time>2026-05-02T17:17:45.355Z</time></trkpt><trkpt lat="44.3422121" lon="8.0611605"><ele>466.0</ele><time>2026-05-02T17:17:46.356Z</time></trkpt><trkpt lat="44.3423598" lon="8.0612825"><ele>470.0</ele><time>2026-05-02T17:17:47.355Z</time></trkpt><trkpt lat="44.3425075" lon="8.0614059"><ele>474.0</ele><time>2026-05-02T17:17:48.356Z</time></trkpt><trkpt lat="44.3426528" lon="8.0615343"><ele>471.0</ele><time>2026-05-02T17:17:49.357Z</time></trkpt><trkpt lat="44.342796" lon="8.0616615"><ele>468.0</ele><time>2026-05-02T17:17:50.355Z</time></trkpt><trkpt lat="44.3429427" lon="8.0617876"><ele>465.0</ele><time>2026-05-02T17:17:51.353Z</time></trkpt><trkpt lat="44.3430897" lon="8.0619131"><ele>465.0</ele><time>2026-05-02T17:17:52.354Z</time></trkpt><trkpt lat="44.3432349" lon="8.0620374"><ele>465.0</ele><time>2026-05-02T17:17:53.354Z</time></trkpt><trkpt lat="44.3433783" lon="8.0621551"><ele>465.0</ele><time>2026-05-02T17:17:54.355Z</time></trkpt><trkpt lat="44.3435221" lon="8.0622499"><ele>465.0</ele><time>2026-05-02T17:17:55.353Z</time></trkpt><trkpt lat="44.3436752" lon="8.0623067"><ele>465.0</ele><time>2026-05-02T17:17:56.361Z</time></trkpt><trkpt lat="44.343831" lon="8.0623153"><ele>465.0</ele><time>2026-05-02T17:17:57.354Z</time></trkpt><trkpt lat="44.343988" lon="8.0622748"><ele>463.0</ele><time>2026-05-02T17:17:58.352Z</time></trkpt><trkpt lat="44.3441355" lon="8.0621815"><ele>461.0</ele><time>2026-05-02T17:17:59.351Z</time></trkpt><trkpt lat="44.3442601" lon="8.0620356"><ele>459.0</ele><time>2026-05-02T17:18:00.353Z</time></trkpt><trkpt lat="44.3443659" lon="8.0618401"><ele>460.33333333333337</ele><time>2026-05-02T17:18:01.352Z</time></trkpt><trkpt lat="44.3444654" lon="8.0616049"><ele>461.6666666666667</ele><time>2026-05-02T17:18:02.354Z</time></trkpt><trkpt lat="44.3445737" lon="8.0613461"><ele>463.0</ele><time>2026-05-02T17:18:03.352Z</time></trkpt><trkpt lat="44.3446944" lon="8.0610705"><ele>458.5</ele><time>2026-05-02T17:18:04.353Z</time></trkpt><trkpt lat="44.3448224" lon="8.0607885"><ele>454.0</ele><time>2026-05-02T17:18:05.354Z</time></trkpt><trkpt lat="44.3449429" lon="8.0605233"><ele>453.33333333333337</ele><time>2026-05-02T17:18:06.351Z</time></trkpt><trkpt lat="44.3450578" lon="8.0602934"><ele>452.66666666666663</ele><time>2026-05-02T17:18:07.355Z</time></trkpt><trkpt lat="44.3451802" lon="8.0601003"><ele>452.0</ele><time>2026-05-02T17:18:08.349Z</time></trkpt><trkpt lat="44.3453245" lon="8.0599522"><ele>451.66666666666663</ele><time>2026-05-02T17:18:09.355Z</time></trkpt><trkpt lat="44.3454978" lon="8.0598534"><ele>451.33333333333337</ele><time>2026-05-02T17:18:10.352Z</time></trkpt><trkpt lat="44.3456908" lon="8.0597807"><ele>451.0</ele><time>2026-05-02T17:18:11.35Z</time></trkpt><trkpt lat="44.3458906" lon="8.0596956"><ele>449.6666666666667</ele><time>2026-05-02T17:18:12.357Z</time></trkpt><trkpt lat="44.3460909" lon="8.0595875"><ele>448.33333333333337</ele><time>2026-05-02T17:18:13.352Z</time></trkpt><trkpt lat="44.3462918" lon="8.059452"><ele>447.0</ele><time>2026-05-02T17:18:14.354Z</time></trkpt><trkpt lat="44.3464878" lon="8.0592756"><ele>449.5</ele><time>2026-05-02T17:18:15.356Z</time></trkpt><trkpt lat="44.3466803" lon="8.0590749"><ele>452.0</ele><time>2026-05-02T17:18:16.354Z</time></trkpt><trkpt lat="44.3468812" lon="8.0588505"><ele>452.0</ele><time>2026-05-02T17:18:17.35Z</time></trkpt><trkpt lat="44.3470892" lon="8.0586274"><ele>452.0</ele><time>2026-05-02T17:18:18.352Z</time></trkpt><trkpt lat="44.347306" lon="8.0584252"><ele>451.5</ele><time>2026-05-02T17:18:19.349Z</time></trkpt><trkpt lat="44.3475251" lon="8.058226"><ele>451.0</ele><time>2026-05-02T17:18:20.352Z</time></trkpt><trkpt lat="44.3477366" lon="8.0580215"><ele>451.0</ele><time>2026-05-02T17:18:21.352Z</time></trkpt><trkpt lat="44.3479382" lon="8.0578221"><ele>451.0</ele><time>2026-05-02T17:18:22.351Z</time></trkpt><trkpt lat="44.3481254" lon="8.0576259"><ele>451.6666666666667</ele><time>2026-05-02T17:18:23.353Z</time></trkpt><trkpt lat="44.3482876" lon="8.0574232"><ele>452.33333333333337</ele><time>2026-05-02T17:18:24.35Z</time></trkpt><trkpt lat="44.348421" lon="8.0572"><ele>453.0</ele><time>2026-05-02T17:18:25.351Z</time></trkpt><trkpt lat="44.3485313" lon="8.0569687"><ele>453.0</ele><time>2026-05-02T17:18:26.351Z</time></trkpt><trkpt lat="44.3486383" lon="8.0567613"><ele>453.0</ele><time>2026-05-02T17:18:27.354Z</time></trkpt><trkpt lat="44.3487593" lon="8.0565998"><ele>453.0</ele><time>2026-05-02T17:18:28.35Z</time></trkpt><trkpt lat="44.3489029" lon="8.0564942"><ele>452.66666666666663</ele><time>2026-05-02T17:18:29.354Z</time></trkpt><trkpt lat="44.3490668" lon="8.0564387"><ele>452.3333333333333</ele><time>2026-05-02T17:18:30.354Z</time></trkpt><trkpt lat="44.349249" lon="8.0564263"><ele>452.0</ele><time>2026-05-02T17:18:31.349Z</time></trkpt><trkpt lat="44.3494467" lon="8.0564403"><ele>452.0</ele><time>2026-05-02T17:18:32.351Z</time></trkpt><trkpt lat="44.3496566" lon="8.0564521"><ele>452.0</ele><time>2026-05-02T17:18:33.349Z</time></trkpt><trkpt lat="44.3498733" lon="8.0564396"><ele>452.0</ele><time>2026-05-02T17:18:34.354Z</time></trkpt><trkpt lat="44.3500955" lon="8.0564045"><ele>453.0</ele><time>2026-05-02T17:18:35.353Z</time></trkpt><trkpt lat="44.3503166" lon="8.0563619"><ele>454.0</ele><time>2026-05-02T17:18:36.351Z</time></trkpt><trkpt lat="44.3505319" lon="8.0563214"><ele>455.0</ele><time>2026-05-02T17:18:37.355Z</time></trkpt><trkpt lat="44.3507409" lon="8.0562774"><ele>455.0</ele><time>2026-05-02T17:18:38.351Z</time></trkpt><trkpt lat="44.3509435" lon="8.056232"><ele>455.0</ele><time>2026-05-02T17:18:39.348Z</time></trkpt><trkpt lat="44.3511392" lon="8.0561882"><ele>455.0</ele><time>2026-05-02T17:18:40.353Z</time></trkpt><trkpt lat="44.351324" lon="8.056145"><ele>457.3333333333333</ele><time>2026-05-02T17:18:41.353Z</time></trkpt><trkpt lat="44.3515006" lon="8.0561043"><ele>459.66666666666663</ele><time>2026-05-02T17:18:42.348Z</time></trkpt><trkpt lat="44.3516711" lon="8.0560673"><ele>462.0</ele><time>2026-05-02T17:18:43.353Z</time></trkpt><trkpt lat="44.3518359" lon="8.0560323"><ele>462.0</ele><time>2026-05-02T17:18:44.355Z</time></trkpt><trkpt lat="44.3519958" lon="8.055995"><ele>462.0</ele><time>2026-05-02T17:18:45.354Z</time></trkpt><trkpt lat="44.3521564" lon="8.0559545"><ele>462.0</ele><time>2026-05-02T17:18:46.353Z</time></trkpt><trkpt lat="44.3523176" lon="8.0559147"><ele>464.0</ele><time>2026-05-02T17:18:47.353Z</time></trkpt><trkpt lat="44.3524789" lon="8.0558797"><ele>466.0</ele><time>2026-05-02T17:18:48.351Z</time></trkpt><trkpt lat="44.3526418" lon="8.0558417"><ele>468.0</ele><time>2026-05-02T17:18:49.351Z</time></trkpt><trkpt lat="44.3528049" lon="8.0557939"><ele>466.33333333333337</ele><time>2026-05-02T17:18:50.35Z</time></trkpt><trkpt lat="44.3529645" lon="8.0557439"><ele>464.6666666666667</ele><time>2026-05-02T17:18:51.352Z</time></trkpt><trkpt lat="44.3531239" lon="8.0556907"><ele>463.0</ele><time>2026-05-02T17:18:52.351Z</time></trkpt><trkpt lat="44.353285" lon="8.0556377"><ele>463.0</ele><time>2026-05-02T17:18:53.353Z</time></trkpt><trkpt lat="44.3534451" lon="8.0555843"><ele>463.0</ele><time>2026-05-02T17:18:54.353Z</time></trkpt><trkpt lat="44.3536008" lon="8.0555224"><ele>463.0</ele><time>2026-05-02T17:18:55.351Z</time></trkpt><trkpt lat="44.3537404" lon="8.0554356"><ele>463.0</ele><time>2026-05-02T17:18:56.355Z</time></trkpt><trkpt lat="44.3538594" lon="8.0553087"><ele>463.0</ele><time>2026-05-02T17:18:57.353Z</time></trkpt><trkpt lat="44.353965" lon="8.0551538"><ele>463.0</ele><time>2026-05-02T17:18:58.353Z</time></trkpt><trkpt lat="44.3540709" lon="8.0549861"><ele>460.0</ele><time>2026-05-02T17:18:59.351Z</time></trkpt><trkpt lat="44.3541892" lon="8.0548338"><ele>457.0</ele><time>2026-05-02T17:19:00.354Z</time></trkpt><trkpt lat="44.3543312" lon="8.0547113"><ele>454.0</ele><time>2026-05-02T17:19:01.354Z</time></trkpt><trkpt lat="44.3544917" lon="8.0546132"><ele>454.0</ele><time>2026-05-02T17:19:02.352Z</time></trkpt><trkpt lat="44.3546709" lon="8.0545324"><ele>454.0</ele><time>2026-05-02T17:19:03.353Z</time></trkpt><trkpt lat="44.3548542" lon="8.0544525"><ele>454.0</ele><time>2026-05-02T17:19:04.355Z</time></trkpt><trkpt lat="44.3550343" lon="8.0543718"><ele>452.33333333333337</ele><time>2026-05-02T17:19:05.351Z</time></trkpt><trkpt lat="44.3552096" lon="8.054284"><ele>450.66666666666663</ele><time>2026-05-02T17:19:06.351Z</time></trkpt><trkpt lat="44.3553858" lon="8.0541879"><ele>449.0</ele><time>2026-05-02T17:19:07.352Z</time></trkpt><trkpt lat="44.3555594" lon="8.0540842"><ele>449.0</ele><time>2026-05-02T17:19:08.353Z</time></trkpt><trkpt lat="44.3557267" lon="8.0539771"><ele>449.0</ele><time>2026-05-02T17:19:09.351Z</time></trkpt><trkpt lat="44.3558864" lon="8.0538714"><ele>449.0</ele><time>2026-05-02T17:19:10.352Z</time></trkpt><trkpt lat="44.3560425" lon="8.0537724"><ele>449.0</ele><time>2026-05-02T17:19:11.35Z</time></trkpt><trkpt lat="44.3561889" lon="8.0536679"><ele>449.0</ele><time>2026-05-02T17:19:12.352Z</time></trkpt><trkpt lat="44.3563195" lon="8.0535425"><ele>449.0</ele><time>2026-05-02T17:19:13.35Z</time></trkpt><trkpt lat="44.3564393" lon="8.0534056"><ele>449.5</ele><time>2026-05-02T17:19:14.348Z</time></trkpt><trkpt lat="44.3565506" lon="8.0532606"><ele>450.0</ele><time>2026-05-02T17:19:15.353Z</time></trkpt><trkpt lat="44.3566596" lon="8.053123"><ele>450.5</ele><time>2026-05-02T17:19:16.353Z</time></trkpt><trkpt lat="44.356781" lon="8.0530114"><ele>451.0</ele><time>2026-05-02T17:19:17.354Z</time></trkpt><trkpt lat="44.3569224" lon="8.052934"><ele>451.0</ele><time>2026-05-02T17:19:18.349Z</time></trkpt><trkpt lat="44.3570737" lon="8.0528934"><ele>451.0</ele><time>2026-05-02T17:19:19.35Z</time></trkpt><trkpt lat="44.35722" lon="8.0529015"><ele>451.0</ele><time>2026-05-02T17:19:20.349Z</time></trkpt><trkpt lat="44.357357" lon="8.0529572"><ele>451.0</ele><time>2026-05-02T17:19:21.351Z</time></trkpt><trkpt lat="44.3574995" lon="8.0530676"><ele>451.33333333333337</ele><time>2026-05-02T17:19:22.352Z</time></trkpt><trkpt lat="44.3576456" lon="8.0532178"><ele>451.66666666666663</ele><time>2026-05-02T17:19:23.349Z</time></trkpt><trkpt lat="44.3578012" lon="8.0534027"><ele>452.0</ele><time>2026-05-02T17:19:24.352Z</time></trkpt><trkpt lat="44.3579642" lon="8.0536098"><ele>451.5</ele><time>2026-05-02T17:19:25.358Z</time></trkpt><trkpt lat="44.3581357" lon="8.0538264"><ele>451.0</ele><time>2026-05-02T17:19:26.35Z</time></trkpt><trkpt lat="44.3583185" lon="8.0540564"><ele>453.5</ele><time>2026-05-02T17:19:27.354Z</time></trkpt><trkpt lat="44.3585031" lon="8.0542848"><ele>456.0</ele><time>2026-05-02T17:19:28.351Z</time></trkpt><trkpt lat="44.3586962" lon="8.0545154"><ele>455.0</ele><time>2026-05-02T17:19:29.35Z</time></trkpt><trkpt lat="44.3588979" lon="8.0547459"><ele>454.0</ele><time>2026-05-02T17:19:30.351Z</time></trkpt><trkpt lat="44.3591047" lon="8.054968"><ele>454.0</ele><time>2026-05-02T17:19:31.352Z</time></trkpt><trkpt lat="44.3593181" lon="8.0551768"><ele>454.0</ele><time>2026-05-02T17:19:32.352Z</time></trkpt><trkpt lat="44.3595405" lon="8.0553691"><ele>447.0</ele><time>2026-05-02T17:19:33.354Z</time></trkpt><trkpt lat="44.3597639" lon="8.0555574"><ele>440.0</ele><time>2026-05-02T17:19:34.353Z</time></trkpt><trkpt lat="44.3599883" lon="8.0557477"><ele>449.5</ele><time>2026-05-02T17:19:35.353Z</time></trkpt><trkpt lat="44.360214" lon="8.0559402"><ele>459.0</ele><time>2026-05-02T17:19:36.354Z</time></trkpt><trkpt lat="44.3604411" lon="8.0561349"><ele>447.5</ele><time>2026-05-02T17:19:37.353Z</time></trkpt><trkpt lat="44.3606683" lon="8.0563271"><ele>436.0</ele><time>2026-05-02T17:19:38.352Z</time></trkpt><trkpt lat="44.3608981" lon="8.0565221"><ele>449.5</ele><time>2026-05-02T17:19:39.353Z</time></trkpt><trkpt lat="44.3611307" lon="8.0567127"><ele>463.0</ele><time>2026-05-02T17:19:40.352Z</time></trkpt><trkpt lat="44.3613654" lon="8.0568991"><ele>452.0</ele><time>2026-05-02T17:19:41.351Z</time></trkpt><trkpt lat="44.3616013" lon="8.0570881"><ele>441.0</ele><time>2026-05-02T17:19:42.357Z</time></trkpt><trkpt lat="44.3618365" lon="8.0572774"><ele>441.0</ele><time>2026-05-02T17:19:43.354Z</time></trkpt><trkpt lat="44.3620689" lon="8.0574668"><ele>441.0</ele><time>2026-05-02T17:19:44.351Z</time></trkpt><trkpt lat="44.3622926" lon="8.0576557"><ele>441.0</ele><time>2026-05-02T17:19:45.354Z</time></trkpt><trkpt lat="44.3625042" lon="8.0578428"><ele>441.0</ele><time>2026-05-02T17:19:46.352Z</time></trkpt><trkpt lat="44.3627038" lon="8.0580144"><ele>441.0</ele><time>2026-05-02T17:19:47.351Z</time></trkpt><trkpt lat="44.3628904" lon="8.0581652"><ele>441.0</ele><time>2026-05-02T17:19:48.355Z</time></trkpt><trkpt lat="44.3630703" lon="8.0582841"><ele>441.0</ele><time>2026-05-02T17:19:49.354Z</time></trkpt><trkpt lat="44.3632496" lon="8.0583852"><ele>445.33333333333337</ele><time>2026-05-02T17:19:50.356Z</time></trkpt><trkpt lat="44.3634311" lon="8.0584737"><ele>449.6666666666667</ele><time>2026-05-02T17:19:51.354Z</time></trkpt><trkpt lat="44.3636083" lon="8.0585467"><ele>454.0</ele><time>2026-05-02T17:19:52.351Z</time></trkpt><trkpt lat="44.3638017" lon="8.0585833"><ele>459.5</ele><time>2026-05-02T17:19:53.357Z</time></trkpt><trkpt lat="44.3640283" lon="8.05856"><ele>465.0</ele><time>2026-05-02T17:19:54.353Z</time></trkpt><trkpt lat="44.3642817" lon="8.0582767"><ele>455.5</ele><time>2026-05-02T17:19:55.358Z</time></trkpt><trkpt lat="44.3645217" lon="8.058135"><ele>446.0</ele><time>2026-05-02T17:19:56.35Z</time></trkpt><trkpt lat="44.3647333" lon="8.0579683"><ele>446.0</ele><time>2026-05-02T17:19:57.356Z</time></trkpt><trkpt lat="44.3649233" lon="8.0578183"><ele>446.0</ele><time>2026-05-02T17:19:58.351Z</time></trkpt><trkpt lat="44.3651" lon="8.0576633"><ele>446.0</ele><time>2026-05-02T17:19:59.352Z</time></trkpt><trkpt lat="44.3652483" lon="8.0574767"><ele>440.0</ele><time>2026-05-02T17:20:00.353Z</time></trkpt><trkpt lat="44.3653733" lon="8.0572517"><ele>434.0</ele><time>2026-05-02T17:20:01.354Z</time></trkpt><trkpt lat="44.3654833" lon="8.05699"><ele>428.0</ele><time>2026-05-02T17:20:02.351Z</time></trkpt><trkpt lat="44.3655767" lon="8.0567117"><ele>433.3333333333333</ele><time>2026-05-02T17:20:03.354Z</time></trkpt><trkpt lat="44.3656667" lon="8.0564317"><ele>438.66666666666663</ele><time>2026-05-02T17:20:04.353Z</time></trkpt><trkpt lat="44.365755" lon="8.0561617"><ele>444.0</ele><time>2026-05-02T17:20:05.353Z</time></trkpt><trkpt lat="44.36584" lon="8.0559033"><ele>440.0</ele><time>2026-05-02T17:20:06.352Z</time></trkpt><trkpt lat="44.3659217" lon="8.05565"><ele>436.0</ele><time>2026-05-02T17:20:07.354Z</time></trkpt><trkpt lat="44.3659983" lon="8.055405"><ele>432.0</ele><time>2026-05-02T17:20:08.353Z</time></trkpt><trkpt lat="44.3660717" lon="8.05517"><ele>430.33333333333337</ele><time>2026-05-02T17:20:09.353Z</time></trkpt><trkpt lat="44.3661417" lon="8.054945"><ele>428.6666666666667</ele><time>2026-05-02T17:20:10.35Z</time></trkpt><trkpt lat="44.3662083" lon="8.0547183"><ele>427.0</ele><time>2026-05-02T17:20:11.352Z</time></trkpt><trkpt lat="44.3662767" lon="8.0544783"><ele>427.0</ele><time>2026-05-02T17:20:12.352Z</time></trkpt><trkpt lat="44.3663367" lon="8.0542217"><ele>427.0</ele><time>2026-05-02T17:20:13.35Z</time></trkpt><trkpt lat="44.3663933" lon="8.0539517"><ele>427.0</ele><time>2026-05-02T17:20:14.352Z</time></trkpt><trkpt lat="44.3664433" lon="8.05366"><ele>438.5</ele><time>2026-05-02T17:20:15.351Z</time></trkpt><trkpt lat="44.3664933" lon="8.053345"><ele>450.0</ele><time>2026-05-02T17:20:16.353Z</time></trkpt><trkpt lat="44.3665317" lon="8.053025"><ele>450.0</ele><time>2026-05-02T17:20:17.349Z</time></trkpt><trkpt lat="44.3665717" lon="8.0527217"><ele>450.0</ele><time>2026-05-02T17:20:18.354Z</time></trkpt><trkpt lat="44.3666133" lon="8.0524317"><ele>450.0</ele><time>2026-05-02T17:20:19.352Z</time></trkpt><trkpt lat="44.3666483" lon="8.05215"><ele>447.66666666666663</ele><time>2026-05-02T17:20:20.353Z</time></trkpt><trkpt lat="44.36668" lon="8.0518767"><ele>445.3333333333333</ele><time>2026-05-02T17:20:21.352Z</time></trkpt><trkpt lat="44.3666933" lon="8.051595"><ele>443.0</ele><time>2026-05-02T17:20:22.353Z</time></trkpt><trkpt lat="44.3666867" lon="8.0512983"><ele>442.5</ele><time>2026-05-02T17:20:23.354Z</time></trkpt><trkpt lat="44.3666783" lon="8.0509817"><ele>442.0</ele><time>2026-05-02T17:20:24.352Z</time></trkpt><trkpt lat="44.3666717" lon="8.0506483"><ele>445.0</ele><time>2026-05-02T17:20:25.354Z</time></trkpt><trkpt lat="44.3666617" lon="8.0503233"><ele>448.0</ele><time>2026-05-02T17:20:26.355Z</time></trkpt><trkpt lat="44.3666517" lon="8.050015"><ele>448.0</ele><time>2026-05-02T17:20:27.35Z</time></trkpt></trkseg></trk></gpx>